<?xml version="1.0" encoding="UTF-8" standalone="no" ?>
<gpx xmlns="http://www.topografix.com/GPX/1/1" xmlns:xsi="http://www.w3.org/2001/XMLSchema-instance" xsi:schemaLocation="http://www.topografix.com/GPX/1/1 http://www.topografix.com/GPX/1/1/gpx.xsd" version="1.1" creator="VisuGPX - https://www.visugpx.com">
  <metadata>
    <name>1-peyruis</name>
  </metadata>
  <trk>
    <name><![CDATA[1-peyruis]]></name>
    <trkseg>
      <trkpt lat="44.10528" lon="6.01292">
        <ele>436</ele>
        <time>2020-08-20T04:21:33Z</time>
      </trkpt>
      <trkpt lat="44.10528" lon="6.01292">
        <ele>436</ele>
        <time>2020-08-20T04:21:33Z</time>
      </trkpt>
      <trkpt lat="44.10533" lon="6.01292">
        <ele>439</ele>
        <time>2020-08-20T04:22:07Z</time>
      </trkpt>
      <trkpt lat="44.10539" lon="6.01296">
        <ele>439</ele>
        <time>2020-08-20T04:22:10Z</time>
      </trkpt>
      <trkpt lat="44.10546" lon="6.01295">
        <ele>439</ele>
        <time>2020-08-20T04:22:13Z</time>
      </trkpt>
      <trkpt lat="44.10565" lon="6.01285">
        <ele>439</ele>
        <time>2020-08-20T04:22:19Z</time>
      </trkpt>
      <trkpt lat="44.10577" lon="6.0128">
        <ele>439</ele>
        <time>2020-08-20T04:22:23Z</time>
      </trkpt>
      <trkpt lat="44.10586" lon="6.01275">
        <ele>439</ele>
        <time>2020-08-20T04:22:26Z</time>
      </trkpt>
      <trkpt lat="44.10594" lon="6.01277">
        <ele>439</ele>
        <time>2020-08-20T04:22:29Z</time>
      </trkpt>
      <trkpt lat="44.10602" lon="6.01275">
        <ele>438</ele>
        <time>2020-08-20T04:22:33Z</time>
      </trkpt>
      <trkpt lat="44.10602" lon="6.0126">
        <ele>437</ele>
        <time>2020-08-20T04:22:37Z</time>
      </trkpt>
      <trkpt lat="44.10603" lon="6.01249">
        <ele>437</ele>
        <time>2020-08-20T04:22:39Z</time>
      </trkpt>
      <trkpt lat="44.10605" lon="6.01238">
        <ele>437</ele>
        <time>2020-08-20T04:22:41Z</time>
      </trkpt>
      <trkpt lat="44.10608" lon="6.01228">
        <ele>436</ele>
        <time>2020-08-20T04:22:43Z</time>
      </trkpt>
      <trkpt lat="44.10613" lon="6.01221">
        <ele>437</ele>
        <time>2020-08-20T04:22:45Z</time>
      </trkpt>
      <trkpt lat="44.10619" lon="6.01216">
        <ele>438</ele>
        <time>2020-08-20T04:22:47Z</time>
      </trkpt>
      <trkpt lat="44.10626" lon="6.01212">
        <ele>438</ele>
        <time>2020-08-20T04:22:49Z</time>
      </trkpt>
      <trkpt lat="44.10645" lon="6.012">
        <ele>437</ele>
        <time>2020-08-20T04:22:55Z</time>
      </trkpt>
      <trkpt lat="44.10653" lon="6.01189">
        <ele>437</ele>
        <time>2020-08-20T04:22:58Z</time>
      </trkpt>
      <trkpt lat="44.10669" lon="6.01177">
        <ele>437</ele>
        <time>2020-08-20T04:23:02Z</time>
      </trkpt>
      <trkpt lat="44.10676" lon="6.01175">
        <ele>435</ele>
        <time>2020-08-20T04:23:04Z</time>
      </trkpt>
      <trkpt lat="44.10692" lon="6.0117">
        <ele>435</ele>
        <time>2020-08-20T04:23:08Z</time>
      </trkpt>
      <trkpt lat="44.107" lon="6.01167">
        <ele>436</ele>
        <time>2020-08-20T04:23:10Z</time>
      </trkpt>
      <trkpt lat="44.10746" lon="6.01143">
        <ele>436</ele>
        <time>2020-08-20T04:23:24Z</time>
      </trkpt>
      <trkpt lat="44.10771" lon="6.01116">
        <ele>436</ele>
        <time>2020-08-20T04:23:32Z</time>
      </trkpt>
      <trkpt lat="44.10783" lon="6.0109">
        <ele>436</ele>
        <time>2020-08-20T04:23:38Z</time>
      </trkpt>
      <trkpt lat="44.10798" lon="6.01039">
        <ele>436</ele>
        <time>2020-08-20T04:23:48Z</time>
      </trkpt>
      <trkpt lat="44.10815" lon="6.01005">
        <ele>435</ele>
        <time>2020-08-20T04:23:56Z</time>
      </trkpt>
      <trkpt lat="44.10822" lon="6.00997">
        <ele>435</ele>
        <time>2020-08-20T04:23:58Z</time>
      </trkpt>
      <trkpt lat="44.10838" lon="6.00985">
        <ele>435</ele>
        <time>2020-08-20T04:24:02Z</time>
      </trkpt>
      <trkpt lat="44.10845" lon="6.00984">
        <ele>435</ele>
        <time>2020-08-20T04:24:04Z</time>
      </trkpt>
      <trkpt lat="44.10854" lon="6.00985">
        <ele>435</ele>
        <time>2020-08-20T04:24:06Z</time>
      </trkpt>
      <trkpt lat="44.10861" lon="6.00989">
        <ele>435</ele>
        <time>2020-08-20T04:24:08Z</time>
      </trkpt>
      <trkpt lat="44.10878" lon="6.01008">
        <ele>435</ele>
        <time>2020-08-20T04:24:14Z</time>
      </trkpt>
      <trkpt lat="44.10888" lon="6.01023">
        <ele>435</ele>
        <time>2020-08-20T04:24:18Z</time>
      </trkpt>
      <trkpt lat="44.10893" lon="6.01028">
        <ele>435</ele>
        <time>2020-08-20T04:24:20Z</time>
      </trkpt>
      <trkpt lat="44.10906" lon="6.01031">
        <ele>434</ele>
        <time>2020-08-20T04:24:24Z</time>
      </trkpt>
      <trkpt lat="44.10918" lon="6.0103">
        <ele>435</ele>
        <time>2020-08-20T04:24:28Z</time>
      </trkpt>
      <trkpt lat="44.10924" lon="6.01029">
        <ele>435</ele>
        <time>2020-08-20T04:24:30Z</time>
      </trkpt>
      <trkpt lat="44.10929" lon="6.01021">
        <ele>436</ele>
        <time>2020-08-20T04:24:33Z</time>
      </trkpt>
      <trkpt lat="44.10959" lon="6.01005">
        <ele>436</ele>
        <time>2020-08-20T04:24:45Z</time>
      </trkpt>
      <trkpt lat="44.10964" lon="6.01001">
        <ele>436</ele>
        <time>2020-08-20T04:24:47Z</time>
      </trkpt>
      <trkpt lat="44.10974" lon="6.00993">
        <ele>436</ele>
        <time>2020-08-20T04:24:51Z</time>
      </trkpt>
      <trkpt lat="44.10976" lon="6.00985">
        <ele>436</ele>
        <time>2020-08-20T04:24:54Z</time>
      </trkpt>
      <trkpt lat="44.10928" lon="6.00912">
        <ele>436</ele>
        <time>2020-08-20T04:25:12Z</time>
      </trkpt>
      <trkpt lat="44.10925" lon="6.00903">
        <ele>437</ele>
        <time>2020-08-20T04:25:14Z</time>
      </trkpt>
      <trkpt lat="44.1092" lon="6.00892">
        <ele>437</ele>
        <time>2020-08-20T04:25:16Z</time>
      </trkpt>
      <trkpt lat="44.10912" lon="6.00875">
        <ele>437</ele>
        <time>2020-08-20T04:25:20Z</time>
      </trkpt>
      <trkpt lat="44.10909" lon="6.00869">
        <ele>437</ele>
        <time>2020-08-20T04:25:22Z</time>
      </trkpt>
      <trkpt lat="44.10904" lon="6.00863">
        <ele>436</ele>
        <time>2020-08-20T04:25:24Z</time>
      </trkpt>
      <trkpt lat="44.10899" lon="6.00856">
        <ele>437</ele>
        <time>2020-08-20T04:25:26Z</time>
      </trkpt>
      <trkpt lat="44.10895" lon="6.0085">
        <ele>438</ele>
        <time>2020-08-20T04:25:28Z</time>
      </trkpt>
      <trkpt lat="44.10888" lon="6.00835">
        <ele>438</ele>
        <time>2020-08-20T04:25:32Z</time>
      </trkpt>
      <trkpt lat="44.10852" lon="6.0077">
        <ele>439</ele>
        <time>2020-08-20T04:25:48Z</time>
      </trkpt>
      <trkpt lat="44.10837" lon="6.00745">
        <ele>438</ele>
        <time>2020-08-20T04:25:53Z</time>
      </trkpt>
      <trkpt lat="44.10835" lon="6.0074">
        <ele>437</ele>
        <time>2020-08-20T04:25:54Z</time>
      </trkpt>
      <trkpt lat="44.10815" lon="6.00707">
        <ele>438</ele>
        <time>2020-08-20T04:26:00Z</time>
      </trkpt>
      <trkpt lat="44.10809" lon="6.00697">
        <ele>436</ele>
        <time>2020-08-20T04:26:02Z</time>
      </trkpt>
      <trkpt lat="44.10804" lon="6.00691">
        <ele>436</ele>
        <time>2020-08-20T04:26:03Z</time>
      </trkpt>
      <trkpt lat="44.10795" lon="6.00681">
        <ele>434</ele>
        <time>2020-08-20T04:26:05Z</time>
      </trkpt>
      <trkpt lat="44.10789" lon="6.00672">
        <ele>435</ele>
        <time>2020-08-20T04:26:07Z</time>
      </trkpt>
      <trkpt lat="44.10786" lon="6.00665">
        <ele>435</ele>
        <time>2020-08-20T04:26:08Z</time>
      </trkpt>
      <trkpt lat="44.10776" lon="6.00645">
        <ele>435</ele>
        <time>2020-08-20T04:26:12Z</time>
      </trkpt>
      <trkpt lat="44.10769" lon="6.00637">
        <ele>437</ele>
        <time>2020-08-20T04:26:15Z</time>
      </trkpt>
      <trkpt lat="44.10764" lon="6.00643">
        <ele>438</ele>
        <time>2020-08-20T04:26:17Z</time>
      </trkpt>
      <trkpt lat="44.10762" lon="6.00646">
        <ele>438</ele>
        <time>2020-08-20T04:26:18Z</time>
      </trkpt>
      <trkpt lat="44.10756" lon="6.00654">
        <ele>437</ele>
        <time>2020-08-20T04:26:20Z</time>
      </trkpt>
      <trkpt lat="44.10748" lon="6.00662">
        <ele>437</ele>
        <time>2020-08-20T04:26:22Z</time>
      </trkpt>
      <trkpt lat="44.10729" lon="6.00672">
        <ele>438</ele>
        <time>2020-08-20T04:26:26Z</time>
      </trkpt>
      <trkpt lat="44.10722" lon="6.00676">
        <ele>437</ele>
        <time>2020-08-20T04:26:27Z</time>
      </trkpt>
      <trkpt lat="44.10674" lon="6.00701">
        <ele>436</ele>
        <time>2020-08-20T04:26:38Z</time>
      </trkpt>
      <trkpt lat="44.10661" lon="6.00711">
        <ele>435</ele>
        <time>2020-08-20T04:26:42Z</time>
      </trkpt>
      <trkpt lat="44.10579" lon="6.00753">
        <ele>435</ele>
        <time>2020-08-20T04:27:01Z</time>
      </trkpt>
      <trkpt lat="44.10569" lon="6.00759">
        <ele>434</ele>
        <time>2020-08-20T04:27:03Z</time>
      </trkpt>
      <trkpt lat="44.10556" lon="6.00767">
        <ele>434</ele>
        <time>2020-08-20T04:27:09Z</time>
      </trkpt>
      <trkpt lat="44.10536" lon="6.0078">
        <ele>434</ele>
        <time>2020-08-20T04:27:16Z</time>
      </trkpt>
      <trkpt lat="44.10529" lon="6.00785">
        <ele>435</ele>
        <time>2020-08-20T04:27:19Z</time>
      </trkpt>
      <trkpt lat="44.1052" lon="6.00789">
        <ele>435</ele>
        <time>2020-08-20T04:27:21Z</time>
      </trkpt>
      <trkpt lat="44.10506" lon="6.00794">
        <ele>435</ele>
        <time>2020-08-20T04:27:24Z</time>
      </trkpt>
      <trkpt lat="44.10491" lon="6.00799">
        <ele>436</ele>
        <time>2020-08-20T04:27:27Z</time>
      </trkpt>
      <trkpt lat="44.10481" lon="6.00803">
        <ele>436</ele>
        <time>2020-08-20T04:27:29Z</time>
      </trkpt>
      <trkpt lat="44.10433" lon="6.00836">
        <ele>435</ele>
        <time>2020-08-20T04:27:41Z</time>
      </trkpt>
      <trkpt lat="44.10426" lon="6.00842">
        <ele>435</ele>
        <time>2020-08-20T04:27:43Z</time>
      </trkpt>
      <trkpt lat="44.10363" lon="6.00903">
        <ele>434</ele>
        <time>2020-08-20T04:27:58Z</time>
      </trkpt>
      <trkpt lat="44.10318" lon="6.00982">
        <ele>434</ele>
        <time>2020-08-20T04:28:15Z</time>
      </trkpt>
      <trkpt lat="44.1031" lon="6.00999">
        <ele>434</ele>
        <time>2020-08-20T04:28:18Z</time>
      </trkpt>
      <trkpt lat="44.10298" lon="6.01014">
        <ele>435</ele>
        <time>2020-08-20T04:28:26Z</time>
      </trkpt>
      <trkpt lat="44.10281" lon="6.01024">
        <ele>436</ele>
        <time>2020-08-20T04:28:33Z</time>
      </trkpt>
      <trkpt lat="44.10268" lon="6.01035">
        <ele>436</ele>
        <time>2020-08-20T04:28:40Z</time>
      </trkpt>
      <trkpt lat="44.10244" lon="6.0104">
        <ele>438</ele>
        <time>2020-08-20T04:28:46Z</time>
      </trkpt>
      <trkpt lat="44.10227" lon="6.01044">
        <ele>438</ele>
        <time>2020-08-20T04:28:51Z</time>
      </trkpt>
      <trkpt lat="44.10157" lon="6.01103">
        <ele>439</ele>
        <time>2020-08-20T04:29:14Z</time>
      </trkpt>
      <trkpt lat="44.10151" lon="6.01111">
        <ele>439</ele>
        <time>2020-08-20T04:29:16Z</time>
      </trkpt>
      <trkpt lat="44.1013" lon="6.01129">
        <ele>439</ele>
        <time>2020-08-20T04:29:21Z</time>
      </trkpt>
      <trkpt lat="44.1012" lon="6.01135">
        <ele>439</ele>
        <time>2020-08-20T04:29:23Z</time>
      </trkpt>
      <trkpt lat="44.10096" lon="6.01135">
        <ele>439</ele>
        <time>2020-08-20T04:29:27Z</time>
      </trkpt>
      <trkpt lat="44.10089" lon="6.01135">
        <ele>439</ele>
        <time>2020-08-20T04:29:28Z</time>
      </trkpt>
      <trkpt lat="44.10078" lon="6.0113">
        <ele>438</ele>
        <time>2020-08-20T04:29:30Z</time>
      </trkpt>
      <trkpt lat="44.1007" lon="6.01124">
        <ele>438</ele>
        <time>2020-08-20T04:29:32Z</time>
      </trkpt>
      <trkpt lat="44.10063" lon="6.01115">
        <ele>438</ele>
        <time>2020-08-20T04:29:34Z</time>
      </trkpt>
      <trkpt lat="44.10061" lon="6.0111">
        <ele>439</ele>
        <time>2020-08-20T04:29:35Z</time>
      </trkpt>
      <trkpt lat="44.10049" lon="6.01092">
        <ele>439</ele>
        <time>2020-08-20T04:29:39Z</time>
      </trkpt>
      <trkpt lat="44.10046" lon="6.01079">
        <ele>439</ele>
        <time>2020-08-20T04:29:41Z</time>
      </trkpt>
      <trkpt lat="44.10164" lon="6.00966">
        <ele>440</ele>
        <time>2020-08-20T04:30:11Z</time>
      </trkpt>
      <trkpt lat="44.1017" lon="6.00959">
        <ele>440</ele>
        <time>2020-08-20T04:30:13Z</time>
      </trkpt>
      <trkpt lat="44.10172" lon="6.00952">
        <ele>440</ele>
        <time>2020-08-20T04:30:15Z</time>
      </trkpt>
      <trkpt lat="44.10173" lon="6.00944">
        <ele>439</ele>
        <time>2020-08-20T04:30:17Z</time>
      </trkpt>
      <trkpt lat="44.1017" lon="6.00934">
        <ele>439</ele>
        <time>2020-08-20T04:30:20Z</time>
      </trkpt>
      <trkpt lat="44.10163" lon="6.00925">
        <ele>438</ele>
        <time>2020-08-20T04:30:31Z</time>
      </trkpt>
      <trkpt lat="44.10161" lon="6.00917">
        <ele>441</ele>
        <time>2020-08-20T04:30:53Z</time>
      </trkpt>
      <trkpt lat="44.10155" lon="6.00907">
        <ele>441</ele>
        <time>2020-08-20T04:30:57Z</time>
      </trkpt>
      <trkpt lat="44.10152" lon="6.00897">
        <ele>441</ele>
        <time>2020-08-20T04:30:59Z</time>
      </trkpt>
      <trkpt lat="44.10147" lon="6.0089">
        <ele>441</ele>
        <time>2020-08-20T04:31:01Z</time>
      </trkpt>
      <trkpt lat="44.10141" lon="6.00889">
        <ele>441</ele>
        <time>2020-08-20T04:31:03Z</time>
      </trkpt>
      <trkpt lat="44.10132" lon="6.00896">
        <ele>441</ele>
        <time>2020-08-20T04:31:07Z</time>
      </trkpt>
      <trkpt lat="44.10117" lon="6.00908">
        <ele>441</ele>
        <time>2020-08-20T04:31:12Z</time>
      </trkpt>
      <trkpt lat="44.10102" lon="6.0092">
        <ele>440</ele>
        <time>2020-08-20T04:31:17Z</time>
      </trkpt>
      <trkpt lat="44.09977" lon="6.00996">
        <ele>440</ele>
        <time>2020-08-20T04:31:48Z</time>
      </trkpt>
      <trkpt lat="44.09892" lon="6.01025">
        <ele>439</ele>
        <time>2020-08-20T04:32:09Z</time>
      </trkpt>
      <trkpt lat="44.09878" lon="6.01026">
        <ele>439</ele>
        <time>2020-08-20T04:32:13Z</time>
      </trkpt>
      <trkpt lat="44.09869" lon="6.01027">
        <ele>440</ele>
        <time>2020-08-20T04:32:15Z</time>
      </trkpt>
      <trkpt lat="44.09861" lon="6.01025">
        <ele>440</ele>
        <time>2020-08-20T04:32:17Z</time>
      </trkpt>
      <trkpt lat="44.09856" lon="6.01017">
        <ele>440</ele>
        <time>2020-08-20T04:32:19Z</time>
      </trkpt>
      <trkpt lat="44.09854" lon="6.00997">
        <ele>440</ele>
        <time>2020-08-20T04:32:23Z</time>
      </trkpt>
      <trkpt lat="44.09877" lon="6.00953">
        <ele>441</ele>
        <time>2020-08-20T04:32:33Z</time>
      </trkpt>
      <trkpt lat="44.09879" lon="6.00942">
        <ele>441</ele>
        <time>2020-08-20T04:32:36Z</time>
      </trkpt>
      <trkpt lat="44.0988" lon="6.00925">
        <ele>441</ele>
        <time>2020-08-20T04:32:40Z</time>
      </trkpt>
      <trkpt lat="44.0988" lon="6.00899">
        <ele>443</ele>
        <time>2020-08-20T04:32:49Z</time>
      </trkpt>
      <trkpt lat="44.09875" lon="6.00888">
        <ele>444</ele>
        <time>2020-08-20T04:32:55Z</time>
      </trkpt>
      <trkpt lat="44.09871" lon="6.00882">
        <ele>445</ele>
        <time>2020-08-20T04:32:58Z</time>
      </trkpt>
      <trkpt lat="44.09868" lon="6.00875">
        <ele>445</ele>
        <time>2020-08-20T04:33:01Z</time>
      </trkpt>
      <trkpt lat="44.09864" lon="6.00871">
        <ele>445</ele>
        <time>2020-08-20T04:33:04Z</time>
      </trkpt>
      <trkpt lat="44.09859" lon="6.00867">
        <ele>445</ele>
        <time>2020-08-20T04:33:07Z</time>
      </trkpt>
      <trkpt lat="44.09855" lon="6.00861">
        <ele>445</ele>
        <time>2020-08-20T04:33:10Z</time>
      </trkpt>
      <trkpt lat="44.09854" lon="6.00849">
        <ele>448</ele>
        <time>2020-08-20T04:33:16Z</time>
      </trkpt>
      <trkpt lat="44.09863" lon="6.00845">
        <ele>448</ele>
        <time>2020-08-20T04:33:20Z</time>
      </trkpt>
      <trkpt lat="44.09867" lon="6.00842">
        <ele>449</ele>
        <time>2020-08-20T04:33:23Z</time>
      </trkpt>
      <trkpt lat="44.09873" lon="6.00832">
        <ele>449</ele>
        <time>2020-08-20T04:33:29Z</time>
      </trkpt>
      <trkpt lat="44.0988" lon="6.00826">
        <ele>450</ele>
        <time>2020-08-20T04:33:33Z</time>
      </trkpt>
      <trkpt lat="44.09884" lon="6.0082">
        <ele>451</ele>
        <time>2020-08-20T04:33:36Z</time>
      </trkpt>
      <trkpt lat="44.09888" lon="6.0081">
        <ele>452</ele>
        <time>2020-08-20T04:33:40Z</time>
      </trkpt>
      <trkpt lat="44.09892" lon="6.00802">
        <ele>452</ele>
        <time>2020-08-20T04:33:43Z</time>
      </trkpt>
      <trkpt lat="44.09897" lon="6.00791">
        <ele>453</ele>
        <time>2020-08-20T04:33:48Z</time>
      </trkpt>
      <trkpt lat="44.09902" lon="6.00783">
        <ele>453</ele>
        <time>2020-08-20T04:33:51Z</time>
      </trkpt>
      <trkpt lat="44.09909" lon="6.00777">
        <ele>454</ele>
        <time>2020-08-20T04:33:55Z</time>
      </trkpt>
      <trkpt lat="44.09972" lon="6.00713">
        <ele>457</ele>
        <time>2020-08-20T04:34:26Z</time>
      </trkpt>
      <trkpt lat="44.09983" lon="6.00702">
        <ele>458</ele>
        <time>2020-08-20T04:34:33Z</time>
      </trkpt>
      <trkpt lat="44.10014" lon="6.00682">
        <ele>460</ele>
        <time>2020-08-20T04:34:48Z</time>
      </trkpt>
      <trkpt lat="44.10009" lon="6.00698">
        <ele>462</ele>
        <time>2020-08-20T04:34:59Z</time>
      </trkpt>
      <trkpt lat="44.10004" lon="6.007">
        <ele>463</ele>
        <time>2020-08-20T04:35:02Z</time>
      </trkpt>
      <trkpt lat="44.09998" lon="6.00707">
        <ele>464</ele>
        <time>2020-08-20T04:35:08Z</time>
      </trkpt>
      <trkpt lat="44.09982" lon="6.00701">
        <ele>466</ele>
        <time>2020-08-20T04:35:16Z</time>
      </trkpt>
      <trkpt lat="44.09976" lon="6.00698">
        <ele>467</ele>
        <time>2020-08-20T04:35:22Z</time>
      </trkpt>
      <trkpt lat="44.09971" lon="6.00692">
        <ele>468</ele>
        <time>2020-08-20T04:35:25Z</time>
      </trkpt>
      <trkpt lat="44.09965" lon="6.0069">
        <ele>468</ele>
        <time>2020-08-20T04:35:30Z</time>
      </trkpt>
      <trkpt lat="44.09952" lon="6.00683">
        <ele>471</ele>
        <time>2020-08-20T04:35:41Z</time>
      </trkpt>
      <trkpt lat="44.09917" lon="6.00694">
        <ele>476</ele>
        <time>2020-08-20T04:36:09Z</time>
      </trkpt>
      <trkpt lat="44.09911" lon="6.00693">
        <ele>477</ele>
        <time>2020-08-20T04:36:13Z</time>
      </trkpt>
      <trkpt lat="44.09898" lon="6.007">
        <ele>479</ele>
        <time>2020-08-20T04:36:24Z</time>
      </trkpt>
      <trkpt lat="44.09892" lon="6.007">
        <ele>479</ele>
        <time>2020-08-20T04:36:27Z</time>
      </trkpt>
      <trkpt lat="44.09885" lon="6.00698">
        <ele>480</ele>
        <time>2020-08-20T04:36:30Z</time>
      </trkpt>
      <trkpt lat="44.09878" lon="6.00697">
        <ele>480</ele>
        <time>2020-08-20T04:36:34Z</time>
      </trkpt>
      <trkpt lat="44.09873" lon="6.00692">
        <ele>480</ele>
        <time>2020-08-20T04:36:37Z</time>
      </trkpt>
      <trkpt lat="44.09866" lon="6.00687">
        <ele>481</ele>
        <time>2020-08-20T04:36:41Z</time>
      </trkpt>
      <trkpt lat="44.09853" lon="6.00665">
        <ele>482</ele>
        <time>2020-08-20T04:36:49Z</time>
      </trkpt>
      <trkpt lat="44.09848" lon="6.00658">
        <ele>482</ele>
        <time>2020-08-20T04:36:52Z</time>
      </trkpt>
      <trkpt lat="44.09839" lon="6.00642">
        <ele>482</ele>
        <time>2020-08-20T04:36:58Z</time>
      </trkpt>
      <trkpt lat="44.09799" lon="6.00575">
        <ele>484</ele>
        <time>2020-08-20T04:37:18Z</time>
      </trkpt>
      <trkpt lat="44.09792" lon="6.00554">
        <ele>484</ele>
        <time>2020-08-20T04:37:23Z</time>
      </trkpt>
      <trkpt lat="44.09787" lon="6.00543">
        <ele>484</ele>
        <time>2020-08-20T04:37:26Z</time>
      </trkpt>
      <trkpt lat="44.09781" lon="6.00525">
        <ele>484</ele>
        <time>2020-08-20T04:37:30Z</time>
      </trkpt>
      <trkpt lat="44.09778" lon="6.00517">
        <ele>484</ele>
        <time>2020-08-20T04:37:32Z</time>
      </trkpt>
      <trkpt lat="44.09762" lon="6.00465">
        <ele>483</ele>
        <time>2020-08-20T04:37:42Z</time>
      </trkpt>
      <trkpt lat="44.09757" lon="6.00455">
        <ele>484</ele>
        <time>2020-08-20T04:37:44Z</time>
      </trkpt>
      <trkpt lat="44.09752" lon="6.00431">
        <ele>484</ele>
        <time>2020-08-20T04:37:48Z</time>
      </trkpt>
      <trkpt lat="44.09752" lon="6.00426">
        <ele>484</ele>
        <time>2020-08-20T04:37:49Z</time>
      </trkpt>
      <trkpt lat="44.09757" lon="6.00416">
        <ele>484</ele>
        <time>2020-08-20T04:37:51Z</time>
      </trkpt>
      <trkpt lat="44.09764" lon="6.00411">
        <ele>484</ele>
        <time>2020-08-20T04:37:53Z</time>
      </trkpt>
      <trkpt lat="44.0978" lon="6.00403">
        <ele>484</ele>
        <time>2020-08-20T04:37:57Z</time>
      </trkpt>
      <trkpt lat="44.09909" lon="6.00353">
        <ele>485</ele>
        <time>2020-08-20T04:38:29Z</time>
      </trkpt>
      <trkpt lat="44.09983" lon="6.00322">
        <ele>486</ele>
        <time>2020-08-20T04:38:47Z</time>
      </trkpt>
      <trkpt lat="44.1002" lon="6.00277">
        <ele>487</ele>
        <time>2020-08-20T04:38:59Z</time>
      </trkpt>
      <trkpt lat="44.10025" lon="6.00268">
        <ele>487</ele>
        <time>2020-08-20T04:39:01Z</time>
      </trkpt>
      <trkpt lat="44.10024" lon="6.00244">
        <ele>488</ele>
        <time>2020-08-20T04:39:05Z</time>
      </trkpt>
      <trkpt lat="44.10015" lon="6.00165">
        <ele>489</ele>
        <time>2020-08-20T04:39:21Z</time>
      </trkpt>
      <trkpt lat="44.10017" lon="6.00139">
        <ele>489</ele>
        <time>2020-08-20T04:39:27Z</time>
      </trkpt>
      <trkpt lat="44.10023" lon="6.0012">
        <ele>490</ele>
        <time>2020-08-20T04:39:31Z</time>
      </trkpt>
      <trkpt lat="44.10025" lon="6.0011">
        <ele>490</ele>
        <time>2020-08-20T04:39:33Z</time>
      </trkpt>
      <trkpt lat="44.10004" lon="5.99981">
        <ele>491</ele>
        <time>2020-08-20T04:40:01Z</time>
      </trkpt>
      <trkpt lat="44.10002" lon="5.99971">
        <ele>492</ele>
        <time>2020-08-20T04:40:03Z</time>
      </trkpt>
      <trkpt lat="44.09992" lon="5.99918">
        <ele>492</ele>
        <time>2020-08-20T04:40:15Z</time>
      </trkpt>
      <trkpt lat="44.09992" lon="5.99908">
        <ele>492</ele>
        <time>2020-08-20T04:40:17Z</time>
      </trkpt>
      <trkpt lat="44.0999" lon="5.99878">
        <ele>493</ele>
        <time>2020-08-20T04:40:23Z</time>
      </trkpt>
      <trkpt lat="44.09979" lon="5.99836">
        <ele>494</ele>
        <time>2020-08-20T04:40:33Z</time>
      </trkpt>
      <trkpt lat="44.09973" lon="5.99819">
        <ele>494</ele>
        <time>2020-08-20T04:40:37Z</time>
      </trkpt>
      <trkpt lat="44.09968" lon="5.99782">
        <ele>496</ele>
        <time>2020-08-20T04:40:46Z</time>
      </trkpt>
      <trkpt lat="44.09965" lon="5.99764">
        <ele>496</ele>
        <time>2020-08-20T04:40:50Z</time>
      </trkpt>
      <trkpt lat="44.09951" lon="5.99702">
        <ele>498</ele>
        <time>2020-08-20T04:41:03Z</time>
      </trkpt>
      <trkpt lat="44.09949" lon="5.99693">
        <ele>498</ele>
        <time>2020-08-20T04:41:05Z</time>
      </trkpt>
      <trkpt lat="44.09949" lon="5.99683">
        <ele>498</ele>
        <time>2020-08-20T04:41:07Z</time>
      </trkpt>
      <trkpt lat="44.09955" lon="5.99661">
        <ele>498</ele>
        <time>2020-08-20T04:41:11Z</time>
      </trkpt>
      <trkpt lat="44.09975" lon="5.99623">
        <ele>500</ele>
        <time>2020-08-20T04:41:22Z</time>
      </trkpt>
      <trkpt lat="44.0998" lon="5.99608">
        <ele>500</ele>
        <time>2020-08-20T04:41:26Z</time>
      </trkpt>
      <trkpt lat="44.09983" lon="5.996">
        <ele>501</ele>
        <time>2020-08-20T04:41:28Z</time>
      </trkpt>
      <trkpt lat="44.09986" lon="5.99592">
        <ele>501</ele>
        <time>2020-08-20T04:41:30Z</time>
      </trkpt>
      <trkpt lat="44.09988" lon="5.99583">
        <ele>502</ele>
        <time>2020-08-20T04:41:32Z</time>
      </trkpt>
      <trkpt lat="44.09993" lon="5.99569">
        <ele>502</ele>
        <time>2020-08-20T04:41:36Z</time>
      </trkpt>
      <trkpt lat="44.09996" lon="5.99561">
        <ele>502</ele>
        <time>2020-08-20T04:41:38Z</time>
      </trkpt>
      <trkpt lat="44.10032" lon="5.99505">
        <ele>505</ele>
        <time>2020-08-20T04:41:58Z</time>
      </trkpt>
      <trkpt lat="44.10034" lon="5.99495">
        <ele>505</ele>
        <time>2020-08-20T04:42:01Z</time>
      </trkpt>
      <trkpt lat="44.10038" lon="5.99486">
        <ele>506</ele>
        <time>2020-08-20T04:42:04Z</time>
      </trkpt>
      <trkpt lat="44.10041" lon="5.99458">
        <ele>507</ele>
        <time>2020-08-20T04:42:11Z</time>
      </trkpt>
      <trkpt lat="44.10043" lon="5.9944">
        <ele>508</ele>
        <time>2020-08-20T04:42:17Z</time>
      </trkpt>
      <trkpt lat="44.10037" lon="5.99428">
        <ele>508</ele>
        <time>2020-08-20T04:42:21Z</time>
      </trkpt>
      <trkpt lat="44.10033" lon="5.9942">
        <ele>508</ele>
        <time>2020-08-20T04:42:24Z</time>
      </trkpt>
      <trkpt lat="44.1001" lon="5.99419">
        <ele>509</ele>
        <time>2020-08-20T04:42:32Z</time>
      </trkpt>
      <trkpt lat="44.10004" lon="5.99419">
        <ele>509</ele>
        <time>2020-08-20T04:42:34Z</time>
      </trkpt>
      <trkpt lat="44.09999" lon="5.9942">
        <ele>510</ele>
        <time>2020-08-20T04:42:36Z</time>
      </trkpt>
      <trkpt lat="44.09994" lon="5.99422">
        <ele>510</ele>
        <time>2020-08-20T04:42:38Z</time>
      </trkpt>
      <trkpt lat="44.09988" lon="5.99422">
        <ele>510</ele>
        <time>2020-08-20T04:42:40Z</time>
      </trkpt>
      <trkpt lat="44.09982" lon="5.99422">
        <ele>510</ele>
        <time>2020-08-20T04:42:43Z</time>
      </trkpt>
      <trkpt lat="44.0993" lon="5.99411">
        <ele>513</ele>
        <time>2020-08-20T04:43:03Z</time>
      </trkpt>
      <trkpt lat="44.09924" lon="5.99409">
        <ele>513</ele>
        <time>2020-08-20T04:43:05Z</time>
      </trkpt>
      <trkpt lat="44.09909" lon="5.994">
        <ele>513</ele>
        <time>2020-08-20T04:43:11Z</time>
      </trkpt>
      <trkpt lat="44.09899" lon="5.99392">
        <ele>514</ele>
        <time>2020-08-20T04:43:15Z</time>
      </trkpt>
      <trkpt lat="44.09882" lon="5.9938">
        <ele>515</ele>
        <time>2020-08-20T04:43:21Z</time>
      </trkpt>
      <trkpt lat="44.09877" lon="5.99377">
        <ele>515</ele>
        <time>2020-08-20T04:43:23Z</time>
      </trkpt>
      <trkpt lat="44.09872" lon="5.99376">
        <ele>515</ele>
        <time>2020-08-20T04:43:25Z</time>
      </trkpt>
      <trkpt lat="44.09867" lon="5.99379">
        <ele>515</ele>
        <time>2020-08-20T04:43:27Z</time>
      </trkpt>
      <trkpt lat="44.0986" lon="5.99385">
        <ele>515</ele>
        <time>2020-08-20T04:43:30Z</time>
      </trkpt>
      <trkpt lat="44.09773" lon="5.99361">
        <ele>516</ele>
        <time>2020-08-20T04:44:02Z</time>
      </trkpt>
      <trkpt lat="44.09699" lon="5.99333">
        <ele>520</ele>
        <time>2020-08-20T04:44:33Z</time>
      </trkpt>
      <trkpt lat="44.0969" lon="5.99333">
        <ele>521</ele>
        <time>2020-08-20T04:44:37Z</time>
      </trkpt>
      <trkpt lat="44.09683" lon="5.99332">
        <ele>521</ele>
        <time>2020-08-20T04:44:40Z</time>
      </trkpt>
      <trkpt lat="44.09675" lon="5.9933">
        <ele>522</ele>
        <time>2020-08-20T04:44:43Z</time>
      </trkpt>
      <trkpt lat="44.09665" lon="5.99327">
        <ele>521</ele>
        <time>2020-08-20T04:44:49Z</time>
      </trkpt>
      <trkpt lat="44.09659" lon="5.99328">
        <ele>522</ele>
        <time>2020-08-20T04:44:52Z</time>
      </trkpt>
      <trkpt lat="44.09654" lon="5.99332">
        <ele>523</ele>
        <time>2020-08-20T04:44:55Z</time>
      </trkpt>
      <trkpt lat="44.09646" lon="5.99332">
        <ele>523</ele>
        <time>2020-08-20T04:44:59Z</time>
      </trkpt>
      <trkpt lat="44.0962" lon="5.99324">
        <ele>525</ele>
        <time>2020-08-20T04:45:13Z</time>
      </trkpt>
      <trkpt lat="44.09614" lon="5.9932">
        <ele>525</ele>
        <time>2020-08-20T04:45:15Z</time>
      </trkpt>
      <trkpt lat="44.09609" lon="5.99315">
        <ele>525</ele>
        <time>2020-08-20T04:45:17Z</time>
      </trkpt>
      <trkpt lat="44.09597" lon="5.99306">
        <ele>527</ele>
        <time>2020-08-20T04:45:28Z</time>
      </trkpt>
      <trkpt lat="44.09591" lon="5.99302">
        <ele>527</ele>
        <time>2020-08-20T04:45:31Z</time>
      </trkpt>
      <trkpt lat="44.09585" lon="5.99302">
        <ele>527</ele>
        <time>2020-08-20T04:45:34Z</time>
      </trkpt>
      <trkpt lat="44.0958" lon="5.99301">
        <ele>528</ele>
        <time>2020-08-20T04:45:39Z</time>
      </trkpt>
      <trkpt lat="44.09574" lon="5.99296">
        <ele>528</ele>
        <time>2020-08-20T04:45:43Z</time>
      </trkpt>
      <trkpt lat="44.09567" lon="5.99293">
        <ele>528</ele>
        <time>2020-08-20T04:45:47Z</time>
      </trkpt>
      <trkpt lat="44.09544" lon="5.99283">
        <ele>531</ele>
        <time>2020-08-20T04:46:04Z</time>
      </trkpt>
      <trkpt lat="44.09539" lon="5.99278">
        <ele>532</ele>
        <time>2020-08-20T04:46:07Z</time>
      </trkpt>
      <trkpt lat="44.09533" lon="5.99276">
        <ele>532</ele>
        <time>2020-08-20T04:46:11Z</time>
      </trkpt>
      <trkpt lat="44.09527" lon="5.9927">
        <ele>532</ele>
        <time>2020-08-20T04:46:14Z</time>
      </trkpt>
      <trkpt lat="44.09524" lon="5.99263">
        <ele>532</ele>
        <time>2020-08-20T04:46:17Z</time>
      </trkpt>
      <trkpt lat="44.09518" lon="5.99263">
        <ele>533</ele>
        <time>2020-08-20T04:46:22Z</time>
      </trkpt>
      <trkpt lat="44.09513" lon="5.99259">
        <ele>534</ele>
        <time>2020-08-20T04:46:27Z</time>
      </trkpt>
      <trkpt lat="44.09506" lon="5.9926">
        <ele>534</ele>
        <time>2020-08-20T04:46:30Z</time>
      </trkpt>
      <trkpt lat="44.095" lon="5.99255">
        <ele>535</ele>
        <time>2020-08-20T04:46:33Z</time>
      </trkpt>
      <trkpt lat="44.09495" lon="5.99251">
        <ele>535</ele>
        <time>2020-08-20T04:46:37Z</time>
      </trkpt>
      <trkpt lat="44.09474" lon="5.99234">
        <ele>538</ele>
        <time>2020-08-20T04:46:51Z</time>
      </trkpt>
      <trkpt lat="44.09469" lon="5.99232">
        <ele>539</ele>
        <time>2020-08-20T04:46:56Z</time>
      </trkpt>
      <trkpt lat="44.09449" lon="5.99212">
        <ele>543</ele>
        <time>2020-08-20T04:47:15Z</time>
      </trkpt>
      <trkpt lat="44.09443" lon="5.99214">
        <ele>543</ele>
        <time>2020-08-20T04:47:20Z</time>
      </trkpt>
      <trkpt lat="44.09436" lon="5.9921">
        <ele>544</ele>
        <time>2020-08-20T04:47:26Z</time>
      </trkpt>
      <trkpt lat="44.09427" lon="5.99199">
        <ele>547</ele>
        <time>2020-08-20T04:47:36Z</time>
      </trkpt>
      <trkpt lat="44.09425" lon="5.99192">
        <ele>548</ele>
        <time>2020-08-20T04:47:41Z</time>
      </trkpt>
      <trkpt lat="44.09425" lon="5.99181">
        <ele>549</ele>
        <time>2020-08-20T04:47:46Z</time>
      </trkpt>
      <trkpt lat="44.0943" lon="5.99176">
        <ele>549</ele>
        <time>2020-08-20T04:47:48Z</time>
      </trkpt>
      <trkpt lat="44.09435" lon="5.99174">
        <ele>550</ele>
        <time>2020-08-20T04:47:52Z</time>
      </trkpt>
      <trkpt lat="44.09441" lon="5.99175">
        <ele>550</ele>
        <time>2020-08-20T04:47:58Z</time>
      </trkpt>
      <trkpt lat="44.09473" lon="5.99142">
        <ele>553</ele>
        <time>2020-08-20T04:48:26Z</time>
      </trkpt>
      <trkpt lat="44.09479" lon="5.9914">
        <ele>554</ele>
        <time>2020-08-20T04:48:29Z</time>
      </trkpt>
      <trkpt lat="44.09483" lon="5.99132">
        <ele>554</ele>
        <time>2020-08-20T04:48:31Z</time>
      </trkpt>
      <trkpt lat="44.09488" lon="5.9913">
        <ele>555</ele>
        <time>2020-08-20T04:48:35Z</time>
      </trkpt>
      <trkpt lat="44.09493" lon="5.99123">
        <ele>555</ele>
        <time>2020-08-20T04:48:39Z</time>
      </trkpt>
      <trkpt lat="44.09496" lon="5.99116">
        <ele>556</ele>
        <time>2020-08-20T04:48:43Z</time>
      </trkpt>
      <trkpt lat="44.09502" lon="5.99112">
        <ele>557</ele>
        <time>2020-08-20T04:48:47Z</time>
      </trkpt>
      <trkpt lat="44.09512" lon="5.99102">
        <ele>557</ele>
        <time>2020-08-20T04:48:53Z</time>
      </trkpt>
      <trkpt lat="44.09516" lon="5.99095">
        <ele>558</ele>
        <time>2020-08-20T04:48:57Z</time>
      </trkpt>
      <trkpt lat="44.09529" lon="5.99086">
        <ele>556</ele>
        <time>2020-08-20T04:49:06Z</time>
      </trkpt>
      <trkpt lat="44.09536" lon="5.99081">
        <ele>556</ele>
        <time>2020-08-20T04:49:09Z</time>
      </trkpt>
      <trkpt lat="44.09542" lon="5.99078">
        <ele>556</ele>
        <time>2020-08-20T04:49:11Z</time>
      </trkpt>
      <trkpt lat="44.0955" lon="5.9907">
        <ele>555</ele>
        <time>2020-08-20T04:49:13Z</time>
      </trkpt>
      <trkpt lat="44.09557" lon="5.99026">
        <ele>561</ele>
        <time>2020-08-20T04:49:39Z</time>
      </trkpt>
      <trkpt lat="44.09555" lon="5.99015">
        <ele>560</ele>
        <time>2020-08-20T04:49:45Z</time>
      </trkpt>
      <trkpt lat="44.09559" lon="5.99005">
        <ele>560</ele>
        <time>2020-08-20T04:49:53Z</time>
      </trkpt>
      <trkpt lat="44.09564" lon="5.98996">
        <ele>561</ele>
        <time>2020-08-20T04:49:56Z</time>
      </trkpt>
      <trkpt lat="44.09566" lon="5.98988">
        <ele>562</ele>
        <time>2020-08-20T04:50:00Z</time>
      </trkpt>
      <trkpt lat="44.09568" lon="5.98961">
        <ele>564</ele>
        <time>2020-08-20T04:50:16Z</time>
      </trkpt>
      <trkpt lat="44.09559" lon="5.98952">
        <ele>567</ele>
        <time>2020-08-20T04:50:31Z</time>
      </trkpt>
      <trkpt lat="44.09555" lon="5.98948">
        <ele>567</ele>
        <time>2020-08-20T04:50:34Z</time>
      </trkpt>
      <trkpt lat="44.09547" lon="5.98948">
        <ele>564</ele>
        <time>2020-08-20T04:50:39Z</time>
      </trkpt>
      <trkpt lat="44.09541" lon="5.98952">
        <ele>565</ele>
        <time>2020-08-20T04:50:49Z</time>
      </trkpt>
      <trkpt lat="44.09528" lon="5.98952">
        <ele>565</ele>
        <time>2020-08-20T04:50:58Z</time>
      </trkpt>
      <trkpt lat="44.0952" lon="5.98951">
        <ele>565</ele>
        <time>2020-08-20T04:51:00Z</time>
      </trkpt>
      <trkpt lat="44.09511" lon="5.9895">
        <ele>565</ele>
        <time>2020-08-20T04:51:02Z</time>
      </trkpt>
      <trkpt lat="44.09502" lon="5.9895">
        <ele>564</ele>
        <time>2020-08-20T04:51:04Z</time>
      </trkpt>
      <trkpt lat="44.09492" lon="5.98945">
        <ele>564</ele>
        <time>2020-08-20T04:51:06Z</time>
      </trkpt>
      <trkpt lat="44.09485" lon="5.98947">
        <ele>563</ele>
        <time>2020-08-20T04:51:09Z</time>
      </trkpt>
      <trkpt lat="44.09476" lon="5.98939">
        <ele>564</ele>
        <time>2020-08-20T04:51:13Z</time>
      </trkpt>
      <trkpt lat="44.09458" lon="5.98917">
        <ele>564</ele>
        <time>2020-08-20T04:51:23Z</time>
      </trkpt>
      <trkpt lat="44.09454" lon="5.98905">
        <ele>564</ele>
        <time>2020-08-20T04:51:26Z</time>
      </trkpt>
      <trkpt lat="44.09447" lon="5.98892">
        <ele>563</ele>
        <time>2020-08-20T04:51:30Z</time>
      </trkpt>
      <trkpt lat="44.09443" lon="5.98883">
        <ele>563</ele>
        <time>2020-08-20T04:51:32Z</time>
      </trkpt>
      <trkpt lat="44.09437" lon="5.98877">
        <ele>562</ele>
        <time>2020-08-20T04:51:34Z</time>
      </trkpt>
      <trkpt lat="44.09435" lon="5.98868">
        <ele>559</ele>
        <time>2020-08-20T04:51:37Z</time>
      </trkpt>
      <trkpt lat="44.09437" lon="5.98857">
        <ele>558</ele>
        <time>2020-08-20T04:51:39Z</time>
      </trkpt>
      <trkpt lat="44.09449" lon="5.98835">
        <ele>558</ele>
        <time>2020-08-20T04:51:44Z</time>
      </trkpt>
      <trkpt lat="44.09467" lon="5.9881">
        <ele>557</ele>
        <time>2020-08-20T04:51:52Z</time>
      </trkpt>
      <trkpt lat="44.09478" lon="5.98793">
        <ele>557</ele>
        <time>2020-08-20T04:51:58Z</time>
      </trkpt>
      <trkpt lat="44.09483" lon="5.98785">
        <ele>557</ele>
        <time>2020-08-20T04:52:01Z</time>
      </trkpt>
      <trkpt lat="44.09489" lon="5.98781">
        <ele>557</ele>
        <time>2020-08-20T04:52:04Z</time>
      </trkpt>
      <trkpt lat="44.09508" lon="5.98743">
        <ele>558</ele>
        <time>2020-08-20T04:52:19Z</time>
      </trkpt>
      <trkpt lat="44.09512" lon="5.98733">
        <ele>558</ele>
        <time>2020-08-20T04:52:22Z</time>
      </trkpt>
      <trkpt lat="44.09523" lon="5.98683">
        <ele>560</ele>
        <time>2020-08-20T04:52:37Z</time>
      </trkpt>
      <trkpt lat="44.09589" lon="5.98612">
        <ele>562</ele>
        <time>2020-08-20T04:53:05Z</time>
      </trkpt>
      <trkpt lat="44.09594" lon="5.98602">
        <ele>560</ele>
        <time>2020-08-20T04:53:09Z</time>
      </trkpt>
      <trkpt lat="44.09599" lon="5.98592">
        <ele>562</ele>
        <time>2020-08-20T04:53:12Z</time>
      </trkpt>
      <trkpt lat="44.09616" lon="5.98566">
        <ele>562</ele>
        <time>2020-08-20T04:53:21Z</time>
      </trkpt>
      <trkpt lat="44.09627" lon="5.98541">
        <ele>563</ele>
        <time>2020-08-20T04:53:31Z</time>
      </trkpt>
      <trkpt lat="44.09632" lon="5.98537">
        <ele>564</ele>
        <time>2020-08-20T04:53:34Z</time>
      </trkpt>
      <trkpt lat="44.09638" lon="5.9853">
        <ele>565</ele>
        <time>2020-08-20T04:53:38Z</time>
      </trkpt>
      <trkpt lat="44.09642" lon="5.98525">
        <ele>566</ele>
        <time>2020-08-20T04:53:41Z</time>
      </trkpt>
      <trkpt lat="44.09648" lon="5.98521">
        <ele>566</ele>
        <time>2020-08-20T04:53:45Z</time>
      </trkpt>
      <trkpt lat="44.09657" lon="5.98509">
        <ele>568</ele>
        <time>2020-08-20T04:53:51Z</time>
      </trkpt>
      <trkpt lat="44.09667" lon="5.98509">
        <ele>568</ele>
        <time>2020-08-20T04:53:56Z</time>
      </trkpt>
      <trkpt lat="44.09688" lon="5.98493">
        <ele>571</ele>
        <time>2020-08-20T04:54:10Z</time>
      </trkpt>
      <trkpt lat="44.09705" lon="5.9849">
        <ele>572</ele>
        <time>2020-08-20T04:54:18Z</time>
      </trkpt>
      <trkpt lat="44.09712" lon="5.9849">
        <ele>572</ele>
        <time>2020-08-20T04:54:22Z</time>
      </trkpt>
      <trkpt lat="44.09724" lon="5.98486">
        <ele>573</ele>
        <time>2020-08-20T04:54:30Z</time>
      </trkpt>
      <trkpt lat="44.09729" lon="5.98488">
        <ele>574</ele>
        <time>2020-08-20T04:54:35Z</time>
      </trkpt>
      <trkpt lat="44.09736" lon="5.98476">
        <ele>575</ele>
        <time>2020-08-20T04:54:42Z</time>
      </trkpt>
      <trkpt lat="44.09743" lon="5.98469">
        <ele>576</ele>
        <time>2020-08-20T04:54:45Z</time>
      </trkpt>
      <trkpt lat="44.09753" lon="5.98468">
        <ele>575</ele>
        <time>2020-08-20T04:54:49Z</time>
      </trkpt>
      <trkpt lat="44.09761" lon="5.98469">
        <ele>576</ele>
        <time>2020-08-20T04:54:52Z</time>
      </trkpt>
      <trkpt lat="44.09772" lon="5.98475">
        <ele>577</ele>
        <time>2020-08-20T04:54:59Z</time>
      </trkpt>
      <trkpt lat="44.09785" lon="5.98458">
        <ele>580</ele>
        <time>2020-08-20T04:55:18Z</time>
      </trkpt>
      <trkpt lat="44.09792" lon="5.98454">
        <ele>580</ele>
        <time>2020-08-20T04:55:20Z</time>
      </trkpt>
      <trkpt lat="44.098" lon="5.98454">
        <ele>580</ele>
        <time>2020-08-20T04:55:24Z</time>
      </trkpt>
      <trkpt lat="44.09808" lon="5.98458">
        <ele>580</ele>
        <time>2020-08-20T04:55:28Z</time>
      </trkpt>
      <trkpt lat="44.09814" lon="5.98455">
        <ele>580</ele>
        <time>2020-08-20T04:55:31Z</time>
      </trkpt>
      <trkpt lat="44.09822" lon="5.98457">
        <ele>580</ele>
        <time>2020-08-20T04:55:36Z</time>
      </trkpt>
      <trkpt lat="44.09828" lon="5.98458">
        <ele>581</ele>
        <time>2020-08-20T04:55:41Z</time>
      </trkpt>
      <trkpt lat="44.09834" lon="5.98454">
        <ele>581</ele>
        <time>2020-08-20T04:55:46Z</time>
      </trkpt>
      <trkpt lat="44.09846" lon="5.98452">
        <ele>582</ele>
        <time>2020-08-20T04:55:53Z</time>
      </trkpt>
      <trkpt lat="44.09841" lon="5.98458">
        <ele>583</ele>
        <time>2020-08-20T04:56:11Z</time>
      </trkpt>
      <trkpt lat="44.09822" lon="5.98456">
        <ele>583</ele>
        <time>2020-08-20T04:56:29Z</time>
      </trkpt>
      <trkpt lat="44.09814" lon="5.98449">
        <ele>584</ele>
        <time>2020-08-20T04:56:36Z</time>
      </trkpt>
      <trkpt lat="44.09815" lon="5.98424">
        <ele>584</ele>
        <time>2020-08-20T04:56:44Z</time>
      </trkpt>
      <trkpt lat="44.09825" lon="5.98408">
        <ele>585</ele>
        <time>2020-08-20T04:56:48Z</time>
      </trkpt>
      <trkpt lat="44.09839" lon="5.984">
        <ele>585</ele>
        <time>2020-08-20T04:56:54Z</time>
      </trkpt>
      <trkpt lat="44.09845" lon="5.98397">
        <ele>586</ele>
        <time>2020-08-20T04:56:58Z</time>
      </trkpt>
      <trkpt lat="44.09852" lon="5.98391">
        <ele>586</ele>
        <time>2020-08-20T04:57:02Z</time>
      </trkpt>
      <trkpt lat="44.09875" lon="5.98382">
        <ele>587</ele>
        <time>2020-08-20T04:57:13Z</time>
      </trkpt>
      <trkpt lat="44.09887" lon="5.98371">
        <ele>588</ele>
        <time>2020-08-20T04:57:20Z</time>
      </trkpt>
      <trkpt lat="44.09893" lon="5.98369">
        <ele>589</ele>
        <time>2020-08-20T04:57:23Z</time>
      </trkpt>
      <trkpt lat="44.09904" lon="5.98367">
        <ele>589</ele>
        <time>2020-08-20T04:57:28Z</time>
      </trkpt>
      <trkpt lat="44.09912" lon="5.98368">
        <ele>589</ele>
        <time>2020-08-20T04:57:33Z</time>
      </trkpt>
      <trkpt lat="44.09919" lon="5.98373">
        <ele>590</ele>
        <time>2020-08-20T04:57:37Z</time>
      </trkpt>
      <trkpt lat="44.09926" lon="5.98388">
        <ele>589</ele>
        <time>2020-08-20T04:57:43Z</time>
      </trkpt>
      <trkpt lat="44.09937" lon="5.98375">
        <ele>591</ele>
        <time>2020-08-20T04:57:50Z</time>
      </trkpt>
      <trkpt lat="44.09929" lon="5.98376">
        <ele>591</ele>
        <time>2020-08-20T04:58:01Z</time>
      </trkpt>
      <trkpt lat="44.09925" lon="5.98371">
        <ele>592</ele>
        <time>2020-08-20T04:58:04Z</time>
      </trkpt>
      <trkpt lat="44.09921" lon="5.98366">
        <ele>592</ele>
        <time>2020-08-20T04:58:07Z</time>
      </trkpt>
      <trkpt lat="44.09917" lon="5.98357">
        <ele>592</ele>
        <time>2020-08-20T04:58:10Z</time>
      </trkpt>
      <trkpt lat="44.09924" lon="5.98338">
        <ele>593</ele>
        <time>2020-08-20T04:58:14Z</time>
      </trkpt>
      <trkpt lat="44.09929" lon="5.98332">
        <ele>593</ele>
        <time>2020-08-20T04:58:16Z</time>
      </trkpt>
      <trkpt lat="44.09986" lon="5.98298">
        <ele>596</ele>
        <time>2020-08-20T04:58:45Z</time>
      </trkpt>
      <trkpt lat="44.09993" lon="5.98293">
        <ele>597</ele>
        <time>2020-08-20T04:58:50Z</time>
      </trkpt>
      <trkpt lat="44.10047" lon="5.98282">
        <ele>601</ele>
        <time>2020-08-20T04:59:18Z</time>
      </trkpt>
      <trkpt lat="44.1004" lon="5.98278">
        <ele>602</ele>
        <time>2020-08-20T04:59:33Z</time>
      </trkpt>
      <trkpt lat="44.10036" lon="5.98271">
        <ele>603</ele>
        <time>2020-08-20T04:59:37Z</time>
      </trkpt>
      <trkpt lat="44.10043" lon="5.98261">
        <ele>604</ele>
        <time>2020-08-20T04:59:43Z</time>
      </trkpt>
      <trkpt lat="44.10054" lon="5.98252">
        <ele>605</ele>
        <time>2020-08-20T04:59:51Z</time>
      </trkpt>
      <trkpt lat="44.10044" lon="5.98233">
        <ele>610</ele>
        <time>2020-08-20T05:00:24Z</time>
      </trkpt>
      <trkpt lat="44.10036" lon="5.9822">
        <ele>611</ele>
        <time>2020-08-20T05:00:34Z</time>
      </trkpt>
      <trkpt lat="44.10042" lon="5.98209">
        <ele>612</ele>
        <time>2020-08-20T05:00:39Z</time>
      </trkpt>
      <trkpt lat="44.10048" lon="5.98203">
        <ele>613</ele>
        <time>2020-08-20T05:00:43Z</time>
      </trkpt>
      <trkpt lat="44.10056" lon="5.98199">
        <ele>613</ele>
        <time>2020-08-20T05:00:48Z</time>
      </trkpt>
      <trkpt lat="44.10039" lon="5.98183">
        <ele>616</ele>
        <time>2020-08-20T05:01:14Z</time>
      </trkpt>
      <trkpt lat="44.10035" lon="5.98176">
        <ele>616</ele>
        <time>2020-08-20T05:01:18Z</time>
      </trkpt>
      <trkpt lat="44.10032" lon="5.98168">
        <ele>617</ele>
        <time>2020-08-20T05:01:21Z</time>
      </trkpt>
      <trkpt lat="44.10028" lon="5.9816">
        <ele>617</ele>
        <time>2020-08-20T05:01:24Z</time>
      </trkpt>
      <trkpt lat="44.10028" lon="5.98151">
        <ele>618</ele>
        <time>2020-08-20T05:01:28Z</time>
      </trkpt>
      <trkpt lat="44.10028" lon="5.98143">
        <ele>619</ele>
        <time>2020-08-20T05:01:31Z</time>
      </trkpt>
      <trkpt lat="44.10025" lon="5.98127">
        <ele>620</ele>
        <time>2020-08-20T05:01:39Z</time>
      </trkpt>
      <trkpt lat="44.10026" lon="5.9812">
        <ele>621</ele>
        <time>2020-08-20T05:01:42Z</time>
      </trkpt>
      <trkpt lat="44.10029" lon="5.9811">
        <ele>623</ele>
        <time>2020-08-20T05:01:49Z</time>
      </trkpt>
      <trkpt lat="44.10029" lon="5.98098">
        <ele>623</ele>
        <time>2020-08-20T05:01:56Z</time>
      </trkpt>
      <trkpt lat="44.10029" lon="5.98087">
        <ele>623</ele>
        <time>2020-08-20T05:01:59Z</time>
      </trkpt>
      <trkpt lat="44.10032" lon="5.98063">
        <ele>624</ele>
        <time>2020-08-20T05:02:06Z</time>
      </trkpt>
      <trkpt lat="44.10035" lon="5.98053">
        <ele>624</ele>
        <time>2020-08-20T05:02:09Z</time>
      </trkpt>
      <trkpt lat="44.10053" lon="5.98022">
        <ele>625</ele>
        <time>2020-08-20T05:02:20Z</time>
      </trkpt>
      <trkpt lat="44.10046" lon="5.98016">
        <ele>626</ele>
        <time>2020-08-20T05:02:29Z</time>
      </trkpt>
      <trkpt lat="44.10033" lon="5.9801">
        <ele>626</ele>
        <time>2020-08-20T05:02:34Z</time>
      </trkpt>
      <trkpt lat="44.10019" lon="5.98003">
        <ele>626</ele>
        <time>2020-08-20T05:02:39Z</time>
      </trkpt>
      <trkpt lat="44.09933" lon="5.97955">
        <ele>629</ele>
        <time>2020-08-20T05:03:11Z</time>
      </trkpt>
      <trkpt lat="44.09926" lon="5.9795">
        <ele>629</ele>
        <time>2020-08-20T05:03:14Z</time>
      </trkpt>
      <trkpt lat="44.09912" lon="5.97941">
        <ele>629</ele>
        <time>2020-08-20T05:03:20Z</time>
      </trkpt>
      <trkpt lat="44.09886" lon="5.97923">
        <ele>631</ele>
        <time>2020-08-20T05:03:31Z</time>
      </trkpt>
      <trkpt lat="44.09879" lon="5.97918">
        <ele>631</ele>
        <time>2020-08-20T05:03:34Z</time>
      </trkpt>
      <trkpt lat="44.09846" lon="5.97894">
        <ele>633</ele>
        <time>2020-08-20T05:03:49Z</time>
      </trkpt>
      <trkpt lat="44.09841" lon="5.97889">
        <ele>633</ele>
        <time>2020-08-20T05:03:52Z</time>
      </trkpt>
      <trkpt lat="44.09835" lon="5.97878">
        <ele>635</ele>
        <time>2020-08-20T05:03:57Z</time>
      </trkpt>
      <trkpt lat="44.09835" lon="5.97865">
        <ele>636</ele>
        <time>2020-08-20T05:04:02Z</time>
      </trkpt>
      <trkpt lat="44.09836" lon="5.97837">
        <ele>637</ele>
        <time>2020-08-20T05:04:12Z</time>
      </trkpt>
      <trkpt lat="44.0984" lon="5.97827">
        <ele>638</ele>
        <time>2020-08-20T05:04:16Z</time>
      </trkpt>
      <trkpt lat="44.09847" lon="5.97815">
        <ele>639</ele>
        <time>2020-08-20T05:04:22Z</time>
      </trkpt>
      <trkpt lat="44.09855" lon="5.97806">
        <ele>640</ele>
        <time>2020-08-20T05:04:26Z</time>
      </trkpt>
      <trkpt lat="44.09862" lon="5.97798">
        <ele>640</ele>
        <time>2020-08-20T05:04:30Z</time>
      </trkpt>
      <trkpt lat="44.09868" lon="5.97787">
        <ele>641</ele>
        <time>2020-08-20T05:04:36Z</time>
      </trkpt>
      <trkpt lat="44.0988" lon="5.9776">
        <ele>642</ele>
        <time>2020-08-20T05:04:47Z</time>
      </trkpt>
      <trkpt lat="44.09887" lon="5.97737">
        <ele>643</ele>
        <time>2020-08-20T05:04:56Z</time>
      </trkpt>
      <trkpt lat="44.09889" lon="5.9773">
        <ele>644</ele>
        <time>2020-08-20T05:05:00Z</time>
      </trkpt>
      <trkpt lat="44.099" lon="5.97684">
        <ele>645</ele>
        <time>2020-08-20T05:05:17Z</time>
      </trkpt>
      <trkpt lat="44.09904" lon="5.9766">
        <ele>646</ele>
        <time>2020-08-20T05:05:26Z</time>
      </trkpt>
      <trkpt lat="44.0991" lon="5.97653">
        <ele>647</ele>
        <time>2020-08-20T05:05:29Z</time>
      </trkpt>
      <trkpt lat="44.09917" lon="5.97621">
        <ele>649</ele>
        <time>2020-08-20T05:05:41Z</time>
      </trkpt>
      <trkpt lat="44.09927" lon="5.97605">
        <ele>650</ele>
        <time>2020-08-20T05:05:47Z</time>
      </trkpt>
      <trkpt lat="44.09932" lon="5.97597">
        <ele>650</ele>
        <time>2020-08-20T05:05:50Z</time>
      </trkpt>
      <trkpt lat="44.09937" lon="5.97594">
        <ele>650</ele>
        <time>2020-08-20T05:05:54Z</time>
      </trkpt>
      <trkpt lat="44.09943" lon="5.97592">
        <ele>651</ele>
        <time>2020-08-20T05:05:58Z</time>
      </trkpt>
      <trkpt lat="44.0997" lon="5.97567">
        <ele>653</ele>
        <time>2020-08-20T05:06:15Z</time>
      </trkpt>
      <trkpt lat="44.09981" lon="5.97561">
        <ele>654</ele>
        <time>2020-08-20T05:06:22Z</time>
      </trkpt>
      <trkpt lat="44.09986" lon="5.97556">
        <ele>655</ele>
        <time>2020-08-20T05:06:27Z</time>
      </trkpt>
      <trkpt lat="44.0999" lon="5.97549">
        <ele>656</ele>
        <time>2020-08-20T05:06:32Z</time>
      </trkpt>
      <trkpt lat="44.09997" lon="5.97548">
        <ele>656</ele>
        <time>2020-08-20T05:06:38Z</time>
      </trkpt>
      <trkpt lat="44.10002" lon="5.97547">
        <ele>660</ele>
        <time>2020-08-20T05:06:42Z</time>
      </trkpt>
      <trkpt lat="44.10006" lon="5.97572">
        <ele>660</ele>
        <time>2020-08-20T05:06:57Z</time>
      </trkpt>
      <trkpt lat="44.10004" lon="5.97593">
        <ele>663</ele>
        <time>2020-08-20T05:07:07Z</time>
      </trkpt>
      <trkpt lat="44.1001" lon="5.97586">
        <ele>666</ele>
        <time>2020-08-20T05:07:37Z</time>
      </trkpt>
      <trkpt lat="44.10025" lon="5.97576">
        <ele>667</ele>
        <time>2020-08-20T05:07:47Z</time>
      </trkpt>
      <trkpt lat="44.10034" lon="5.97574">
        <ele>668</ele>
        <time>2020-08-20T05:07:52Z</time>
      </trkpt>
      <trkpt lat="44.10046" lon="5.97574">
        <ele>670</ele>
        <time>2020-08-20T05:07:59Z</time>
      </trkpt>
      <trkpt lat="44.10053" lon="5.97567">
        <ele>670</ele>
        <time>2020-08-20T05:08:04Z</time>
      </trkpt>
      <trkpt lat="44.1006" lon="5.97563">
        <ele>671</ele>
        <time>2020-08-20T05:08:08Z</time>
      </trkpt>
      <trkpt lat="44.10065" lon="5.97562">
        <ele>671</ele>
        <time>2020-08-20T05:08:11Z</time>
      </trkpt>
      <trkpt lat="44.10079" lon="5.97547">
        <ele>673</ele>
        <time>2020-08-20T05:08:23Z</time>
      </trkpt>
      <trkpt lat="44.10084" lon="5.97543">
        <ele>673</ele>
        <time>2020-08-20T05:08:26Z</time>
      </trkpt>
      <trkpt lat="44.1009" lon="5.9754">
        <ele>672</ele>
        <time>2020-08-20T05:08:28Z</time>
      </trkpt>
      <trkpt lat="44.10113" lon="5.97525">
        <ele>674</ele>
        <time>2020-08-20T05:08:41Z</time>
      </trkpt>
      <trkpt lat="44.10138" lon="5.97482">
        <ele>678</ele>
        <time>2020-08-20T05:09:01Z</time>
      </trkpt>
      <trkpt lat="44.1014" lon="5.97474">
        <ele>678</ele>
        <time>2020-08-20T05:09:05Z</time>
      </trkpt>
      <trkpt lat="44.10145" lon="5.97468">
        <ele>679</ele>
        <time>2020-08-20T05:09:08Z</time>
      </trkpt>
      <trkpt lat="44.10149" lon="5.97462">
        <ele>679</ele>
        <time>2020-08-20T05:09:12Z</time>
      </trkpt>
      <trkpt lat="44.10151" lon="5.97454">
        <ele>680</ele>
        <time>2020-08-20T05:09:15Z</time>
      </trkpt>
      <trkpt lat="44.10154" lon="5.97445">
        <ele>681</ele>
        <time>2020-08-20T05:09:20Z</time>
      </trkpt>
      <trkpt lat="44.1016" lon="5.97437">
        <ele>682</ele>
        <time>2020-08-20T05:09:24Z</time>
      </trkpt>
      <trkpt lat="44.10167" lon="5.9743">
        <ele>682</ele>
        <time>2020-08-20T05:09:28Z</time>
      </trkpt>
      <trkpt lat="44.10172" lon="5.97418">
        <ele>682</ele>
        <time>2020-08-20T05:09:32Z</time>
      </trkpt>
      <trkpt lat="44.10176" lon="5.974">
        <ele>685</ele>
        <time>2020-08-20T05:09:43Z</time>
      </trkpt>
      <trkpt lat="44.10182" lon="5.97388">
        <ele>686</ele>
        <time>2020-08-20T05:09:50Z</time>
      </trkpt>
      <trkpt lat="44.10188" lon="5.97374">
        <ele>686</ele>
        <time>2020-08-20T05:09:56Z</time>
      </trkpt>
      <trkpt lat="44.10191" lon="5.97362">
        <ele>687</ele>
        <time>2020-08-20T05:10:00Z</time>
      </trkpt>
      <trkpt lat="44.10198" lon="5.97353">
        <ele>687</ele>
        <time>2020-08-20T05:10:02Z</time>
      </trkpt>
      <trkpt lat="44.10204" lon="5.97352">
        <ele>687</ele>
        <time>2020-08-20T05:10:05Z</time>
      </trkpt>
      <trkpt lat="44.1025" lon="5.97311">
        <ele>691</ele>
        <time>2020-08-20T05:10:31Z</time>
      </trkpt>
      <trkpt lat="44.10255" lon="5.97302">
        <ele>691</ele>
        <time>2020-08-20T05:10:34Z</time>
      </trkpt>
      <trkpt lat="44.10257" lon="5.97295">
        <ele>690</ele>
        <time>2020-08-20T05:10:38Z</time>
      </trkpt>
      <trkpt lat="44.1025" lon="5.97288">
        <ele>690</ele>
        <time>2020-08-20T05:10:46Z</time>
      </trkpt>
      <trkpt lat="44.10244" lon="5.97264">
        <ele>689</ele>
        <time>2020-08-20T05:10:50Z</time>
      </trkpt>
      <trkpt lat="44.10247" lon="5.97252">
        <ele>688</ele>
        <time>2020-08-20T05:11:02Z</time>
      </trkpt>
      <trkpt lat="44.10236" lon="5.9725">
        <ele>687</ele>
        <time>2020-08-20T05:11:16Z</time>
      </trkpt>
      <trkpt lat="44.10237" lon="5.97259">
        <ele>688</ele>
        <time>2020-08-20T05:11:47Z</time>
      </trkpt>
      <trkpt lat="44.10233" lon="5.97269">
        <ele>687</ele>
        <time>2020-08-20T05:11:48Z</time>
      </trkpt>
      <trkpt lat="44.1023" lon="5.97277">
        <ele>687</ele>
        <time>2020-08-20T05:11:49Z</time>
      </trkpt>
      <trkpt lat="44.10214" lon="5.97286">
        <ele>686</ele>
        <time>2020-08-20T05:11:52Z</time>
      </trkpt>
      <trkpt lat="44.10207" lon="5.97285">
        <ele>685</ele>
        <time>2020-08-20T05:11:53Z</time>
      </trkpt>
      <trkpt lat="44.10194" lon="5.97278">
        <ele>682</ele>
        <time>2020-08-20T05:11:56Z</time>
      </trkpt>
      <trkpt lat="44.10188" lon="5.97277">
        <ele>681</ele>
        <time>2020-08-20T05:11:58Z</time>
      </trkpt>
      <trkpt lat="44.10181" lon="5.97281">
        <ele>681</ele>
        <time>2020-08-20T05:12:00Z</time>
      </trkpt>
      <trkpt lat="44.10176" lon="5.9728">
        <ele>681</ele>
        <time>2020-08-20T05:12:01Z</time>
      </trkpt>
      <trkpt lat="44.10168" lon="5.97273">
        <ele>681</ele>
        <time>2020-08-20T05:12:03Z</time>
      </trkpt>
      <trkpt lat="44.10164" lon="5.97255">
        <ele>682</ele>
        <time>2020-08-20T05:12:11Z</time>
      </trkpt>
      <trkpt lat="44.10155" lon="5.9725">
        <ele>682</ele>
        <time>2020-08-20T05:12:14Z</time>
      </trkpt>
      <trkpt lat="44.10149" lon="5.97247">
        <ele>682</ele>
        <time>2020-08-20T05:12:17Z</time>
      </trkpt>
      <trkpt lat="44.10136" lon="5.97251">
        <ele>683</ele>
        <time>2020-08-20T05:12:23Z</time>
      </trkpt>
      <trkpt lat="44.10129" lon="5.97255">
        <ele>683</ele>
        <time>2020-08-20T05:12:27Z</time>
      </trkpt>
      <trkpt lat="44.10122" lon="5.97253">
        <ele>683</ele>
        <time>2020-08-20T05:12:31Z</time>
      </trkpt>
      <trkpt lat="44.10115" lon="5.97251">
        <ele>684</ele>
        <time>2020-08-20T05:12:35Z</time>
      </trkpt>
      <trkpt lat="44.10114" lon="5.97265">
        <ele>684</ele>
        <time>2020-08-20T05:12:41Z</time>
      </trkpt>
      <trkpt lat="44.10107" lon="5.97269">
        <ele>685</ele>
        <time>2020-08-20T05:12:44Z</time>
      </trkpt>
      <trkpt lat="44.101" lon="5.97274">
        <ele>684</ele>
        <time>2020-08-20T05:12:48Z</time>
      </trkpt>
      <trkpt lat="44.10081" lon="5.97275">
        <ele>687</ele>
        <time>2020-08-20T05:13:16Z</time>
      </trkpt>
      <trkpt lat="44.10075" lon="5.97276">
        <ele>687</ele>
        <time>2020-08-20T05:13:19Z</time>
      </trkpt>
      <trkpt lat="44.10069" lon="5.97282">
        <ele>688</ele>
        <time>2020-08-20T05:13:26Z</time>
      </trkpt>
      <trkpt lat="44.10055" lon="5.97282">
        <ele>688</ele>
        <time>2020-08-20T05:13:32Z</time>
      </trkpt>
      <trkpt lat="44.10043" lon="5.97305">
        <ele>689</ele>
        <time>2020-08-20T05:13:40Z</time>
      </trkpt>
      <trkpt lat="44.10012" lon="5.97355">
        <ele>687</ele>
        <time>2020-08-20T05:13:47Z</time>
      </trkpt>
      <trkpt lat="44.09999" lon="5.97367">
        <ele>685</ele>
        <time>2020-08-20T05:13:49Z</time>
      </trkpt>
      <trkpt lat="44.09985" lon="5.9738">
        <ele>683</ele>
        <time>2020-08-20T05:13:51Z</time>
      </trkpt>
      <trkpt lat="44.09975" lon="5.97389">
        <ele>680</ele>
        <time>2020-08-20T05:13:53Z</time>
      </trkpt>
      <trkpt lat="44.09964" lon="5.97399">
        <ele>680</ele>
        <time>2020-08-20T05:13:55Z</time>
      </trkpt>
      <trkpt lat="44.09958" lon="5.9741">
        <ele>680</ele>
        <time>2020-08-20T05:13:57Z</time>
      </trkpt>
      <trkpt lat="44.09949" lon="5.97415">
        <ele>680</ele>
        <time>2020-08-20T05:13:59Z</time>
      </trkpt>
      <trkpt lat="44.09932" lon="5.97436">
        <ele>680</ele>
        <time>2020-08-20T05:14:03Z</time>
      </trkpt>
      <trkpt lat="44.09923" lon="5.97446">
        <ele>679</ele>
        <time>2020-08-20T05:14:05Z</time>
      </trkpt>
      <trkpt lat="44.09909" lon="5.97464">
        <ele>679</ele>
        <time>2020-08-20T05:14:09Z</time>
      </trkpt>
      <trkpt lat="44.09903" lon="5.9747">
        <ele>678</ele>
        <time>2020-08-20T05:14:11Z</time>
      </trkpt>
      <trkpt lat="44.09892" lon="5.9748">
        <ele>674</ele>
        <time>2020-08-20T05:14:24Z</time>
      </trkpt>
      <trkpt lat="44.09886" lon="5.97492">
        <ele>677</ele>
        <time>2020-08-20T05:14:27Z</time>
      </trkpt>
      <trkpt lat="44.09881" lon="5.97502">
        <ele>677</ele>
        <time>2020-08-20T05:14:29Z</time>
      </trkpt>
      <trkpt lat="44.09877" lon="5.97512">
        <ele>677</ele>
        <time>2020-08-20T05:14:31Z</time>
      </trkpt>
      <trkpt lat="44.09872" lon="5.97521">
        <ele>677</ele>
        <time>2020-08-20T05:14:33Z</time>
      </trkpt>
      <trkpt lat="44.09867" lon="5.97529">
        <ele>677</ele>
        <time>2020-08-20T05:14:35Z</time>
      </trkpt>
      <trkpt lat="44.09864" lon="5.97537">
        <ele>677</ele>
        <time>2020-08-20T05:14:37Z</time>
      </trkpt>
      <trkpt lat="44.09852" lon="5.97553">
        <ele>676</ele>
        <time>2020-08-20T05:14:40Z</time>
      </trkpt>
      <trkpt lat="44.09843" lon="5.97563">
        <ele>675</ele>
        <time>2020-08-20T05:14:42Z</time>
      </trkpt>
      <trkpt lat="44.09833" lon="5.97568">
        <ele>675</ele>
        <time>2020-08-20T05:14:44Z</time>
      </trkpt>
      <trkpt lat="44.09805" lon="5.97569">
        <ele>675</ele>
        <time>2020-08-20T05:14:48Z</time>
      </trkpt>
      <trkpt lat="44.09785" lon="5.97571">
        <ele>674</ele>
        <time>2020-08-20T05:14:51Z</time>
      </trkpt>
      <trkpt lat="44.09765" lon="5.97567">
        <ele>673</ele>
        <time>2020-08-20T05:14:54Z</time>
      </trkpt>
      <trkpt lat="44.09759" lon="5.97564">
        <ele>673</ele>
        <time>2020-08-20T05:14:55Z</time>
      </trkpt>
      <trkpt lat="44.09707" lon="5.9755">
        <ele>669</ele>
        <time>2020-08-20T05:15:04Z</time>
      </trkpt>
      <trkpt lat="44.09695" lon="5.9755">
        <ele>668</ele>
        <time>2020-08-20T05:15:06Z</time>
      </trkpt>
      <trkpt lat="44.09682" lon="5.97553">
        <ele>666</ele>
        <time>2020-08-20T05:15:08Z</time>
      </trkpt>
      <trkpt lat="44.09668" lon="5.97543">
        <ele>664</ele>
        <time>2020-08-20T05:15:11Z</time>
      </trkpt>
      <trkpt lat="44.09663" lon="5.97539">
        <ele>664</ele>
        <time>2020-08-20T05:15:12Z</time>
      </trkpt>
      <trkpt lat="44.09656" lon="5.97529">
        <ele>664</ele>
        <time>2020-08-20T05:15:14Z</time>
      </trkpt>
      <trkpt lat="44.09653" lon="5.97517">
        <ele>664</ele>
        <time>2020-08-20T05:15:16Z</time>
      </trkpt>
      <trkpt lat="44.09654" lon="5.97506">
        <ele>662</ele>
        <time>2020-08-20T05:15:18Z</time>
      </trkpt>
      <trkpt lat="44.09656" lon="5.97494">
        <ele>663</ele>
        <time>2020-08-20T05:15:23Z</time>
      </trkpt>
      <trkpt lat="44.09659" lon="5.97487">
        <ele>664</ele>
        <time>2020-08-20T05:15:26Z</time>
      </trkpt>
      <trkpt lat="44.09661" lon="5.97479">
        <ele>664</ele>
        <time>2020-08-20T05:15:31Z</time>
      </trkpt>
      <trkpt lat="44.09669" lon="5.97465">
        <ele>665</ele>
        <time>2020-08-20T05:15:39Z</time>
      </trkpt>
      <trkpt lat="44.09673" lon="5.97448">
        <ele>666</ele>
        <time>2020-08-20T05:15:46Z</time>
      </trkpt>
      <trkpt lat="44.09676" lon="5.9744">
        <ele>666</ele>
        <time>2020-08-20T05:15:51Z</time>
      </trkpt>
      <trkpt lat="44.0968" lon="5.97431">
        <ele>667</ele>
        <time>2020-08-20T05:15:56Z</time>
      </trkpt>
      <trkpt lat="44.09684" lon="5.97426">
        <ele>667</ele>
        <time>2020-08-20T05:16:00Z</time>
      </trkpt>
      <trkpt lat="44.09689" lon="5.9742">
        <ele>667</ele>
        <time>2020-08-20T05:16:04Z</time>
      </trkpt>
      <trkpt lat="44.09694" lon="5.97413">
        <ele>668</ele>
        <time>2020-08-20T05:16:08Z</time>
      </trkpt>
      <trkpt lat="44.09699" lon="5.97406">
        <ele>668</ele>
        <time>2020-08-20T05:16:12Z</time>
      </trkpt>
      <trkpt lat="44.09702" lon="5.97398">
        <ele>669</ele>
        <time>2020-08-20T05:16:16Z</time>
      </trkpt>
      <trkpt lat="44.09707" lon="5.97393">
        <ele>669</ele>
        <time>2020-08-20T05:16:18Z</time>
      </trkpt>
      <trkpt lat="44.09713" lon="5.97388">
        <ele>669</ele>
        <time>2020-08-20T05:16:21Z</time>
      </trkpt>
      <trkpt lat="44.09717" lon="5.9738">
        <ele>670</ele>
        <time>2020-08-20T05:16:25Z</time>
      </trkpt>
      <trkpt lat="44.09727" lon="5.9737">
        <ele>671</ele>
        <time>2020-08-20T05:16:33Z</time>
      </trkpt>
      <trkpt lat="44.0973" lon="5.97363">
        <ele>672</ele>
        <time>2020-08-20T05:16:37Z</time>
      </trkpt>
      <trkpt lat="44.09735" lon="5.97357">
        <ele>672</ele>
        <time>2020-08-20T05:16:41Z</time>
      </trkpt>
      <trkpt lat="44.09744" lon="5.97347">
        <ele>674</ele>
        <time>2020-08-20T05:16:47Z</time>
      </trkpt>
      <trkpt lat="44.09746" lon="5.9734">
        <ele>675</ele>
        <time>2020-08-20T05:16:52Z</time>
      </trkpt>
      <trkpt lat="44.09751" lon="5.97334">
        <ele>675</ele>
        <time>2020-08-20T05:16:56Z</time>
      </trkpt>
      <trkpt lat="44.09764" lon="5.97319">
        <ele>678</ele>
        <time>2020-08-20T05:17:09Z</time>
      </trkpt>
      <trkpt lat="44.09767" lon="5.97302">
        <ele>681</ele>
        <time>2020-08-20T05:17:21Z</time>
      </trkpt>
      <trkpt lat="44.09772" lon="5.97286">
        <ele>682</ele>
        <time>2020-08-20T05:17:28Z</time>
      </trkpt>
      <trkpt lat="44.09776" lon="5.9728">
        <ele>682</ele>
        <time>2020-08-20T05:17:31Z</time>
      </trkpt>
      <trkpt lat="44.09779" lon="5.97274">
        <ele>682</ele>
        <time>2020-08-20T05:17:34Z</time>
      </trkpt>
      <trkpt lat="44.09784" lon="5.97267">
        <ele>683</ele>
        <time>2020-08-20T05:17:38Z</time>
      </trkpt>
      <trkpt lat="44.09786" lon="5.97259">
        <ele>684</ele>
        <time>2020-08-20T05:17:41Z</time>
      </trkpt>
      <trkpt lat="44.09791" lon="5.97251">
        <ele>684</ele>
        <time>2020-08-20T05:17:44Z</time>
      </trkpt>
      <trkpt lat="44.09808" lon="5.97241">
        <ele>685</ele>
        <time>2020-08-20T05:17:54Z</time>
      </trkpt>
      <trkpt lat="44.09813" lon="5.97234">
        <ele>685</ele>
        <time>2020-08-20T05:17:58Z</time>
      </trkpt>
      <trkpt lat="44.09829" lon="5.97223">
        <ele>687</ele>
        <time>2020-08-20T05:18:09Z</time>
      </trkpt>
      <trkpt lat="44.09837" lon="5.97206">
        <ele>689</ele>
        <time>2020-08-20T05:18:17Z</time>
      </trkpt>
      <trkpt lat="44.09842" lon="5.97201">
        <ele>689</ele>
        <time>2020-08-20T05:18:21Z</time>
      </trkpt>
      <trkpt lat="44.09847" lon="5.97191">
        <ele>689</ele>
        <time>2020-08-20T05:18:26Z</time>
      </trkpt>
      <trkpt lat="44.09851" lon="5.97183">
        <ele>692</ele>
        <time>2020-08-20T05:18:30Z</time>
      </trkpt>
      <trkpt lat="44.09858" lon="5.9718">
        <ele>692</ele>
        <time>2020-08-20T05:18:34Z</time>
      </trkpt>
      <trkpt lat="44.0987" lon="5.97176">
        <ele>693</ele>
        <time>2020-08-20T05:18:42Z</time>
      </trkpt>
      <trkpt lat="44.09875" lon="5.97172">
        <ele>694</ele>
        <time>2020-08-20T05:18:47Z</time>
      </trkpt>
      <trkpt lat="44.09877" lon="5.97164">
        <ele>695</ele>
        <time>2020-08-20T05:18:51Z</time>
      </trkpt>
      <trkpt lat="44.09881" lon="5.97158">
        <ele>696</ele>
        <time>2020-08-20T05:18:55Z</time>
      </trkpt>
      <trkpt lat="44.09887" lon="5.9714">
        <ele>696</ele>
        <time>2020-08-20T05:19:03Z</time>
      </trkpt>
      <trkpt lat="44.09889" lon="5.9712">
        <ele>698</ele>
        <time>2020-08-20T05:19:12Z</time>
      </trkpt>
      <trkpt lat="44.09892" lon="5.97113">
        <ele>699</ele>
        <time>2020-08-20T05:19:16Z</time>
      </trkpt>
      <trkpt lat="44.09894" lon="5.97105">
        <ele>699</ele>
        <time>2020-08-20T05:19:20Z</time>
      </trkpt>
      <trkpt lat="44.09898" lon="5.97099">
        <ele>700</ele>
        <time>2020-08-20T05:19:25Z</time>
      </trkpt>
      <trkpt lat="44.09903" lon="5.97094">
        <ele>701</ele>
        <time>2020-08-20T05:19:29Z</time>
      </trkpt>
      <trkpt lat="44.09906" lon="5.97088">
        <ele>702</ele>
        <time>2020-08-20T05:19:33Z</time>
      </trkpt>
      <trkpt lat="44.09906" lon="5.9708">
        <ele>702</ele>
        <time>2020-08-20T05:19:37Z</time>
      </trkpt>
      <trkpt lat="44.09908" lon="5.97071">
        <ele>704</ele>
        <time>2020-08-20T05:19:45Z</time>
      </trkpt>
      <trkpt lat="44.09903" lon="5.97064">
        <ele>703</ele>
        <time>2020-08-20T05:19:48Z</time>
      </trkpt>
      <trkpt lat="44.09901" lon="5.97053">
        <ele>706</ele>
        <time>2020-08-20T05:19:54Z</time>
      </trkpt>
      <trkpt lat="44.09905" lon="5.97038">
        <ele>706</ele>
        <time>2020-08-20T05:20:03Z</time>
      </trkpt>
      <trkpt lat="44.09901" lon="5.97032">
        <ele>708</ele>
        <time>2020-08-20T05:20:08Z</time>
      </trkpt>
      <trkpt lat="44.09897" lon="5.97024">
        <ele>708</ele>
        <time>2020-08-20T05:20:13Z</time>
      </trkpt>
      <trkpt lat="44.09889" lon="5.97014">
        <ele>710</ele>
        <time>2020-08-20T05:20:22Z</time>
      </trkpt>
      <trkpt lat="44.09883" lon="5.97011">
        <ele>711</ele>
        <time>2020-08-20T05:20:27Z</time>
      </trkpt>
      <trkpt lat="44.09878" lon="5.97008">
        <ele>711</ele>
        <time>2020-08-20T05:20:31Z</time>
      </trkpt>
      <trkpt lat="44.09874" lon="5.97002">
        <ele>712</ele>
        <time>2020-08-20T05:20:35Z</time>
      </trkpt>
      <trkpt lat="44.09873" lon="5.96993">
        <ele>713</ele>
        <time>2020-08-20T05:20:39Z</time>
      </trkpt>
      <trkpt lat="44.09878" lon="5.9699">
        <ele>714</ele>
        <time>2020-08-20T05:20:43Z</time>
      </trkpt>
      <trkpt lat="44.09884" lon="5.96988">
        <ele>714</ele>
        <time>2020-08-20T05:20:47Z</time>
      </trkpt>
      <trkpt lat="44.09891" lon="5.96987">
        <ele>715</ele>
        <time>2020-08-20T05:20:51Z</time>
      </trkpt>
      <trkpt lat="44.09906" lon="5.96984">
        <ele>715</ele>
        <time>2020-08-20T05:20:58Z</time>
      </trkpt>
      <trkpt lat="44.099" lon="5.96981">
        <ele>717</ele>
        <time>2020-08-20T05:24:11Z</time>
      </trkpt>
      <trkpt lat="44.09892" lon="5.96981">
        <ele>717</ele>
        <time>2020-08-20T05:24:12Z</time>
      </trkpt>
      <trkpt lat="44.09857" lon="5.96967">
        <ele>714</ele>
        <time>2020-08-20T05:24:17Z</time>
      </trkpt>
      <trkpt lat="44.0985" lon="5.96966">
        <ele>713</ele>
        <time>2020-08-20T05:24:18Z</time>
      </trkpt>
      <trkpt lat="44.09844" lon="5.96968">
        <ele>713</ele>
        <time>2020-08-20T05:24:19Z</time>
      </trkpt>
      <trkpt lat="44.09838" lon="5.96965">
        <ele>713</ele>
        <time>2020-08-20T05:24:20Z</time>
      </trkpt>
      <trkpt lat="44.09833" lon="5.96958">
        <ele>713</ele>
        <time>2020-08-20T05:24:22Z</time>
      </trkpt>
      <trkpt lat="44.09823" lon="5.96941">
        <ele>713</ele>
        <time>2020-08-20T05:24:25Z</time>
      </trkpt>
      <trkpt lat="44.09817" lon="5.96936">
        <ele>712</ele>
        <time>2020-08-20T05:24:26Z</time>
      </trkpt>
      <trkpt lat="44.09804" lon="5.96929">
        <ele>710</ele>
        <time>2020-08-20T05:24:28Z</time>
      </trkpt>
      <trkpt lat="44.09797" lon="5.96935">
        <ele>709</ele>
        <time>2020-08-20T05:24:30Z</time>
      </trkpt>
      <trkpt lat="44.09792" lon="5.96927">
        <ele>707</ele>
        <time>2020-08-20T05:24:32Z</time>
      </trkpt>
      <trkpt lat="44.09794" lon="5.96916">
        <ele>705</ele>
        <time>2020-08-20T05:24:34Z</time>
      </trkpt>
      <trkpt lat="44.09799" lon="5.96913">
        <ele>705</ele>
        <time>2020-08-20T05:24:36Z</time>
      </trkpt>
      <trkpt lat="44.09809" lon="5.96908">
        <ele>706</ele>
        <time>2020-08-20T05:24:39Z</time>
      </trkpt>
      <trkpt lat="44.09824" lon="5.96907">
        <ele>706</ele>
        <time>2020-08-20T05:24:43Z</time>
      </trkpt>
      <trkpt lat="44.09834" lon="5.96906">
        <ele>706</ele>
        <time>2020-08-20T05:24:45Z</time>
      </trkpt>
      <trkpt lat="44.09849" lon="5.96923">
        <ele>704</ele>
        <time>2020-08-20T05:24:49Z</time>
      </trkpt>
      <trkpt lat="44.09857" lon="5.96931">
        <ele>703</ele>
        <time>2020-08-20T05:24:51Z</time>
      </trkpt>
      <trkpt lat="44.09863" lon="5.96935">
        <ele>702</ele>
        <time>2020-08-20T05:24:53Z</time>
      </trkpt>
      <trkpt lat="44.09871" lon="5.96938">
        <ele>702</ele>
        <time>2020-08-20T05:24:56Z</time>
      </trkpt>
      <trkpt lat="44.09873" lon="5.96927">
        <ele>701</ele>
        <time>2020-08-20T05:25:01Z</time>
      </trkpt>
      <trkpt lat="44.09879" lon="5.96922">
        <ele>702</ele>
        <time>2020-08-20T05:25:04Z</time>
      </trkpt>
      <trkpt lat="44.09884" lon="5.96921">
        <ele>702</ele>
        <time>2020-08-20T05:25:06Z</time>
      </trkpt>
      <trkpt lat="44.0989" lon="5.96923">
        <ele>702</ele>
        <time>2020-08-20T05:25:08Z</time>
      </trkpt>
      <trkpt lat="44.09896" lon="5.96922">
        <ele>701</ele>
        <time>2020-08-20T05:25:10Z</time>
      </trkpt>
      <trkpt lat="44.09904" lon="5.96919">
        <ele>701</ele>
        <time>2020-08-20T05:25:12Z</time>
      </trkpt>
      <trkpt lat="44.09906" lon="5.96909">
        <ele>699</ele>
        <time>2020-08-20T05:25:15Z</time>
      </trkpt>
      <trkpt lat="44.09905" lon="5.96902">
        <ele>700</ele>
        <time>2020-08-20T05:25:17Z</time>
      </trkpt>
      <trkpt lat="44.09903" lon="5.96889">
        <ele>700</ele>
        <time>2020-08-20T05:25:19Z</time>
      </trkpt>
      <trkpt lat="44.09906" lon="5.96876">
        <ele>699</ele>
        <time>2020-08-20T05:25:21Z</time>
      </trkpt>
      <trkpt lat="44.09911" lon="5.96862">
        <ele>699</ele>
        <time>2020-08-20T05:25:23Z</time>
      </trkpt>
      <trkpt lat="44.09914" lon="5.9685">
        <ele>698</ele>
        <time>2020-08-20T05:25:25Z</time>
      </trkpt>
      <trkpt lat="44.09917" lon="5.96841">
        <ele>699</ele>
        <time>2020-08-20T05:25:26Z</time>
      </trkpt>
      <trkpt lat="44.09919" lon="5.96832">
        <ele>699</ele>
        <time>2020-08-20T05:25:27Z</time>
      </trkpt>
      <trkpt lat="44.09925" lon="5.96817">
        <ele>696</ele>
        <time>2020-08-20T05:25:29Z</time>
      </trkpt>
      <trkpt lat="44.09934" lon="5.96804">
        <ele>694</ele>
        <time>2020-08-20T05:25:31Z</time>
      </trkpt>
      <trkpt lat="44.09923" lon="5.96804">
        <ele>689</ele>
        <time>2020-08-20T05:25:36Z</time>
      </trkpt>
      <trkpt lat="44.09917" lon="5.96797">
        <ele>690</ele>
        <time>2020-08-20T05:25:38Z</time>
      </trkpt>
      <trkpt lat="44.09924" lon="5.96792">
        <ele>690</ele>
        <time>2020-08-20T05:25:40Z</time>
      </trkpt>
      <trkpt lat="44.09932" lon="5.96785">
        <ele>689</ele>
        <time>2020-08-20T05:25:42Z</time>
      </trkpt>
      <trkpt lat="44.09938" lon="5.96772">
        <ele>687</ele>
        <time>2020-08-20T05:25:44Z</time>
      </trkpt>
      <trkpt lat="44.09946" lon="5.96767">
        <ele>686</ele>
        <time>2020-08-20T05:25:46Z</time>
      </trkpt>
      <trkpt lat="44.09954" lon="5.96766">
        <ele>687</ele>
        <time>2020-08-20T05:25:48Z</time>
      </trkpt>
      <trkpt lat="44.09953" lon="5.96763">
        <ele>684</ele>
        <time>2020-08-20T05:25:54Z</time>
      </trkpt>
      <trkpt lat="44.09947" lon="5.96754">
        <ele>683</ele>
        <time>2020-08-20T05:25:56Z</time>
      </trkpt>
      <trkpt lat="44.09932" lon="5.9674">
        <ele>680</ele>
        <time>2020-08-20T05:25:59Z</time>
      </trkpt>
      <trkpt lat="44.09927" lon="5.96736">
        <ele>678</ele>
        <time>2020-08-20T05:26:01Z</time>
      </trkpt>
      <trkpt lat="44.09921" lon="5.96716">
        <ele>674</ele>
        <time>2020-08-20T05:26:04Z</time>
      </trkpt>
      <trkpt lat="44.09918" lon="5.96703">
        <ele>671</ele>
        <time>2020-08-20T05:26:06Z</time>
      </trkpt>
      <trkpt lat="44.09921" lon="5.96689">
        <ele>665</ele>
        <time>2020-08-20T05:26:12Z</time>
      </trkpt>
      <trkpt lat="44.09926" lon="5.96677">
        <ele>664</ele>
        <time>2020-08-20T05:26:16Z</time>
      </trkpt>
      <trkpt lat="44.09933" lon="5.96669">
        <ele>664</ele>
        <time>2020-08-20T05:26:19Z</time>
      </trkpt>
      <trkpt lat="44.09941" lon="5.96664">
        <ele>664</ele>
        <time>2020-08-20T05:26:22Z</time>
      </trkpt>
      <trkpt lat="44.09948" lon="5.9666">
        <ele>664</ele>
        <time>2020-08-20T05:26:24Z</time>
      </trkpt>
      <trkpt lat="44.09951" lon="5.96649">
        <ele>663</ele>
        <time>2020-08-20T05:26:28Z</time>
      </trkpt>
      <trkpt lat="44.09946" lon="5.96637">
        <ele>661</ele>
        <time>2020-08-20T05:26:31Z</time>
      </trkpt>
      <trkpt lat="44.09935" lon="5.96627">
        <ele>661</ele>
        <time>2020-08-20T05:26:33Z</time>
      </trkpt>
      <trkpt lat="44.09933" lon="5.96613">
        <ele>661</ele>
        <time>2020-08-20T05:26:35Z</time>
      </trkpt>
      <trkpt lat="44.09933" lon="5.966">
        <ele>660</ele>
        <time>2020-08-20T05:26:37Z</time>
      </trkpt>
      <trkpt lat="44.09933" lon="5.96587">
        <ele>658</ele>
        <time>2020-08-20T05:26:39Z</time>
      </trkpt>
      <trkpt lat="44.09936" lon="5.96579">
        <ele>657</ele>
        <time>2020-08-20T05:26:41Z</time>
      </trkpt>
      <trkpt lat="44.09942" lon="5.96576">
        <ele>657</ele>
        <time>2020-08-20T05:26:43Z</time>
      </trkpt>
      <trkpt lat="44.09949" lon="5.96569">
        <ele>657</ele>
        <time>2020-08-20T05:26:45Z</time>
      </trkpt>
      <trkpt lat="44.09956" lon="5.96563">
        <ele>657</ele>
        <time>2020-08-20T05:26:47Z</time>
      </trkpt>
      <trkpt lat="44.09964" lon="5.96552">
        <ele>656</ele>
        <time>2020-08-20T05:26:52Z</time>
      </trkpt>
      <trkpt lat="44.09969" lon="5.96547">
        <ele>656</ele>
        <time>2020-08-20T05:26:54Z</time>
      </trkpt>
      <trkpt lat="44.09982" lon="5.9654">
        <ele>655</ele>
        <time>2020-08-20T05:26:58Z</time>
      </trkpt>
      <trkpt lat="44.09991" lon="5.96543">
        <ele>656</ele>
        <time>2020-08-20T05:27:02Z</time>
      </trkpt>
      <trkpt lat="44.09994" lon="5.96553">
        <ele>655</ele>
        <time>2020-08-20T05:27:05Z</time>
      </trkpt>
      <trkpt lat="44.10001" lon="5.96559">
        <ele>656</ele>
        <time>2020-08-20T05:27:08Z</time>
      </trkpt>
      <trkpt lat="44.10007" lon="5.96561">
        <ele>655</ele>
        <time>2020-08-20T05:27:11Z</time>
      </trkpt>
      <trkpt lat="44.10013" lon="5.9656">
        <ele>655</ele>
        <time>2020-08-20T05:27:14Z</time>
      </trkpt>
      <trkpt lat="44.10025" lon="5.96558">
        <ele>657</ele>
        <time>2020-08-20T05:27:18Z</time>
      </trkpt>
      <trkpt lat="44.10033" lon="5.96556">
        <ele>657</ele>
        <time>2020-08-20T05:27:20Z</time>
      </trkpt>
      <trkpt lat="44.1004" lon="5.96554">
        <ele>656</ele>
        <time>2020-08-20T05:27:22Z</time>
      </trkpt>
      <trkpt lat="44.10045" lon="5.9655">
        <ele>655</ele>
        <time>2020-08-20T05:27:24Z</time>
      </trkpt>
      <trkpt lat="44.10051" lon="5.96542">
        <ele>656</ele>
        <time>2020-08-20T05:27:27Z</time>
      </trkpt>
      <trkpt lat="44.10055" lon="5.96536">
        <ele>657</ele>
        <time>2020-08-20T05:27:29Z</time>
      </trkpt>
      <trkpt lat="44.10069" lon="5.96517">
        <ele>657</ele>
        <time>2020-08-20T05:27:35Z</time>
      </trkpt>
      <trkpt lat="44.10074" lon="5.96509">
        <ele>656</ele>
        <time>2020-08-20T05:27:37Z</time>
      </trkpt>
      <trkpt lat="44.10085" lon="5.96496">
        <ele>656</ele>
        <time>2020-08-20T05:27:41Z</time>
      </trkpt>
      <trkpt lat="44.10087" lon="5.96489">
        <ele>656</ele>
        <time>2020-08-20T05:27:43Z</time>
      </trkpt>
      <trkpt lat="44.10093" lon="5.9647">
        <ele>657</ele>
        <time>2020-08-20T05:27:47Z</time>
      </trkpt>
      <trkpt lat="44.10099" lon="5.96464">
        <ele>657</ele>
        <time>2020-08-20T05:27:49Z</time>
      </trkpt>
      <trkpt lat="44.10115" lon="5.96445">
        <ele>658</ele>
        <time>2020-08-20T05:27:55Z</time>
      </trkpt>
      <trkpt lat="44.10121" lon="5.96439">
        <ele>657</ele>
        <time>2020-08-20T05:27:57Z</time>
      </trkpt>
      <trkpt lat="44.10126" lon="5.96431">
        <ele>657</ele>
        <time>2020-08-20T05:27:59Z</time>
      </trkpt>
      <trkpt lat="44.10128" lon="5.96423">
        <ele>658</ele>
        <time>2020-08-20T05:28:01Z</time>
      </trkpt>
      <trkpt lat="44.10164" lon="5.96378">
        <ele>660</ele>
        <time>2020-08-20T05:28:19Z</time>
      </trkpt>
      <trkpt lat="44.10177" lon="5.96366">
        <ele>659</ele>
        <time>2020-08-20T05:28:23Z</time>
      </trkpt>
      <trkpt lat="44.10194" lon="5.96362">
        <ele>661</ele>
        <time>2020-08-20T05:28:28Z</time>
      </trkpt>
      <trkpt lat="44.1021" lon="5.96356">
        <ele>661</ele>
        <time>2020-08-20T05:28:33Z</time>
      </trkpt>
      <trkpt lat="44.10218" lon="5.9635">
        <ele>660</ele>
        <time>2020-08-20T05:28:35Z</time>
      </trkpt>
      <trkpt lat="44.10216" lon="5.96334">
        <ele>660</ele>
        <time>2020-08-20T05:28:38Z</time>
      </trkpt>
      <trkpt lat="44.10213" lon="5.96328">
        <ele>660</ele>
        <time>2020-08-20T05:28:39Z</time>
      </trkpt>
      <trkpt lat="44.10213" lon="5.96319">
        <ele>660</ele>
        <time>2020-08-20T05:28:40Z</time>
      </trkpt>
      <trkpt lat="44.10215" lon="5.9631">
        <ele>660</ele>
        <time>2020-08-20T05:28:41Z</time>
      </trkpt>
      <trkpt lat="44.10217" lon="5.96301">
        <ele>659</ele>
        <time>2020-08-20T05:28:42Z</time>
      </trkpt>
      <trkpt lat="44.10218" lon="5.96293">
        <ele>658</ele>
        <time>2020-08-20T05:28:43Z</time>
      </trkpt>
      <trkpt lat="44.1022" lon="5.96273">
        <ele>657</ele>
        <time>2020-08-20T05:28:45Z</time>
      </trkpt>
      <trkpt lat="44.10225" lon="5.96209">
        <ele>657</ele>
        <time>2020-08-20T05:28:55Z</time>
      </trkpt>
      <trkpt lat="44.10224" lon="5.96196">
        <ele>657</ele>
        <time>2020-08-20T05:28:57Z</time>
      </trkpt>
      <trkpt lat="44.10221" lon="5.96182">
        <ele>657</ele>
        <time>2020-08-20T05:28:59Z</time>
      </trkpt>
      <trkpt lat="44.10224" lon="5.96165">
        <ele>656</ele>
        <time>2020-08-20T05:29:01Z</time>
      </trkpt>
      <trkpt lat="44.10223" lon="5.96156">
        <ele>655</ele>
        <time>2020-08-20T05:29:02Z</time>
      </trkpt>
      <trkpt lat="44.10221" lon="5.96146">
        <ele>655</ele>
        <time>2020-08-20T05:29:03Z</time>
      </trkpt>
      <trkpt lat="44.10223" lon="5.96097">
        <ele>653</ele>
        <time>2020-08-20T05:29:07Z</time>
      </trkpt>
      <trkpt lat="44.10223" lon="5.9608">
        <ele>651</ele>
        <time>2020-08-20T05:29:09Z</time>
      </trkpt>
      <trkpt lat="44.10219" lon="5.96067">
        <ele>651</ele>
        <time>2020-08-20T05:29:15Z</time>
      </trkpt>
      <trkpt lat="44.10211" lon="5.96055">
        <ele>650</ele>
        <time>2020-08-20T05:29:19Z</time>
      </trkpt>
      <trkpt lat="44.10206" lon="5.96047">
        <ele>650</ele>
        <time>2020-08-20T05:29:21Z</time>
      </trkpt>
      <trkpt lat="44.10215" lon="5.96023">
        <ele>649</ele>
        <time>2020-08-20T05:29:26Z</time>
      </trkpt>
      <trkpt lat="44.10216" lon="5.96012">
        <ele>650</ele>
        <time>2020-08-20T05:29:29Z</time>
      </trkpt>
      <trkpt lat="44.10222" lon="5.95999">
        <ele>651</ele>
        <time>2020-08-20T05:29:33Z</time>
      </trkpt>
      <trkpt lat="44.10226" lon="5.95993">
        <ele>651</ele>
        <time>2020-08-20T05:29:36Z</time>
      </trkpt>
      <trkpt lat="44.10233" lon="5.95988">
        <ele>651</ele>
        <time>2020-08-20T05:29:39Z</time>
      </trkpt>
      <trkpt lat="44.10243" lon="5.95985">
        <ele>653</ele>
        <time>2020-08-20T05:29:55Z</time>
      </trkpt>
      <trkpt lat="44.10255" lon="5.95976">
        <ele>653</ele>
        <time>2020-08-20T05:30:00Z</time>
      </trkpt>
      <trkpt lat="44.10261" lon="5.95975">
        <ele>652</ele>
        <time>2020-08-20T05:30:03Z</time>
      </trkpt>
      <trkpt lat="44.1027" lon="5.95972">
        <ele>652</ele>
        <time>2020-08-20T05:30:07Z</time>
      </trkpt>
      <trkpt lat="44.10283" lon="5.95963">
        <ele>652</ele>
        <time>2020-08-20T05:30:14Z</time>
      </trkpt>
      <trkpt lat="44.10287" lon="5.95958">
        <ele>652</ele>
        <time>2020-08-20T05:30:17Z</time>
      </trkpt>
      <trkpt lat="44.10298" lon="5.9595">
        <ele>654</ele>
        <time>2020-08-20T05:30:23Z</time>
      </trkpt>
      <trkpt lat="44.10291" lon="5.95948">
        <ele>655</ele>
        <time>2020-08-20T05:30:35Z</time>
      </trkpt>
      <trkpt lat="44.10277" lon="5.9595">
        <ele>656</ele>
        <time>2020-08-20T05:30:41Z</time>
      </trkpt>
      <trkpt lat="44.10271" lon="5.95951">
        <ele>656</ele>
        <time>2020-08-20T05:30:43Z</time>
      </trkpt>
      <trkpt lat="44.10263" lon="5.95957">
        <ele>655</ele>
        <time>2020-08-20T05:30:46Z</time>
      </trkpt>
      <trkpt lat="44.10258" lon="5.95957">
        <ele>656</ele>
        <time>2020-08-20T05:30:49Z</time>
      </trkpt>
      <trkpt lat="44.10243" lon="5.95955">
        <ele>658</ele>
        <time>2020-08-20T05:30:57Z</time>
      </trkpt>
      <trkpt lat="44.10245" lon="5.95945">
        <ele>659</ele>
        <time>2020-08-20T05:31:01Z</time>
      </trkpt>
      <trkpt lat="44.10251" lon="5.95942">
        <ele>659</ele>
        <time>2020-08-20T05:31:03Z</time>
      </trkpt>
      <trkpt lat="44.10258" lon="5.95938">
        <ele>659</ele>
        <time>2020-08-20T05:31:06Z</time>
      </trkpt>
      <trkpt lat="44.10264" lon="5.95935">
        <ele>660</ele>
        <time>2020-08-20T05:31:09Z</time>
      </trkpt>
      <trkpt lat="44.10272" lon="5.95933">
        <ele>660</ele>
        <time>2020-08-20T05:31:12Z</time>
      </trkpt>
      <trkpt lat="44.10277" lon="5.95932">
        <ele>661</ele>
        <time>2020-08-20T05:31:14Z</time>
      </trkpt>
      <trkpt lat="44.10283" lon="5.95923">
        <ele>662</ele>
        <time>2020-08-20T05:31:21Z</time>
      </trkpt>
      <trkpt lat="44.10291" lon="5.9592">
        <ele>662</ele>
        <time>2020-08-20T05:31:24Z</time>
      </trkpt>
      <trkpt lat="44.10296" lon="5.95917">
        <ele>662</ele>
        <time>2020-08-20T05:31:26Z</time>
      </trkpt>
      <trkpt lat="44.10299" lon="5.95907">
        <ele>662</ele>
        <time>2020-08-20T05:31:31Z</time>
      </trkpt>
      <trkpt lat="44.10293" lon="5.95902">
        <ele>662</ele>
        <time>2020-08-20T05:31:34Z</time>
      </trkpt>
      <trkpt lat="44.10288" lon="5.95897">
        <ele>663</ele>
        <time>2020-08-20T05:31:37Z</time>
      </trkpt>
      <trkpt lat="44.10279" lon="5.959">
        <ele>663</ele>
        <time>2020-08-20T05:31:42Z</time>
      </trkpt>
      <trkpt lat="44.10272" lon="5.95896">
        <ele>664</ele>
        <time>2020-08-20T05:31:45Z</time>
      </trkpt>
      <trkpt lat="44.10267" lon="5.95894">
        <ele>664</ele>
        <time>2020-08-20T05:31:48Z</time>
      </trkpt>
      <trkpt lat="44.10261" lon="5.95889">
        <ele>665</ele>
        <time>2020-08-20T05:31:51Z</time>
      </trkpt>
      <trkpt lat="44.10256" lon="5.95887">
        <ele>666</ele>
        <time>2020-08-20T05:31:53Z</time>
      </trkpt>
      <trkpt lat="44.10245" lon="5.95877">
        <ele>667</ele>
        <time>2020-08-20T05:31:59Z</time>
      </trkpt>
      <trkpt lat="44.10239" lon="5.95872">
        <ele>666</ele>
        <time>2020-08-20T05:32:01Z</time>
      </trkpt>
      <trkpt lat="44.10218" lon="5.95856">
        <ele>667</ele>
        <time>2020-08-20T05:32:08Z</time>
      </trkpt>
      <trkpt lat="44.10214" lon="5.95845">
        <ele>666</ele>
        <time>2020-08-20T05:32:11Z</time>
      </trkpt>
      <trkpt lat="44.10213" lon="5.95834">
        <ele>667</ele>
        <time>2020-08-20T05:32:14Z</time>
      </trkpt>
      <trkpt lat="44.1022" lon="5.95816">
        <ele>667</ele>
        <time>2020-08-20T05:32:20Z</time>
      </trkpt>
      <trkpt lat="44.10221" lon="5.95807">
        <ele>667</ele>
        <time>2020-08-20T05:32:22Z</time>
      </trkpt>
      <trkpt lat="44.10222" lon="5.95799">
        <ele>667</ele>
        <time>2020-08-20T05:32:24Z</time>
      </trkpt>
      <trkpt lat="44.10224" lon="5.9579">
        <ele>667</ele>
        <time>2020-08-20T05:32:26Z</time>
      </trkpt>
      <trkpt lat="44.1023" lon="5.95782">
        <ele>666</ele>
        <time>2020-08-20T05:32:31Z</time>
      </trkpt>
      <trkpt lat="44.10232" lon="5.95774">
        <ele>668</ele>
        <time>2020-08-20T05:32:35Z</time>
      </trkpt>
      <trkpt lat="44.10249" lon="5.95751">
        <ele>671</ele>
        <time>2020-08-20T05:32:50Z</time>
      </trkpt>
      <trkpt lat="44.10262" lon="5.95747">
        <ele>674</ele>
        <time>2020-08-20T05:32:56Z</time>
      </trkpt>
      <trkpt lat="44.10287" lon="5.95734">
        <ele>674</ele>
        <time>2020-08-20T05:33:08Z</time>
      </trkpt>
      <trkpt lat="44.10282" lon="5.95729">
        <ele>675</ele>
        <time>2020-08-20T05:33:14Z</time>
      </trkpt>
      <trkpt lat="44.10276" lon="5.95729">
        <ele>675</ele>
        <time>2020-08-20T05:33:16Z</time>
      </trkpt>
      <trkpt lat="44.1027" lon="5.95729">
        <ele>676</ele>
        <time>2020-08-20T05:33:18Z</time>
      </trkpt>
      <trkpt lat="44.10263" lon="5.95725">
        <ele>677</ele>
        <time>2020-08-20T05:33:21Z</time>
      </trkpt>
      <trkpt lat="44.10255" lon="5.9572">
        <ele>677</ele>
        <time>2020-08-20T05:33:24Z</time>
      </trkpt>
      <trkpt lat="44.10246" lon="5.95712">
        <ele>678</ele>
        <time>2020-08-20T05:33:29Z</time>
      </trkpt>
      <trkpt lat="44.10234" lon="5.95702">
        <ele>678</ele>
        <time>2020-08-20T05:33:38Z</time>
      </trkpt>
      <trkpt lat="44.1023" lon="5.95696">
        <ele>679</ele>
        <time>2020-08-20T05:33:41Z</time>
      </trkpt>
      <trkpt lat="44.10224" lon="5.9569">
        <ele>679</ele>
        <time>2020-08-20T05:33:45Z</time>
      </trkpt>
      <trkpt lat="44.10221" lon="5.95685">
        <ele>680</ele>
        <time>2020-08-20T05:33:48Z</time>
      </trkpt>
      <trkpt lat="44.10217" lon="5.95678">
        <ele>680</ele>
        <time>2020-08-20T05:33:51Z</time>
      </trkpt>
      <trkpt lat="44.10212" lon="5.95662">
        <ele>682</ele>
        <time>2020-08-20T05:33:58Z</time>
      </trkpt>
      <trkpt lat="44.10209" lon="5.95652">
        <ele>683</ele>
        <time>2020-08-20T05:34:01Z</time>
      </trkpt>
      <trkpt lat="44.10207" lon="5.95642">
        <ele>682</ele>
        <time>2020-08-20T05:34:04Z</time>
      </trkpt>
      <trkpt lat="44.10206" lon="5.95632">
        <ele>682</ele>
        <time>2020-08-20T05:34:07Z</time>
      </trkpt>
      <trkpt lat="44.10205" lon="5.95623">
        <ele>683</ele>
        <time>2020-08-20T05:34:09Z</time>
      </trkpt>
      <trkpt lat="44.10203" lon="5.95604">
        <ele>681</ele>
        <time>2020-08-20T05:34:13Z</time>
      </trkpt>
      <trkpt lat="44.10201" lon="5.95592">
        <ele>681</ele>
        <time>2020-08-20T05:34:15Z</time>
      </trkpt>
      <trkpt lat="44.10203" lon="5.95582">
        <ele>682</ele>
        <time>2020-08-20T05:34:17Z</time>
      </trkpt>
      <trkpt lat="44.10207" lon="5.95574">
        <ele>683</ele>
        <time>2020-08-20T05:34:20Z</time>
      </trkpt>
      <trkpt lat="44.10212" lon="5.95565">
        <ele>684</ele>
        <time>2020-08-20T05:34:24Z</time>
      </trkpt>
      <trkpt lat="44.10217" lon="5.95561">
        <ele>684</ele>
        <time>2020-08-20T05:34:27Z</time>
      </trkpt>
      <trkpt lat="44.10229" lon="5.95546">
        <ele>685</ele>
        <time>2020-08-20T05:34:35Z</time>
      </trkpt>
      <trkpt lat="44.10232" lon="5.95539">
        <ele>686</ele>
        <time>2020-08-20T05:34:39Z</time>
      </trkpt>
      <trkpt lat="44.10235" lon="5.95532">
        <ele>686</ele>
        <time>2020-08-20T05:34:43Z</time>
      </trkpt>
      <trkpt lat="44.10231" lon="5.95524">
        <ele>687</ele>
        <time>2020-08-20T05:34:47Z</time>
      </trkpt>
      <trkpt lat="44.10226" lon="5.95523">
        <ele>688</ele>
        <time>2020-08-20T05:34:50Z</time>
      </trkpt>
      <trkpt lat="44.1022" lon="5.95526">
        <ele>689</ele>
        <time>2020-08-20T05:34:53Z</time>
      </trkpt>
      <trkpt lat="44.10215" lon="5.95522">
        <ele>689</ele>
        <time>2020-08-20T05:34:56Z</time>
      </trkpt>
      <trkpt lat="44.10198" lon="5.9552">
        <ele>691</ele>
        <time>2020-08-20T05:35:05Z</time>
      </trkpt>
      <trkpt lat="44.10186" lon="5.95537">
        <ele>690</ele>
        <time>2020-08-20T05:35:10Z</time>
      </trkpt>
      <trkpt lat="44.10181" lon="5.95545">
        <ele>690</ele>
        <time>2020-08-20T05:35:12Z</time>
      </trkpt>
      <trkpt lat="44.10178" lon="5.95552">
        <ele>691</ele>
        <time>2020-08-20T05:35:14Z</time>
      </trkpt>
      <trkpt lat="44.10171" lon="5.95551">
        <ele>693</ele>
        <time>2020-08-20T05:35:18Z</time>
      </trkpt>
      <trkpt lat="44.10166" lon="5.95547">
        <ele>693</ele>
        <time>2020-08-20T05:35:21Z</time>
      </trkpt>
      <trkpt lat="44.10162" lon="5.9554">
        <ele>694</ele>
        <time>2020-08-20T05:35:24Z</time>
      </trkpt>
      <trkpt lat="44.1016" lon="5.95532">
        <ele>695</ele>
        <time>2020-08-20T05:35:27Z</time>
      </trkpt>
      <trkpt lat="44.1016" lon="5.95523">
        <ele>696</ele>
        <time>2020-08-20T05:35:31Z</time>
      </trkpt>
      <trkpt lat="44.10158" lon="5.95517">
        <ele>696</ele>
        <time>2020-08-20T05:35:34Z</time>
      </trkpt>
      <trkpt lat="44.10147" lon="5.95525">
        <ele>698</ele>
        <time>2020-08-20T05:35:41Z</time>
      </trkpt>
      <trkpt lat="44.10142" lon="5.95529">
        <ele>698</ele>
        <time>2020-08-20T05:35:44Z</time>
      </trkpt>
      <trkpt lat="44.10141" lon="5.95537">
        <ele>695</ele>
        <time>2020-08-20T05:36:59Z</time>
      </trkpt>
      <trkpt lat="44.10134" lon="5.95542">
        <ele>697</ele>
        <time>2020-08-20T05:37:01Z</time>
      </trkpt>
      <trkpt lat="44.10127" lon="5.9555">
        <ele>697</ele>
        <time>2020-08-20T05:37:03Z</time>
      </trkpt>
      <trkpt lat="44.10121" lon="5.95553">
        <ele>698</ele>
        <time>2020-08-20T05:37:05Z</time>
      </trkpt>
      <trkpt lat="44.10112" lon="5.95557">
        <ele>698</ele>
        <time>2020-08-20T05:37:07Z</time>
      </trkpt>
      <trkpt lat="44.10091" lon="5.95568">
        <ele>699</ele>
        <time>2020-08-20T05:37:12Z</time>
      </trkpt>
      <trkpt lat="44.10057" lon="5.95583">
        <ele>699</ele>
        <time>2020-08-20T05:37:17Z</time>
      </trkpt>
      <trkpt lat="44.10045" lon="5.95585">
        <ele>698</ele>
        <time>2020-08-20T05:37:19Z</time>
      </trkpt>
      <trkpt lat="44.10015" lon="5.95645">
        <ele>696</ele>
        <time>2020-08-20T05:37:27Z</time>
      </trkpt>
      <trkpt lat="44.10014" lon="5.95652">
        <ele>694</ele>
        <time>2020-08-20T05:37:29Z</time>
      </trkpt>
      <trkpt lat="44.1002" lon="5.95659">
        <ele>693</ele>
        <time>2020-08-20T05:37:31Z</time>
      </trkpt>
      <trkpt lat="44.10026" lon="5.95664">
        <ele>693</ele>
        <time>2020-08-20T05:37:32Z</time>
      </trkpt>
      <trkpt lat="44.10036" lon="5.95679">
        <ele>692</ele>
        <time>2020-08-20T05:37:35Z</time>
      </trkpt>
      <trkpt lat="44.1004" lon="5.95695">
        <ele>692</ele>
        <time>2020-08-20T05:37:37Z</time>
      </trkpt>
      <trkpt lat="44.1004" lon="5.95704">
        <ele>691</ele>
        <time>2020-08-20T05:37:38Z</time>
      </trkpt>
      <trkpt lat="44.10041" lon="5.95713">
        <ele>691</ele>
        <time>2020-08-20T05:37:39Z</time>
      </trkpt>
      <trkpt lat="44.10041" lon="5.95721">
        <ele>690</ele>
        <time>2020-08-20T05:37:40Z</time>
      </trkpt>
      <trkpt lat="44.10035" lon="5.95794">
        <ele>685</ele>
        <time>2020-08-20T05:37:49Z</time>
      </trkpt>
      <trkpt lat="44.10032" lon="5.95804">
        <ele>685</ele>
        <time>2020-08-20T05:37:51Z</time>
      </trkpt>
      <trkpt lat="44.10015" lon="5.95829">
        <ele>685</ele>
        <time>2020-08-20T05:37:56Z</time>
      </trkpt>
      <trkpt lat="44.09989" lon="5.95851">
        <ele>682</ele>
        <time>2020-08-20T05:38:01Z</time>
      </trkpt>
      <trkpt lat="44.09983" lon="5.95859">
        <ele>681</ele>
        <time>2020-08-20T05:38:03Z</time>
      </trkpt>
      <trkpt lat="44.09974" lon="5.95867">
        <ele>681</ele>
        <time>2020-08-20T05:38:05Z</time>
      </trkpt>
      <trkpt lat="44.09947" lon="5.95874">
        <ele>678</ele>
        <time>2020-08-20T05:38:08Z</time>
      </trkpt>
      <trkpt lat="44.0992" lon="5.95899">
        <ele>674</ele>
        <time>2020-08-20T05:38:13Z</time>
      </trkpt>
      <trkpt lat="44.09891" lon="5.95906">
        <ele>672</ele>
        <time>2020-08-20T05:38:18Z</time>
      </trkpt>
      <trkpt lat="44.0988" lon="5.95912">
        <ele>671</ele>
        <time>2020-08-20T05:38:20Z</time>
      </trkpt>
      <trkpt lat="44.0987" lon="5.95923">
        <ele>669</ele>
        <time>2020-08-20T05:38:22Z</time>
      </trkpt>
      <trkpt lat="44.0986" lon="5.95934">
        <ele>668</ele>
        <time>2020-08-20T05:38:24Z</time>
      </trkpt>
      <trkpt lat="44.09838" lon="5.95946">
        <ele>667</ele>
        <time>2020-08-20T05:38:27Z</time>
      </trkpt>
      <trkpt lat="44.09829" lon="5.95946">
        <ele>667</ele>
        <time>2020-08-20T05:38:29Z</time>
      </trkpt>
      <trkpt lat="44.09822" lon="5.95945">
        <ele>666</ele>
        <time>2020-08-20T05:38:31Z</time>
      </trkpt>
      <trkpt lat="44.09815" lon="5.9595">
        <ele>665</ele>
        <time>2020-08-20T05:38:34Z</time>
      </trkpt>
      <trkpt lat="44.09779" lon="5.95946">
        <ele>665</ele>
        <time>2020-08-20T05:38:41Z</time>
      </trkpt>
      <trkpt lat="44.0977" lon="5.95948">
        <ele>664</ele>
        <time>2020-08-20T05:38:43Z</time>
      </trkpt>
      <trkpt lat="44.09762" lon="5.95951">
        <ele>664</ele>
        <time>2020-08-20T05:38:45Z</time>
      </trkpt>
      <trkpt lat="44.09757" lon="5.95959">
        <ele>664</ele>
        <time>2020-08-20T05:38:47Z</time>
      </trkpt>
      <trkpt lat="44.0975" lon="5.95965">
        <ele>664</ele>
        <time>2020-08-20T05:38:50Z</time>
      </trkpt>
      <trkpt lat="44.09722" lon="5.95976">
        <ele>664</ele>
        <time>2020-08-20T05:38:56Z</time>
      </trkpt>
      <trkpt lat="44.09668" lon="5.95977">
        <ele>662</ele>
        <time>2020-08-20T05:39:05Z</time>
      </trkpt>
      <trkpt lat="44.09649" lon="5.95975">
        <ele>661</ele>
        <time>2020-08-20T05:39:08Z</time>
      </trkpt>
      <trkpt lat="44.09639" lon="5.95977">
        <ele>661</ele>
        <time>2020-08-20T05:39:10Z</time>
      </trkpt>
      <trkpt lat="44.0963" lon="5.95981">
        <ele>662</ele>
        <time>2020-08-20T05:39:12Z</time>
      </trkpt>
      <trkpt lat="44.09622" lon="5.95982">
        <ele>662</ele>
        <time>2020-08-20T05:39:14Z</time>
      </trkpt>
      <trkpt lat="44.09613" lon="5.95984">
        <ele>663</ele>
        <time>2020-08-20T05:39:16Z</time>
      </trkpt>
      <trkpt lat="44.09604" lon="5.95992">
        <ele>662</ele>
        <time>2020-08-20T05:39:19Z</time>
      </trkpt>
      <trkpt lat="44.09568" lon="5.96044">
        <ele>659</ele>
        <time>2020-08-20T05:39:27Z</time>
      </trkpt>
      <trkpt lat="44.09557" lon="5.96054">
        <ele>658</ele>
        <time>2020-08-20T05:39:29Z</time>
      </trkpt>
      <trkpt lat="44.09549" lon="5.96057">
        <ele>657</ele>
        <time>2020-08-20T05:39:31Z</time>
      </trkpt>
      <trkpt lat="44.09532" lon="5.96072">
        <ele>657</ele>
        <time>2020-08-20T05:39:36Z</time>
      </trkpt>
      <trkpt lat="44.09525" lon="5.96083">
        <ele>656</ele>
        <time>2020-08-20T05:39:39Z</time>
      </trkpt>
      <trkpt lat="44.09518" lon="5.96091">
        <ele>655</ele>
        <time>2020-08-20T05:39:41Z</time>
      </trkpt>
      <trkpt lat="44.09511" lon="5.96117">
        <ele>653</ele>
        <time>2020-08-20T05:39:45Z</time>
      </trkpt>
      <trkpt lat="44.09508" lon="5.96133">
        <ele>652</ele>
        <time>2020-08-20T05:39:47Z</time>
      </trkpt>
      <trkpt lat="44.09505" lon="5.96141">
        <ele>652</ele>
        <time>2020-08-20T05:39:48Z</time>
      </trkpt>
      <trkpt lat="44.09498" lon="5.96158">
        <ele>650</ele>
        <time>2020-08-20T05:39:50Z</time>
      </trkpt>
      <trkpt lat="44.09497" lon="5.96169">
        <ele>647</ele>
        <time>2020-08-20T05:39:52Z</time>
      </trkpt>
      <trkpt lat="44.09497" lon="5.96181">
        <ele>646</ele>
        <time>2020-08-20T05:39:54Z</time>
      </trkpt>
      <trkpt lat="44.0949" lon="5.96195">
        <ele>645</ele>
        <time>2020-08-20T05:39:56Z</time>
      </trkpt>
      <trkpt lat="44.09462" lon="5.96223">
        <ele>641</ele>
        <time>2020-08-20T05:40:01Z</time>
      </trkpt>
      <trkpt lat="44.09403" lon="5.96255">
        <ele>642</ele>
        <time>2020-08-20T05:40:16Z</time>
      </trkpt>
      <trkpt lat="44.0938" lon="5.96259">
        <ele>641</ele>
        <time>2020-08-20T05:40:19Z</time>
      </trkpt>
      <trkpt lat="44.09261" lon="5.96249">
        <ele>638</ele>
        <time>2020-08-20T05:40:41Z</time>
      </trkpt>
      <trkpt lat="44.09254" lon="5.9625">
        <ele>638</ele>
        <time>2020-08-20T05:40:43Z</time>
      </trkpt>
      <trkpt lat="44.09247" lon="5.96251">
        <ele>638</ele>
        <time>2020-08-20T05:40:45Z</time>
      </trkpt>
      <trkpt lat="44.09238" lon="5.96252">
        <ele>638</ele>
        <time>2020-08-20T05:40:47Z</time>
      </trkpt>
      <trkpt lat="44.0923" lon="5.96251">
        <ele>637</ele>
        <time>2020-08-20T05:40:49Z</time>
      </trkpt>
      <trkpt lat="44.0922" lon="5.96258">
        <ele>637</ele>
        <time>2020-08-20T05:40:52Z</time>
      </trkpt>
      <trkpt lat="44.09189" lon="5.96258">
        <ele>635</ele>
        <time>2020-08-20T05:40:58Z</time>
      </trkpt>
      <trkpt lat="44.09136" lon="5.96272">
        <ele>632</ele>
        <time>2020-08-20T05:41:07Z</time>
      </trkpt>
      <trkpt lat="44.09123" lon="5.96272">
        <ele>630</ele>
        <time>2020-08-20T05:41:09Z</time>
      </trkpt>
      <trkpt lat="44.09115" lon="5.96272">
        <ele>630</ele>
        <time>2020-08-20T05:41:10Z</time>
      </trkpt>
      <trkpt lat="44.09068" lon="5.96281">
        <ele>625</ele>
        <time>2020-08-20T05:41:16Z</time>
      </trkpt>
      <trkpt lat="44.0905" lon="5.96296">
        <ele>622</ele>
        <time>2020-08-20T05:41:19Z</time>
      </trkpt>
      <trkpt lat="44.09043" lon="5.96312">
        <ele>620</ele>
        <time>2020-08-20T05:41:21Z</time>
      </trkpt>
      <trkpt lat="44.09031" lon="5.96339">
        <ele>617</ele>
        <time>2020-08-20T05:41:25Z</time>
      </trkpt>
      <trkpt lat="44.09019" lon="5.9635">
        <ele>616</ele>
        <time>2020-08-20T05:41:26Z</time>
      </trkpt>
      <trkpt lat="44.09011" lon="5.96372">
        <ele>614</ele>
        <time>2020-08-20T05:41:29Z</time>
      </trkpt>
      <trkpt lat="44.09007" lon="5.96382">
        <ele>613</ele>
        <time>2020-08-20T05:41:30Z</time>
      </trkpt>
      <trkpt lat="44.09007" lon="5.96394">
        <ele>612</ele>
        <time>2020-08-20T05:41:31Z</time>
      </trkpt>
      <trkpt lat="44.09018" lon="5.96428">
        <ele>609</ele>
        <time>2020-08-20T05:41:34Z</time>
      </trkpt>
      <trkpt lat="44.09012" lon="5.96489">
        <ele>607</ele>
        <time>2020-08-20T05:41:38Z</time>
      </trkpt>
      <trkpt lat="44.09008" lon="5.9653">
        <ele>600</ele>
        <time>2020-08-20T05:41:42Z</time>
      </trkpt>
      <trkpt lat="44.09005" lon="5.96539">
        <ele>598</ele>
        <time>2020-08-20T05:41:44Z</time>
      </trkpt>
      <trkpt lat="44.08984" lon="5.96532">
        <ele>595</ele>
        <time>2020-08-20T05:41:48Z</time>
      </trkpt>
      <trkpt lat="44.08943" lon="5.96507">
        <ele>593</ele>
        <time>2020-08-20T05:41:55Z</time>
      </trkpt>
      <trkpt lat="44.08914" lon="5.96515">
        <ele>592</ele>
        <time>2020-08-20T05:41:58Z</time>
      </trkpt>
      <trkpt lat="44.08866" lon="5.96466">
        <ele>590</ele>
        <time>2020-08-20T05:42:06Z</time>
      </trkpt>
      <trkpt lat="44.08871" lon="5.96447">
        <ele>589</ele>
        <time>2020-08-20T05:42:07Z</time>
      </trkpt>
      <trkpt lat="44.08861" lon="5.96435">
        <ele>588</ele>
        <time>2020-08-20T05:42:09Z</time>
      </trkpt>
      <trkpt lat="44.08839" lon="5.96408">
        <ele>587</ele>
        <time>2020-08-20T05:42:13Z</time>
      </trkpt>
      <trkpt lat="44.08834" lon="5.964">
        <ele>587</ele>
        <time>2020-08-20T05:42:14Z</time>
      </trkpt>
      <trkpt lat="44.08832" lon="5.9639">
        <ele>586</ele>
        <time>2020-08-20T05:42:15Z</time>
      </trkpt>
      <trkpt lat="44.08835" lon="5.96335">
        <ele>583</ele>
        <time>2020-08-20T05:42:20Z</time>
      </trkpt>
      <trkpt lat="44.08855" lon="5.96275">
        <ele>580</ele>
        <time>2020-08-20T05:42:26Z</time>
      </trkpt>
      <trkpt lat="44.08875" lon="5.96266">
        <ele>580</ele>
        <time>2020-08-20T05:42:28Z</time>
      </trkpt>
      <trkpt lat="44.08973" lon="5.96022">
        <ele>568</ele>
        <time>2020-08-20T05:42:52Z</time>
      </trkpt>
      <trkpt lat="44.08976" lon="5.96007">
        <ele>567</ele>
        <time>2020-08-20T05:42:54Z</time>
      </trkpt>
      <trkpt lat="44.08974" lon="5.95994">
        <ele>567</ele>
        <time>2020-08-20T05:42:55Z</time>
      </trkpt>
      <trkpt lat="44.08947" lon="5.95919">
        <ele>564</ele>
        <time>2020-08-20T05:43:02Z</time>
      </trkpt>
      <trkpt lat="44.08942" lon="5.95884">
        <ele>562</ele>
        <time>2020-08-20T05:43:05Z</time>
      </trkpt>
      <trkpt lat="44.08947" lon="5.95788">
        <ele>559</ele>
        <time>2020-08-20T05:43:14Z</time>
      </trkpt>
      <trkpt lat="44.08957" lon="5.95743">
        <ele>557</ele>
        <time>2020-08-20T05:43:19Z</time>
      </trkpt>
      <trkpt lat="44.08981" lon="5.9568">
        <ele>555</ele>
        <time>2020-08-20T05:43:27Z</time>
      </trkpt>
      <trkpt lat="44.08983" lon="5.95649">
        <ele>554</ele>
        <time>2020-08-20T05:43:31Z</time>
      </trkpt>
      <trkpt lat="44.08954" lon="5.95558">
        <ele>550</ele>
        <time>2020-08-20T05:43:42Z</time>
      </trkpt>
      <trkpt lat="44.08989" lon="5.95565">
        <ele>548</ele>
        <time>2020-08-20T05:43:48Z</time>
      </trkpt>
      <trkpt lat="44.09051" lon="5.95535">
        <ele>548</ele>
        <time>2020-08-20T05:44:02Z</time>
      </trkpt>
      <trkpt lat="44.09051" lon="5.95512">
        <ele>548</ele>
        <time>2020-08-20T05:44:04Z</time>
      </trkpt>
      <trkpt lat="44.09102" lon="5.95478">
        <ele>547</ele>
        <time>2020-08-20T05:44:18Z</time>
      </trkpt>
      <trkpt lat="44.09195" lon="5.95394">
        <ele>549</ele>
        <time>2020-08-20T05:44:50Z</time>
      </trkpt>
      <trkpt lat="44.09279" lon="5.95281">
        <ele>550</ele>
        <time>2020-08-20T05:45:21Z</time>
      </trkpt>
      <trkpt lat="44.09349" lon="5.9514">
        <ele>552</ele>
        <time>2020-08-20T05:45:52Z</time>
      </trkpt>
      <trkpt lat="44.09354" lon="5.95129">
        <ele>553</ele>
        <time>2020-08-20T05:45:54Z</time>
      </trkpt>
      <trkpt lat="44.09359" lon="5.95122">
        <ele>553</ele>
        <time>2020-08-20T05:45:56Z</time>
      </trkpt>
      <trkpt lat="44.09367" lon="5.95069">
        <ele>553</ele>
        <time>2020-08-20T05:46:06Z</time>
      </trkpt>
      <trkpt lat="44.09374" lon="5.95016">
        <ele>554</ele>
        <time>2020-08-20T05:46:18Z</time>
      </trkpt>
      <trkpt lat="44.09372" lon="5.94985">
        <ele>556</ele>
        <time>2020-08-20T05:46:28Z</time>
      </trkpt>
      <trkpt lat="44.09377" lon="5.94981">
        <ele>556</ele>
        <time>2020-08-20T05:46:46Z</time>
      </trkpt>
      <trkpt lat="44.09365" lon="5.94979">
        <ele>558</ele>
        <time>2020-08-20T05:47:15Z</time>
      </trkpt>
      <trkpt lat="44.09312" lon="5.94991">
        <ele>557</ele>
        <time>2020-08-20T05:47:30Z</time>
      </trkpt>
      <trkpt lat="44.09307" lon="5.94988">
        <ele>550</ele>
        <time>2020-08-20T05:48:14Z</time>
      </trkpt>
      <trkpt lat="44.09301" lon="5.94991">
        <ele>552</ele>
        <time>2020-08-20T05:48:19Z</time>
      </trkpt>
      <trkpt lat="44.09294" lon="5.94996">
        <ele>553</ele>
        <time>2020-08-20T05:48:21Z</time>
      </trkpt>
      <trkpt lat="44.09272" lon="5.95001">
        <ele>553</ele>
        <time>2020-08-20T05:48:27Z</time>
      </trkpt>
      <trkpt lat="44.09135" lon="5.95035">
        <ele>557</ele>
        <time>2020-08-20T05:48:55Z</time>
      </trkpt>
      <trkpt lat="44.09128" lon="5.95038">
        <ele>556</ele>
        <time>2020-08-20T05:48:57Z</time>
      </trkpt>
      <trkpt lat="44.09075" lon="5.9505">
        <ele>557</ele>
        <time>2020-08-20T05:49:09Z</time>
      </trkpt>
      <trkpt lat="44.09065" lon="5.95051">
        <ele>558</ele>
        <time>2020-08-20T05:49:11Z</time>
      </trkpt>
      <trkpt lat="44.08913" lon="5.95085">
        <ele>560</ele>
        <time>2020-08-20T05:49:42Z</time>
      </trkpt>
      <trkpt lat="44.08793" lon="5.95113">
        <ele>562</ele>
        <time>2020-08-20T05:50:13Z</time>
      </trkpt>
      <trkpt lat="44.08655" lon="5.95154">
        <ele>562</ele>
        <time>2020-08-20T05:50:42Z</time>
      </trkpt>
      <trkpt lat="44.08651" lon="5.95147">
        <ele>562</ele>
        <time>2020-08-20T05:50:43Z</time>
      </trkpt>
      <trkpt lat="44.08604" lon="5.9517">
        <ele>562</ele>
        <time>2020-08-20T05:50:55Z</time>
      </trkpt>
      <trkpt lat="44.08573" lon="5.95184">
        <ele>561</ele>
        <time>2020-08-20T05:51:01Z</time>
      </trkpt>
      <trkpt lat="44.08569" lon="5.95195">
        <ele>560</ele>
        <time>2020-08-20T05:51:02Z</time>
      </trkpt>
      <trkpt lat="44.08536" lon="5.95213">
        <ele>558</ele>
        <time>2020-08-20T05:51:08Z</time>
      </trkpt>
      <trkpt lat="44.08373" lon="5.95308">
        <ele>559</ele>
        <time>2020-08-20T05:51:40Z</time>
      </trkpt>
      <trkpt lat="44.08293" lon="5.9535">
        <ele>558</ele>
        <time>2020-08-20T05:52:00Z</time>
      </trkpt>
      <trkpt lat="44.08284" lon="5.95335">
        <ele>558</ele>
        <time>2020-08-20T05:52:03Z</time>
      </trkpt>
      <trkpt lat="44.08279" lon="5.95341">
        <ele>558</ele>
        <time>2020-08-20T05:52:14Z</time>
      </trkpt>
      <trkpt lat="44.08271" lon="5.95346">
        <ele>559</ele>
        <time>2020-08-20T05:52:17Z</time>
      </trkpt>
      <trkpt lat="44.08246" lon="5.95363">
        <ele>559</ele>
        <time>2020-08-20T05:52:26Z</time>
      </trkpt>
      <trkpt lat="44.08239" lon="5.95371">
        <ele>559</ele>
        <time>2020-08-20T05:52:30Z</time>
      </trkpt>
      <trkpt lat="44.08236" lon="5.95395">
        <ele>559</ele>
        <time>2020-08-20T05:52:35Z</time>
      </trkpt>
      <trkpt lat="44.08231" lon="5.95438">
        <ele>561</ele>
        <time>2020-08-20T05:52:46Z</time>
      </trkpt>
      <trkpt lat="44.08219" lon="5.95467">
        <ele>562</ele>
        <time>2020-08-20T05:52:55Z</time>
      </trkpt>
      <trkpt lat="44.08197" lon="5.95499">
        <ele>563</ele>
        <time>2020-08-20T05:53:06Z</time>
      </trkpt>
      <trkpt lat="44.08192" lon="5.95516">
        <ele>564</ele>
        <time>2020-08-20T05:53:11Z</time>
      </trkpt>
      <trkpt lat="44.08189" lon="5.95536">
        <ele>565</ele>
        <time>2020-08-20T05:53:17Z</time>
      </trkpt>
      <trkpt lat="44.08192" lon="5.95556">
        <ele>566</ele>
        <time>2020-08-20T05:53:23Z</time>
      </trkpt>
      <trkpt lat="44.0819" lon="5.95579">
        <ele>567</ele>
        <time>2020-08-20T05:53:29Z</time>
      </trkpt>
      <trkpt lat="44.08188" lon="5.9559">
        <ele>568</ele>
        <time>2020-08-20T05:53:32Z</time>
      </trkpt>
      <trkpt lat="44.08179" lon="5.95604">
        <ele>569</ele>
        <time>2020-08-20T05:53:38Z</time>
      </trkpt>
      <trkpt lat="44.08151" lon="5.95631">
        <ele>571</ele>
        <time>2020-08-20T05:53:51Z</time>
      </trkpt>
      <trkpt lat="44.08135" lon="5.95637">
        <ele>571</ele>
        <time>2020-08-20T05:53:57Z</time>
      </trkpt>
      <trkpt lat="44.08128" lon="5.95644">
        <ele>572</ele>
        <time>2020-08-20T05:54:03Z</time>
      </trkpt>
      <trkpt lat="44.08135" lon="5.95665">
        <ele>572</ele>
        <time>2020-08-20T05:54:08Z</time>
      </trkpt>
      <trkpt lat="44.08179" lon="5.95774">
        <ele>576</ele>
        <time>2020-08-20T05:54:40Z</time>
      </trkpt>
      <trkpt lat="44.08187" lon="5.95806">
        <ele>578</ele>
        <time>2020-08-20T05:54:48Z</time>
      </trkpt>
      <trkpt lat="44.08189" lon="5.95827">
        <ele>579</ele>
        <time>2020-08-20T05:54:53Z</time>
      </trkpt>
      <trkpt lat="44.0818" lon="5.95876">
        <ele>582</ele>
        <time>2020-08-20T05:55:06Z</time>
      </trkpt>
      <trkpt lat="44.0818" lon="5.95888">
        <ele>583</ele>
        <time>2020-08-20T05:55:09Z</time>
      </trkpt>
      <trkpt lat="44.08175" lon="5.9591">
        <ele>584</ele>
        <time>2020-08-20T05:55:15Z</time>
      </trkpt>
      <trkpt lat="44.08171" lon="5.95922">
        <ele>585</ele>
        <time>2020-08-20T05:55:18Z</time>
      </trkpt>
      <trkpt lat="44.08163" lon="5.95928">
        <ele>586</ele>
        <time>2020-08-20T05:55:21Z</time>
      </trkpt>
      <trkpt lat="44.08147" lon="5.95924">
        <ele>586</ele>
        <time>2020-08-20T05:55:26Z</time>
      </trkpt>
      <trkpt lat="44.08117" lon="5.95885">
        <ele>587</ele>
        <time>2020-08-20T05:55:38Z</time>
      </trkpt>
      <trkpt lat="44.08104" lon="5.95858">
        <ele>588</ele>
        <time>2020-08-20T05:55:45Z</time>
      </trkpt>
      <trkpt lat="44.08075" lon="5.95833">
        <ele>589</ele>
        <time>2020-08-20T05:55:55Z</time>
      </trkpt>
      <trkpt lat="44.08066" lon="5.95829">
        <ele>590</ele>
        <time>2020-08-20T05:55:58Z</time>
      </trkpt>
      <trkpt lat="44.08028" lon="5.95823">
        <ele>591</ele>
        <time>2020-08-20T05:56:09Z</time>
      </trkpt>
      <trkpt lat="44.07989" lon="5.95818">
        <ele>593</ele>
        <time>2020-08-20T05:56:21Z</time>
      </trkpt>
      <trkpt lat="44.07963" lon="5.95812">
        <ele>594</ele>
        <time>2020-08-20T05:56:30Z</time>
      </trkpt>
      <trkpt lat="44.07958" lon="5.95809">
        <ele>594</ele>
        <time>2020-08-20T05:56:32Z</time>
      </trkpt>
      <trkpt lat="44.07937" lon="5.95776">
        <ele>595</ele>
        <time>2020-08-20T05:56:43Z</time>
      </trkpt>
      <trkpt lat="44.07929" lon="5.95748">
        <ele>596</ele>
        <time>2020-08-20T05:56:51Z</time>
      </trkpt>
      <trkpt lat="44.07923" lon="5.95742">
        <ele>596</ele>
        <time>2020-08-20T05:56:54Z</time>
      </trkpt>
      <trkpt lat="44.07917" lon="5.95738">
        <ele>596</ele>
        <time>2020-08-20T05:56:57Z</time>
      </trkpt>
      <trkpt lat="44.07906" lon="5.95719">
        <ele>598</ele>
        <time>2020-08-20T05:57:05Z</time>
      </trkpt>
      <trkpt lat="44.07896" lon="5.95701">
        <ele>598</ele>
        <time>2020-08-20T05:57:13Z</time>
      </trkpt>
      <trkpt lat="44.07892" lon="5.95695">
        <ele>599</ele>
        <time>2020-08-20T05:57:17Z</time>
      </trkpt>
      <trkpt lat="44.07881" lon="5.95684">
        <ele>600</ele>
        <time>2020-08-20T05:57:23Z</time>
      </trkpt>
      <trkpt lat="44.07845" lon="5.95661">
        <ele>601</ele>
        <time>2020-08-20T05:57:37Z</time>
      </trkpt>
      <trkpt lat="44.07832" lon="5.95652">
        <ele>601</ele>
        <time>2020-08-20T05:57:43Z</time>
      </trkpt>
      <trkpt lat="44.07789" lon="5.95621">
        <ele>603</ele>
        <time>2020-08-20T05:58:01Z</time>
      </trkpt>
      <trkpt lat="44.07769" lon="5.95605">
        <ele>605</ele>
        <time>2020-08-20T05:58:10Z</time>
      </trkpt>
      <trkpt lat="44.07758" lon="5.95592">
        <ele>607</ele>
        <time>2020-08-20T05:58:20Z</time>
      </trkpt>
      <trkpt lat="44.07746" lon="5.95584">
        <ele>607</ele>
        <time>2020-08-20T05:58:26Z</time>
      </trkpt>
      <trkpt lat="44.07736" lon="5.95576">
        <ele>608</ele>
        <time>2020-08-20T05:58:30Z</time>
      </trkpt>
      <trkpt lat="44.07715" lon="5.95556">
        <ele>608</ele>
        <time>2020-08-20T05:58:38Z</time>
      </trkpt>
      <trkpt lat="44.07631" lon="5.95469">
        <ele>607</ele>
        <time>2020-08-20T05:59:03Z</time>
      </trkpt>
      <trkpt lat="44.07609" lon="5.95421">
        <ele>605</ele>
        <time>2020-08-20T05:59:11Z</time>
      </trkpt>
      <trkpt lat="44.0759" lon="5.9537">
        <ele>604</ele>
        <time>2020-08-20T05:59:18Z</time>
      </trkpt>
      <trkpt lat="44.07573" lon="5.95302">
        <ele>604</ele>
        <time>2020-08-20T05:59:28Z</time>
      </trkpt>
      <trkpt lat="44.07574" lon="5.95288">
        <ele>603</ele>
        <time>2020-08-20T05:59:30Z</time>
      </trkpt>
      <trkpt lat="44.07573" lon="5.9521">
        <ele>602</ele>
        <time>2020-08-20T05:59:40Z</time>
      </trkpt>
      <trkpt lat="44.07573" lon="5.95202">
        <ele>602</ele>
        <time>2020-08-20T05:59:41Z</time>
      </trkpt>
      <trkpt lat="44.07579" lon="5.95186">
        <ele>601</ele>
        <time>2020-08-20T05:59:43Z</time>
      </trkpt>
      <trkpt lat="44.07603" lon="5.95169">
        <ele>602</ele>
        <time>2020-08-20T05:59:49Z</time>
      </trkpt>
      <trkpt lat="44.07611" lon="5.95161">
        <ele>602</ele>
        <time>2020-08-20T05:59:51Z</time>
      </trkpt>
      <trkpt lat="44.07616" lon="5.95152">
        <ele>601</ele>
        <time>2020-08-20T05:59:53Z</time>
      </trkpt>
      <trkpt lat="44.07616" lon="5.9514">
        <ele>601</ele>
        <time>2020-08-20T05:59:56Z</time>
      </trkpt>
      <trkpt lat="44.07618" lon="5.95132">
        <ele>593</ele>
        <time>2020-08-20T06:00:30Z</time>
      </trkpt>
      <trkpt lat="44.07614" lon="5.95125">
        <ele>596</ele>
        <time>2020-08-20T06:01:22Z</time>
      </trkpt>
      <trkpt lat="44.07611" lon="5.95118">
        <ele>598</ele>
        <time>2020-08-20T06:01:24Z</time>
      </trkpt>
      <trkpt lat="44.07611" lon="5.9511">
        <ele>598</ele>
        <time>2020-08-20T06:01:26Z</time>
      </trkpt>
      <trkpt lat="44.07617" lon="5.95103">
        <ele>598</ele>
        <time>2020-08-20T06:01:28Z</time>
      </trkpt>
      <trkpt lat="44.0762" lon="5.95097">
        <ele>598</ele>
        <time>2020-08-20T06:01:29Z</time>
      </trkpt>
      <trkpt lat="44.07626" lon="5.95079">
        <ele>598</ele>
        <time>2020-08-20T06:01:32Z</time>
      </trkpt>
      <trkpt lat="44.07626" lon="5.95072">
        <ele>598</ele>
        <time>2020-08-20T06:01:33Z</time>
      </trkpt>
      <trkpt lat="44.07621" lon="5.95061">
        <ele>598</ele>
        <time>2020-08-20T06:01:35Z</time>
      </trkpt>
      <trkpt lat="44.07618" lon="5.95055">
        <ele>598</ele>
        <time>2020-08-20T06:01:36Z</time>
      </trkpt>
      <trkpt lat="44.07618" lon="5.95044">
        <ele>598</ele>
        <time>2020-08-20T06:01:38Z</time>
      </trkpt>
      <trkpt lat="44.07629" lon="5.95025">
        <ele>597</ele>
        <time>2020-08-20T06:01:42Z</time>
      </trkpt>
      <trkpt lat="44.07643" lon="5.95016">
        <ele>598</ele>
        <time>2020-08-20T06:01:46Z</time>
      </trkpt>
      <trkpt lat="44.07669" lon="5.95007">
        <ele>600</ele>
        <time>2020-08-20T06:01:55Z</time>
      </trkpt>
      <trkpt lat="44.07675" lon="5.95003">
        <ele>601</ele>
        <time>2020-08-20T06:01:58Z</time>
      </trkpt>
      <trkpt lat="44.07682" lon="5.94998">
        <ele>601</ele>
        <time>2020-08-20T06:02:01Z</time>
      </trkpt>
      <trkpt lat="44.077" lon="5.94991">
        <ele>600</ele>
        <time>2020-08-20T06:02:07Z</time>
      </trkpt>
      <trkpt lat="44.07721" lon="5.94992">
        <ele>600</ele>
        <time>2020-08-20T06:02:12Z</time>
      </trkpt>
      <trkpt lat="44.07742" lon="5.94994">
        <ele>600</ele>
        <time>2020-08-20T06:02:16Z</time>
      </trkpt>
      <trkpt lat="44.07772" lon="5.95">
        <ele>599</ele>
        <time>2020-08-20T06:02:20Z</time>
      </trkpt>
      <trkpt lat="44.07795" lon="5.94999">
        <ele>597</ele>
        <time>2020-08-20T06:02:23Z</time>
      </trkpt>
      <trkpt lat="44.07802" lon="5.94995">
        <ele>597</ele>
        <time>2020-08-20T06:02:24Z</time>
      </trkpt>
      <trkpt lat="44.0781" lon="5.94993">
        <ele>596</ele>
        <time>2020-08-20T06:02:25Z</time>
      </trkpt>
      <trkpt lat="44.07828" lon="5.94968">
        <ele>593</ele>
        <time>2020-08-20T06:02:29Z</time>
      </trkpt>
      <trkpt lat="44.07846" lon="5.94951">
        <ele>590</ele>
        <time>2020-08-20T06:02:33Z</time>
      </trkpt>
      <trkpt lat="44.07895" lon="5.94936">
        <ele>588</ele>
        <time>2020-08-20T06:02:41Z</time>
      </trkpt>
      <trkpt lat="44.08066" lon="5.9495">
        <ele>583</ele>
        <time>2020-08-20T06:03:12Z</time>
      </trkpt>
      <trkpt lat="44.08073" lon="5.94951">
        <ele>583</ele>
        <time>2020-08-20T06:03:15Z</time>
      </trkpt>
      <trkpt lat="44.08071" lon="5.94947">
        <ele>577</ele>
        <time>2020-08-20T06:04:37Z</time>
      </trkpt>
      <trkpt lat="44.08077" lon="5.94938">
        <ele>577</ele>
        <time>2020-08-20T06:04:59Z</time>
      </trkpt>
      <trkpt lat="44.08084" lon="5.94934">
        <ele>579</ele>
        <time>2020-08-20T06:05:01Z</time>
      </trkpt>
      <trkpt lat="44.08113" lon="5.94928">
        <ele>582</ele>
        <time>2020-08-20T06:05:08Z</time>
      </trkpt>
      <trkpt lat="44.08149" lon="5.94915">
        <ele>582</ele>
        <time>2020-08-20T06:05:16Z</time>
      </trkpt>
      <trkpt lat="44.08156" lon="5.94914">
        <ele>583</ele>
        <time>2020-08-20T06:05:18Z</time>
      </trkpt>
      <trkpt lat="44.08165" lon="5.9491">
        <ele>583</ele>
        <time>2020-08-20T06:05:20Z</time>
      </trkpt>
      <trkpt lat="44.08172" lon="5.94907">
        <ele>582</ele>
        <time>2020-08-20T06:05:22Z</time>
      </trkpt>
      <trkpt lat="44.08177" lon="5.94905">
        <ele>582</ele>
        <time>2020-08-20T06:05:24Z</time>
      </trkpt>
      <trkpt lat="44.0819" lon="5.94899">
        <ele>584</ele>
        <time>2020-08-20T06:05:28Z</time>
      </trkpt>
      <trkpt lat="44.08198" lon="5.94896">
        <ele>584</ele>
        <time>2020-08-20T06:05:30Z</time>
      </trkpt>
      <trkpt lat="44.08207" lon="5.94893">
        <ele>584</ele>
        <time>2020-08-20T06:05:32Z</time>
      </trkpt>
      <trkpt lat="44.08214" lon="5.9489">
        <ele>583</ele>
        <time>2020-08-20T06:05:34Z</time>
      </trkpt>
      <trkpt lat="44.08221" lon="5.94882">
        <ele>582</ele>
        <time>2020-08-20T06:05:36Z</time>
      </trkpt>
      <trkpt lat="44.08227" lon="5.94873">
        <ele>582</ele>
        <time>2020-08-20T06:05:38Z</time>
      </trkpt>
      <trkpt lat="44.08233" lon="5.94847">
        <ele>583</ele>
        <time>2020-08-20T06:05:42Z</time>
      </trkpt>
      <trkpt lat="44.08233" lon="5.94805">
        <ele>582</ele>
        <time>2020-08-20T06:05:48Z</time>
      </trkpt>
      <trkpt lat="44.08231" lon="5.94793">
        <ele>582</ele>
        <time>2020-08-20T06:05:50Z</time>
      </trkpt>
      <trkpt lat="44.08216" lon="5.94759">
        <ele>582</ele>
        <time>2020-08-20T06:05:58Z</time>
      </trkpt>
      <trkpt lat="44.08214" lon="5.94749">
        <ele>583</ele>
        <time>2020-08-20T06:06:01Z</time>
      </trkpt>
      <trkpt lat="44.08212" lon="5.94707">
        <ele>584</ele>
        <time>2020-08-20T06:06:15Z</time>
      </trkpt>
      <trkpt lat="44.08212" lon="5.94698">
        <ele>584</ele>
        <time>2020-08-20T06:06:18Z</time>
      </trkpt>
      <trkpt lat="44.0821" lon="5.94688">
        <ele>585</ele>
        <time>2020-08-20T06:06:21Z</time>
      </trkpt>
      <trkpt lat="44.08198" lon="5.94657">
        <ele>582</ele>
        <time>2020-08-20T06:06:27Z</time>
      </trkpt>
      <trkpt lat="44.08174" lon="5.94591">
        <ele>583</ele>
        <time>2020-08-20T06:06:41Z</time>
      </trkpt>
      <trkpt lat="44.08167" lon="5.94575">
        <ele>583</ele>
        <time>2020-08-20T06:06:46Z</time>
      </trkpt>
      <trkpt lat="44.08163" lon="5.94566">
        <ele>583</ele>
        <time>2020-08-20T06:06:49Z</time>
      </trkpt>
      <trkpt lat="44.0816" lon="5.94559">
        <ele>582</ele>
        <time>2020-08-20T06:06:51Z</time>
      </trkpt>
      <trkpt lat="44.08155" lon="5.94551">
        <ele>582</ele>
        <time>2020-08-20T06:06:54Z</time>
      </trkpt>
      <trkpt lat="44.08111" lon="5.94506">
        <ele>589</ele>
        <time>2020-08-20T06:07:24Z</time>
      </trkpt>
      <trkpt lat="44.08109" lon="5.94498">
        <ele>589</ele>
        <time>2020-08-20T06:07:28Z</time>
      </trkpt>
      <trkpt lat="44.08104" lon="5.94491">
        <ele>590</ele>
        <time>2020-08-20T06:07:31Z</time>
      </trkpt>
      <trkpt lat="44.08103" lon="5.94483">
        <ele>590</ele>
        <time>2020-08-20T06:07:35Z</time>
      </trkpt>
      <trkpt lat="44.08104" lon="5.94468">
        <ele>593</ele>
        <time>2020-08-20T06:07:46Z</time>
      </trkpt>
      <trkpt lat="44.08111" lon="5.9445">
        <ele>596</ele>
        <time>2020-08-20T06:08:05Z</time>
      </trkpt>
      <trkpt lat="44.08115" lon="5.94446">
        <ele>597</ele>
        <time>2020-08-20T06:08:16Z</time>
      </trkpt>
      <trkpt lat="44.0812" lon="5.94436">
        <ele>600</ele>
        <time>2020-08-20T06:08:28Z</time>
      </trkpt>
      <trkpt lat="44.08126" lon="5.94433">
        <ele>601</ele>
        <time>2020-08-20T06:08:34Z</time>
      </trkpt>
      <trkpt lat="44.08138" lon="5.9442">
        <ele>604</ele>
        <time>2020-08-20T06:08:55Z</time>
      </trkpt>
      <trkpt lat="44.08155" lon="5.94391">
        <ele>610</ele>
        <time>2020-08-20T06:09:34Z</time>
      </trkpt>
      <trkpt lat="44.08162" lon="5.94386">
        <ele>612</ele>
        <time>2020-08-20T06:09:46Z</time>
      </trkpt>
      <trkpt lat="44.08167" lon="5.94379">
        <ele>613</ele>
        <time>2020-08-20T06:09:51Z</time>
      </trkpt>
      <trkpt lat="44.08173" lon="5.94376">
        <ele>614</ele>
        <time>2020-08-20T06:09:55Z</time>
      </trkpt>
      <trkpt lat="44.0819" lon="5.94359">
        <ele>616</ele>
        <time>2020-08-20T06:10:07Z</time>
      </trkpt>
      <trkpt lat="44.08203" lon="5.94331">
        <ele>619</ele>
        <time>2020-08-20T06:10:22Z</time>
      </trkpt>
      <trkpt lat="44.08205" lon="5.94314">
        <ele>620</ele>
        <time>2020-08-20T06:10:29Z</time>
      </trkpt>
      <trkpt lat="44.08205" lon="5.94288">
        <ele>622</ele>
        <time>2020-08-20T06:10:39Z</time>
      </trkpt>
      <trkpt lat="44.08201" lon="5.94262">
        <ele>622</ele>
        <time>2020-08-20T06:10:47Z</time>
      </trkpt>
      <trkpt lat="44.08196" lon="5.94255">
        <ele>622</ele>
        <time>2020-08-20T06:10:50Z</time>
      </trkpt>
      <trkpt lat="44.0819" lon="5.94247">
        <ele>622</ele>
        <time>2020-08-20T06:10:52Z</time>
      </trkpt>
      <trkpt lat="44.08185" lon="5.94241">
        <ele>623</ele>
        <time>2020-08-20T06:10:54Z</time>
      </trkpt>
      <trkpt lat="44.08155" lon="5.94215">
        <ele>621</ele>
        <time>2020-08-20T06:11:01Z</time>
      </trkpt>
      <trkpt lat="44.0815" lon="5.94211">
        <ele>621</ele>
        <time>2020-08-20T06:11:02Z</time>
      </trkpt>
      <trkpt lat="44.08138" lon="5.94196">
        <ele>621</ele>
        <time>2020-08-20T06:11:05Z</time>
      </trkpt>
      <trkpt lat="44.08131" lon="5.94179">
        <ele>620</ele>
        <time>2020-08-20T06:11:08Z</time>
      </trkpt>
      <trkpt lat="44.08124" lon="5.94166">
        <ele>620</ele>
        <time>2020-08-20T06:11:12Z</time>
      </trkpt>
      <trkpt lat="44.08118" lon="5.94161">
        <ele>620</ele>
        <time>2020-08-20T06:11:15Z</time>
      </trkpt>
      <trkpt lat="44.08108" lon="5.94144">
        <ele>621</ele>
        <time>2020-08-20T06:11:21Z</time>
      </trkpt>
      <trkpt lat="44.08105" lon="5.94136">
        <ele>621</ele>
        <time>2020-08-20T06:11:23Z</time>
      </trkpt>
      <trkpt lat="44.0809" lon="5.94102">
        <ele>622</ele>
        <time>2020-08-20T06:11:32Z</time>
      </trkpt>
      <trkpt lat="44.08085" lon="5.94094">
        <ele>622</ele>
        <time>2020-08-20T06:11:34Z</time>
      </trkpt>
      <trkpt lat="44.08029" lon="5.94057">
        <ele>622</ele>
        <time>2020-08-20T06:11:48Z</time>
      </trkpt>
      <trkpt lat="44.08024" lon="5.94055">
        <ele>622</ele>
        <time>2020-08-20T06:11:50Z</time>
      </trkpt>
      <trkpt lat="44.08018" lon="5.94056">
        <ele>621</ele>
        <time>2020-08-20T06:11:53Z</time>
      </trkpt>
      <trkpt lat="44.08015" lon="5.94053">
        <ele>621</ele>
        <time>2020-08-20T06:11:55Z</time>
      </trkpt>
      <trkpt lat="44.08015" lon="5.94044">
        <ele>621</ele>
        <time>2020-08-20T06:11:57Z</time>
      </trkpt>
      <trkpt lat="44.0801" lon="5.94035">
        <ele>621</ele>
        <time>2020-08-20T06:11:59Z</time>
      </trkpt>
      <trkpt lat="44.07982" lon="5.94014">
        <ele>621</ele>
        <time>2020-08-20T06:12:05Z</time>
      </trkpt>
      <trkpt lat="44.07975" lon="5.94005">
        <ele>620</ele>
        <time>2020-08-20T06:12:07Z</time>
      </trkpt>
      <trkpt lat="44.07969" lon="5.94001">
        <ele>619</ele>
        <time>2020-08-20T06:12:09Z</time>
      </trkpt>
      <trkpt lat="44.07949" lon="5.93986">
        <ele>619</ele>
        <time>2020-08-20T06:12:14Z</time>
      </trkpt>
      <trkpt lat="44.07914" lon="5.93976">
        <ele>618</ele>
        <time>2020-08-20T06:12:22Z</time>
      </trkpt>
      <trkpt lat="44.07892" lon="5.93961">
        <ele>617</ele>
        <time>2020-08-20T06:12:28Z</time>
      </trkpt>
      <trkpt lat="44.07883" lon="5.93957">
        <ele>616</ele>
        <time>2020-08-20T06:12:30Z</time>
      </trkpt>
      <trkpt lat="44.07869" lon="5.93954">
        <ele>615</ele>
        <time>2020-08-20T06:12:33Z</time>
      </trkpt>
      <trkpt lat="44.07854" lon="5.93951">
        <ele>614</ele>
        <time>2020-08-20T06:12:36Z</time>
      </trkpt>
      <trkpt lat="44.07845" lon="5.93954">
        <ele>614</ele>
        <time>2020-08-20T06:12:38Z</time>
      </trkpt>
      <trkpt lat="44.07838" lon="5.93955">
        <ele>613</ele>
        <time>2020-08-20T06:12:40Z</time>
      </trkpt>
      <trkpt lat="44.07832" lon="5.93952">
        <ele>613</ele>
        <time>2020-08-20T06:12:42Z</time>
      </trkpt>
      <trkpt lat="44.07808" lon="5.93952">
        <ele>612</ele>
        <time>2020-08-20T06:12:48Z</time>
      </trkpt>
      <trkpt lat="44.07801" lon="5.93948">
        <ele>611</ele>
        <time>2020-08-20T06:12:50Z</time>
      </trkpt>
      <trkpt lat="44.07788" lon="5.93938">
        <ele>610</ele>
        <time>2020-08-20T06:12:54Z</time>
      </trkpt>
      <trkpt lat="44.07782" lon="5.93938">
        <ele>609</ele>
        <time>2020-08-20T06:12:56Z</time>
      </trkpt>
      <trkpt lat="44.07776" lon="5.93943">
        <ele>609</ele>
        <time>2020-08-20T06:12:59Z</time>
      </trkpt>
      <trkpt lat="44.07763" lon="5.93962">
        <ele>609</ele>
        <time>2020-08-20T06:13:06Z</time>
      </trkpt>
      <trkpt lat="44.07757" lon="5.93969">
        <ele>610</ele>
        <time>2020-08-20T06:13:09Z</time>
      </trkpt>
      <trkpt lat="44.07725" lon="5.94021">
        <ele>611</ele>
        <time>2020-08-20T06:13:25Z</time>
      </trkpt>
      <trkpt lat="44.07722" lon="5.94031">
        <ele>611</ele>
        <time>2020-08-20T06:13:28Z</time>
      </trkpt>
      <trkpt lat="44.07718" lon="5.94038">
        <ele>611</ele>
        <time>2020-08-20T06:13:30Z</time>
      </trkpt>
      <trkpt lat="44.07714" lon="5.94044">
        <ele>611</ele>
        <time>2020-08-20T06:13:32Z</time>
      </trkpt>
      <trkpt lat="44.07709" lon="5.94051">
        <ele>611</ele>
        <time>2020-08-20T06:13:34Z</time>
      </trkpt>
      <trkpt lat="44.07705" lon="5.94061">
        <ele>611</ele>
        <time>2020-08-20T06:13:37Z</time>
      </trkpt>
      <trkpt lat="44.07698" lon="5.94065">
        <ele>612</ele>
        <time>2020-08-20T06:13:40Z</time>
      </trkpt>
      <trkpt lat="44.07686" lon="5.9406">
        <ele>612</ele>
        <time>2020-08-20T06:13:44Z</time>
      </trkpt>
      <trkpt lat="44.07659" lon="5.94033">
        <ele>615</ele>
        <time>2020-08-20T06:14:00Z</time>
      </trkpt>
      <trkpt lat="44.07621" lon="5.94028">
        <ele>619</ele>
        <time>2020-08-20T06:14:23Z</time>
      </trkpt>
      <trkpt lat="44.07616" lon="5.94025">
        <ele>620</ele>
        <time>2020-08-20T06:14:26Z</time>
      </trkpt>
      <trkpt lat="44.07601" lon="5.94027">
        <ele>621</ele>
        <time>2020-08-20T06:14:36Z</time>
      </trkpt>
      <trkpt lat="44.07595" lon="5.9403">
        <ele>621</ele>
        <time>2020-08-20T06:14:39Z</time>
      </trkpt>
      <trkpt lat="44.07575" lon="5.94089">
        <ele>621</ele>
        <time>2020-08-20T06:14:55Z</time>
      </trkpt>
      <trkpt lat="44.07567" lon="5.94103">
        <ele>621</ele>
        <time>2020-08-20T06:14:59Z</time>
      </trkpt>
      <trkpt lat="44.07563" lon="5.9411">
        <ele>621</ele>
        <time>2020-08-20T06:15:01Z</time>
      </trkpt>
      <trkpt lat="44.07559" lon="5.94118">
        <ele>621</ele>
        <time>2020-08-20T06:15:03Z</time>
      </trkpt>
      <trkpt lat="44.07555" lon="5.94123">
        <ele>621</ele>
        <time>2020-08-20T06:15:05Z</time>
      </trkpt>
      <trkpt lat="44.0754" lon="5.94147">
        <ele>620</ele>
        <time>2020-08-20T06:15:11Z</time>
      </trkpt>
      <trkpt lat="44.07492" lon="5.94187">
        <ele>619</ele>
        <time>2020-08-20T06:15:23Z</time>
      </trkpt>
      <trkpt lat="44.07484" lon="5.94193">
        <ele>619</ele>
        <time>2020-08-20T06:15:25Z</time>
      </trkpt>
      <trkpt lat="44.07441" lon="5.94209">
        <ele>618</ele>
        <time>2020-08-20T06:15:37Z</time>
      </trkpt>
      <trkpt lat="44.07435" lon="5.94213">
        <ele>618</ele>
        <time>2020-08-20T06:15:40Z</time>
      </trkpt>
      <trkpt lat="44.07432" lon="5.94225">
        <ele>618</ele>
        <time>2020-08-20T06:15:44Z</time>
      </trkpt>
      <trkpt lat="44.07421" lon="5.94231">
        <ele>618</ele>
        <time>2020-08-20T06:15:50Z</time>
      </trkpt>
      <trkpt lat="44.07412" lon="5.94233">
        <ele>617</ele>
        <time>2020-08-20T06:15:58Z</time>
      </trkpt>
      <trkpt lat="44.07406" lon="5.94233">
        <ele>618</ele>
        <time>2020-08-20T06:16:00Z</time>
      </trkpt>
      <trkpt lat="44.07401" lon="5.94235">
        <ele>618</ele>
        <time>2020-08-20T06:16:02Z</time>
      </trkpt>
      <trkpt lat="44.07394" lon="5.94235">
        <ele>618</ele>
        <time>2020-08-20T06:16:04Z</time>
      </trkpt>
      <trkpt lat="44.07388" lon="5.94242">
        <ele>618</ele>
        <time>2020-08-20T06:16:07Z</time>
      </trkpt>
      <trkpt lat="44.07386" lon="5.94251">
        <ele>619</ele>
        <time>2020-08-20T06:16:09Z</time>
      </trkpt>
      <trkpt lat="44.07383" lon="5.94258">
        <ele>619</ele>
        <time>2020-08-20T06:16:11Z</time>
      </trkpt>
      <trkpt lat="44.07371" lon="5.94266">
        <ele>619</ele>
        <time>2020-08-20T06:16:15Z</time>
      </trkpt>
      <trkpt lat="44.07365" lon="5.94273">
        <ele>619</ele>
        <time>2020-08-20T06:16:17Z</time>
      </trkpt>
      <trkpt lat="44.07345" lon="5.94305">
        <ele>618</ele>
        <time>2020-08-20T06:16:25Z</time>
      </trkpt>
      <trkpt lat="44.0734" lon="5.94313">
        <ele>617</ele>
        <time>2020-08-20T06:16:27Z</time>
      </trkpt>
      <trkpt lat="44.07334" lon="5.94315">
        <ele>617</ele>
        <time>2020-08-20T06:16:29Z</time>
      </trkpt>
      <trkpt lat="44.07311" lon="5.94319">
        <ele>617</ele>
        <time>2020-08-20T06:16:35Z</time>
      </trkpt>
      <trkpt lat="44.07278" lon="5.94295">
        <ele>617</ele>
        <time>2020-08-20T06:16:42Z</time>
      </trkpt>
      <trkpt lat="44.07271" lon="5.94286">
        <ele>616</ele>
        <time>2020-08-20T06:16:44Z</time>
      </trkpt>
      <trkpt lat="44.07264" lon="5.94279">
        <ele>616</ele>
        <time>2020-08-20T06:16:46Z</time>
      </trkpt>
      <trkpt lat="44.07256" lon="5.94274">
        <ele>617</ele>
        <time>2020-08-20T06:16:48Z</time>
      </trkpt>
      <trkpt lat="44.07247" lon="5.94276">
        <ele>616</ele>
        <time>2020-08-20T06:16:50Z</time>
      </trkpt>
      <trkpt lat="44.07238" lon="5.94284">
        <ele>616</ele>
        <time>2020-08-20T06:16:52Z</time>
      </trkpt>
      <trkpt lat="44.0723" lon="5.94286">
        <ele>615</ele>
        <time>2020-08-20T06:16:54Z</time>
      </trkpt>
      <trkpt lat="44.07207" lon="5.94265">
        <ele>613</ele>
        <time>2020-08-20T06:16:59Z</time>
      </trkpt>
      <trkpt lat="44.07198" lon="5.9426">
        <ele>613</ele>
        <time>2020-08-20T06:17:01Z</time>
      </trkpt>
      <trkpt lat="44.0719" lon="5.9426">
        <ele>613</ele>
        <time>2020-08-20T06:17:03Z</time>
      </trkpt>
      <trkpt lat="44.07178" lon="5.94248">
        <ele>611</ele>
        <time>2020-08-20T06:17:07Z</time>
      </trkpt>
      <trkpt lat="44.07161" lon="5.94234">
        <ele>611</ele>
        <time>2020-08-20T06:17:11Z</time>
      </trkpt>
      <trkpt lat="44.07153" lon="5.94231">
        <ele>610</ele>
        <time>2020-08-20T06:17:13Z</time>
      </trkpt>
      <trkpt lat="44.07134" lon="5.94222">
        <ele>609</ele>
        <time>2020-08-20T06:17:17Z</time>
      </trkpt>
      <trkpt lat="44.07115" lon="5.9422">
        <ele>608</ele>
        <time>2020-08-20T06:17:21Z</time>
      </trkpt>
      <trkpt lat="44.07102" lon="5.94214">
        <ele>607</ele>
        <time>2020-08-20T06:17:25Z</time>
      </trkpt>
      <trkpt lat="44.07095" lon="5.9421">
        <ele>607</ele>
        <time>2020-08-20T06:17:27Z</time>
      </trkpt>
      <trkpt lat="44.07082" lon="5.94193">
        <ele>606</ele>
        <time>2020-08-20T06:17:31Z</time>
      </trkpt>
      <trkpt lat="44.07075" lon="5.94191">
        <ele>606</ele>
        <time>2020-08-20T06:17:33Z</time>
      </trkpt>
      <trkpt lat="44.07052" lon="5.94215">
        <ele>604</ele>
        <time>2020-08-20T06:17:39Z</time>
      </trkpt>
      <trkpt lat="44.07044" lon="5.94215">
        <ele>603</ele>
        <time>2020-08-20T06:17:41Z</time>
      </trkpt>
      <trkpt lat="44.07035" lon="5.94207">
        <ele>602</ele>
        <time>2020-08-20T06:17:43Z</time>
      </trkpt>
      <trkpt lat="44.0703" lon="5.94199">
        <ele>601</ele>
        <time>2020-08-20T06:17:45Z</time>
      </trkpt>
      <trkpt lat="44.07024" lon="5.94195">
        <ele>601</ele>
        <time>2020-08-20T06:17:47Z</time>
      </trkpt>
      <trkpt lat="44.07005" lon="5.94183">
        <ele>601</ele>
        <time>2020-08-20T06:17:51Z</time>
      </trkpt>
      <trkpt lat="44.06996" lon="5.94179">
        <ele>600</ele>
        <time>2020-08-20T06:17:53Z</time>
      </trkpt>
      <trkpt lat="44.06988" lon="5.94182">
        <ele>600</ele>
        <time>2020-08-20T06:17:55Z</time>
      </trkpt>
      <trkpt lat="44.06983" lon="5.94175">
        <ele>599</ele>
        <time>2020-08-20T06:17:57Z</time>
      </trkpt>
      <trkpt lat="44.06978" lon="5.9417">
        <ele>598</ele>
        <time>2020-08-20T06:17:59Z</time>
      </trkpt>
      <trkpt lat="44.06973" lon="5.94166">
        <ele>598</ele>
        <time>2020-08-20T06:18:01Z</time>
      </trkpt>
      <trkpt lat="44.06966" lon="5.94169">
        <ele>598</ele>
        <time>2020-08-20T06:18:03Z</time>
      </trkpt>
      <trkpt lat="44.06948" lon="5.94176">
        <ele>597</ele>
        <time>2020-08-20T06:18:07Z</time>
      </trkpt>
      <trkpt lat="44.06938" lon="5.94176">
        <ele>596</ele>
        <time>2020-08-20T06:18:09Z</time>
      </trkpt>
      <trkpt lat="44.0693" lon="5.94172">
        <ele>597</ele>
        <time>2020-08-20T06:18:11Z</time>
      </trkpt>
      <trkpt lat="44.06925" lon="5.94166">
        <ele>597</ele>
        <time>2020-08-20T06:18:13Z</time>
      </trkpt>
      <trkpt lat="44.06917" lon="5.94162">
        <ele>597</ele>
        <time>2020-08-20T06:18:15Z</time>
      </trkpt>
      <trkpt lat="44.0691" lon="5.94155">
        <ele>597</ele>
        <time>2020-08-20T06:18:17Z</time>
      </trkpt>
      <trkpt lat="44.06864" lon="5.94121">
        <ele>597</ele>
        <time>2020-08-20T06:18:27Z</time>
      </trkpt>
      <trkpt lat="44.06845" lon="5.94121">
        <ele>596</ele>
        <time>2020-08-20T06:18:31Z</time>
      </trkpt>
      <trkpt lat="44.06828" lon="5.94127">
        <ele>595</ele>
        <time>2020-08-20T06:18:35Z</time>
      </trkpt>
      <trkpt lat="44.06821" lon="5.94131">
        <ele>595</ele>
        <time>2020-08-20T06:18:37Z</time>
      </trkpt>
      <trkpt lat="44.06796" lon="5.94127">
        <ele>595</ele>
        <time>2020-08-20T06:18:42Z</time>
      </trkpt>
      <trkpt lat="44.06756" lon="5.94121">
        <ele>593</ele>
        <time>2020-08-20T06:18:48Z</time>
      </trkpt>
      <trkpt lat="44.06744" lon="5.94124">
        <ele>592</ele>
        <time>2020-08-20T06:18:50Z</time>
      </trkpt>
      <trkpt lat="44.06739" lon="5.94125">
        <ele>590</ele>
        <time>2020-08-20T06:18:51Z</time>
      </trkpt>
      <trkpt lat="44.06725" lon="5.94127">
        <ele>588</ele>
        <time>2020-08-20T06:18:53Z</time>
      </trkpt>
      <trkpt lat="44.06703" lon="5.94133">
        <ele>585</ele>
        <time>2020-08-20T06:18:56Z</time>
      </trkpt>
      <trkpt lat="44.06691" lon="5.94134">
        <ele>583</ele>
        <time>2020-08-20T06:18:58Z</time>
      </trkpt>
      <trkpt lat="44.06669" lon="5.94127">
        <ele>580</ele>
        <time>2020-08-20T06:19:01Z</time>
      </trkpt>
      <trkpt lat="44.06661" lon="5.94125">
        <ele>579</ele>
        <time>2020-08-20T06:19:02Z</time>
      </trkpt>
      <trkpt lat="44.06647" lon="5.94128">
        <ele>578</ele>
        <time>2020-08-20T06:19:04Z</time>
      </trkpt>
      <trkpt lat="44.06612" lon="5.94131">
        <ele>574</ele>
        <time>2020-08-20T06:19:09Z</time>
      </trkpt>
      <trkpt lat="44.06605" lon="5.94132">
        <ele>574</ele>
        <time>2020-08-20T06:19:10Z</time>
      </trkpt>
      <trkpt lat="44.06454" lon="5.94151">
        <ele>556</ele>
        <time>2020-08-20T06:19:31Z</time>
      </trkpt>
      <trkpt lat="44.06449" lon="5.94151">
        <ele>554</ele>
        <time>2020-08-20T06:19:33Z</time>
      </trkpt>
      <trkpt lat="44.0645" lon="5.94163">
        <ele>550</ele>
        <time>2020-08-20T06:19:37Z</time>
      </trkpt>
      <trkpt lat="44.06471" lon="5.94191">
        <ele>545</ele>
        <time>2020-08-20T06:19:43Z</time>
      </trkpt>
      <trkpt lat="44.06461" lon="5.94198">
        <ele>542</ele>
        <time>2020-08-20T06:19:47Z</time>
      </trkpt>
      <trkpt lat="44.06416" lon="5.94192">
        <ele>538</ele>
        <time>2020-08-20T06:19:54Z</time>
      </trkpt>
      <trkpt lat="44.06404" lon="5.94191">
        <ele>537</ele>
        <time>2020-08-20T06:19:56Z</time>
      </trkpt>
      <trkpt lat="44.06398" lon="5.94195">
        <ele>537</ele>
        <time>2020-08-20T06:19:57Z</time>
      </trkpt>
      <trkpt lat="44.06387" lon="5.94194">
        <ele>535</ele>
        <time>2020-08-20T06:19:59Z</time>
      </trkpt>
      <trkpt lat="44.06379" lon="5.942">
        <ele>533</ele>
        <time>2020-08-20T06:20:01Z</time>
      </trkpt>
      <trkpt lat="44.06388" lon="5.9421">
        <ele>529</ele>
        <time>2020-08-20T06:20:05Z</time>
      </trkpt>
      <trkpt lat="44.06394" lon="5.94215">
        <ele>528</ele>
        <time>2020-08-20T06:20:06Z</time>
      </trkpt>
      <trkpt lat="44.06411" lon="5.94225">
        <ele>527</ele>
        <time>2020-08-20T06:20:08Z</time>
      </trkpt>
      <trkpt lat="44.06416" lon="5.94252">
        <ele>525</ele>
        <time>2020-08-20T06:20:10Z</time>
      </trkpt>
      <trkpt lat="44.06419" lon="5.94273">
        <ele>523</ele>
        <time>2020-08-20T06:20:12Z</time>
      </trkpt>
      <trkpt lat="44.06423" lon="5.94284">
        <ele>521</ele>
        <time>2020-08-20T06:20:14Z</time>
      </trkpt>
      <trkpt lat="44.06418" lon="5.94291">
        <ele>517</ele>
        <time>2020-08-20T06:20:19Z</time>
      </trkpt>
      <trkpt lat="44.06412" lon="5.94287">
        <ele>506</ele>
        <time>2020-08-20T06:21:11Z</time>
      </trkpt>
      <trkpt lat="44.06407" lon="5.94286">
        <ele>507</ele>
        <time>2020-08-20T06:21:13Z</time>
      </trkpt>
      <trkpt lat="44.064" lon="5.94286">
        <ele>508</ele>
        <time>2020-08-20T06:21:15Z</time>
      </trkpt>
      <trkpt lat="44.06367" lon="5.94268">
        <ele>509</ele>
        <time>2020-08-20T06:21:24Z</time>
      </trkpt>
      <trkpt lat="44.06351" lon="5.94253">
        <ele>508</ele>
        <time>2020-08-20T06:21:27Z</time>
      </trkpt>
      <trkpt lat="44.06332" lon="5.94221">
        <ele>506</ele>
        <time>2020-08-20T06:21:32Z</time>
      </trkpt>
      <trkpt lat="44.06329" lon="5.94213">
        <ele>505</ele>
        <time>2020-08-20T06:21:33Z</time>
      </trkpt>
      <trkpt lat="44.06324" lon="5.94202">
        <ele>504</ele>
        <time>2020-08-20T06:21:36Z</time>
      </trkpt>
      <trkpt lat="44.06318" lon="5.94197">
        <ele>503</ele>
        <time>2020-08-20T06:21:38Z</time>
      </trkpt>
      <trkpt lat="44.06297" lon="5.94178">
        <ele>501</ele>
        <time>2020-08-20T06:21:42Z</time>
      </trkpt>
      <trkpt lat="44.06261" lon="5.94162">
        <ele>494</ele>
        <time>2020-08-20T06:21:55Z</time>
      </trkpt>
      <trkpt lat="44.06252" lon="5.94162">
        <ele>490</ele>
        <time>2020-08-20T06:22:06Z</time>
      </trkpt>
      <trkpt lat="44.06233" lon="5.94154">
        <ele>489</ele>
        <time>2020-08-20T06:22:10Z</time>
      </trkpt>
      <trkpt lat="44.06222" lon="5.94151">
        <ele>488</ele>
        <time>2020-08-20T06:22:12Z</time>
      </trkpt>
      <trkpt lat="44.06186" lon="5.9416">
        <ele>485</ele>
        <time>2020-08-20T06:22:18Z</time>
      </trkpt>
      <trkpt lat="44.06173" lon="5.94161">
        <ele>484</ele>
        <time>2020-08-20T06:22:20Z</time>
      </trkpt>
      <trkpt lat="44.06161" lon="5.94157">
        <ele>483</ele>
        <time>2020-08-20T06:22:22Z</time>
      </trkpt>
      <trkpt lat="44.0614" lon="5.94162">
        <ele>481</ele>
        <time>2020-08-20T06:22:26Z</time>
      </trkpt>
      <trkpt lat="44.06129" lon="5.94168">
        <ele>480</ele>
        <time>2020-08-20T06:22:28Z</time>
      </trkpt>
      <trkpt lat="44.06122" lon="5.94175">
        <ele>479</ele>
        <time>2020-08-20T06:22:30Z</time>
      </trkpt>
      <trkpt lat="44.06118" lon="5.94184">
        <ele>478</ele>
        <time>2020-08-20T06:22:32Z</time>
      </trkpt>
      <trkpt lat="44.06116" lon="5.9419">
        <ele>477</ele>
        <time>2020-08-20T06:22:34Z</time>
      </trkpt>
      <trkpt lat="44.06113" lon="5.94198">
        <ele>477</ele>
        <time>2020-08-20T06:22:37Z</time>
      </trkpt>
      <trkpt lat="44.06103" lon="5.942">
        <ele>476</ele>
        <time>2020-08-20T06:22:39Z</time>
      </trkpt>
      <trkpt lat="44.06098" lon="5.94201">
        <ele>476</ele>
        <time>2020-08-20T06:22:40Z</time>
      </trkpt>
      <trkpt lat="44.06079" lon="5.94237">
        <ele>471</ele>
        <time>2020-08-20T06:22:45Z</time>
      </trkpt>
      <trkpt lat="44.06073" lon="5.94245">
        <ele>470</ele>
        <time>2020-08-20T06:22:47Z</time>
      </trkpt>
      <trkpt lat="44.06056" lon="5.94256">
        <ele>470</ele>
        <time>2020-08-20T06:22:51Z</time>
      </trkpt>
      <trkpt lat="44.06033" lon="5.94273">
        <ele>468</ele>
        <time>2020-08-20T06:22:55Z</time>
      </trkpt>
      <trkpt lat="44.06014" lon="5.94292">
        <ele>466</ele>
        <time>2020-08-20T06:22:59Z</time>
      </trkpt>
      <trkpt lat="44.06006" lon="5.94302">
        <ele>465</ele>
        <time>2020-08-20T06:23:01Z</time>
      </trkpt>
      <trkpt lat="44.05994" lon="5.94314">
        <ele>463</ele>
        <time>2020-08-20T06:23:06Z</time>
      </trkpt>
      <trkpt lat="44.05985" lon="5.94317">
        <ele>463</ele>
        <time>2020-08-20T06:23:08Z</time>
      </trkpt>
      <trkpt lat="44.05974" lon="5.94318">
        <ele>462</ele>
        <time>2020-08-20T06:23:10Z</time>
      </trkpt>
      <trkpt lat="44.05963" lon="5.94322">
        <ele>462</ele>
        <time>2020-08-20T06:23:12Z</time>
      </trkpt>
      <trkpt lat="44.05955" lon="5.94329">
        <ele>461</ele>
        <time>2020-08-20T06:23:14Z</time>
      </trkpt>
      <trkpt lat="44.05948" lon="5.94332">
        <ele>458</ele>
        <time>2020-08-20T06:23:18Z</time>
      </trkpt>
      <trkpt lat="44.05936" lon="5.94329">
        <ele>456</ele>
        <time>2020-08-20T06:23:29Z</time>
      </trkpt>
      <trkpt lat="44.0592" lon="5.94332">
        <ele>456</ele>
        <time>2020-08-20T06:23:33Z</time>
      </trkpt>
      <trkpt lat="44.05899" lon="5.94341">
        <ele>455</ele>
        <time>2020-08-20T06:23:39Z</time>
      </trkpt>
      <trkpt lat="44.05893" lon="5.94345">
        <ele>454</ele>
        <time>2020-08-20T06:23:42Z</time>
      </trkpt>
      <trkpt lat="44.05885" lon="5.9435">
        <ele>454</ele>
        <time>2020-08-20T06:23:46Z</time>
      </trkpt>
      <trkpt lat="44.05867" lon="5.94347">
        <ele>454</ele>
        <time>2020-08-20T06:23:51Z</time>
      </trkpt>
      <trkpt lat="44.05848" lon="5.94344">
        <ele>453</ele>
        <time>2020-08-20T06:23:55Z</time>
      </trkpt>
      <trkpt lat="44.05836" lon="5.94343">
        <ele>453</ele>
        <time>2020-08-20T06:23:58Z</time>
      </trkpt>
      <trkpt lat="44.0583" lon="5.94343">
        <ele>453</ele>
        <time>2020-08-20T06:24:02Z</time>
      </trkpt>
      <trkpt lat="44.05825" lon="5.94346">
        <ele>454</ele>
        <time>2020-08-20T06:24:05Z</time>
      </trkpt>
      <trkpt lat="44.05818" lon="5.94345">
        <ele>454</ele>
        <time>2020-08-20T06:24:09Z</time>
      </trkpt>
      <trkpt lat="44.05812" lon="5.94343">
        <ele>454</ele>
        <time>2020-08-20T06:24:12Z</time>
      </trkpt>
      <trkpt lat="44.05807" lon="5.94339">
        <ele>454</ele>
        <time>2020-08-20T06:24:14Z</time>
      </trkpt>
      <trkpt lat="44.05801" lon="5.94332">
        <ele>454</ele>
        <time>2020-08-20T06:24:16Z</time>
      </trkpt>
      <trkpt lat="44.05795" lon="5.94325">
        <ele>454</ele>
        <time>2020-08-20T06:24:18Z</time>
      </trkpt>
      <trkpt lat="44.05787" lon="5.94322">
        <ele>453</ele>
        <time>2020-08-20T06:24:20Z</time>
      </trkpt>
      <trkpt lat="44.0578" lon="5.94313">
        <ele>449</ele>
        <time>2020-08-20T06:24:32Z</time>
      </trkpt>
      <trkpt lat="44.05775" lon="5.94314">
        <ele>447</ele>
        <time>2020-08-20T06:25:02Z</time>
      </trkpt>
      <trkpt lat="44.0577" lon="5.94309">
        <ele>447</ele>
        <time>2020-08-20T06:25:09Z</time>
      </trkpt>
      <trkpt lat="44.05767" lon="5.9429">
        <ele>448</ele>
        <time>2020-08-20T06:25:20Z</time>
      </trkpt>
      <trkpt lat="44.05762" lon="5.9427">
        <ele>449</ele>
        <time>2020-08-20T06:25:27Z</time>
      </trkpt>
      <trkpt lat="44.05768" lon="5.94259">
        <ele>450</ele>
        <time>2020-08-20T06:25:32Z</time>
      </trkpt>
      <trkpt lat="44.05764" lon="5.94259">
        <ele>451</ele>
        <time>2020-08-20T06:25:44Z</time>
      </trkpt>
      <trkpt lat="44.05759" lon="5.94261">
        <ele>452</ele>
        <time>2020-08-20T06:25:48Z</time>
      </trkpt>
      <trkpt lat="44.05754" lon="5.94266">
        <ele>452</ele>
        <time>2020-08-20T06:25:51Z</time>
      </trkpt>
      <trkpt lat="44.05749" lon="5.94259">
        <ele>452</ele>
        <time>2020-08-20T06:25:55Z</time>
      </trkpt>
      <trkpt lat="44.05751" lon="5.94249">
        <ele>453</ele>
        <time>2020-08-20T06:25:58Z</time>
      </trkpt>
      <trkpt lat="44.05752" lon="5.9424">
        <ele>453</ele>
        <time>2020-08-20T06:26:01Z</time>
      </trkpt>
      <trkpt lat="44.0575" lon="5.94231">
        <ele>453</ele>
        <time>2020-08-20T06:26:04Z</time>
      </trkpt>
      <trkpt lat="44.05747" lon="5.94224">
        <ele>453</ele>
        <time>2020-08-20T06:26:07Z</time>
      </trkpt>
      <trkpt lat="44.05746" lon="5.94216">
        <ele>453</ele>
        <time>2020-08-20T06:26:11Z</time>
      </trkpt>
      <trkpt lat="44.05722" lon="5.94182">
        <ele>453</ele>
        <time>2020-08-20T06:26:26Z</time>
      </trkpt>
      <trkpt lat="44.05718" lon="5.94173">
        <ele>452</ele>
        <time>2020-08-20T06:26:31Z</time>
      </trkpt>
      <trkpt lat="44.0572" lon="5.9415">
        <ele>449</ele>
        <time>2020-08-20T06:26:49Z</time>
      </trkpt>
      <trkpt lat="44.05719" lon="5.94131">
        <ele>449</ele>
        <time>2020-08-20T06:27:05Z</time>
      </trkpt>
      <trkpt lat="44.05712" lon="5.9413">
        <ele>446</ele>
        <time>2020-08-20T06:28:13Z</time>
      </trkpt>
      <trkpt lat="44.05715" lon="5.9412">
        <ele>446</ele>
        <time>2020-08-20T06:28:42Z</time>
      </trkpt>
      <trkpt lat="44.05716" lon="5.94125">
        <ele>456</ele>
        <time>2020-08-20T06:29:22Z</time>
      </trkpt>
      <trkpt lat="44.05719" lon="5.94133">
        <ele>456</ele>
        <time>2020-08-20T06:29:26Z</time>
      </trkpt>
      <trkpt lat="44.05725" lon="5.94133">
        <ele>457</ele>
        <time>2020-08-20T06:29:31Z</time>
      </trkpt>
      <trkpt lat="44.05727" lon="5.94114">
        <ele>460</ele>
        <time>2020-08-20T06:29:47Z</time>
      </trkpt>
      <trkpt lat="44.05738" lon="5.94101">
        <ele>462</ele>
        <time>2020-08-20T06:30:01Z</time>
      </trkpt>
      <trkpt lat="44.05746" lon="5.94085">
        <ele>462</ele>
        <time>2020-08-20T06:30:09Z</time>
      </trkpt>
      <trkpt lat="44.05762" lon="5.94057">
        <ele>461</ele>
        <time>2020-08-20T06:30:13Z</time>
      </trkpt>
      <trkpt lat="44.05767" lon="5.94051">
        <ele>461</ele>
        <time>2020-08-20T06:30:14Z</time>
      </trkpt>
      <trkpt lat="44.05772" lon="5.94048">
        <ele>461</ele>
        <time>2020-08-20T06:30:15Z</time>
      </trkpt>
      <trkpt lat="44.05807" lon="5.94006">
        <ele>459</ele>
        <time>2020-08-20T06:30:27Z</time>
      </trkpt>
      <trkpt lat="44.05832" lon="5.93982">
        <ele>459</ele>
        <time>2020-08-20T06:30:35Z</time>
      </trkpt>
      <trkpt lat="44.05847" lon="5.93975">
        <ele>459</ele>
        <time>2020-08-20T06:30:39Z</time>
      </trkpt>
      <trkpt lat="44.05858" lon="5.93973">
        <ele>459</ele>
        <time>2020-08-20T06:30:44Z</time>
      </trkpt>
      <trkpt lat="44.05865" lon="5.93974">
        <ele>459</ele>
        <time>2020-08-20T06:30:48Z</time>
      </trkpt>
      <trkpt lat="44.0587" lon="5.93977">
        <ele>460</ele>
        <time>2020-08-20T06:30:51Z</time>
      </trkpt>
      <trkpt lat="44.05882" lon="5.93985">
        <ele>460</ele>
        <time>2020-08-20T06:30:57Z</time>
      </trkpt>
      <trkpt lat="44.05898" lon="5.93996">
        <ele>462</ele>
        <time>2020-08-20T06:31:07Z</time>
      </trkpt>
      <trkpt lat="44.05911" lon="5.94014">
        <ele>465</ele>
        <time>2020-08-20T06:31:20Z</time>
      </trkpt>
      <trkpt lat="44.05916" lon="5.94012">
        <ele>466</ele>
        <time>2020-08-20T06:31:26Z</time>
      </trkpt>
      <trkpt lat="44.05939" lon="5.93952">
        <ele>464</ele>
        <time>2020-08-20T06:31:38Z</time>
      </trkpt>
      <trkpt lat="44.05941" lon="5.93941">
        <ele>464</ele>
        <time>2020-08-20T06:31:40Z</time>
      </trkpt>
      <trkpt lat="44.05938" lon="5.93932">
        <ele>463</ele>
        <time>2020-08-20T06:31:42Z</time>
      </trkpt>
      <trkpt lat="44.0593" lon="5.93932">
        <ele>463</ele>
        <time>2020-08-20T06:31:44Z</time>
      </trkpt>
      <trkpt lat="44.05921" lon="5.93934">
        <ele>463</ele>
        <time>2020-08-20T06:31:46Z</time>
      </trkpt>
      <trkpt lat="44.05915" lon="5.93934">
        <ele>463</ele>
        <time>2020-08-20T06:31:47Z</time>
      </trkpt>
      <trkpt lat="44.05909" lon="5.93928">
        <ele>462</ele>
        <time>2020-08-20T06:31:48Z</time>
      </trkpt>
      <trkpt lat="44.05898" lon="5.93877">
        <ele>460</ele>
        <time>2020-08-20T06:31:55Z</time>
      </trkpt>
      <trkpt lat="44.05891" lon="5.93856">
        <ele>460</ele>
        <time>2020-08-20T06:31:59Z</time>
      </trkpt>
      <trkpt lat="44.05889" lon="5.93849">
        <ele>458</ele>
        <time>2020-08-20T06:32:03Z</time>
      </trkpt>
      <trkpt lat="44.0589" lon="5.93839">
        <ele>457</ele>
        <time>2020-08-20T06:32:10Z</time>
      </trkpt>
      <trkpt lat="44.05899" lon="5.93826">
        <ele>458</ele>
        <time>2020-08-20T06:32:14Z</time>
      </trkpt>
      <trkpt lat="44.05912" lon="5.93812">
        <ele>458</ele>
        <time>2020-08-20T06:32:18Z</time>
      </trkpt>
      <trkpt lat="44.0592" lon="5.93806">
        <ele>458</ele>
        <time>2020-08-20T06:32:21Z</time>
      </trkpt>
      <trkpt lat="44.05929" lon="5.93807">
        <ele>458</ele>
        <time>2020-08-20T06:32:25Z</time>
      </trkpt>
      <trkpt lat="44.05941" lon="5.93796">
        <ele>458</ele>
        <time>2020-08-20T06:32:31Z</time>
      </trkpt>
      <trkpt lat="44.05946" lon="5.93792">
        <ele>458</ele>
        <time>2020-08-20T06:32:33Z</time>
      </trkpt>
      <trkpt lat="44.05951" lon="5.93785">
        <ele>458</ele>
        <time>2020-08-20T06:32:36Z</time>
      </trkpt>
      <trkpt lat="44.05955" lon="5.93742">
        <ele>459</ele>
        <time>2020-08-20T06:32:49Z</time>
      </trkpt>
      <trkpt lat="44.0596" lon="5.93729">
        <ele>459</ele>
        <time>2020-08-20T06:32:56Z</time>
      </trkpt>
      <trkpt lat="44.05971" lon="5.93715">
        <ele>458</ele>
        <time>2020-08-20T06:33:03Z</time>
      </trkpt>
      <trkpt lat="44.05975" lon="5.93704">
        <ele>459</ele>
        <time>2020-08-20T06:33:08Z</time>
      </trkpt>
      <trkpt lat="44.05978" lon="5.93694">
        <ele>459</ele>
        <time>2020-08-20T06:33:11Z</time>
      </trkpt>
      <trkpt lat="44.05981" lon="5.93677">
        <ele>459</ele>
        <time>2020-08-20T06:33:16Z</time>
      </trkpt>
      <trkpt lat="44.05984" lon="5.93665">
        <ele>460</ele>
        <time>2020-08-20T06:33:19Z</time>
      </trkpt>
      <trkpt lat="44.05991" lon="5.93644">
        <ele>459</ele>
        <time>2020-08-20T06:33:25Z</time>
      </trkpt>
      <trkpt lat="44.05994" lon="5.93639">
        <ele>460</ele>
        <time>2020-08-20T06:33:27Z</time>
      </trkpt>
      <trkpt lat="44.05996" lon="5.93624">
        <ele>460</ele>
        <time>2020-08-20T06:33:31Z</time>
      </trkpt>
      <trkpt lat="44.05998" lon="5.93617">
        <ele>458</ele>
        <time>2020-08-20T06:33:35Z</time>
      </trkpt>
      <trkpt lat="44.06003" lon="5.93616">
        <ele>461</ele>
        <time>2020-08-20T06:33:46Z</time>
      </trkpt>
      <trkpt lat="44.06004" lon="5.93607">
        <ele>460</ele>
        <time>2020-08-20T06:33:58Z</time>
      </trkpt>
      <trkpt lat="44.06008" lon="5.93594">
        <ele>462</ele>
        <time>2020-08-20T06:34:02Z</time>
      </trkpt>
      <trkpt lat="44.06022" lon="5.93566">
        <ele>462</ele>
        <time>2020-08-20T06:34:08Z</time>
      </trkpt>
      <trkpt lat="44.06037" lon="5.93549">
        <ele>462</ele>
        <time>2020-08-20T06:34:14Z</time>
      </trkpt>
      <trkpt lat="44.0604" lon="5.93542">
        <ele>462</ele>
        <time>2020-08-20T06:34:16Z</time>
      </trkpt>
      <trkpt lat="44.06035" lon="5.93533">
        <ele>460</ele>
        <time>2020-08-20T06:34:25Z</time>
      </trkpt>
      <trkpt lat="44.06033" lon="5.93526">
        <ele>460</ele>
        <time>2020-08-20T06:34:28Z</time>
      </trkpt>
      <trkpt lat="44.06038" lon="5.93519">
        <ele>461</ele>
        <time>2020-08-20T06:34:32Z</time>
      </trkpt>
      <trkpt lat="44.06043" lon="5.93512">
        <ele>461</ele>
        <time>2020-08-20T06:34:34Z</time>
      </trkpt>
      <trkpt lat="44.06054" lon="5.935">
        <ele>460</ele>
        <time>2020-08-20T06:34:38Z</time>
      </trkpt>
      <trkpt lat="44.0606" lon="5.93498">
        <ele>461</ele>
        <time>2020-08-20T06:34:40Z</time>
      </trkpt>
      <trkpt lat="44.06064" lon="5.93494">
        <ele>461</ele>
        <time>2020-08-20T06:34:42Z</time>
      </trkpt>
      <trkpt lat="44.06066" lon="5.93485">
        <ele>461</ele>
        <time>2020-08-20T06:34:45Z</time>
      </trkpt>
      <trkpt lat="44.06065" lon="5.93459">
        <ele>460</ele>
        <time>2020-08-20T06:34:52Z</time>
      </trkpt>
      <trkpt lat="44.06066" lon="5.93452">
        <ele>461</ele>
        <time>2020-08-20T06:34:54Z</time>
      </trkpt>
      <trkpt lat="44.06064" lon="5.93436">
        <ele>462</ele>
        <time>2020-08-20T06:34:58Z</time>
      </trkpt>
      <trkpt lat="44.06064" lon="5.93427">
        <ele>462</ele>
        <time>2020-08-20T06:35:01Z</time>
      </trkpt>
      <trkpt lat="44.06066" lon="5.93418">
        <ele>462</ele>
        <time>2020-08-20T06:35:04Z</time>
      </trkpt>
      <trkpt lat="44.06066" lon="5.93406">
        <ele>462</ele>
        <time>2020-08-20T06:35:07Z</time>
      </trkpt>
      <trkpt lat="44.06068" lon="5.93396">
        <ele>463</ele>
        <time>2020-08-20T06:35:10Z</time>
      </trkpt>
      <trkpt lat="44.0608" lon="5.9335">
        <ele>466</ele>
        <time>2020-08-20T06:35:26Z</time>
      </trkpt>
      <trkpt lat="44.06081" lon="5.93341">
        <ele>466</ele>
        <time>2020-08-20T06:35:38Z</time>
      </trkpt>
      <trkpt lat="44.06085" lon="5.93331">
        <ele>466</ele>
        <time>2020-08-20T06:35:47Z</time>
      </trkpt>
      <trkpt lat="44.06086" lon="5.93323">
        <ele>468</ele>
        <time>2020-08-20T06:35:51Z</time>
      </trkpt>
      <trkpt lat="44.0609" lon="5.93303">
        <ele>468</ele>
        <time>2020-08-20T06:35:58Z</time>
      </trkpt>
      <trkpt lat="44.06089" lon="5.93293">
        <ele>467</ele>
        <time>2020-08-20T06:36:02Z</time>
      </trkpt>
      <trkpt lat="44.0609" lon="5.93283">
        <ele>467</ele>
        <time>2020-08-20T06:36:06Z</time>
      </trkpt>
      <trkpt lat="44.06093" lon="5.9327">
        <ele>468</ele>
        <time>2020-08-20T06:36:11Z</time>
      </trkpt>
      <trkpt lat="44.06091" lon="5.93263">
        <ele>469</ele>
        <time>2020-08-20T06:36:15Z</time>
      </trkpt>
      <trkpt lat="44.06088" lon="5.93253">
        <ele>469</ele>
        <time>2020-08-20T06:36:19Z</time>
      </trkpt>
      <trkpt lat="44.06087" lon="5.93244">
        <ele>468</ele>
        <time>2020-08-20T06:36:23Z</time>
      </trkpt>
      <trkpt lat="44.06086" lon="5.93234">
        <ele>468</ele>
        <time>2020-08-20T06:36:35Z</time>
      </trkpt>
      <trkpt lat="44.06086" lon="5.9322">
        <ele>469</ele>
        <time>2020-08-20T06:36:47Z</time>
      </trkpt>
      <trkpt lat="44.06094" lon="5.93231">
        <ele>470</ele>
        <time>2020-08-20T06:37:02Z</time>
      </trkpt>
      <trkpt lat="44.06083" lon="5.93234">
        <ele>473</ele>
        <time>2020-08-20T06:37:11Z</time>
      </trkpt>
      <trkpt lat="44.06077" lon="5.93229">
        <ele>474</ele>
        <time>2020-08-20T06:37:18Z</time>
      </trkpt>
      <trkpt lat="44.06064" lon="5.93214">
        <ele>476</ele>
        <time>2020-08-20T06:37:31Z</time>
      </trkpt>
      <trkpt lat="44.06042" lon="5.93169">
        <ele>482</ele>
        <time>2020-08-20T06:38:03Z</time>
      </trkpt>
      <trkpt lat="44.06036" lon="5.93162">
        <ele>483</ele>
        <time>2020-08-20T06:38:09Z</time>
      </trkpt>
      <trkpt lat="44.06032" lon="5.93153">
        <ele>484</ele>
        <time>2020-08-20T06:38:14Z</time>
      </trkpt>
      <trkpt lat="44.06026" lon="5.93145">
        <ele>484</ele>
        <time>2020-08-20T06:38:19Z</time>
      </trkpt>
      <trkpt lat="44.06019" lon="5.9313">
        <ele>486</ele>
        <time>2020-08-20T06:38:31Z</time>
      </trkpt>
      <trkpt lat="44.06013" lon="5.93128">
        <ele>487</ele>
        <time>2020-08-20T06:38:36Z</time>
      </trkpt>
      <trkpt lat="44.06005" lon="5.93122">
        <ele>489</ele>
        <time>2020-08-20T06:38:44Z</time>
      </trkpt>
      <trkpt lat="44.06" lon="5.9312">
        <ele>489</ele>
        <time>2020-08-20T06:38:48Z</time>
      </trkpt>
      <trkpt lat="44.05994" lon="5.93117">
        <ele>490</ele>
        <time>2020-08-20T06:38:53Z</time>
      </trkpt>
      <trkpt lat="44.05972" lon="5.93103">
        <ele>493</ele>
        <time>2020-08-20T06:39:10Z</time>
      </trkpt>
      <trkpt lat="44.05965" lon="5.93097">
        <ele>493</ele>
        <time>2020-08-20T06:39:15Z</time>
      </trkpt>
      <trkpt lat="44.0596" lon="5.93095">
        <ele>494</ele>
        <time>2020-08-20T06:39:18Z</time>
      </trkpt>
      <trkpt lat="44.05954" lon="5.93092">
        <ele>495</ele>
        <time>2020-08-20T06:39:23Z</time>
      </trkpt>
      <trkpt lat="44.05947" lon="5.93092">
        <ele>495</ele>
        <time>2020-08-20T06:39:28Z</time>
      </trkpt>
      <trkpt lat="44.05941" lon="5.93095">
        <ele>496</ele>
        <time>2020-08-20T06:39:31Z</time>
      </trkpt>
      <trkpt lat="44.05928" lon="5.93094">
        <ele>498</ele>
        <time>2020-08-20T06:39:41Z</time>
      </trkpt>
      <trkpt lat="44.05922" lon="5.93095">
        <ele>498</ele>
        <time>2020-08-20T06:39:45Z</time>
      </trkpt>
      <trkpt lat="44.05916" lon="5.93095">
        <ele>499</ele>
        <time>2020-08-20T06:39:50Z</time>
      </trkpt>
      <trkpt lat="44.05898" lon="5.93102">
        <ele>502</ele>
        <time>2020-08-20T06:40:06Z</time>
      </trkpt>
      <trkpt lat="44.05892" lon="5.93102">
        <ele>502</ele>
        <time>2020-08-20T06:40:10Z</time>
      </trkpt>
      <trkpt lat="44.05887" lon="5.93103">
        <ele>503</ele>
        <time>2020-08-20T06:40:14Z</time>
      </trkpt>
      <trkpt lat="44.05881" lon="5.93107">
        <ele>504</ele>
        <time>2020-08-20T06:40:18Z</time>
      </trkpt>
      <trkpt lat="44.05874" lon="5.93109">
        <ele>505</ele>
        <time>2020-08-20T06:40:22Z</time>
      </trkpt>
      <trkpt lat="44.05869" lon="5.93111">
        <ele>505</ele>
        <time>2020-08-20T06:40:26Z</time>
      </trkpt>
      <trkpt lat="44.05862" lon="5.93109">
        <ele>505</ele>
        <time>2020-08-20T06:40:29Z</time>
      </trkpt>
      <trkpt lat="44.05856" lon="5.93108">
        <ele>505</ele>
        <time>2020-08-20T06:40:33Z</time>
      </trkpt>
      <trkpt lat="44.05839" lon="5.93107">
        <ele>506</ele>
        <time>2020-08-20T06:40:42Z</time>
      </trkpt>
      <trkpt lat="44.05834" lon="5.9311">
        <ele>506</ele>
        <time>2020-08-20T06:40:45Z</time>
      </trkpt>
      <trkpt lat="44.05828" lon="5.9311">
        <ele>507</ele>
        <time>2020-08-20T06:40:49Z</time>
      </trkpt>
      <trkpt lat="44.0583" lon="5.93103">
        <ele>507</ele>
        <time>2020-08-20T06:41:02Z</time>
      </trkpt>
      <trkpt lat="44.05837" lon="5.93104">
        <ele>509</ele>
        <time>2020-08-20T06:41:06Z</time>
      </trkpt>
      <trkpt lat="44.05849" lon="5.93106">
        <ele>509</ele>
        <time>2020-08-20T06:41:12Z</time>
      </trkpt>
      <trkpt lat="44.05892" lon="5.9314">
        <ele>514</ele>
        <time>2020-08-20T06:41:43Z</time>
      </trkpt>
      <trkpt lat="44.05904" lon="5.93144">
        <ele>513</ele>
        <time>2020-08-20T06:41:59Z</time>
      </trkpt>
      <trkpt lat="44.0591" lon="5.93147">
        <ele>514</ele>
        <time>2020-08-20T06:42:03Z</time>
      </trkpt>
      <trkpt lat="44.0592" lon="5.93154">
        <ele>513</ele>
        <time>2020-08-20T06:42:09Z</time>
      </trkpt>
      <trkpt lat="44.05925" lon="5.9316">
        <ele>513</ele>
        <time>2020-08-20T06:42:13Z</time>
      </trkpt>
      <trkpt lat="44.05931" lon="5.93162">
        <ele>514</ele>
        <time>2020-08-20T06:42:16Z</time>
      </trkpt>
      <trkpt lat="44.05936" lon="5.93166">
        <ele>516</ele>
        <time>2020-08-20T06:42:20Z</time>
      </trkpt>
      <trkpt lat="44.05942" lon="5.93172">
        <ele>516</ele>
        <time>2020-08-20T06:42:23Z</time>
      </trkpt>
      <trkpt lat="44.05955" lon="5.9318">
        <ele>519</ele>
        <time>2020-08-20T06:42:31Z</time>
      </trkpt>
      <trkpt lat="44.05979" lon="5.93206">
        <ele>523</ele>
        <time>2020-08-20T06:42:50Z</time>
      </trkpt>
      <trkpt lat="44.0598" lon="5.93216">
        <ele>524</ele>
        <time>2020-08-20T06:42:53Z</time>
      </trkpt>
      <trkpt lat="44.05979" lon="5.93225">
        <ele>525</ele>
        <time>2020-08-20T06:42:58Z</time>
      </trkpt>
      <trkpt lat="44.05975" lon="5.93231">
        <ele>525</ele>
        <time>2020-08-20T06:43:02Z</time>
      </trkpt>
      <trkpt lat="44.05964" lon="5.93235">
        <ele>526</ele>
        <time>2020-08-20T06:43:09Z</time>
      </trkpt>
      <trkpt lat="44.0595" lon="5.93236">
        <ele>527</ele>
        <time>2020-08-20T06:43:18Z</time>
      </trkpt>
      <trkpt lat="44.05936" lon="5.93233">
        <ele>528</ele>
        <time>2020-08-20T06:43:24Z</time>
      </trkpt>
      <trkpt lat="44.05912" lon="5.93234">
        <ele>530</ele>
        <time>2020-08-20T06:43:39Z</time>
      </trkpt>
      <trkpt lat="44.05918" lon="5.93236">
        <ele>531</ele>
        <time>2020-08-20T06:43:46Z</time>
      </trkpt>
      <trkpt lat="44.05927" lon="5.93242">
        <ele>531</ele>
        <time>2020-08-20T06:43:50Z</time>
      </trkpt>
      <trkpt lat="44.05949" lon="5.93255">
        <ele>534</ele>
        <time>2020-08-20T06:44:02Z</time>
      </trkpt>
      <trkpt lat="44.05953" lon="5.93262">
        <ele>534</ele>
        <time>2020-08-20T06:44:05Z</time>
      </trkpt>
      <trkpt lat="44.05958" lon="5.93266">
        <ele>536</ele>
        <time>2020-08-20T06:44:09Z</time>
      </trkpt>
      <trkpt lat="44.05959" lon="5.93279">
        <ele>536</ele>
        <time>2020-08-20T06:44:12Z</time>
      </trkpt>
      <trkpt lat="44.05953" lon="5.93282">
        <ele>537</ele>
        <time>2020-08-20T06:44:17Z</time>
      </trkpt>
      <trkpt lat="44.05946" lon="5.93285">
        <ele>537</ele>
        <time>2020-08-20T06:44:20Z</time>
      </trkpt>
      <trkpt lat="44.05938" lon="5.93284">
        <ele>536</ele>
        <time>2020-08-20T06:44:24Z</time>
      </trkpt>
      <trkpt lat="44.05932" lon="5.93284">
        <ele>537</ele>
        <time>2020-08-20T06:44:27Z</time>
      </trkpt>
      <trkpt lat="44.05896" lon="5.93279">
        <ele>539</ele>
        <time>2020-08-20T06:44:40Z</time>
      </trkpt>
      <trkpt lat="44.05871" lon="5.93271">
        <ele>539</ele>
        <time>2020-08-20T06:44:49Z</time>
      </trkpt>
      <trkpt lat="44.05865" lon="5.93273">
        <ele>539</ele>
        <time>2020-08-20T06:44:53Z</time>
      </trkpt>
      <trkpt lat="44.0586" lon="5.93275">
        <ele>540</ele>
        <time>2020-08-20T06:44:56Z</time>
      </trkpt>
      <trkpt lat="44.05855" lon="5.93277">
        <ele>540</ele>
        <time>2020-08-20T06:44:59Z</time>
      </trkpt>
      <trkpt lat="44.05855" lon="5.93285">
        <ele>540</ele>
        <time>2020-08-20T06:45:02Z</time>
      </trkpt>
      <trkpt lat="44.05854" lon="5.93294">
        <ele>540</ele>
        <time>2020-08-20T06:45:05Z</time>
      </trkpt>
      <trkpt lat="44.05853" lon="5.93313">
        <ele>541</ele>
        <time>2020-08-20T06:45:09Z</time>
      </trkpt>
      <trkpt lat="44.05854" lon="5.93324">
        <ele>541</ele>
        <time>2020-08-20T06:45:11Z</time>
      </trkpt>
      <trkpt lat="44.05853" lon="5.93366">
        <ele>540</ele>
        <time>2020-08-20T06:45:19Z</time>
      </trkpt>
      <trkpt lat="44.05829" lon="5.93441">
        <ele>540</ele>
        <time>2020-08-20T06:45:34Z</time>
      </trkpt>
      <trkpt lat="44.05826" lon="5.93451">
        <ele>540</ele>
        <time>2020-08-20T06:45:36Z</time>
      </trkpt>
      <trkpt lat="44.05825" lon="5.93464">
        <ele>540</ele>
        <time>2020-08-20T06:45:38Z</time>
      </trkpt>
      <trkpt lat="44.05819" lon="5.93473">
        <ele>539</ele>
        <time>2020-08-20T06:45:41Z</time>
      </trkpt>
      <trkpt lat="44.0581" lon="5.93473">
        <ele>538</ele>
        <time>2020-08-20T06:45:43Z</time>
      </trkpt>
      <trkpt lat="44.05802" lon="5.93473">
        <ele>537</ele>
        <time>2020-08-20T06:45:45Z</time>
      </trkpt>
      <trkpt lat="44.0575" lon="5.93438">
        <ele>535</ele>
        <time>2020-08-20T06:45:55Z</time>
      </trkpt>
      <trkpt lat="44.05744" lon="5.93434">
        <ele>535</ele>
        <time>2020-08-20T06:45:56Z</time>
      </trkpt>
      <trkpt lat="44.05732" lon="5.93431">
        <ele>534</ele>
        <time>2020-08-20T06:45:58Z</time>
      </trkpt>
      <trkpt lat="44.0572" lon="5.93434">
        <ele>533</ele>
        <time>2020-08-20T06:46:00Z</time>
      </trkpt>
      <trkpt lat="44.05703" lon="5.93437">
        <ele>532</ele>
        <time>2020-08-20T06:46:02Z</time>
      </trkpt>
      <trkpt lat="44.05698" lon="5.93437">
        <ele>532</ele>
        <time>2020-08-20T06:46:03Z</time>
      </trkpt>
      <trkpt lat="44.05692" lon="5.93433">
        <ele>531</ele>
        <time>2020-08-20T06:46:04Z</time>
      </trkpt>
      <trkpt lat="44.05684" lon="5.93432">
        <ele>530</ele>
        <time>2020-08-20T06:46:06Z</time>
      </trkpt>
      <trkpt lat="44.05668" lon="5.93443">
        <ele>528</ele>
        <time>2020-08-20T06:46:10Z</time>
      </trkpt>
      <trkpt lat="44.05662" lon="5.93446">
        <ele>527</ele>
        <time>2020-08-20T06:46:11Z</time>
      </trkpt>
      <trkpt lat="44.05657" lon="5.93444">
        <ele>526</ele>
        <time>2020-08-20T06:46:12Z</time>
      </trkpt>
      <trkpt lat="44.05648" lon="5.93443">
        <ele>525</ele>
        <time>2020-08-20T06:46:14Z</time>
      </trkpt>
      <trkpt lat="44.05641" lon="5.93454">
        <ele>524</ele>
        <time>2020-08-20T06:46:16Z</time>
      </trkpt>
      <trkpt lat="44.05632" lon="5.93457">
        <ele>523</ele>
        <time>2020-08-20T06:46:18Z</time>
      </trkpt>
      <trkpt lat="44.05627" lon="5.93461">
        <ele>522</ele>
        <time>2020-08-20T06:46:20Z</time>
      </trkpt>
      <trkpt lat="44.05621" lon="5.93474">
        <ele>519</ele>
        <time>2020-08-20T06:46:25Z</time>
      </trkpt>
      <trkpt lat="44.05614" lon="5.93483">
        <ele>518</ele>
        <time>2020-08-20T06:46:28Z</time>
      </trkpt>
      <trkpt lat="44.05602" lon="5.93512">
        <ele>517</ele>
        <time>2020-08-20T06:46:38Z</time>
      </trkpt>
      <trkpt lat="44.05594" lon="5.93522">
        <ele>518</ele>
        <time>2020-08-20T06:46:47Z</time>
      </trkpt>
      <trkpt lat="44.05605" lon="5.93526">
        <ele>517</ele>
        <time>2020-08-20T06:46:59Z</time>
      </trkpt>
      <trkpt lat="44.0562" lon="5.93534">
        <ele>516</ele>
        <time>2020-08-20T06:47:05Z</time>
      </trkpt>
      <trkpt lat="44.05628" lon="5.93542">
        <ele>516</ele>
        <time>2020-08-20T06:47:08Z</time>
      </trkpt>
      <trkpt lat="44.05653" lon="5.93564">
        <ele>518</ele>
        <time>2020-08-20T06:47:19Z</time>
      </trkpt>
      <trkpt lat="44.0566" lon="5.93571">
        <ele>518</ele>
        <time>2020-08-20T06:47:22Z</time>
      </trkpt>
      <trkpt lat="44.05665" lon="5.93575">
        <ele>517</ele>
        <time>2020-08-20T06:47:24Z</time>
      </trkpt>
      <trkpt lat="44.05671" lon="5.93582">
        <ele>516</ele>
        <time>2020-08-20T06:47:27Z</time>
      </trkpt>
      <trkpt lat="44.05676" lon="5.93587">
        <ele>516</ele>
        <time>2020-08-20T06:47:29Z</time>
      </trkpt>
      <trkpt lat="44.05692" lon="5.93596">
        <ele>518</ele>
        <time>2020-08-20T06:47:35Z</time>
      </trkpt>
      <trkpt lat="44.05699" lon="5.936">
        <ele>517</ele>
        <time>2020-08-20T06:47:37Z</time>
      </trkpt>
      <trkpt lat="44.05704" lon="5.93608">
        <ele>517</ele>
        <time>2020-08-20T06:47:40Z</time>
      </trkpt>
      <trkpt lat="44.05709" lon="5.93614">
        <ele>517</ele>
        <time>2020-08-20T06:47:42Z</time>
      </trkpt>
      <trkpt lat="44.05725" lon="5.93631">
        <ele>518</ele>
        <time>2020-08-20T06:47:50Z</time>
      </trkpt>
      <trkpt lat="44.05731" lon="5.93639">
        <ele>518</ele>
        <time>2020-08-20T06:47:53Z</time>
      </trkpt>
      <trkpt lat="44.05731" lon="5.93655">
        <ele>518</ele>
        <time>2020-08-20T06:47:55Z</time>
      </trkpt>
      <trkpt lat="44.05727" lon="5.93665">
        <ele>517</ele>
        <time>2020-08-20T06:47:58Z</time>
      </trkpt>
      <trkpt lat="44.05723" lon="5.93671">
        <ele>518</ele>
        <time>2020-08-20T06:48:00Z</time>
      </trkpt>
      <trkpt lat="44.05718" lon="5.93678">
        <ele>519</ele>
        <time>2020-08-20T06:48:03Z</time>
      </trkpt>
      <trkpt lat="44.05713" lon="5.93682">
        <ele>519</ele>
        <time>2020-08-20T06:48:05Z</time>
      </trkpt>
      <trkpt lat="44.05707" lon="5.93685">
        <ele>520</ele>
        <time>2020-08-20T06:48:08Z</time>
      </trkpt>
      <trkpt lat="44.05702" lon="5.93689">
        <ele>520</ele>
        <time>2020-08-20T06:48:11Z</time>
      </trkpt>
      <trkpt lat="44.05694" lon="5.93691">
        <ele>520</ele>
        <time>2020-08-20T06:48:13Z</time>
      </trkpt>
      <trkpt lat="44.05688" lon="5.93687">
        <ele>520</ele>
        <time>2020-08-20T06:48:15Z</time>
      </trkpt>
      <trkpt lat="44.05676" lon="5.93683">
        <ele>521</ele>
        <time>2020-08-20T06:48:19Z</time>
      </trkpt>
      <trkpt lat="44.0567" lon="5.93684">
        <ele>521</ele>
        <time>2020-08-20T06:48:22Z</time>
      </trkpt>
      <trkpt lat="44.05664" lon="5.9369">
        <ele>521</ele>
        <time>2020-08-20T06:48:25Z</time>
      </trkpt>
      <trkpt lat="44.05659" lon="5.93689">
        <ele>521</ele>
        <time>2020-08-20T06:48:28Z</time>
      </trkpt>
      <trkpt lat="44.0565" lon="5.93691">
        <ele>522</ele>
        <time>2020-08-20T06:48:32Z</time>
      </trkpt>
      <trkpt lat="44.05646" lon="5.93695">
        <ele>520</ele>
        <time>2020-08-20T06:48:35Z</time>
      </trkpt>
      <trkpt lat="44.05641" lon="5.937">
        <ele>521</ele>
        <time>2020-08-20T06:48:38Z</time>
      </trkpt>
      <trkpt lat="44.05631" lon="5.937">
        <ele>522</ele>
        <time>2020-08-20T06:48:42Z</time>
      </trkpt>
      <trkpt lat="44.05624" lon="5.93702">
        <ele>522</ele>
        <time>2020-08-20T06:48:45Z</time>
      </trkpt>
      <trkpt lat="44.05621" lon="5.9371">
        <ele>522</ele>
        <time>2020-08-20T06:48:48Z</time>
      </trkpt>
      <trkpt lat="44.05628" lon="5.93733">
        <ele>523</ele>
        <time>2020-08-20T06:49:01Z</time>
      </trkpt>
      <trkpt lat="44.05628" lon="5.93742">
        <ele>523</ele>
        <time>2020-08-20T06:49:03Z</time>
      </trkpt>
      <trkpt lat="44.05622" lon="5.93746">
        <ele>524</ele>
        <time>2020-08-20T06:49:07Z</time>
      </trkpt>
      <trkpt lat="44.0561" lon="5.93745">
        <ele>524</ele>
        <time>2020-08-20T06:49:13Z</time>
      </trkpt>
      <trkpt lat="44.05604" lon="5.93743">
        <ele>524</ele>
        <time>2020-08-20T06:49:16Z</time>
      </trkpt>
      <trkpt lat="44.05588" lon="5.93727">
        <ele>525</ele>
        <time>2020-08-20T06:49:25Z</time>
      </trkpt>
      <trkpt lat="44.05573" lon="5.93724">
        <ele>526</ele>
        <time>2020-08-20T06:49:33Z</time>
      </trkpt>
      <trkpt lat="44.05568" lon="5.93719">
        <ele>526</ele>
        <time>2020-08-20T06:49:37Z</time>
      </trkpt>
      <trkpt lat="44.05563" lon="5.93711">
        <ele>525</ele>
        <time>2020-08-20T06:49:40Z</time>
      </trkpt>
      <trkpt lat="44.05559" lon="5.93706">
        <ele>525</ele>
        <time>2020-08-20T06:49:42Z</time>
      </trkpt>
      <trkpt lat="44.05552" lon="5.93699">
        <ele>527</ele>
        <time>2020-08-20T06:49:45Z</time>
      </trkpt>
      <trkpt lat="44.05549" lon="5.9369">
        <ele>527</ele>
        <time>2020-08-20T06:49:47Z</time>
      </trkpt>
      <trkpt lat="44.05556" lon="5.93659">
        <ele>528</ele>
        <time>2020-08-20T06:49:56Z</time>
      </trkpt>
      <trkpt lat="44.05559" lon="5.93651">
        <ele>529</ele>
        <time>2020-08-20T06:49:59Z</time>
      </trkpt>
      <trkpt lat="44.05574" lon="5.93637">
        <ele>529</ele>
        <time>2020-08-20T06:50:07Z</time>
      </trkpt>
      <trkpt lat="44.05579" lon="5.93633">
        <ele>530</ele>
        <time>2020-08-20T06:50:10Z</time>
      </trkpt>
      <trkpt lat="44.05582" lon="5.93626">
        <ele>531</ele>
        <time>2020-08-20T06:50:14Z</time>
      </trkpt>
      <trkpt lat="44.05575" lon="5.93624">
        <ele>532</ele>
        <time>2020-08-20T06:50:20Z</time>
      </trkpt>
      <trkpt lat="44.05569" lon="5.93623">
        <ele>532</ele>
        <time>2020-08-20T06:50:24Z</time>
      </trkpt>
      <trkpt lat="44.05564" lon="5.93631">
        <ele>532</ele>
        <time>2020-08-20T06:50:28Z</time>
      </trkpt>
      <trkpt lat="44.05557" lon="5.93635">
        <ele>532</ele>
        <time>2020-08-20T06:50:31Z</time>
      </trkpt>
      <trkpt lat="44.05544" lon="5.93632">
        <ele>533</ele>
        <time>2020-08-20T06:50:37Z</time>
      </trkpt>
      <trkpt lat="44.05534" lon="5.93626">
        <ele>533</ele>
        <time>2020-08-20T06:50:43Z</time>
      </trkpt>
      <trkpt lat="44.05521" lon="5.93626">
        <ele>534</ele>
        <time>2020-08-20T06:50:49Z</time>
      </trkpt>
      <trkpt lat="44.05506" lon="5.9363">
        <ele>535</ele>
        <time>2020-08-20T06:50:55Z</time>
      </trkpt>
      <trkpt lat="44.05496" lon="5.93629">
        <ele>535</ele>
        <time>2020-08-20T06:51:00Z</time>
      </trkpt>
      <trkpt lat="44.0549" lon="5.93632">
        <ele>536</ele>
        <time>2020-08-20T06:51:03Z</time>
      </trkpt>
      <trkpt lat="44.05485" lon="5.93636">
        <ele>536</ele>
        <time>2020-08-20T06:51:06Z</time>
      </trkpt>
      <trkpt lat="44.05464" lon="5.93644">
        <ele>538</ele>
        <time>2020-08-20T06:51:17Z</time>
      </trkpt>
      <trkpt lat="44.05451" lon="5.93644">
        <ele>538</ele>
        <time>2020-08-20T06:51:21Z</time>
      </trkpt>
      <trkpt lat="44.05434" lon="5.93623">
        <ele>539</ele>
        <time>2020-08-20T06:51:31Z</time>
      </trkpt>
      <trkpt lat="44.0542" lon="5.93622">
        <ele>540</ele>
        <time>2020-08-20T06:51:39Z</time>
      </trkpt>
      <trkpt lat="44.05412" lon="5.93621">
        <ele>541</ele>
        <time>2020-08-20T06:51:42Z</time>
      </trkpt>
      <trkpt lat="44.05406" lon="5.93623">
        <ele>541</ele>
        <time>2020-08-20T06:51:46Z</time>
      </trkpt>
      <trkpt lat="44.05395" lon="5.93617">
        <ele>542</ele>
        <time>2020-08-20T06:51:51Z</time>
      </trkpt>
      <trkpt lat="44.05391" lon="5.9361">
        <ele>542</ele>
        <time>2020-08-20T06:51:53Z</time>
      </trkpt>
      <trkpt lat="44.05385" lon="5.93589">
        <ele>543</ele>
        <time>2020-08-20T06:52:00Z</time>
      </trkpt>
      <trkpt lat="44.0538" lon="5.93582">
        <ele>544</ele>
        <time>2020-08-20T06:52:04Z</time>
      </trkpt>
      <trkpt lat="44.05373" lon="5.93574">
        <ele>544</ele>
        <time>2020-08-20T06:52:09Z</time>
      </trkpt>
      <trkpt lat="44.05362" lon="5.93567">
        <ele>545</ele>
        <time>2020-08-20T06:52:15Z</time>
      </trkpt>
      <trkpt lat="44.05356" lon="5.93561">
        <ele>546</ele>
        <time>2020-08-20T06:52:19Z</time>
      </trkpt>
      <trkpt lat="44.05352" lon="5.93555">
        <ele>546</ele>
        <time>2020-08-20T06:52:22Z</time>
      </trkpt>
      <trkpt lat="44.05339" lon="5.93551">
        <ele>546</ele>
        <time>2020-08-20T06:52:28Z</time>
      </trkpt>
      <trkpt lat="44.05303" lon="5.93529">
        <ele>548</ele>
        <time>2020-08-20T06:52:42Z</time>
      </trkpt>
      <trkpt lat="44.05295" lon="5.93526">
        <ele>548</ele>
        <time>2020-08-20T06:52:45Z</time>
      </trkpt>
      <trkpt lat="44.05285" lon="5.93525">
        <ele>548</ele>
        <time>2020-08-20T06:52:48Z</time>
      </trkpt>
      <trkpt lat="44.05263" lon="5.93518">
        <ele>546</ele>
        <time>2020-08-20T06:52:52Z</time>
      </trkpt>
      <trkpt lat="44.05254" lon="5.93508">
        <ele>546</ele>
        <time>2020-08-20T06:52:54Z</time>
      </trkpt>
      <trkpt lat="44.05246" lon="5.93502">
        <ele>546</ele>
        <time>2020-08-20T06:52:55Z</time>
      </trkpt>
      <trkpt lat="44.05201" lon="5.93467">
        <ele>546</ele>
        <time>2020-08-20T06:53:04Z</time>
      </trkpt>
      <trkpt lat="44.05195" lon="5.93463">
        <ele>545</ele>
        <time>2020-08-20T06:53:05Z</time>
      </trkpt>
      <trkpt lat="44.05189" lon="5.9346">
        <ele>545</ele>
        <time>2020-08-20T06:53:06Z</time>
      </trkpt>
      <trkpt lat="44.05182" lon="5.93461">
        <ele>545</ele>
        <time>2020-08-20T06:53:07Z</time>
      </trkpt>
      <trkpt lat="44.05172" lon="5.93471">
        <ele>545</ele>
        <time>2020-08-20T06:53:09Z</time>
      </trkpt>
      <trkpt lat="44.05167" lon="5.93475">
        <ele>544</ele>
        <time>2020-08-20T06:53:10Z</time>
      </trkpt>
      <trkpt lat="44.05152" lon="5.93479">
        <ele>542</ele>
        <time>2020-08-20T06:53:13Z</time>
      </trkpt>
      <trkpt lat="44.05145" lon="5.93481">
        <ele>540</ele>
        <time>2020-08-20T06:53:15Z</time>
      </trkpt>
      <trkpt lat="44.05138" lon="5.93483">
        <ele>538</ele>
        <time>2020-08-20T06:53:18Z</time>
      </trkpt>
      <trkpt lat="44.05132" lon="5.93468">
        <ele>536</ele>
        <time>2020-08-20T06:53:22Z</time>
      </trkpt>
      <trkpt lat="44.05129" lon="5.93461">
        <ele>536</ele>
        <time>2020-08-20T06:53:24Z</time>
      </trkpt>
      <trkpt lat="44.05125" lon="5.93455">
        <ele>537</ele>
        <time>2020-08-20T06:53:26Z</time>
      </trkpt>
      <trkpt lat="44.05116" lon="5.93442">
        <ele>537</ele>
        <time>2020-08-20T06:53:30Z</time>
      </trkpt>
      <trkpt lat="44.0509" lon="5.93415">
        <ele>536</ele>
        <time>2020-08-20T06:53:41Z</time>
      </trkpt>
      <trkpt lat="44.0504" lon="5.93402">
        <ele>536</ele>
        <time>2020-08-20T06:53:58Z</time>
      </trkpt>
      <trkpt lat="44.05034" lon="5.93404">
        <ele>535</ele>
        <time>2020-08-20T06:54:01Z</time>
      </trkpt>
      <trkpt lat="44.05026" lon="5.93405">
        <ele>535</ele>
        <time>2020-08-20T06:54:04Z</time>
      </trkpt>
      <trkpt lat="44.05004" lon="5.934">
        <ele>536</ele>
        <time>2020-08-20T06:54:10Z</time>
      </trkpt>
      <trkpt lat="44.04996" lon="5.93394">
        <ele>536</ele>
        <time>2020-08-20T06:54:12Z</time>
      </trkpt>
      <trkpt lat="44.04982" lon="5.93374">
        <ele>536</ele>
        <time>2020-08-20T06:54:16Z</time>
      </trkpt>
      <trkpt lat="44.04975" lon="5.9337">
        <ele>536</ele>
        <time>2020-08-20T06:54:18Z</time>
      </trkpt>
      <trkpt lat="44.04967" lon="5.93371">
        <ele>536</ele>
        <time>2020-08-20T06:54:21Z</time>
      </trkpt>
      <trkpt lat="44.0496" lon="5.93375">
        <ele>536</ele>
        <time>2020-08-20T06:54:24Z</time>
      </trkpt>
      <trkpt lat="44.04953" lon="5.93382">
        <ele>536</ele>
        <time>2020-08-20T06:54:27Z</time>
      </trkpt>
      <trkpt lat="44.04948" lon="5.93385">
        <ele>536</ele>
        <time>2020-08-20T06:54:29Z</time>
      </trkpt>
      <trkpt lat="44.04888" lon="5.93431">
        <ele>538</ele>
        <time>2020-08-20T06:54:50Z</time>
      </trkpt>
      <trkpt lat="44.04866" lon="5.93438">
        <ele>539</ele>
        <time>2020-08-20T06:54:58Z</time>
      </trkpt>
      <trkpt lat="44.04859" lon="5.93437">
        <ele>538</ele>
        <time>2020-08-20T06:55:00Z</time>
      </trkpt>
      <trkpt lat="44.04847" lon="5.9342">
        <ele>535</ele>
        <time>2020-08-20T06:55:04Z</time>
      </trkpt>
      <trkpt lat="44.0483" lon="5.93381">
        <ele>536</ele>
        <time>2020-08-20T06:55:11Z</time>
      </trkpt>
      <trkpt lat="44.04819" lon="5.93352">
        <ele>539</ele>
        <time>2020-08-20T06:55:17Z</time>
      </trkpt>
      <trkpt lat="44.04816" lon="5.93341">
        <ele>539</ele>
        <time>2020-08-20T06:55:19Z</time>
      </trkpt>
      <trkpt lat="44.04816" lon="5.9333">
        <ele>539</ele>
        <time>2020-08-20T06:55:21Z</time>
      </trkpt>
      <trkpt lat="44.04833" lon="5.93302">
        <ele>539</ele>
        <time>2020-08-20T06:55:29Z</time>
      </trkpt>
      <trkpt lat="44.04839" lon="5.93283">
        <ele>539</ele>
        <time>2020-08-20T06:55:34Z</time>
      </trkpt>
      <trkpt lat="44.04845" lon="5.93248">
        <ele>541</ele>
        <time>2020-08-20T06:55:45Z</time>
      </trkpt>
      <trkpt lat="44.04844" lon="5.9324">
        <ele>542</ele>
        <time>2020-08-20T06:55:48Z</time>
      </trkpt>
      <trkpt lat="44.04841" lon="5.93232">
        <ele>542</ele>
        <time>2020-08-20T06:55:51Z</time>
      </trkpt>
      <trkpt lat="44.04837" lon="5.93223">
        <ele>542</ele>
        <time>2020-08-20T06:55:54Z</time>
      </trkpt>
      <trkpt lat="44.04834" lon="5.93215">
        <ele>543</ele>
        <time>2020-08-20T06:55:57Z</time>
      </trkpt>
      <trkpt lat="44.04822" lon="5.93204">
        <ele>543</ele>
        <time>2020-08-20T06:56:03Z</time>
      </trkpt>
      <trkpt lat="44.04805" lon="5.93202">
        <ele>544</ele>
        <time>2020-08-20T06:56:10Z</time>
      </trkpt>
      <trkpt lat="44.04798" lon="5.93186">
        <ele>545</ele>
        <time>2020-08-20T06:56:18Z</time>
      </trkpt>
      <trkpt lat="44.04784" lon="5.9317">
        <ele>546</ele>
        <time>2020-08-20T06:56:29Z</time>
      </trkpt>
      <trkpt lat="44.04781" lon="5.93163">
        <ele>546</ele>
        <time>2020-08-20T06:56:32Z</time>
      </trkpt>
      <trkpt lat="44.04779" lon="5.93155">
        <ele>546</ele>
        <time>2020-08-20T06:56:35Z</time>
      </trkpt>
      <trkpt lat="44.04777" lon="5.93145">
        <ele>547</ele>
        <time>2020-08-20T06:56:39Z</time>
      </trkpt>
      <trkpt lat="44.04761" lon="5.93119">
        <ele>549</ele>
        <time>2020-08-20T06:56:54Z</time>
      </trkpt>
      <trkpt lat="44.04755" lon="5.93106">
        <ele>550</ele>
        <time>2020-08-20T06:57:00Z</time>
      </trkpt>
      <trkpt lat="44.04753" lon="5.93098">
        <ele>551</ele>
        <time>2020-08-20T06:57:04Z</time>
      </trkpt>
      <trkpt lat="44.04746" lon="5.93084">
        <ele>551</ele>
        <time>2020-08-20T06:57:11Z</time>
      </trkpt>
      <trkpt lat="44.04744" lon="5.93077">
        <ele>552</ele>
        <time>2020-08-20T06:57:14Z</time>
      </trkpt>
      <trkpt lat="44.04739" lon="5.93072">
        <ele>553</ele>
        <time>2020-08-20T06:57:18Z</time>
      </trkpt>
      <trkpt lat="44.04732" lon="5.93071">
        <ele>553</ele>
        <time>2020-08-20T06:57:21Z</time>
      </trkpt>
      <trkpt lat="44.04727" lon="5.93085">
        <ele>553</ele>
        <time>2020-08-20T06:57:26Z</time>
      </trkpt>
      <trkpt lat="44.04728" lon="5.93094">
        <ele>553</ele>
        <time>2020-08-20T06:57:29Z</time>
      </trkpt>
      <trkpt lat="44.04727" lon="5.93102">
        <ele>553</ele>
        <time>2020-08-20T06:57:31Z</time>
      </trkpt>
      <trkpt lat="44.04724" lon="5.93112">
        <ele>553</ele>
        <time>2020-08-20T06:57:33Z</time>
      </trkpt>
      <trkpt lat="44.04719" lon="5.93118">
        <ele>553</ele>
        <time>2020-08-20T06:57:35Z</time>
      </trkpt>
      <trkpt lat="44.04706" lon="5.93122">
        <ele>553</ele>
        <time>2020-08-20T06:57:39Z</time>
      </trkpt>
      <trkpt lat="44.04687" lon="5.9312">
        <ele>552</ele>
        <time>2020-08-20T06:57:43Z</time>
      </trkpt>
      <trkpt lat="44.04656" lon="5.93098">
        <ele>551</ele>
        <time>2020-08-20T06:57:49Z</time>
      </trkpt>
      <trkpt lat="44.04645" lon="5.93089">
        <ele>549</ele>
        <time>2020-08-20T06:58:08Z</time>
      </trkpt>
      <trkpt lat="44.04641" lon="5.93094">
        <ele>548</ele>
        <time>2020-08-20T07:01:57Z</time>
      </trkpt>
      <trkpt lat="44.04639" lon="5.93078">
        <ele>548</ele>
        <time>2020-08-20T07:03:26Z</time>
      </trkpt>
      <trkpt lat="44.04643" lon="5.9307">
        <ele>548</ele>
        <time>2020-08-20T07:03:30Z</time>
      </trkpt>
      <trkpt lat="44.04649" lon="5.93064">
        <ele>548</ele>
        <time>2020-08-20T07:03:34Z</time>
      </trkpt>
      <trkpt lat="44.04655" lon="5.93063">
        <ele>550</ele>
        <time>2020-08-20T07:03:37Z</time>
      </trkpt>
      <trkpt lat="44.04656" lon="5.93057">
        <ele>552</ele>
        <time>2020-08-20T07:03:48Z</time>
      </trkpt>
      <trkpt lat="44.04654" lon="5.93049">
        <ele>553</ele>
        <time>2020-08-20T07:03:53Z</time>
      </trkpt>
      <trkpt lat="44.04647" lon="5.93046">
        <ele>555</ele>
        <time>2020-08-20T07:04:01Z</time>
      </trkpt>
      <trkpt lat="44.04641" lon="5.93048">
        <ele>555</ele>
        <time>2020-08-20T07:04:05Z</time>
      </trkpt>
      <trkpt lat="44.04635" lon="5.93046">
        <ele>555</ele>
        <time>2020-08-20T07:04:09Z</time>
      </trkpt>
      <trkpt lat="44.04631" lon="5.93037">
        <ele>556</ele>
        <time>2020-08-20T07:04:12Z</time>
      </trkpt>
      <trkpt lat="44.0463" lon="5.9303">
        <ele>556</ele>
        <time>2020-08-20T07:04:16Z</time>
      </trkpt>
      <trkpt lat="44.04639" lon="5.93017">
        <ele>557</ele>
        <time>2020-08-20T07:04:22Z</time>
      </trkpt>
      <trkpt lat="44.04646" lon="5.93012">
        <ele>558</ele>
        <time>2020-08-20T07:04:25Z</time>
      </trkpt>
      <trkpt lat="44.04656" lon="5.93007">
        <ele>558</ele>
        <time>2020-08-20T07:04:31Z</time>
      </trkpt>
      <trkpt lat="44.04649" lon="5.93004">
        <ele>559</ele>
        <time>2020-08-20T07:04:39Z</time>
      </trkpt>
      <trkpt lat="44.04645" lon="5.92999">
        <ele>560</ele>
        <time>2020-08-20T07:04:42Z</time>
      </trkpt>
      <trkpt lat="44.04642" lon="5.92993">
        <ele>560</ele>
        <time>2020-08-20T07:04:44Z</time>
      </trkpt>
      <trkpt lat="44.04643" lon="5.92987">
        <ele>562</ele>
        <time>2020-08-20T07:04:47Z</time>
      </trkpt>
      <trkpt lat="44.04644" lon="5.92982">
        <ele>561</ele>
        <time>2020-08-20T07:04:49Z</time>
      </trkpt>
      <trkpt lat="44.04646" lon="5.9297">
        <ele>562</ele>
        <time>2020-08-20T07:05:25Z</time>
      </trkpt>
      <trkpt lat="44.04644" lon="5.92958">
        <ele>564</ele>
        <time>2020-08-20T07:05:35Z</time>
      </trkpt>
      <trkpt lat="44.0464" lon="5.9295">
        <ele>564</ele>
        <time>2020-08-20T07:05:44Z</time>
      </trkpt>
      <trkpt lat="44.04639" lon="5.92939">
        <ele>565</ele>
        <time>2020-08-20T07:05:48Z</time>
      </trkpt>
      <trkpt lat="44.04643" lon="5.92932">
        <ele>566</ele>
        <time>2020-08-20T07:05:51Z</time>
      </trkpt>
      <trkpt lat="44.04651" lon="5.92928">
        <ele>567</ele>
        <time>2020-08-20T07:05:54Z</time>
      </trkpt>
      <trkpt lat="44.04671" lon="5.92924">
        <ele>566</ele>
        <time>2020-08-20T07:05:59Z</time>
      </trkpt>
      <trkpt lat="44.04683" lon="5.92919">
        <ele>566</ele>
        <time>2020-08-20T07:06:01Z</time>
      </trkpt>
      <trkpt lat="44.04691" lon="5.92917">
        <ele>566</ele>
        <time>2020-08-20T07:06:03Z</time>
      </trkpt>
      <trkpt lat="44.04696" lon="5.92918">
        <ele>566</ele>
        <time>2020-08-20T07:06:05Z</time>
      </trkpt>
      <trkpt lat="44.04719" lon="5.9291">
        <ele>567</ele>
        <time>2020-08-20T07:06:15Z</time>
      </trkpt>
      <trkpt lat="44.04724" lon="5.92908">
        <ele>567</ele>
        <time>2020-08-20T07:06:17Z</time>
      </trkpt>
      <trkpt lat="44.04729" lon="5.92891">
        <ele>570</ele>
        <time>2020-08-20T07:06:29Z</time>
      </trkpt>
      <trkpt lat="44.04733" lon="5.92885">
        <ele>570</ele>
        <time>2020-08-20T07:06:33Z</time>
      </trkpt>
      <trkpt lat="44.04725" lon="5.92871">
        <ele>572</ele>
        <time>2020-08-20T07:06:45Z</time>
      </trkpt>
      <trkpt lat="44.04725" lon="5.92844">
        <ele>573</ele>
        <time>2020-08-20T07:06:57Z</time>
      </trkpt>
      <trkpt lat="44.04728" lon="5.92836">
        <ele>573</ele>
        <time>2020-08-20T07:07:00Z</time>
      </trkpt>
      <trkpt lat="44.04731" lon="5.9283">
        <ele>573</ele>
        <time>2020-08-20T07:07:03Z</time>
      </trkpt>
      <trkpt lat="44.04737" lon="5.92808">
        <ele>575</ele>
        <time>2020-08-20T07:07:14Z</time>
      </trkpt>
      <trkpt lat="44.04736" lon="5.92801">
        <ele>576</ele>
        <time>2020-08-20T07:07:18Z</time>
      </trkpt>
      <trkpt lat="44.04728" lon="5.928">
        <ele>578</ele>
        <time>2020-08-20T07:07:26Z</time>
      </trkpt>
      <trkpt lat="44.04724" lon="5.92793">
        <ele>579</ele>
        <time>2020-08-20T07:07:29Z</time>
      </trkpt>
      <trkpt lat="44.04723" lon="5.92784">
        <ele>579</ele>
        <time>2020-08-20T07:07:32Z</time>
      </trkpt>
      <trkpt lat="44.0472" lon="5.92778">
        <ele>580</ele>
        <time>2020-08-20T07:07:37Z</time>
      </trkpt>
      <trkpt lat="44.04717" lon="5.9277">
        <ele>580</ele>
        <time>2020-08-20T07:07:41Z</time>
      </trkpt>
      <trkpt lat="44.04717" lon="5.92762">
        <ele>581</ele>
        <time>2020-08-20T07:07:45Z</time>
      </trkpt>
      <trkpt lat="44.04721" lon="5.92752">
        <ele>582</ele>
        <time>2020-08-20T07:07:49Z</time>
      </trkpt>
      <trkpt lat="44.04725" lon="5.92744">
        <ele>581</ele>
        <time>2020-08-20T07:07:52Z</time>
      </trkpt>
      <trkpt lat="44.04728" lon="5.92732">
        <ele>582</ele>
        <time>2020-08-20T07:07:55Z</time>
      </trkpt>
      <trkpt lat="44.04734" lon="5.92734">
        <ele>582</ele>
        <time>2020-08-20T07:07:58Z</time>
      </trkpt>
      <trkpt lat="44.04741" lon="5.92736">
        <ele>581</ele>
        <time>2020-08-20T07:08:02Z</time>
      </trkpt>
      <trkpt lat="44.04746" lon="5.92738">
        <ele>582</ele>
        <time>2020-08-20T07:08:07Z</time>
      </trkpt>
      <trkpt lat="44.04753" lon="5.92738">
        <ele>581</ele>
        <time>2020-08-20T07:08:10Z</time>
      </trkpt>
      <trkpt lat="44.04761" lon="5.92736">
        <ele>582</ele>
        <time>2020-08-20T07:08:15Z</time>
      </trkpt>
      <trkpt lat="44.04765" lon="5.92729">
        <ele>582</ele>
        <time>2020-08-20T07:08:20Z</time>
      </trkpt>
      <trkpt lat="44.04768" lon="5.92723">
        <ele>582</ele>
        <time>2020-08-20T07:08:23Z</time>
      </trkpt>
      <trkpt lat="44.0477" lon="5.92715">
        <ele>582</ele>
        <time>2020-08-20T07:08:26Z</time>
      </trkpt>
      <trkpt lat="44.04775" lon="5.92702">
        <ele>583</ele>
        <time>2020-08-20T07:08:31Z</time>
      </trkpt>
      <trkpt lat="44.04778" lon="5.92693">
        <ele>583</ele>
        <time>2020-08-20T07:08:34Z</time>
      </trkpt>
      <trkpt lat="44.04782" lon="5.92678">
        <ele>584</ele>
        <time>2020-08-20T07:08:42Z</time>
      </trkpt>
      <trkpt lat="44.04783" lon="5.9267">
        <ele>585</ele>
        <time>2020-08-20T07:08:46Z</time>
      </trkpt>
      <trkpt lat="44.04778" lon="5.92665">
        <ele>586</ele>
        <time>2020-08-20T07:08:52Z</time>
      </trkpt>
      <trkpt lat="44.04773" lon="5.9266">
        <ele>587</ele>
        <time>2020-08-20T07:08:57Z</time>
      </trkpt>
      <trkpt lat="44.04768" lon="5.92654">
        <ele>588</ele>
        <time>2020-08-20T07:09:01Z</time>
      </trkpt>
      <trkpt lat="44.04763" lon="5.92652">
        <ele>589</ele>
        <time>2020-08-20T07:09:06Z</time>
      </trkpt>
      <trkpt lat="44.04758" lon="5.92647">
        <ele>590</ele>
        <time>2020-08-20T07:09:09Z</time>
      </trkpt>
      <trkpt lat="44.04756" lon="5.92638">
        <ele>590</ele>
        <time>2020-08-20T07:09:11Z</time>
      </trkpt>
      <trkpt lat="44.04755" lon="5.92621">
        <ele>591</ele>
        <time>2020-08-20T07:09:17Z</time>
      </trkpt>
      <trkpt lat="44.04751" lon="5.92614">
        <ele>592</ele>
        <time>2020-08-20T07:09:22Z</time>
      </trkpt>
      <trkpt lat="44.04745" lon="5.92596">
        <ele>594</ele>
        <time>2020-08-20T07:09:33Z</time>
      </trkpt>
      <trkpt lat="44.04743" lon="5.92586">
        <ele>595</ele>
        <time>2020-08-20T07:09:37Z</time>
      </trkpt>
      <trkpt lat="44.04739" lon="5.9258">
        <ele>596</ele>
        <time>2020-08-20T07:09:41Z</time>
      </trkpt>
      <trkpt lat="44.04735" lon="5.92574">
        <ele>596</ele>
        <time>2020-08-20T07:09:45Z</time>
      </trkpt>
      <trkpt lat="44.04727" lon="5.9258">
        <ele>598</ele>
        <time>2020-08-20T07:09:58Z</time>
      </trkpt>
      <trkpt lat="44.04721" lon="5.92582">
        <ele>598</ele>
        <time>2020-08-20T07:10:02Z</time>
      </trkpt>
      <trkpt lat="44.04713" lon="5.92582">
        <ele>599</ele>
        <time>2020-08-20T07:10:06Z</time>
      </trkpt>
      <trkpt lat="44.04708" lon="5.9258">
        <ele>600</ele>
        <time>2020-08-20T07:10:09Z</time>
      </trkpt>
      <trkpt lat="44.04703" lon="5.92571">
        <ele>600</ele>
        <time>2020-08-20T07:10:12Z</time>
      </trkpt>
      <trkpt lat="44.047" lon="5.92561">
        <ele>600</ele>
        <time>2020-08-20T07:10:15Z</time>
      </trkpt>
      <trkpt lat="44.047" lon="5.92553">
        <ele>601</ele>
        <time>2020-08-20T07:10:19Z</time>
      </trkpt>
      <trkpt lat="44.04704" lon="5.92534">
        <ele>603</ele>
        <time>2020-08-20T07:10:25Z</time>
      </trkpt>
      <trkpt lat="44.04708" lon="5.92524">
        <ele>602</ele>
        <time>2020-08-20T07:10:28Z</time>
      </trkpt>
      <trkpt lat="44.04711" lon="5.92516">
        <ele>604</ele>
        <time>2020-08-20T07:10:31Z</time>
      </trkpt>
      <trkpt lat="44.04715" lon="5.92511">
        <ele>605</ele>
        <time>2020-08-20T07:10:34Z</time>
      </trkpt>
      <trkpt lat="44.0472" lon="5.92503">
        <ele>605</ele>
        <time>2020-08-20T07:10:37Z</time>
      </trkpt>
      <trkpt lat="44.04722" lon="5.92496">
        <ele>604</ele>
        <time>2020-08-20T07:10:40Z</time>
      </trkpt>
      <trkpt lat="44.04725" lon="5.92488">
        <ele>605</ele>
        <time>2020-08-20T07:10:45Z</time>
      </trkpt>
      <trkpt lat="44.04729" lon="5.9248">
        <ele>606</ele>
        <time>2020-08-20T07:10:48Z</time>
      </trkpt>
      <trkpt lat="44.04737" lon="5.9247">
        <ele>606</ele>
        <time>2020-08-20T07:10:52Z</time>
      </trkpt>
      <trkpt lat="44.04741" lon="5.92464">
        <ele>607</ele>
        <time>2020-08-20T07:10:55Z</time>
      </trkpt>
      <trkpt lat="44.04747" lon="5.92451">
        <ele>607</ele>
        <time>2020-08-20T07:11:01Z</time>
      </trkpt>
      <trkpt lat="44.0475" lon="5.92449">
        <ele>608</ele>
        <time>2020-08-20T07:11:03Z</time>
      </trkpt>
      <trkpt lat="44.04754" lon="5.92446">
        <ele>608</ele>
        <time>2020-08-20T07:11:05Z</time>
      </trkpt>
      <trkpt lat="44.04762" lon="5.92443">
        <ele>608</ele>
        <time>2020-08-20T07:11:09Z</time>
      </trkpt>
      <trkpt lat="44.04772" lon="5.9244">
        <ele>608</ele>
        <time>2020-08-20T07:11:14Z</time>
      </trkpt>
      <trkpt lat="44.04776" lon="5.92438">
        <ele>609</ele>
        <time>2020-08-20T07:11:16Z</time>
      </trkpt>
      <trkpt lat="44.04771" lon="5.9243">
        <ele>609</ele>
        <time>2020-08-20T07:11:22Z</time>
      </trkpt>
      <trkpt lat="44.04766" lon="5.92427">
        <ele>610</ele>
        <time>2020-08-20T07:11:26Z</time>
      </trkpt>
      <trkpt lat="44.04752" lon="5.92427">
        <ele>612</ele>
        <time>2020-08-20T07:11:36Z</time>
      </trkpt>
      <trkpt lat="44.04746" lon="5.92424">
        <ele>613</ele>
        <time>2020-08-20T07:11:40Z</time>
      </trkpt>
      <trkpt lat="44.04745" lon="5.92416">
        <ele>613</ele>
        <time>2020-08-20T07:11:44Z</time>
      </trkpt>
      <trkpt lat="44.04745" lon="5.92398">
        <ele>614</ele>
        <time>2020-08-20T07:11:52Z</time>
      </trkpt>
      <trkpt lat="44.04745" lon="5.92391">
        <ele>615</ele>
        <time>2020-08-20T07:11:56Z</time>
      </trkpt>
      <trkpt lat="44.04744" lon="5.92383">
        <ele>616</ele>
        <time>2020-08-20T07:11:59Z</time>
      </trkpt>
      <trkpt lat="44.04741" lon="5.92375">
        <ele>617</ele>
        <time>2020-08-20T07:12:03Z</time>
      </trkpt>
      <trkpt lat="44.04741" lon="5.92365">
        <ele>618</ele>
        <time>2020-08-20T07:12:07Z</time>
      </trkpt>
      <trkpt lat="44.04742" lon="5.92356">
        <ele>618</ele>
        <time>2020-08-20T07:12:11Z</time>
      </trkpt>
      <trkpt lat="44.04738" lon="5.9235">
        <ele>618</ele>
        <time>2020-08-20T07:12:15Z</time>
      </trkpt>
      <trkpt lat="44.04734" lon="5.92346">
        <ele>618</ele>
        <time>2020-08-20T07:12:20Z</time>
      </trkpt>
      <trkpt lat="44.04728" lon="5.9234">
        <ele>620</ele>
        <time>2020-08-20T07:12:24Z</time>
      </trkpt>
      <trkpt lat="44.04722" lon="5.92337">
        <ele>619</ele>
        <time>2020-08-20T07:12:27Z</time>
      </trkpt>
      <trkpt lat="44.04716" lon="5.92334">
        <ele>619</ele>
        <time>2020-08-20T07:12:30Z</time>
      </trkpt>
      <trkpt lat="44.04712" lon="5.92328">
        <ele>621</ele>
        <time>2020-08-20T07:12:33Z</time>
      </trkpt>
      <trkpt lat="44.04711" lon="5.92319">
        <ele>620</ele>
        <time>2020-08-20T07:12:36Z</time>
      </trkpt>
      <trkpt lat="44.04716" lon="5.92311">
        <ele>620</ele>
        <time>2020-08-20T07:12:39Z</time>
      </trkpt>
      <trkpt lat="44.04718" lon="5.92304">
        <ele>620</ele>
        <time>2020-08-20T07:12:41Z</time>
      </trkpt>
      <trkpt lat="44.04729" lon="5.9228">
        <ele>621</ele>
        <time>2020-08-20T07:12:47Z</time>
      </trkpt>
      <trkpt lat="44.04734" lon="5.92276">
        <ele>621</ele>
        <time>2020-08-20T07:12:49Z</time>
      </trkpt>
      <trkpt lat="44.04739" lon="5.92268">
        <ele>620</ele>
        <time>2020-08-20T07:12:52Z</time>
      </trkpt>
      <trkpt lat="44.04739" lon="5.92259">
        <ele>620</ele>
        <time>2020-08-20T07:12:56Z</time>
      </trkpt>
      <trkpt lat="44.04739" lon="5.92251">
        <ele>621</ele>
        <time>2020-08-20T07:12:59Z</time>
      </trkpt>
      <trkpt lat="44.0474" lon="5.92242">
        <ele>621</ele>
        <time>2020-08-20T07:13:02Z</time>
      </trkpt>
      <trkpt lat="44.0474" lon="5.92232">
        <ele>621</ele>
        <time>2020-08-20T07:13:05Z</time>
      </trkpt>
      <trkpt lat="44.04745" lon="5.9222">
        <ele>619</ele>
        <time>2020-08-20T07:13:08Z</time>
      </trkpt>
      <trkpt lat="44.04758" lon="5.922">
        <ele>618</ele>
        <time>2020-08-20T07:13:12Z</time>
      </trkpt>
      <trkpt lat="44.04768" lon="5.92186">
        <ele>618</ele>
        <time>2020-08-20T07:13:14Z</time>
      </trkpt>
      <trkpt lat="44.04774" lon="5.92178">
        <ele>617</ele>
        <time>2020-08-20T07:13:15Z</time>
      </trkpt>
      <trkpt lat="44.04781" lon="5.92157">
        <ele>616</ele>
        <time>2020-08-20T07:13:20Z</time>
      </trkpt>
      <trkpt lat="44.0478" lon="5.92148">
        <ele>616</ele>
        <time>2020-08-20T07:13:23Z</time>
      </trkpt>
      <trkpt lat="44.04782" lon="5.92138">
        <ele>616</ele>
        <time>2020-08-20T07:13:25Z</time>
      </trkpt>
      <trkpt lat="44.04785" lon="5.92129">
        <ele>616</ele>
        <time>2020-08-20T07:13:27Z</time>
      </trkpt>
      <trkpt lat="44.04786" lon="5.9212">
        <ele>615</ele>
        <time>2020-08-20T07:13:29Z</time>
      </trkpt>
      <trkpt lat="44.04784" lon="5.92113">
        <ele>615</ele>
        <time>2020-08-20T07:13:31Z</time>
      </trkpt>
      <trkpt lat="44.04781" lon="5.92104">
        <ele>615</ele>
        <time>2020-08-20T07:13:36Z</time>
      </trkpt>
      <trkpt lat="44.04777" lon="5.92096">
        <ele>616</ele>
        <time>2020-08-20T07:13:39Z</time>
      </trkpt>
      <trkpt lat="44.04775" lon="5.92076">
        <ele>617</ele>
        <time>2020-08-20T07:13:45Z</time>
      </trkpt>
      <trkpt lat="44.04776" lon="5.92065">
        <ele>616</ele>
        <time>2020-08-20T07:13:48Z</time>
      </trkpt>
      <trkpt lat="44.04777" lon="5.92056">
        <ele>616</ele>
        <time>2020-08-20T07:13:51Z</time>
      </trkpt>
      <trkpt lat="44.04784" lon="5.92033">
        <ele>618</ele>
        <time>2020-08-20T07:13:59Z</time>
      </trkpt>
      <trkpt lat="44.04786" lon="5.92026">
        <ele>618</ele>
        <time>2020-08-20T07:14:05Z</time>
      </trkpt>
      <trkpt lat="44.04783" lon="5.92017">
        <ele>619</ele>
        <time>2020-08-20T07:14:10Z</time>
      </trkpt>
      <trkpt lat="44.0479" lon="5.92011">
        <ele>619</ele>
        <time>2020-08-20T07:14:13Z</time>
      </trkpt>
      <trkpt lat="44.0479" lon="5.91999">
        <ele>619</ele>
        <time>2020-08-20T07:14:17Z</time>
      </trkpt>
      <trkpt lat="44.04784" lon="5.91981">
        <ele>620</ele>
        <time>2020-08-20T07:14:26Z</time>
      </trkpt>
      <trkpt lat="44.04782" lon="5.91973">
        <ele>621</ele>
        <time>2020-08-20T07:14:29Z</time>
      </trkpt>
      <trkpt lat="44.0478" lon="5.91966">
        <ele>620</ele>
        <time>2020-08-20T07:14:32Z</time>
      </trkpt>
      <trkpt lat="44.04776" lon="5.9196">
        <ele>622</ele>
        <time>2020-08-20T07:14:36Z</time>
      </trkpt>
      <trkpt lat="44.04775" lon="5.91951">
        <ele>622</ele>
        <time>2020-08-20T07:14:40Z</time>
      </trkpt>
      <trkpt lat="44.0477" lon="5.91934">
        <ele>624</ele>
        <time>2020-08-20T07:14:47Z</time>
      </trkpt>
      <trkpt lat="44.04769" lon="5.91926">
        <ele>624</ele>
        <time>2020-08-20T07:14:50Z</time>
      </trkpt>
      <trkpt lat="44.04768" lon="5.91928">
        <ele>627</ele>
        <time>2020-08-20T07:15:08Z</time>
      </trkpt>
      <trkpt lat="44.04774" lon="5.91937">
        <ele>626</ele>
        <time>2020-08-20T07:15:11Z</time>
      </trkpt>
      <trkpt lat="44.04773" lon="5.91949">
        <ele>625</ele>
        <time>2020-08-20T07:15:13Z</time>
      </trkpt>
      <trkpt lat="44.04767" lon="5.91958">
        <ele>626</ele>
        <time>2020-08-20T07:15:16Z</time>
      </trkpt>
      <trkpt lat="44.04752" lon="5.91942">
        <ele>628</ele>
        <time>2020-08-20T07:15:29Z</time>
      </trkpt>
      <trkpt lat="44.04749" lon="5.91934">
        <ele>628</ele>
        <time>2020-08-20T07:15:33Z</time>
      </trkpt>
      <trkpt lat="44.04748" lon="5.91925">
        <ele>629</ele>
        <time>2020-08-20T07:15:36Z</time>
      </trkpt>
      <trkpt lat="44.04747" lon="5.91916">
        <ele>630</ele>
        <time>2020-08-20T07:15:39Z</time>
      </trkpt>
      <trkpt lat="44.04743" lon="5.91894">
        <ele>631</ele>
        <time>2020-08-20T07:15:48Z</time>
      </trkpt>
      <trkpt lat="44.04743" lon="5.91884">
        <ele>632</ele>
        <time>2020-08-20T07:15:51Z</time>
      </trkpt>
      <trkpt lat="44.04738" lon="5.91874">
        <ele>631</ele>
        <time>2020-08-20T07:15:53Z</time>
      </trkpt>
      <trkpt lat="44.04742" lon="5.91856">
        <ele>627</ele>
        <time>2020-08-20T07:15:58Z</time>
      </trkpt>
      <trkpt lat="44.04748" lon="5.91852">
        <ele>627</ele>
        <time>2020-08-20T07:16:02Z</time>
      </trkpt>
      <trkpt lat="44.04762" lon="5.9185">
        <ele>631</ele>
        <time>2020-08-20T07:16:10Z</time>
      </trkpt>
      <trkpt lat="44.04768" lon="5.91841">
        <ele>630</ele>
        <time>2020-08-20T07:16:14Z</time>
      </trkpt>
      <trkpt lat="44.04773" lon="5.91838">
        <ele>630</ele>
        <time>2020-08-20T07:16:16Z</time>
      </trkpt>
      <trkpt lat="44.04782" lon="5.91834">
        <ele>631</ele>
        <time>2020-08-20T07:16:21Z</time>
      </trkpt>
      <trkpt lat="44.04795" lon="5.91826">
        <ele>631</ele>
        <time>2020-08-20T07:16:30Z</time>
      </trkpt>
      <trkpt lat="44.04803" lon="5.91824">
        <ele>631</ele>
        <time>2020-08-20T07:16:36Z</time>
      </trkpt>
      <trkpt lat="44.04809" lon="5.9182">
        <ele>631</ele>
        <time>2020-08-20T07:16:40Z</time>
      </trkpt>
      <trkpt lat="44.04818" lon="5.91819">
        <ele>632</ele>
        <time>2020-08-20T07:16:45Z</time>
      </trkpt>
      <trkpt lat="44.04831" lon="5.9181">
        <ele>634</ele>
        <time>2020-08-20T07:16:51Z</time>
      </trkpt>
      <trkpt lat="44.04858" lon="5.918">
        <ele>635</ele>
        <time>2020-08-20T07:17:01Z</time>
      </trkpt>
      <trkpt lat="44.04867" lon="5.9179">
        <ele>634</ele>
        <time>2020-08-20T07:17:05Z</time>
      </trkpt>
      <trkpt lat="44.04876" lon="5.91781">
        <ele>635</ele>
        <time>2020-08-20T07:17:09Z</time>
      </trkpt>
      <trkpt lat="44.04883" lon="5.91766">
        <ele>635</ele>
        <time>2020-08-20T07:17:14Z</time>
      </trkpt>
      <trkpt lat="44.04887" lon="5.9176">
        <ele>635</ele>
        <time>2020-08-20T07:17:16Z</time>
      </trkpt>
      <trkpt lat="44.04887" lon="5.91751">
        <ele>634</ele>
        <time>2020-08-20T07:17:18Z</time>
      </trkpt>
      <trkpt lat="44.04884" lon="5.91742">
        <ele>634</ele>
        <time>2020-08-20T07:17:20Z</time>
      </trkpt>
      <trkpt lat="44.0488" lon="5.91716">
        <ele>635</ele>
        <time>2020-08-20T07:17:26Z</time>
      </trkpt>
      <trkpt lat="44.0488" lon="5.91704">
        <ele>635</ele>
        <time>2020-08-20T07:17:29Z</time>
      </trkpt>
      <trkpt lat="44.04882" lon="5.91687">
        <ele>634</ele>
        <time>2020-08-20T07:17:33Z</time>
      </trkpt>
      <trkpt lat="44.04886" lon="5.91678">
        <ele>635</ele>
        <time>2020-08-20T07:17:35Z</time>
      </trkpt>
      <trkpt lat="44.04884" lon="5.91659">
        <ele>634</ele>
        <time>2020-08-20T07:17:42Z</time>
      </trkpt>
      <trkpt lat="44.04878" lon="5.91648">
        <ele>634</ele>
        <time>2020-08-20T07:17:46Z</time>
      </trkpt>
      <trkpt lat="44.04872" lon="5.91638">
        <ele>633</ele>
        <time>2020-08-20T07:17:49Z</time>
      </trkpt>
      <trkpt lat="44.04868" lon="5.91629">
        <ele>633</ele>
        <time>2020-08-20T07:17:51Z</time>
      </trkpt>
      <trkpt lat="44.04871" lon="5.91617">
        <ele>633</ele>
        <time>2020-08-20T07:17:53Z</time>
      </trkpt>
      <trkpt lat="44.04878" lon="5.9161">
        <ele>632</ele>
        <time>2020-08-20T07:17:55Z</time>
      </trkpt>
      <trkpt lat="44.04879" lon="5.91601">
        <ele>632</ele>
        <time>2020-08-20T07:17:59Z</time>
      </trkpt>
      <trkpt lat="44.04882" lon="5.91591">
        <ele>632</ele>
        <time>2020-08-20T07:18:01Z</time>
      </trkpt>
      <trkpt lat="44.0489" lon="5.91581">
        <ele>630</ele>
        <time>2020-08-20T07:18:05Z</time>
      </trkpt>
      <trkpt lat="44.04897" lon="5.91577">
        <ele>629</ele>
        <time>2020-08-20T07:18:09Z</time>
      </trkpt>
      <trkpt lat="44.04902" lon="5.91565">
        <ele>627</ele>
        <time>2020-08-20T07:18:14Z</time>
      </trkpt>
      <trkpt lat="44.04895" lon="5.91554">
        <ele>623</ele>
        <time>2020-08-20T07:18:26Z</time>
      </trkpt>
      <trkpt lat="44.0489" lon="5.91544">
        <ele>623</ele>
        <time>2020-08-20T07:18:30Z</time>
      </trkpt>
      <trkpt lat="44.04889" lon="5.91536">
        <ele>623</ele>
        <time>2020-08-20T07:18:34Z</time>
      </trkpt>
      <trkpt lat="44.04889" lon="5.91528">
        <ele>623</ele>
        <time>2020-08-20T07:18:37Z</time>
      </trkpt>
      <trkpt lat="44.04897" lon="5.91511">
        <ele>624</ele>
        <time>2020-08-20T07:18:45Z</time>
      </trkpt>
      <trkpt lat="44.049" lon="5.91504">
        <ele>626</ele>
        <time>2020-08-20T07:18:48Z</time>
      </trkpt>
      <trkpt lat="44.04907" lon="5.91491">
        <ele>626</ele>
        <time>2020-08-20T07:18:56Z</time>
      </trkpt>
      <trkpt lat="44.04909" lon="5.91482">
        <ele>626</ele>
        <time>2020-08-20T07:18:59Z</time>
      </trkpt>
      <trkpt lat="44.04911" lon="5.91475">
        <ele>627</ele>
        <time>2020-08-20T07:19:05Z</time>
      </trkpt>
      <trkpt lat="44.04911" lon="5.91468">
        <ele>627</ele>
        <time>2020-08-20T07:19:09Z</time>
      </trkpt>
      <trkpt lat="44.0491" lon="5.9146">
        <ele>627</ele>
        <time>2020-08-20T07:19:13Z</time>
      </trkpt>
      <trkpt lat="44.04907" lon="5.91452">
        <ele>628</ele>
        <time>2020-08-20T07:19:17Z</time>
      </trkpt>
      <trkpt lat="44.04899" lon="5.91433">
        <ele>628</ele>
        <time>2020-08-20T07:19:24Z</time>
      </trkpt>
      <trkpt lat="44.04897" lon="5.91421">
        <ele>629</ele>
        <time>2020-08-20T07:19:28Z</time>
      </trkpt>
      <trkpt lat="44.04893" lon="5.91411">
        <ele>628</ele>
        <time>2020-08-20T07:19:31Z</time>
      </trkpt>
      <trkpt lat="44.04889" lon="5.91407">
        <ele>628</ele>
        <time>2020-08-20T07:19:33Z</time>
      </trkpt>
      <trkpt lat="44.04882" lon="5.91395">
        <ele>630</ele>
        <time>2020-08-20T07:19:37Z</time>
      </trkpt>
      <trkpt lat="44.04879" lon="5.91382">
        <ele>631</ele>
        <time>2020-08-20T07:19:42Z</time>
      </trkpt>
      <trkpt lat="44.0488" lon="5.91375">
        <ele>632</ele>
        <time>2020-08-20T07:19:46Z</time>
      </trkpt>
      <trkpt lat="44.04875" lon="5.91368">
        <ele>632</ele>
        <time>2020-08-20T07:19:50Z</time>
      </trkpt>
      <trkpt lat="44.0487" lon="5.91358">
        <ele>632</ele>
        <time>2020-08-20T07:19:53Z</time>
      </trkpt>
      <trkpt lat="44.04867" lon="5.91349">
        <ele>632</ele>
        <time>2020-08-20T07:19:55Z</time>
      </trkpt>
      <trkpt lat="44.04861" lon="5.91342">
        <ele>631</ele>
        <time>2020-08-20T07:19:57Z</time>
      </trkpt>
      <trkpt lat="44.04851" lon="5.91337">
        <ele>632</ele>
        <time>2020-08-20T07:20:00Z</time>
      </trkpt>
      <trkpt lat="44.04836" lon="5.9132">
        <ele>632</ele>
        <time>2020-08-20T07:20:10Z</time>
      </trkpt>
      <trkpt lat="44.0483" lon="5.91309">
        <ele>633</ele>
        <time>2020-08-20T07:20:14Z</time>
      </trkpt>
      <trkpt lat="44.04835" lon="5.91298">
        <ele>632</ele>
        <time>2020-08-20T07:20:17Z</time>
      </trkpt>
      <trkpt lat="44.04839" lon="5.91294">
        <ele>632</ele>
        <time>2020-08-20T07:20:19Z</time>
      </trkpt>
      <trkpt lat="44.04845" lon="5.91289">
        <ele>633</ele>
        <time>2020-08-20T07:20:25Z</time>
      </trkpt>
      <trkpt lat="44.04849" lon="5.91286">
        <ele>634</ele>
        <time>2020-08-20T07:21:19Z</time>
      </trkpt>
      <trkpt lat="44.04856" lon="5.9128">
        <ele>634</ele>
        <time>2020-08-20T07:21:53Z</time>
      </trkpt>
      <trkpt lat="44.04857" lon="5.91271">
        <ele>636</ele>
        <time>2020-08-20T07:21:59Z</time>
      </trkpt>
      <trkpt lat="44.04852" lon="5.9127">
        <ele>635</ele>
        <time>2020-08-20T07:22:04Z</time>
      </trkpt>
      <trkpt lat="44.04846" lon="5.91274">
        <ele>636</ele>
        <time>2020-08-20T07:22:12Z</time>
      </trkpt>
      <trkpt lat="44.0484" lon="5.91278">
        <ele>637</ele>
        <time>2020-08-20T07:22:16Z</time>
      </trkpt>
      <trkpt lat="44.04837" lon="5.91277">
        <ele>637</ele>
        <time>2020-08-20T07:22:18Z</time>
      </trkpt>
      <trkpt lat="44.04828" lon="5.9127">
        <ele>638</ele>
        <time>2020-08-20T07:22:26Z</time>
      </trkpt>
      <trkpt lat="44.04823" lon="5.91268">
        <ele>638</ele>
        <time>2020-08-20T07:22:30Z</time>
      </trkpt>
      <trkpt lat="44.04819" lon="5.91264">
        <ele>639</ele>
        <time>2020-08-20T07:22:33Z</time>
      </trkpt>
      <trkpt lat="44.04815" lon="5.91262">
        <ele>639</ele>
        <time>2020-08-20T07:22:37Z</time>
      </trkpt>
      <trkpt lat="44.04811" lon="5.9126">
        <ele>640</ele>
        <time>2020-08-20T07:22:40Z</time>
      </trkpt>
      <trkpt lat="44.04794" lon="5.91254">
        <ele>642</ele>
        <time>2020-08-20T07:22:54Z</time>
      </trkpt>
      <trkpt lat="44.04788" lon="5.91253">
        <ele>643</ele>
        <time>2020-08-20T07:22:59Z</time>
      </trkpt>
      <trkpt lat="44.04777" lon="5.91249">
        <ele>646</ele>
        <time>2020-08-20T07:23:08Z</time>
      </trkpt>
      <trkpt lat="44.04771" lon="5.91244">
        <ele>646</ele>
        <time>2020-08-20T07:23:13Z</time>
      </trkpt>
      <trkpt lat="44.04768" lon="5.91235">
        <ele>646</ele>
        <time>2020-08-20T07:23:17Z</time>
      </trkpt>
      <trkpt lat="44.04761" lon="5.91235">
        <ele>649</ele>
        <time>2020-08-20T07:23:30Z</time>
      </trkpt>
      <trkpt lat="44.04758" lon="5.9123">
        <ele>649</ele>
        <time>2020-08-20T07:23:33Z</time>
      </trkpt>
      <trkpt lat="44.04755" lon="5.91224">
        <ele>649</ele>
        <time>2020-08-20T07:23:36Z</time>
      </trkpt>
      <trkpt lat="44.04747" lon="5.912">
        <ele>652</ele>
        <time>2020-08-20T07:23:50Z</time>
      </trkpt>
      <trkpt lat="44.04744" lon="5.91192">
        <ele>653</ele>
        <time>2020-08-20T07:23:53Z</time>
      </trkpt>
      <trkpt lat="44.04743" lon="5.91185">
        <ele>654</ele>
        <time>2020-08-20T07:23:59Z</time>
      </trkpt>
      <trkpt lat="44.04734" lon="5.91192">
        <ele>655</ele>
        <time>2020-08-20T07:24:12Z</time>
      </trkpt>
      <trkpt lat="44.04732" lon="5.91199">
        <ele>657</ele>
        <time>2020-08-20T07:24:17Z</time>
      </trkpt>
      <trkpt lat="44.04728" lon="5.91206">
        <ele>657</ele>
        <time>2020-08-20T07:24:22Z</time>
      </trkpt>
      <trkpt lat="44.04725" lon="5.91213">
        <ele>657</ele>
        <time>2020-08-20T07:24:25Z</time>
      </trkpt>
      <trkpt lat="44.04724" lon="5.91223">
        <ele>658</ele>
        <time>2020-08-20T07:24:29Z</time>
      </trkpt>
      <trkpt lat="44.0472" lon="5.9123">
        <ele>658</ele>
        <time>2020-08-20T07:24:33Z</time>
      </trkpt>
      <trkpt lat="44.04714" lon="5.91236">
        <ele>658</ele>
        <time>2020-08-20T07:24:36Z</time>
      </trkpt>
      <trkpt lat="44.04708" lon="5.91234">
        <ele>659</ele>
        <time>2020-08-20T07:24:38Z</time>
      </trkpt>
      <trkpt lat="44.04703" lon="5.91228">
        <ele>659</ele>
        <time>2020-08-20T07:24:42Z</time>
      </trkpt>
      <trkpt lat="44.04699" lon="5.91219">
        <ele>659</ele>
        <time>2020-08-20T07:24:45Z</time>
      </trkpt>
      <trkpt lat="44.04698" lon="5.91209">
        <ele>660</ele>
        <time>2020-08-20T07:24:49Z</time>
      </trkpt>
      <trkpt lat="44.047" lon="5.91201">
        <ele>660</ele>
        <time>2020-08-20T07:24:52Z</time>
      </trkpt>
      <trkpt lat="44.047" lon="5.91192">
        <ele>661</ele>
        <time>2020-08-20T07:24:55Z</time>
      </trkpt>
      <trkpt lat="44.04701" lon="5.91185">
        <ele>661</ele>
        <time>2020-08-20T07:24:58Z</time>
      </trkpt>
      <trkpt lat="44.04698" lon="5.91178">
        <ele>662</ele>
        <time>2020-08-20T07:25:02Z</time>
      </trkpt>
      <trkpt lat="44.04695" lon="5.91204">
        <ele>663</ele>
        <time>2020-08-20T07:25:16Z</time>
      </trkpt>
      <trkpt lat="44.04693" lon="5.91211">
        <ele>664</ele>
        <time>2020-08-20T07:25:19Z</time>
      </trkpt>
      <trkpt lat="44.04685" lon="5.91219">
        <ele>664</ele>
        <time>2020-08-20T07:25:22Z</time>
      </trkpt>
      <trkpt lat="44.04681" lon="5.91218">
        <ele>665</ele>
        <time>2020-08-20T07:25:24Z</time>
      </trkpt>
      <trkpt lat="44.04677" lon="5.9121">
        <ele>665</ele>
        <time>2020-08-20T07:25:28Z</time>
      </trkpt>
      <trkpt lat="44.04675" lon="5.91202">
        <ele>665</ele>
        <time>2020-08-20T07:25:32Z</time>
      </trkpt>
      <trkpt lat="44.04675" lon="5.91194">
        <ele>666</ele>
        <time>2020-08-20T07:25:35Z</time>
      </trkpt>
      <trkpt lat="44.0467" lon="5.9119">
        <ele>667</ele>
        <time>2020-08-20T07:25:46Z</time>
      </trkpt>
      <trkpt lat="44.04667" lon="5.91196">
        <ele>668</ele>
        <time>2020-08-20T07:25:50Z</time>
      </trkpt>
      <trkpt lat="44.04664" lon="5.91203">
        <ele>668</ele>
        <time>2020-08-20T07:25:53Z</time>
      </trkpt>
      <trkpt lat="44.04659" lon="5.91204">
        <ele>668</ele>
        <time>2020-08-20T07:25:55Z</time>
      </trkpt>
      <trkpt lat="44.04655" lon="5.91204">
        <ele>668</ele>
        <time>2020-08-20T07:25:57Z</time>
      </trkpt>
      <trkpt lat="44.04653" lon="5.91198">
        <ele>669</ele>
        <time>2020-08-20T07:26:01Z</time>
      </trkpt>
      <trkpt lat="44.04651" lon="5.9119">
        <ele>669</ele>
        <time>2020-08-20T07:26:05Z</time>
      </trkpt>
      <trkpt lat="44.04651" lon="5.91181">
        <ele>669</ele>
        <time>2020-08-20T07:26:08Z</time>
      </trkpt>
      <trkpt lat="44.04648" lon="5.91173">
        <ele>670</ele>
        <time>2020-08-20T07:26:11Z</time>
      </trkpt>
      <trkpt lat="44.04649" lon="5.91166">
        <ele>671</ele>
        <time>2020-08-20T07:26:14Z</time>
      </trkpt>
      <trkpt lat="44.04644" lon="5.91147">
        <ele>673</ele>
        <time>2020-08-20T07:26:21Z</time>
      </trkpt>
      <trkpt lat="44.04642" lon="5.91141">
        <ele>672</ele>
        <time>2020-08-20T07:26:23Z</time>
      </trkpt>
      <trkpt lat="44.04641" lon="5.91133">
        <ele>672</ele>
        <time>2020-08-20T07:26:25Z</time>
      </trkpt>
      <trkpt lat="44.04642" lon="5.91124">
        <ele>672</ele>
        <time>2020-08-20T07:26:27Z</time>
      </trkpt>
      <trkpt lat="44.04643" lon="5.91112">
        <ele>672</ele>
        <time>2020-08-20T07:26:30Z</time>
      </trkpt>
      <trkpt lat="44.04646" lon="5.91105">
        <ele>672</ele>
        <time>2020-08-20T07:26:32Z</time>
      </trkpt>
      <trkpt lat="44.04648" lon="5.91096">
        <ele>673</ele>
        <time>2020-08-20T07:26:35Z</time>
      </trkpt>
      <trkpt lat="44.0465" lon="5.91089">
        <ele>673</ele>
        <time>2020-08-20T07:26:37Z</time>
      </trkpt>
      <trkpt lat="44.04649" lon="5.91073">
        <ele>674</ele>
        <time>2020-08-20T07:26:44Z</time>
      </trkpt>
      <trkpt lat="44.04643" lon="5.91062">
        <ele>676</ele>
        <time>2020-08-20T07:26:50Z</time>
      </trkpt>
      <trkpt lat="44.04643" lon="5.91056">
        <ele>675</ele>
        <time>2020-08-20T07:26:53Z</time>
      </trkpt>
      <trkpt lat="44.04642" lon="5.91049">
        <ele>676</ele>
        <time>2020-08-20T07:26:56Z</time>
      </trkpt>
      <trkpt lat="44.04639" lon="5.91046">
        <ele>677</ele>
        <time>2020-08-20T07:26:59Z</time>
      </trkpt>
      <trkpt lat="44.04635" lon="5.9105">
        <ele>678</ele>
        <time>2020-08-20T07:27:05Z</time>
      </trkpt>
      <trkpt lat="44.04632" lon="5.91064">
        <ele>679</ele>
        <time>2020-08-20T07:27:14Z</time>
      </trkpt>
      <trkpt lat="44.04627" lon="5.91069">
        <ele>679</ele>
        <time>2020-08-20T07:27:18Z</time>
      </trkpt>
      <trkpt lat="44.04625" lon="5.91074">
        <ele>679</ele>
        <time>2020-08-20T07:27:22Z</time>
      </trkpt>
      <trkpt lat="44.04623" lon="5.9108">
        <ele>680</ele>
        <time>2020-08-20T07:27:25Z</time>
      </trkpt>
      <trkpt lat="44.0462" lon="5.91086">
        <ele>681</ele>
        <time>2020-08-20T07:27:28Z</time>
      </trkpt>
      <trkpt lat="44.04615" lon="5.91094">
        <ele>681</ele>
        <time>2020-08-20T07:27:32Z</time>
      </trkpt>
      <trkpt lat="44.04609" lon="5.91109">
        <ele>682</ele>
        <time>2020-08-20T07:27:38Z</time>
      </trkpt>
      <trkpt lat="44.04603" lon="5.91119">
        <ele>683</ele>
        <time>2020-08-20T07:27:42Z</time>
      </trkpt>
      <trkpt lat="44.04601" lon="5.91124">
        <ele>682</ele>
        <time>2020-08-20T07:27:44Z</time>
      </trkpt>
      <trkpt lat="44.04595" lon="5.91137">
        <ele>682</ele>
        <time>2020-08-20T07:27:48Z</time>
      </trkpt>
      <trkpt lat="44.04594" lon="5.9115">
        <ele>684</ele>
        <time>2020-08-20T07:27:52Z</time>
      </trkpt>
      <trkpt lat="44.0459" lon="5.91157">
        <ele>685</ele>
        <time>2020-08-20T07:27:54Z</time>
      </trkpt>
      <trkpt lat="44.04585" lon="5.91162">
        <ele>685</ele>
        <time>2020-08-20T07:27:56Z</time>
      </trkpt>
      <trkpt lat="44.04581" lon="5.91163">
        <ele>684</ele>
        <time>2020-08-20T07:27:57Z</time>
      </trkpt>
      <trkpt lat="44.04576" lon="5.91158">
        <ele>685</ele>
        <time>2020-08-20T07:27:59Z</time>
      </trkpt>
      <trkpt lat="44.04575" lon="5.91151">
        <ele>685</ele>
        <time>2020-08-20T07:28:02Z</time>
      </trkpt>
      <trkpt lat="44.04575" lon="5.91145">
        <ele>685</ele>
        <time>2020-08-20T07:28:04Z</time>
      </trkpt>
      <trkpt lat="44.04577" lon="5.91137">
        <ele>686</ele>
        <time>2020-08-20T07:28:06Z</time>
      </trkpt>
      <trkpt lat="44.04577" lon="5.91118">
        <ele>685</ele>
        <time>2020-08-20T07:28:12Z</time>
      </trkpt>
      <trkpt lat="44.04581" lon="5.91109">
        <ele>685</ele>
        <time>2020-08-20T07:28:15Z</time>
      </trkpt>
      <trkpt lat="44.04585" lon="5.91092">
        <ele>688</ele>
        <time>2020-08-20T07:28:20Z</time>
      </trkpt>
      <trkpt lat="44.04586" lon="5.91085">
        <ele>688</ele>
        <time>2020-08-20T07:28:22Z</time>
      </trkpt>
      <trkpt lat="44.04588" lon="5.91077">
        <ele>688</ele>
        <time>2020-08-20T07:28:24Z</time>
      </trkpt>
      <trkpt lat="44.04588" lon="5.91069">
        <ele>688</ele>
        <time>2020-08-20T07:28:26Z</time>
      </trkpt>
      <trkpt lat="44.0459" lon="5.91061">
        <ele>688</ele>
        <time>2020-08-20T07:28:28Z</time>
      </trkpt>
      <trkpt lat="44.04592" lon="5.91053">
        <ele>688</ele>
        <time>2020-08-20T07:28:30Z</time>
      </trkpt>
      <trkpt lat="44.04593" lon="5.91045">
        <ele>689</ele>
        <time>2020-08-20T07:28:32Z</time>
      </trkpt>
      <trkpt lat="44.04595" lon="5.91035">
        <ele>688</ele>
        <time>2020-08-20T07:28:34Z</time>
      </trkpt>
      <trkpt lat="44.04596" lon="5.91025">
        <ele>686</ele>
        <time>2020-08-20T07:28:36Z</time>
      </trkpt>
      <trkpt lat="44.04599" lon="5.91018">
        <ele>686</ele>
        <time>2020-08-20T07:28:38Z</time>
      </trkpt>
      <trkpt lat="44.04601" lon="5.91008">
        <ele>688</ele>
        <time>2020-08-20T07:28:41Z</time>
      </trkpt>
      <trkpt lat="44.04604" lon="5.91">
        <ele>688</ele>
        <time>2020-08-20T07:28:43Z</time>
      </trkpt>
      <trkpt lat="44.046" lon="5.91">
        <ele>689</ele>
        <time>2020-08-20T07:28:54Z</time>
      </trkpt>
      <trkpt lat="44.04596" lon="5.91011">
        <ele>688</ele>
        <time>2020-08-20T07:28:57Z</time>
      </trkpt>
      <trkpt lat="44.04592" lon="5.91017">
        <ele>688</ele>
        <time>2020-08-20T07:28:59Z</time>
      </trkpt>
      <trkpt lat="44.04588" lon="5.91023">
        <ele>690</ele>
        <time>2020-08-20T07:29:02Z</time>
      </trkpt>
      <trkpt lat="44.04587" lon="5.91033">
        <ele>691</ele>
        <time>2020-08-20T07:29:05Z</time>
      </trkpt>
      <trkpt lat="44.0458" lon="5.91053">
        <ele>691</ele>
        <time>2020-08-20T07:29:13Z</time>
      </trkpt>
      <trkpt lat="44.04578" lon="5.91063">
        <ele>692</ele>
        <time>2020-08-20T07:29:17Z</time>
      </trkpt>
      <trkpt lat="44.04575" lon="5.91072">
        <ele>693</ele>
        <time>2020-08-20T07:29:20Z</time>
      </trkpt>
      <trkpt lat="44.04572" lon="5.91083">
        <ele>694</ele>
        <time>2020-08-20T07:29:23Z</time>
      </trkpt>
      <trkpt lat="44.04567" lon="5.9109">
        <ele>693</ele>
        <time>2020-08-20T07:29:26Z</time>
      </trkpt>
      <trkpt lat="44.04564" lon="5.91097">
        <ele>693</ele>
        <time>2020-08-20T07:29:30Z</time>
      </trkpt>
      <trkpt lat="44.04562" lon="5.91107">
        <ele>695</ele>
        <time>2020-08-20T07:29:33Z</time>
      </trkpt>
      <trkpt lat="44.04555" lon="5.91112">
        <ele>695</ele>
        <time>2020-08-20T07:29:35Z</time>
      </trkpt>
      <trkpt lat="44.04549" lon="5.91113">
        <ele>696</ele>
        <time>2020-08-20T07:29:37Z</time>
      </trkpt>
      <trkpt lat="44.0455" lon="5.91105">
        <ele>696</ele>
        <time>2020-08-20T07:29:40Z</time>
      </trkpt>
      <trkpt lat="44.04551" lon="5.911">
        <ele>696</ele>
        <time>2020-08-20T07:29:41Z</time>
      </trkpt>
      <trkpt lat="44.04551" lon="5.91091">
        <ele>696</ele>
        <time>2020-08-20T07:29:43Z</time>
      </trkpt>
      <trkpt lat="44.0455" lon="5.91081">
        <ele>697</ele>
        <time>2020-08-20T07:29:47Z</time>
      </trkpt>
      <trkpt lat="44.04551" lon="5.9106">
        <ele>698</ele>
        <time>2020-08-20T07:29:53Z</time>
      </trkpt>
      <trkpt lat="44.04552" lon="5.91051">
        <ele>698</ele>
        <time>2020-08-20T07:29:56Z</time>
      </trkpt>
      <trkpt lat="44.04553" lon="5.91042">
        <ele>698</ele>
        <time>2020-08-20T07:29:59Z</time>
      </trkpt>
      <trkpt lat="44.04552" lon="5.91034">
        <ele>699</ele>
        <time>2020-08-20T07:30:02Z</time>
      </trkpt>
      <trkpt lat="44.04555" lon="5.91023">
        <ele>699</ele>
        <time>2020-08-20T07:30:05Z</time>
      </trkpt>
      <trkpt lat="44.04559" lon="5.91007">
        <ele>698</ele>
        <time>2020-08-20T07:30:09Z</time>
      </trkpt>
      <trkpt lat="44.04561" lon="5.90988">
        <ele>699</ele>
        <time>2020-08-20T07:30:14Z</time>
      </trkpt>
      <trkpt lat="44.04563" lon="5.90972">
        <ele>700</ele>
        <time>2020-08-20T07:30:19Z</time>
      </trkpt>
      <trkpt lat="44.04558" lon="5.90955">
        <ele>701</ele>
        <time>2020-08-20T07:30:27Z</time>
      </trkpt>
      <trkpt lat="44.04558" lon="5.90938">
        <ele>700</ele>
        <time>2020-08-20T07:30:34Z</time>
      </trkpt>
      <trkpt lat="44.0456" lon="5.90927">
        <ele>701</ele>
        <time>2020-08-20T07:30:37Z</time>
      </trkpt>
      <trkpt lat="44.04563" lon="5.90914">
        <ele>701</ele>
        <time>2020-08-20T07:30:41Z</time>
      </trkpt>
      <trkpt lat="44.04559" lon="5.90918">
        <ele>704</ele>
        <time>2020-08-20T07:30:56Z</time>
      </trkpt>
      <trkpt lat="44.04559" lon="5.90933">
        <ele>705</ele>
        <time>2020-08-20T07:31:03Z</time>
      </trkpt>
      <trkpt lat="44.04557" lon="5.9094">
        <ele>706</ele>
        <time>2020-08-20T07:31:07Z</time>
      </trkpt>
      <trkpt lat="44.04556" lon="5.9095">
        <ele>707</ele>
        <time>2020-08-20T07:31:11Z</time>
      </trkpt>
      <trkpt lat="44.04556" lon="5.90958">
        <ele>706</ele>
        <time>2020-08-20T07:31:14Z</time>
      </trkpt>
      <trkpt lat="44.0455" lon="5.90968">
        <ele>707</ele>
        <time>2020-08-20T07:31:18Z</time>
      </trkpt>
      <trkpt lat="44.04544" lon="5.90971">
        <ele>708</ele>
        <time>2020-08-20T07:31:20Z</time>
      </trkpt>
      <trkpt lat="44.0454" lon="5.90965">
        <ele>709</ele>
        <time>2020-08-20T07:31:23Z</time>
      </trkpt>
      <trkpt lat="44.0454" lon="5.90955">
        <ele>708</ele>
        <time>2020-08-20T07:31:26Z</time>
      </trkpt>
      <trkpt lat="44.04534" lon="5.90927">
        <ele>709</ele>
        <time>2020-08-20T07:31:38Z</time>
      </trkpt>
      <trkpt lat="44.04532" lon="5.9092">
        <ele>709</ele>
        <time>2020-08-20T07:31:40Z</time>
      </trkpt>
      <trkpt lat="44.0453" lon="5.90907">
        <ele>710</ele>
        <time>2020-08-20T07:31:45Z</time>
      </trkpt>
      <trkpt lat="44.04527" lon="5.90898">
        <ele>709</ele>
        <time>2020-08-20T07:31:48Z</time>
      </trkpt>
      <trkpt lat="44.04507" lon="5.90862">
        <ele>711</ele>
        <time>2020-08-20T07:31:59Z</time>
      </trkpt>
      <trkpt lat="44.04498" lon="5.90844">
        <ele>713</ele>
        <time>2020-08-20T07:32:09Z</time>
      </trkpt>
      <trkpt lat="44.04497" lon="5.90835">
        <ele>712</ele>
        <time>2020-08-20T07:32:11Z</time>
      </trkpt>
      <trkpt lat="44.04498" lon="5.90824">
        <ele>714</ele>
        <time>2020-08-20T07:32:17Z</time>
      </trkpt>
      <trkpt lat="44.04501" lon="5.90813">
        <ele>714</ele>
        <time>2020-08-20T07:32:20Z</time>
      </trkpt>
      <trkpt lat="44.04503" lon="5.90805">
        <ele>715</ele>
        <time>2020-08-20T07:32:23Z</time>
      </trkpt>
      <trkpt lat="44.04507" lon="5.90798">
        <ele>716</ele>
        <time>2020-08-20T07:32:26Z</time>
      </trkpt>
      <trkpt lat="44.04509" lon="5.90789">
        <ele>715</ele>
        <time>2020-08-20T07:32:29Z</time>
      </trkpt>
      <trkpt lat="44.04512" lon="5.90782">
        <ele>715</ele>
        <time>2020-08-20T07:32:31Z</time>
      </trkpt>
      <trkpt lat="44.0453" lon="5.9076">
        <ele>715</ele>
        <time>2020-08-20T07:32:38Z</time>
      </trkpt>
      <trkpt lat="44.04535" lon="5.90752">
        <ele>715</ele>
        <time>2020-08-20T07:32:40Z</time>
      </trkpt>
      <trkpt lat="44.04548" lon="5.90731">
        <ele>718</ele>
        <time>2020-08-20T07:32:46Z</time>
      </trkpt>
      <trkpt lat="44.04552" lon="5.90725">
        <ele>718</ele>
        <time>2020-08-20T07:32:48Z</time>
      </trkpt>
      <trkpt lat="44.04556" lon="5.90719">
        <ele>717</ele>
        <time>2020-08-20T07:32:51Z</time>
      </trkpt>
      <trkpt lat="44.04567" lon="5.90707">
        <ele>717</ele>
        <time>2020-08-20T07:32:55Z</time>
      </trkpt>
      <trkpt lat="44.04572" lon="5.90699">
        <ele>717</ele>
        <time>2020-08-20T07:32:57Z</time>
      </trkpt>
      <trkpt lat="44.04578" lon="5.90685">
        <ele>716</ele>
        <time>2020-08-20T07:33:04Z</time>
      </trkpt>
      <trkpt lat="44.04585" lon="5.90669">
        <ele>718</ele>
        <time>2020-08-20T07:33:09Z</time>
      </trkpt>
      <trkpt lat="44.04593" lon="5.90652">
        <ele>718</ele>
        <time>2020-08-20T07:33:15Z</time>
      </trkpt>
      <trkpt lat="44.04583" lon="5.9066">
        <ele>719</ele>
        <time>2020-08-20T07:33:31Z</time>
      </trkpt>
      <trkpt lat="44.04571" lon="5.90665">
        <ele>722</ele>
        <time>2020-08-20T07:33:45Z</time>
      </trkpt>
      <trkpt lat="44.04563" lon="5.90677">
        <ele>726</ele>
        <time>2020-08-20T07:33:58Z</time>
      </trkpt>
      <trkpt lat="44.04558" lon="5.90685">
        <ele>727</ele>
        <time>2020-08-20T07:34:07Z</time>
      </trkpt>
      <trkpt lat="44.04552" lon="5.90689">
        <ele>726</ele>
        <time>2020-08-20T07:34:11Z</time>
      </trkpt>
      <trkpt lat="44.04541" lon="5.90697">
        <ele>729</ele>
        <time>2020-08-20T07:34:18Z</time>
      </trkpt>
      <trkpt lat="44.04535" lon="5.90701">
        <ele>729</ele>
        <time>2020-08-20T07:34:23Z</time>
      </trkpt>
      <trkpt lat="44.0453" lon="5.9071">
        <ele>731</ele>
        <time>2020-08-20T07:34:30Z</time>
      </trkpt>
      <trkpt lat="44.04523" lon="5.90713">
        <ele>732</ele>
        <time>2020-08-20T07:34:34Z</time>
      </trkpt>
      <trkpt lat="44.0452" lon="5.90718">
        <ele>732</ele>
        <time>2020-08-20T07:34:38Z</time>
      </trkpt>
      <trkpt lat="44.04515" lon="5.90725">
        <ele>733</ele>
        <time>2020-08-20T07:34:43Z</time>
      </trkpt>
      <trkpt lat="44.04508" lon="5.90731">
        <ele>734</ele>
        <time>2020-08-20T07:34:46Z</time>
      </trkpt>
      <trkpt lat="44.04502" lon="5.90732">
        <ele>735</ele>
        <time>2020-08-20T07:34:49Z</time>
      </trkpt>
      <trkpt lat="44.04496" lon="5.90733">
        <ele>736</ele>
        <time>2020-08-20T07:34:53Z</time>
      </trkpt>
      <trkpt lat="44.04486" lon="5.90744">
        <ele>738</ele>
        <time>2020-08-20T07:35:03Z</time>
      </trkpt>
      <trkpt lat="44.0448" lon="5.90749">
        <ele>738</ele>
        <time>2020-08-20T07:35:08Z</time>
      </trkpt>
      <trkpt lat="44.04476" lon="5.90753">
        <ele>738</ele>
        <time>2020-08-20T07:35:11Z</time>
      </trkpt>
      <trkpt lat="44.04471" lon="5.90757">
        <ele>740</ele>
        <time>2020-08-20T07:35:16Z</time>
      </trkpt>
      <trkpt lat="44.04467" lon="5.90763">
        <ele>740</ele>
        <time>2020-08-20T07:35:20Z</time>
      </trkpt>
      <trkpt lat="44.04461" lon="5.90767">
        <ele>742</ele>
        <time>2020-08-20T07:35:24Z</time>
      </trkpt>
      <trkpt lat="44.04456" lon="5.9077">
        <ele>741</ele>
        <time>2020-08-20T07:35:28Z</time>
      </trkpt>
      <trkpt lat="44.0445" lon="5.90773">
        <ele>742</ele>
        <time>2020-08-20T07:35:32Z</time>
      </trkpt>
      <trkpt lat="44.04445" lon="5.90777">
        <ele>742</ele>
        <time>2020-08-20T07:35:36Z</time>
      </trkpt>
      <trkpt lat="44.04439" lon="5.9078">
        <ele>743</ele>
        <time>2020-08-20T07:35:40Z</time>
      </trkpt>
      <trkpt lat="44.04433" lon="5.90784">
        <ele>746</ele>
        <time>2020-08-20T07:35:51Z</time>
      </trkpt>
      <trkpt lat="44.04428" lon="5.90787">
        <ele>745</ele>
        <time>2020-08-20T07:35:54Z</time>
      </trkpt>
      <trkpt lat="44.04417" lon="5.90795">
        <ele>747</ele>
        <time>2020-08-20T07:36:01Z</time>
      </trkpt>
      <trkpt lat="44.04399" lon="5.908">
        <ele>750</ele>
        <time>2020-08-20T07:36:12Z</time>
      </trkpt>
      <trkpt lat="44.04394" lon="5.90804">
        <ele>750</ele>
        <time>2020-08-20T07:36:16Z</time>
      </trkpt>
      <trkpt lat="44.04389" lon="5.9081">
        <ele>751</ele>
        <time>2020-08-20T07:36:21Z</time>
      </trkpt>
      <trkpt lat="44.04384" lon="5.90813">
        <ele>751</ele>
        <time>2020-08-20T07:36:24Z</time>
      </trkpt>
      <trkpt lat="44.04377" lon="5.90815">
        <ele>752</ele>
        <time>2020-08-20T07:36:28Z</time>
      </trkpt>
      <trkpt lat="44.04371" lon="5.90813">
        <ele>752</ele>
        <time>2020-08-20T07:36:31Z</time>
      </trkpt>
      <trkpt lat="44.04365" lon="5.90812">
        <ele>753</ele>
        <time>2020-08-20T07:36:35Z</time>
      </trkpt>
      <trkpt lat="44.04361" lon="5.90819">
        <ele>756</ele>
        <time>2020-08-20T07:36:47Z</time>
      </trkpt>
      <trkpt lat="44.04361" lon="5.90828">
        <ele>756</ele>
        <time>2020-08-20T07:36:51Z</time>
      </trkpt>
      <trkpt lat="44.0436" lon="5.90836">
        <ele>757</ele>
        <time>2020-08-20T07:36:55Z</time>
      </trkpt>
      <trkpt lat="44.04361" lon="5.90845">
        <ele>756</ele>
        <time>2020-08-20T07:36:59Z</time>
      </trkpt>
      <trkpt lat="44.0436" lon="5.90855">
        <ele>756</ele>
        <time>2020-08-20T07:37:02Z</time>
      </trkpt>
      <trkpt lat="44.04359" lon="5.90862">
        <ele>756</ele>
        <time>2020-08-20T07:37:05Z</time>
      </trkpt>
      <trkpt lat="44.04353" lon="5.90878">
        <ele>759</ele>
        <time>2020-08-20T07:37:11Z</time>
      </trkpt>
      <trkpt lat="44.04349" lon="5.90897">
        <ele>759</ele>
        <time>2020-08-20T07:37:18Z</time>
      </trkpt>
      <trkpt lat="44.04347" lon="5.90904">
        <ele>760</ele>
        <time>2020-08-20T07:37:21Z</time>
      </trkpt>
      <trkpt lat="44.04345" lon="5.90911">
        <ele>761</ele>
        <time>2020-08-20T07:37:24Z</time>
      </trkpt>
      <trkpt lat="44.04343" lon="5.90921">
        <ele>761</ele>
        <time>2020-08-20T07:37:27Z</time>
      </trkpt>
      <trkpt lat="44.04338" lon="5.90949">
        <ele>763</ele>
        <time>2020-08-20T07:37:36Z</time>
      </trkpt>
      <trkpt lat="44.04337" lon="5.90957">
        <ele>762</ele>
        <time>2020-08-20T07:37:39Z</time>
      </trkpt>
      <trkpt lat="44.04334" lon="5.90973">
        <ele>763</ele>
        <time>2020-08-20T07:37:45Z</time>
      </trkpt>
      <trkpt lat="44.04332" lon="5.91013">
        <ele>766</ele>
        <time>2020-08-20T07:38:00Z</time>
      </trkpt>
      <trkpt lat="44.0433" lon="5.91028">
        <ele>766</ele>
        <time>2020-08-20T07:38:06Z</time>
      </trkpt>
      <trkpt lat="44.04326" lon="5.91031">
        <ele>768</ele>
        <time>2020-08-20T07:40:18Z</time>
      </trkpt>
      <trkpt lat="44.04322" lon="5.91039">
        <ele>767</ele>
        <time>2020-08-20T07:42:51Z</time>
      </trkpt>
      <trkpt lat="44.04317" lon="5.91049">
        <ele>767</ele>
        <time>2020-08-20T07:42:55Z</time>
      </trkpt>
      <trkpt lat="44.04314" lon="5.91059">
        <ele>768</ele>
        <time>2020-08-20T07:42:59Z</time>
      </trkpt>
      <trkpt lat="44.04311" lon="5.9107">
        <ele>768</ele>
        <time>2020-08-20T07:43:02Z</time>
      </trkpt>
      <trkpt lat="44.04307" lon="5.91079">
        <ele>767</ele>
        <time>2020-08-20T07:43:04Z</time>
      </trkpt>
      <trkpt lat="44.04303" lon="5.91085">
        <ele>768</ele>
        <time>2020-08-20T07:43:06Z</time>
      </trkpt>
      <trkpt lat="44.04297" lon="5.91093">
        <ele>768</ele>
        <time>2020-08-20T07:43:09Z</time>
      </trkpt>
      <trkpt lat="44.04295" lon="5.91101">
        <ele>769</ele>
        <time>2020-08-20T07:43:13Z</time>
      </trkpt>
      <trkpt lat="44.0429" lon="5.91106">
        <ele>769</ele>
        <time>2020-08-20T07:43:15Z</time>
      </trkpt>
      <trkpt lat="44.04286" lon="5.91115">
        <ele>770</ele>
        <time>2020-08-20T07:43:20Z</time>
      </trkpt>
      <trkpt lat="44.04286" lon="5.91127">
        <ele>770</ele>
        <time>2020-08-20T07:43:24Z</time>
      </trkpt>
      <trkpt lat="44.04285" lon="5.91135">
        <ele>770</ele>
        <time>2020-08-20T07:43:26Z</time>
      </trkpt>
      <trkpt lat="44.04282" lon="5.91142">
        <ele>770</ele>
        <time>2020-08-20T07:43:30Z</time>
      </trkpt>
      <trkpt lat="44.04276" lon="5.91164">
        <ele>772</ele>
        <time>2020-08-20T07:43:40Z</time>
      </trkpt>
      <trkpt lat="44.04274" lon="5.91172">
        <ele>772</ele>
        <time>2020-08-20T07:43:43Z</time>
      </trkpt>
      <trkpt lat="44.04274" lon="5.91179">
        <ele>771</ele>
        <time>2020-08-20T07:43:46Z</time>
      </trkpt>
      <trkpt lat="44.04273" lon="5.91188">
        <ele>773</ele>
        <time>2020-08-20T07:43:50Z</time>
      </trkpt>
      <trkpt lat="44.04272" lon="5.91197">
        <ele>774</ele>
        <time>2020-08-20T07:43:54Z</time>
      </trkpt>
      <trkpt lat="44.04273" lon="5.91207">
        <ele>774</ele>
        <time>2020-08-20T07:43:58Z</time>
      </trkpt>
      <trkpt lat="44.04273" lon="5.91215">
        <ele>774</ele>
        <time>2020-08-20T07:44:01Z</time>
      </trkpt>
      <trkpt lat="44.04271" lon="5.91223">
        <ele>775</ele>
        <time>2020-08-20T07:44:04Z</time>
      </trkpt>
      <trkpt lat="44.04264" lon="5.9124">
        <ele>776</ele>
        <time>2020-08-20T07:44:13Z</time>
      </trkpt>
      <trkpt lat="44.04261" lon="5.91252">
        <ele>777</ele>
        <time>2020-08-20T07:44:19Z</time>
      </trkpt>
      <trkpt lat="44.04259" lon="5.91257">
        <ele>778</ele>
        <time>2020-08-20T07:44:22Z</time>
      </trkpt>
      <trkpt lat="44.04251" lon="5.91281">
        <ele>780</ele>
        <time>2020-08-20T07:44:39Z</time>
      </trkpt>
      <trkpt lat="44.04246" lon="5.91287">
        <ele>780</ele>
        <time>2020-08-20T07:44:44Z</time>
      </trkpt>
      <trkpt lat="44.04239" lon="5.91307">
        <ele>783</ele>
        <time>2020-08-20T07:45:02Z</time>
      </trkpt>
      <trkpt lat="44.04236" lon="5.91313">
        <ele>784</ele>
        <time>2020-08-20T07:45:07Z</time>
      </trkpt>
      <trkpt lat="44.04234" lon="5.91321">
        <ele>784</ele>
        <time>2020-08-20T07:45:11Z</time>
      </trkpt>
      <trkpt lat="44.04232" lon="5.91328">
        <ele>785</ele>
        <time>2020-08-20T07:45:15Z</time>
      </trkpt>
      <trkpt lat="44.04228" lon="5.91335">
        <ele>786</ele>
        <time>2020-08-20T07:45:19Z</time>
      </trkpt>
      <trkpt lat="44.04221" lon="5.91338">
        <ele>787</ele>
        <time>2020-08-20T07:45:22Z</time>
      </trkpt>
      <trkpt lat="44.04216" lon="5.91336">
        <ele>788</ele>
        <time>2020-08-20T07:45:25Z</time>
      </trkpt>
      <trkpt lat="44.04212" lon="5.91328">
        <ele>789</ele>
        <time>2020-08-20T07:45:32Z</time>
      </trkpt>
      <trkpt lat="44.0421" lon="5.91321">
        <ele>789</ele>
        <time>2020-08-20T07:45:35Z</time>
      </trkpt>
      <trkpt lat="44.04215" lon="5.91325">
        <ele>792</ele>
        <time>2020-08-20T07:45:54Z</time>
      </trkpt>
      <trkpt lat="44.04213" lon="5.91334">
        <ele>792</ele>
        <time>2020-08-20T07:45:58Z</time>
      </trkpt>
      <trkpt lat="44.04207" lon="5.91356">
        <ele>794</ele>
        <time>2020-08-20T07:46:21Z</time>
      </trkpt>
      <trkpt lat="44.0421" lon="5.91371">
        <ele>797</ele>
        <time>2020-08-20T07:46:50Z</time>
      </trkpt>
      <trkpt lat="44.04241" lon="5.91399">
        <ele>801</ele>
        <time>2020-08-20T07:47:21Z</time>
      </trkpt>
      <trkpt lat="44.04249" lon="5.91411">
        <ele>803</ele>
        <time>2020-08-20T07:47:31Z</time>
      </trkpt>
      <trkpt lat="44.04256" lon="5.91412">
        <ele>804</ele>
        <time>2020-08-20T07:47:36Z</time>
      </trkpt>
      <trkpt lat="44.04267" lon="5.91414">
        <ele>804</ele>
        <time>2020-08-20T07:47:43Z</time>
      </trkpt>
      <trkpt lat="44.04273" lon="5.91416">
        <ele>804</ele>
        <time>2020-08-20T07:47:46Z</time>
      </trkpt>
      <trkpt lat="44.04278" lon="5.91416">
        <ele>805</ele>
        <time>2020-08-20T07:47:49Z</time>
      </trkpt>
      <trkpt lat="44.04291" lon="5.91413">
        <ele>807</ele>
        <time>2020-08-20T07:47:56Z</time>
      </trkpt>
      <trkpt lat="44.04298" lon="5.91412">
        <ele>807</ele>
        <time>2020-08-20T07:48:00Z</time>
      </trkpt>
      <trkpt lat="44.04301" lon="5.91416">
        <ele>807</ele>
        <time>2020-08-20T07:48:03Z</time>
      </trkpt>
      <trkpt lat="44.043" lon="5.91422">
        <ele>807</ele>
        <time>2020-08-20T07:48:06Z</time>
      </trkpt>
      <trkpt lat="44.04295" lon="5.9143">
        <ele>807</ele>
        <time>2020-08-20T07:48:10Z</time>
      </trkpt>
      <trkpt lat="44.04294" lon="5.91438">
        <ele>807</ele>
        <time>2020-08-20T07:48:12Z</time>
      </trkpt>
      <trkpt lat="44.04289" lon="5.91489">
        <ele>806</ele>
        <time>2020-08-20T07:48:18Z</time>
      </trkpt>
      <trkpt lat="44.04287" lon="5.915">
        <ele>805</ele>
        <time>2020-08-20T07:48:19Z</time>
      </trkpt>
      <trkpt lat="44.04292" lon="5.91543">
        <ele>802</ele>
        <time>2020-08-20T07:48:24Z</time>
      </trkpt>
      <trkpt lat="44.04296" lon="5.91555">
        <ele>802</ele>
        <time>2020-08-20T07:48:27Z</time>
      </trkpt>
      <trkpt lat="44.04305" lon="5.91602">
        <ele>802</ele>
        <time>2020-08-20T07:48:40Z</time>
      </trkpt>
      <trkpt lat="44.04307" lon="5.91613">
        <ele>802</ele>
        <time>2020-08-20T07:48:43Z</time>
      </trkpt>
      <trkpt lat="44.04308" lon="5.91624">
        <ele>803</ele>
        <time>2020-08-20T07:48:46Z</time>
      </trkpt>
      <trkpt lat="44.04309" lon="5.9165">
        <ele>803</ele>
        <time>2020-08-20T07:48:53Z</time>
      </trkpt>
      <trkpt lat="44.04307" lon="5.91666">
        <ele>802</ele>
        <time>2020-08-20T07:48:55Z</time>
      </trkpt>
      <trkpt lat="44.04302" lon="5.91682">
        <ele>802</ele>
        <time>2020-08-20T07:48:57Z</time>
      </trkpt>
      <trkpt lat="44.04304" lon="5.91695">
        <ele>799</ele>
        <time>2020-08-20T07:48:59Z</time>
      </trkpt>
      <trkpt lat="44.0431" lon="5.91709">
        <ele>798</ele>
        <time>2020-08-20T07:49:01Z</time>
      </trkpt>
      <trkpt lat="44.04317" lon="5.91716">
        <ele>797</ele>
        <time>2020-08-20T07:49:03Z</time>
      </trkpt>
      <trkpt lat="44.04327" lon="5.91722">
        <ele>796</ele>
        <time>2020-08-20T07:49:05Z</time>
      </trkpt>
      <trkpt lat="44.04332" lon="5.91729">
        <ele>796</ele>
        <time>2020-08-20T07:49:07Z</time>
      </trkpt>
      <trkpt lat="44.04342" lon="5.91766">
        <ele>797</ele>
        <time>2020-08-20T07:49:20Z</time>
      </trkpt>
      <trkpt lat="44.04351" lon="5.91786">
        <ele>798</ele>
        <time>2020-08-20T07:49:26Z</time>
      </trkpt>
      <trkpt lat="44.04354" lon="5.91802">
        <ele>800</ele>
        <time>2020-08-20T07:49:31Z</time>
      </trkpt>
      <trkpt lat="44.04351" lon="5.91808">
        <ele>800</ele>
        <time>2020-08-20T07:49:34Z</time>
      </trkpt>
      <trkpt lat="44.04354" lon="5.91815">
        <ele>800</ele>
        <time>2020-08-20T07:49:38Z</time>
      </trkpt>
      <trkpt lat="44.04357" lon="5.91823">
        <ele>800</ele>
        <time>2020-08-20T07:49:42Z</time>
      </trkpt>
      <trkpt lat="44.04362" lon="5.91828">
        <ele>800</ele>
        <time>2020-08-20T07:49:47Z</time>
      </trkpt>
      <trkpt lat="44.04368" lon="5.91834">
        <ele>800</ele>
        <time>2020-08-20T07:49:54Z</time>
      </trkpt>
      <trkpt lat="44.04369" lon="5.91846">
        <ele>800</ele>
        <time>2020-08-20T07:49:56Z</time>
      </trkpt>
      <trkpt lat="44.04363" lon="5.91855">
        <ele>800</ele>
        <time>2020-08-20T07:49:58Z</time>
      </trkpt>
      <trkpt lat="44.04343" lon="5.91882">
        <ele>798</ele>
        <time>2020-08-20T07:50:04Z</time>
      </trkpt>
      <trkpt lat="44.04338" lon="5.91895">
        <ele>797</ele>
        <time>2020-08-20T07:50:06Z</time>
      </trkpt>
      <trkpt lat="44.04337" lon="5.91902">
        <ele>796</ele>
        <time>2020-08-20T07:50:07Z</time>
      </trkpt>
      <trkpt lat="44.0433" lon="5.91908">
        <ele>795</ele>
        <time>2020-08-20T07:50:09Z</time>
      </trkpt>
      <trkpt lat="44.04317" lon="5.91914">
        <ele>794</ele>
        <time>2020-08-20T07:50:14Z</time>
      </trkpt>
      <trkpt lat="44.04309" lon="5.91919">
        <ele>794</ele>
        <time>2020-08-20T07:50:16Z</time>
      </trkpt>
      <trkpt lat="44.04302" lon="5.91918">
        <ele>794</ele>
        <time>2020-08-20T07:50:18Z</time>
      </trkpt>
      <trkpt lat="44.04269" lon="5.91905">
        <ele>792</ele>
        <time>2020-08-20T07:50:25Z</time>
      </trkpt>
      <trkpt lat="44.04249" lon="5.91902">
        <ele>791</ele>
        <time>2020-08-20T07:50:29Z</time>
      </trkpt>
      <trkpt lat="44.04234" lon="5.91904">
        <ele>791</ele>
        <time>2020-08-20T07:50:34Z</time>
      </trkpt>
      <trkpt lat="44.04228" lon="5.91905">
        <ele>791</ele>
        <time>2020-08-20T07:50:36Z</time>
      </trkpt>
      <trkpt lat="44.04223" lon="5.91902">
        <ele>791</ele>
        <time>2020-08-20T07:50:38Z</time>
      </trkpt>
      <trkpt lat="44.04218" lon="5.91906">
        <ele>791</ele>
        <time>2020-08-20T07:50:42Z</time>
      </trkpt>
      <trkpt lat="44.042" lon="5.91906">
        <ele>791</ele>
        <time>2020-08-20T07:50:49Z</time>
      </trkpt>
      <trkpt lat="44.04193" lon="5.91906">
        <ele>791</ele>
        <time>2020-08-20T07:50:52Z</time>
      </trkpt>
      <trkpt lat="44.04186" lon="5.91912">
        <ele>791</ele>
        <time>2020-08-20T07:50:54Z</time>
      </trkpt>
      <trkpt lat="44.04177" lon="5.91914">
        <ele>790</ele>
        <time>2020-08-20T07:50:56Z</time>
      </trkpt>
      <trkpt lat="44.04169" lon="5.91921">
        <ele>790</ele>
        <time>2020-08-20T07:50:58Z</time>
      </trkpt>
      <trkpt lat="44.04163" lon="5.91928">
        <ele>789</ele>
        <time>2020-08-20T07:51:01Z</time>
      </trkpt>
      <trkpt lat="44.04153" lon="5.91934">
        <ele>787</ele>
        <time>2020-08-20T07:51:08Z</time>
      </trkpt>
      <trkpt lat="44.04145" lon="5.91936">
        <ele>790</ele>
        <time>2020-08-20T07:51:15Z</time>
      </trkpt>
      <trkpt lat="44.04134" lon="5.91936">
        <ele>790</ele>
        <time>2020-08-20T07:51:24Z</time>
      </trkpt>
      <trkpt lat="44.04129" lon="5.91939">
        <ele>782</ele>
        <time>2020-08-20T07:52:26Z</time>
      </trkpt>
      <trkpt lat="44.04115" lon="5.91942">
        <ele>785</ele>
        <time>2020-08-20T07:52:35Z</time>
      </trkpt>
      <trkpt lat="44.04099" lon="5.91938">
        <ele>788</ele>
        <time>2020-08-20T07:52:44Z</time>
      </trkpt>
      <trkpt lat="44.04089" lon="5.91936">
        <ele>788</ele>
        <time>2020-08-20T07:52:47Z</time>
      </trkpt>
      <trkpt lat="44.04072" lon="5.91933">
        <ele>791</ele>
        <time>2020-08-20T07:52:58Z</time>
      </trkpt>
      <trkpt lat="44.04066" lon="5.91935">
        <ele>791</ele>
        <time>2020-08-20T07:53:01Z</time>
      </trkpt>
      <trkpt lat="44.04056" lon="5.91935">
        <ele>792</ele>
        <time>2020-08-20T07:53:05Z</time>
      </trkpt>
      <trkpt lat="44.04053" lon="5.91933">
        <ele>793</ele>
        <time>2020-08-20T07:53:07Z</time>
      </trkpt>
      <trkpt lat="44.04049" lon="5.91932">
        <ele>794</ele>
        <time>2020-08-20T07:53:10Z</time>
      </trkpt>
      <trkpt lat="44.0404" lon="5.9193">
        <ele>795</ele>
        <time>2020-08-20T07:53:16Z</time>
      </trkpt>
      <trkpt lat="44.04037" lon="5.91927">
        <ele>795</ele>
        <time>2020-08-20T07:53:18Z</time>
      </trkpt>
      <trkpt lat="44.04028" lon="5.91923">
        <ele>797</ele>
        <time>2020-08-20T07:53:22Z</time>
      </trkpt>
      <trkpt lat="44.04021" lon="5.91925">
        <ele>797</ele>
        <time>2020-08-20T07:53:24Z</time>
      </trkpt>
      <trkpt lat="44.04007" lon="5.91927">
        <ele>801</ele>
        <time>2020-08-20T07:53:37Z</time>
      </trkpt>
      <trkpt lat="44.04008" lon="5.91913">
        <ele>803</ele>
        <time>2020-08-20T07:53:46Z</time>
      </trkpt>
      <trkpt lat="44.0401" lon="5.91897">
        <ele>805</ele>
        <time>2020-08-20T07:53:56Z</time>
      </trkpt>
      <trkpt lat="44.04005" lon="5.91897">
        <ele>808</ele>
        <time>2020-08-20T07:54:14Z</time>
      </trkpt>
      <trkpt lat="44.04" lon="5.91902">
        <ele>809</ele>
        <time>2020-08-20T07:54:17Z</time>
      </trkpt>
      <trkpt lat="44.03997" lon="5.91908">
        <ele>810</ele>
        <time>2020-08-20T07:54:21Z</time>
      </trkpt>
      <trkpt lat="44.03993" lon="5.91912">
        <ele>810</ele>
        <time>2020-08-20T07:54:24Z</time>
      </trkpt>
      <trkpt lat="44.03985" lon="5.91916">
        <ele>809</ele>
        <time>2020-08-20T07:54:27Z</time>
      </trkpt>
      <trkpt lat="44.03981" lon="5.91918">
        <ele>810</ele>
        <time>2020-08-20T07:54:29Z</time>
      </trkpt>
      <trkpt lat="44.03977" lon="5.91919">
        <ele>810</ele>
        <time>2020-08-20T07:54:31Z</time>
      </trkpt>
      <trkpt lat="44.03971" lon="5.9192">
        <ele>810</ele>
        <time>2020-08-20T07:54:33Z</time>
      </trkpt>
      <trkpt lat="44.03967" lon="5.91919">
        <ele>811</ele>
        <time>2020-08-20T07:54:36Z</time>
      </trkpt>
      <trkpt lat="44.03956" lon="5.91916">
        <ele>811</ele>
        <time>2020-08-20T07:54:42Z</time>
      </trkpt>
      <trkpt lat="44.03951" lon="5.91913">
        <ele>811</ele>
        <time>2020-08-20T07:54:45Z</time>
      </trkpt>
      <trkpt lat="44.03948" lon="5.91906">
        <ele>812</ele>
        <time>2020-08-20T07:54:48Z</time>
      </trkpt>
      <trkpt lat="44.03945" lon="5.91895">
        <ele>812</ele>
        <time>2020-08-20T07:54:52Z</time>
      </trkpt>
      <trkpt lat="44.03946" lon="5.91888">
        <ele>812</ele>
        <time>2020-08-20T07:54:54Z</time>
      </trkpt>
      <trkpt lat="44.03948" lon="5.91877">
        <ele>812</ele>
        <time>2020-08-20T07:54:57Z</time>
      </trkpt>
      <trkpt lat="44.03949" lon="5.9187">
        <ele>813</ele>
        <time>2020-08-20T07:55:00Z</time>
      </trkpt>
      <trkpt lat="44.03948" lon="5.91862">
        <ele>815</ele>
        <time>2020-08-20T07:55:06Z</time>
      </trkpt>
      <trkpt lat="44.03943" lon="5.91836">
        <ele>816</ele>
        <time>2020-08-20T07:55:18Z</time>
      </trkpt>
      <trkpt lat="44.03943" lon="5.91827">
        <ele>816</ele>
        <time>2020-08-20T07:55:21Z</time>
      </trkpt>
      <trkpt lat="44.03944" lon="5.91819">
        <ele>817</ele>
        <time>2020-08-20T07:55:24Z</time>
      </trkpt>
      <trkpt lat="44.03949" lon="5.91811">
        <ele>817</ele>
        <time>2020-08-20T07:55:28Z</time>
      </trkpt>
      <trkpt lat="44.03979" lon="5.91805">
        <ele>821</ele>
        <time>2020-08-20T07:55:47Z</time>
      </trkpt>
      <trkpt lat="44.03984" lon="5.91801">
        <ele>821</ele>
        <time>2020-08-20T07:55:51Z</time>
      </trkpt>
      <trkpt lat="44.04005" lon="5.91799">
        <ele>824</ele>
        <time>2020-08-20T07:56:07Z</time>
      </trkpt>
      <trkpt lat="44.04011" lon="5.918">
        <ele>825</ele>
        <time>2020-08-20T07:56:11Z</time>
      </trkpt>
      <trkpt lat="44.04017" lon="5.91801">
        <ele>826</ele>
        <time>2020-08-20T07:56:15Z</time>
      </trkpt>
      <trkpt lat="44.04028" lon="5.91798">
        <ele>828</ele>
        <time>2020-08-20T07:56:24Z</time>
      </trkpt>
      <trkpt lat="44.04051" lon="5.918">
        <ele>831</ele>
        <time>2020-08-20T07:56:39Z</time>
      </trkpt>
      <trkpt lat="44.04077" lon="5.91803">
        <ele>833</ele>
        <time>2020-08-20T07:56:53Z</time>
      </trkpt>
      <trkpt lat="44.04075" lon="5.91799">
        <ele>836</ele>
        <time>2020-08-20T07:57:04Z</time>
      </trkpt>
      <trkpt lat="44.04057" lon="5.91795">
        <ele>838</ele>
        <time>2020-08-20T07:57:18Z</time>
      </trkpt>
      <trkpt lat="44.04052" lon="5.9179">
        <ele>839</ele>
        <time>2020-08-20T07:57:22Z</time>
      </trkpt>
      <trkpt lat="44.0405" lon="5.9178">
        <ele>841</ele>
        <time>2020-08-20T07:57:29Z</time>
      </trkpt>
      <trkpt lat="44.04061" lon="5.91771">
        <ele>842</ele>
        <time>2020-08-20T07:57:39Z</time>
      </trkpt>
      <trkpt lat="44.0407" lon="5.91767">
        <ele>843</ele>
        <time>2020-08-20T07:57:47Z</time>
      </trkpt>
      <trkpt lat="44.04082" lon="5.91766">
        <ele>844</ele>
        <time>2020-08-20T07:57:55Z</time>
      </trkpt>
      <trkpt lat="44.04093" lon="5.91767">
        <ele>846</ele>
        <time>2020-08-20T07:58:03Z</time>
      </trkpt>
      <trkpt lat="44.04093" lon="5.9176">
        <ele>849</ele>
        <time>2020-08-20T07:58:18Z</time>
      </trkpt>
      <trkpt lat="44.04106" lon="5.91756">
        <ele>850</ele>
        <time>2020-08-20T07:58:27Z</time>
      </trkpt>
      <trkpt lat="44.04127" lon="5.91749">
        <ele>853</ele>
        <time>2020-08-20T07:58:42Z</time>
      </trkpt>
      <trkpt lat="44.0413" lon="5.91747">
        <ele>854</ele>
        <time>2020-08-20T07:58:45Z</time>
      </trkpt>
      <trkpt lat="44.04143" lon="5.9174">
        <ele>856</ele>
        <time>2020-08-20T07:58:57Z</time>
      </trkpt>
      <trkpt lat="44.04141" lon="5.91739">
        <ele>859</ele>
        <time>2020-08-20T07:59:14Z</time>
      </trkpt>
      <trkpt lat="44.04137" lon="5.91738">
        <ele>860</ele>
        <time>2020-08-20T07:59:17Z</time>
      </trkpt>
      <trkpt lat="44.04133" lon="5.91738">
        <ele>861</ele>
        <time>2020-08-20T07:59:20Z</time>
      </trkpt>
      <trkpt lat="44.04129" lon="5.91736">
        <ele>861</ele>
        <time>2020-08-20T07:59:23Z</time>
      </trkpt>
      <trkpt lat="44.04125" lon="5.91737">
        <ele>862</ele>
        <time>2020-08-20T07:59:26Z</time>
      </trkpt>
      <trkpt lat="44.04121" lon="5.91736">
        <ele>863</ele>
        <time>2020-08-20T07:59:30Z</time>
      </trkpt>
      <trkpt lat="44.04117" lon="5.91736">
        <ele>863</ele>
        <time>2020-08-20T07:59:33Z</time>
      </trkpt>
      <trkpt lat="44.04114" lon="5.91733">
        <ele>863</ele>
        <time>2020-08-20T07:59:36Z</time>
      </trkpt>
      <trkpt lat="44.04111" lon="5.91729">
        <ele>863</ele>
        <time>2020-08-20T07:59:39Z</time>
      </trkpt>
      <trkpt lat="44.0411" lon="5.91724">
        <ele>863</ele>
        <time>2020-08-20T07:59:43Z</time>
      </trkpt>
      <trkpt lat="44.04112" lon="5.91718">
        <ele>863</ele>
        <time>2020-08-20T07:59:51Z</time>
      </trkpt>
      <trkpt lat="44.04119" lon="5.91716">
        <ele>867</ele>
        <time>2020-08-20T08:00:03Z</time>
      </trkpt>
      <trkpt lat="44.04123" lon="5.91722">
        <ele>868</ele>
        <time>2020-08-20T08:00:09Z</time>
      </trkpt>
      <trkpt lat="44.04131" lon="5.91721">
        <ele>870</ele>
        <time>2020-08-20T08:00:21Z</time>
      </trkpt>
      <trkpt lat="44.04135" lon="5.91722">
        <ele>871</ele>
        <time>2020-08-20T08:00:25Z</time>
      </trkpt>
      <trkpt lat="44.04141" lon="5.91717">
        <ele>871</ele>
        <time>2020-08-20T08:00:36Z</time>
      </trkpt>
      <trkpt lat="44.04154" lon="5.91712">
        <ele>874</ele>
        <time>2020-08-20T08:00:56Z</time>
      </trkpt>
      <trkpt lat="44.04157" lon="5.91709">
        <ele>870</ele>
        <time>2020-08-20T08:02:27Z</time>
      </trkpt>
      <trkpt lat="44.04147" lon="5.91713">
        <ele>868</ele>
        <time>2020-08-20T08:02:45Z</time>
      </trkpt>
      <trkpt lat="44.04144" lon="5.91715">
        <ele>868</ele>
        <time>2020-08-20T08:02:54Z</time>
      </trkpt>
      <trkpt lat="44.0414" lon="5.91721">
        <ele>869</ele>
        <time>2020-08-20T08:03:17Z</time>
      </trkpt>
      <trkpt lat="44.04112" lon="5.91723">
        <ele>865</ele>
        <time>2020-08-20T08:03:43Z</time>
      </trkpt>
      <trkpt lat="44.04107" lon="5.91715">
        <ele>863</ele>
        <time>2020-08-20T08:03:52Z</time>
      </trkpt>
      <trkpt lat="44.04107" lon="5.91704">
        <ele>863</ele>
        <time>2020-08-20T08:03:55Z</time>
      </trkpt>
      <trkpt lat="44.04112" lon="5.91694">
        <ele>863</ele>
        <time>2020-08-20T08:03:57Z</time>
      </trkpt>
      <trkpt lat="44.04116" lon="5.91692">
        <ele>864</ele>
        <time>2020-08-20T08:03:59Z</time>
      </trkpt>
      <trkpt lat="44.04118" lon="5.91684">
        <ele>863</ele>
        <time>2020-08-20T08:04:01Z</time>
      </trkpt>
      <trkpt lat="44.04121" lon="5.91679">
        <ele>862</ele>
        <time>2020-08-20T08:04:02Z</time>
      </trkpt>
      <trkpt lat="44.04133" lon="5.91664">
        <ele>861</ele>
        <time>2020-08-20T08:04:05Z</time>
      </trkpt>
      <trkpt lat="44.04138" lon="5.91657">
        <ele>860</ele>
        <time>2020-08-20T08:04:07Z</time>
      </trkpt>
      <trkpt lat="44.04145" lon="5.91651">
        <ele>859</ele>
        <time>2020-08-20T08:04:09Z</time>
      </trkpt>
      <trkpt lat="44.04157" lon="5.91638">
        <ele>855</ele>
        <time>2020-08-20T08:04:13Z</time>
      </trkpt>
      <trkpt lat="44.04172" lon="5.91625">
        <ele>852</ele>
        <time>2020-08-20T08:04:17Z</time>
      </trkpt>
      <trkpt lat="44.04177" lon="5.9162">
        <ele>850</ele>
        <time>2020-08-20T08:04:19Z</time>
      </trkpt>
      <trkpt lat="44.04185" lon="5.91611">
        <ele>847</ele>
        <time>2020-08-20T08:04:22Z</time>
      </trkpt>
      <trkpt lat="44.04194" lon="5.91604">
        <ele>845</ele>
        <time>2020-08-20T08:04:24Z</time>
      </trkpt>
      <trkpt lat="44.04203" lon="5.91604">
        <ele>843</ele>
        <time>2020-08-20T08:04:26Z</time>
      </trkpt>
      <trkpt lat="44.04206" lon="5.91593">
        <ele>840</ele>
        <time>2020-08-20T08:04:29Z</time>
      </trkpt>
      <trkpt lat="44.04209" lon="5.91586">
        <ele>838</ele>
        <time>2020-08-20T08:04:31Z</time>
      </trkpt>
      <trkpt lat="44.042" lon="5.91572">
        <ele>834</ele>
        <time>2020-08-20T08:04:36Z</time>
      </trkpt>
      <trkpt lat="44.04197" lon="5.91564">
        <ele>834</ele>
        <time>2020-08-20T08:04:38Z</time>
      </trkpt>
      <trkpt lat="44.04197" lon="5.91551">
        <ele>832</ele>
        <time>2020-08-20T08:04:40Z</time>
      </trkpt>
      <trkpt lat="44.04204" lon="5.91543">
        <ele>832</ele>
        <time>2020-08-20T08:04:42Z</time>
      </trkpt>
      <trkpt lat="44.04212" lon="5.91543">
        <ele>831</ele>
        <time>2020-08-20T08:04:44Z</time>
      </trkpt>
      <trkpt lat="44.0422" lon="5.9155">
        <ele>829</ele>
        <time>2020-08-20T08:04:46Z</time>
      </trkpt>
      <trkpt lat="44.04227" lon="5.91558">
        <ele>829</ele>
        <time>2020-08-20T08:04:48Z</time>
      </trkpt>
      <trkpt lat="44.04246" lon="5.91579">
        <ele>827</ele>
        <time>2020-08-20T08:04:52Z</time>
      </trkpt>
      <trkpt lat="44.04252" lon="5.91598">
        <ele>824</ele>
        <time>2020-08-20T08:04:54Z</time>
      </trkpt>
      <trkpt lat="44.04257" lon="5.91613">
        <ele>824</ele>
        <time>2020-08-20T08:04:56Z</time>
      </trkpt>
      <trkpt lat="44.0426" lon="5.91626">
        <ele>824</ele>
        <time>2020-08-20T08:04:58Z</time>
      </trkpt>
      <trkpt lat="44.04257" lon="5.91667">
        <ele>822</ele>
        <time>2020-08-20T08:05:02Z</time>
      </trkpt>
      <trkpt lat="44.04254" lon="5.91685">
        <ele>821</ele>
        <time>2020-08-20T08:05:04Z</time>
      </trkpt>
      <trkpt lat="44.04256" lon="5.91704">
        <ele>820</ele>
        <time>2020-08-20T08:05:06Z</time>
      </trkpt>
      <trkpt lat="44.04255" lon="5.91718">
        <ele>820</ele>
        <time>2020-08-20T08:05:08Z</time>
      </trkpt>
      <trkpt lat="44.04249" lon="5.91741">
        <ele>821</ele>
        <time>2020-08-20T08:05:14Z</time>
      </trkpt>
      <trkpt lat="44.0423" lon="5.91777">
        <ele>820</ele>
        <time>2020-08-20T08:05:21Z</time>
      </trkpt>
      <trkpt lat="44.04203" lon="5.91806">
        <ele>818</ele>
        <time>2020-08-20T08:05:27Z</time>
      </trkpt>
      <trkpt lat="44.04176" lon="5.91832">
        <ele>816</ele>
        <time>2020-08-20T08:05:31Z</time>
      </trkpt>
      <trkpt lat="44.04144" lon="5.9188">
        <ele>812</ele>
        <time>2020-08-20T08:05:36Z</time>
      </trkpt>
      <trkpt lat="44.04139" lon="5.9189">
        <ele>811</ele>
        <time>2020-08-20T08:05:38Z</time>
      </trkpt>
      <trkpt lat="44.04138" lon="5.91931">
        <ele>800</ele>
        <time>2020-08-20T08:05:47Z</time>
      </trkpt>
      <trkpt lat="44.04132" lon="5.9194">
        <ele>793</ele>
        <time>2020-08-20T08:06:05Z</time>
      </trkpt>
      <trkpt lat="44.04134" lon="5.91951">
        <ele>788</ele>
        <time>2020-08-20T08:06:36Z</time>
      </trkpt>
      <trkpt lat="44.04134" lon="5.91966">
        <ele>790</ele>
        <time>2020-08-20T08:06:38Z</time>
      </trkpt>
      <trkpt lat="44.0413" lon="5.91996">
        <ele>789</ele>
        <time>2020-08-20T08:06:41Z</time>
      </trkpt>
      <trkpt lat="44.04128" lon="5.92007">
        <ele>789</ele>
        <time>2020-08-20T08:06:42Z</time>
      </trkpt>
      <trkpt lat="44.04125" lon="5.92016">
        <ele>788</ele>
        <time>2020-08-20T08:06:43Z</time>
      </trkpt>
      <trkpt lat="44.04111" lon="5.92025">
        <ele>788</ele>
        <time>2020-08-20T08:06:45Z</time>
      </trkpt>
      <trkpt lat="44.04098" lon="5.92029">
        <ele>787</ele>
        <time>2020-08-20T08:06:47Z</time>
      </trkpt>
      <trkpt lat="44.04085" lon="5.92031">
        <ele>787</ele>
        <time>2020-08-20T08:06:49Z</time>
      </trkpt>
      <trkpt lat="44.04074" lon="5.92023">
        <ele>787</ele>
        <time>2020-08-20T08:06:51Z</time>
      </trkpt>
      <trkpt lat="44.04025" lon="5.92003">
        <ele>787</ele>
        <time>2020-08-20T08:07:00Z</time>
      </trkpt>
      <trkpt lat="44.04015" lon="5.91996">
        <ele>786</ele>
        <time>2020-08-20T08:07:02Z</time>
      </trkpt>
      <trkpt lat="44.04005" lon="5.92006">
        <ele>785</ele>
        <time>2020-08-20T08:07:05Z</time>
      </trkpt>
      <trkpt lat="44.03988" lon="5.92026">
        <ele>783</ele>
        <time>2020-08-20T08:07:08Z</time>
      </trkpt>
      <trkpt lat="44.03979" lon="5.92044">
        <ele>782</ele>
        <time>2020-08-20T08:07:10Z</time>
      </trkpt>
      <trkpt lat="44.03964" lon="5.92088">
        <ele>780</ele>
        <time>2020-08-20T08:07:15Z</time>
      </trkpt>
      <trkpt lat="44.03945" lon="5.92129">
        <ele>779</ele>
        <time>2020-08-20T08:07:23Z</time>
      </trkpt>
      <trkpt lat="44.03935" lon="5.92141">
        <ele>779</ele>
        <time>2020-08-20T08:07:26Z</time>
      </trkpt>
      <trkpt lat="44.03926" lon="5.9215">
        <ele>779</ele>
        <time>2020-08-20T08:07:29Z</time>
      </trkpt>
      <trkpt lat="44.03917" lon="5.92158">
        <ele>778</ele>
        <time>2020-08-20T08:07:31Z</time>
      </trkpt>
      <trkpt lat="44.03905" lon="5.92163">
        <ele>778</ele>
        <time>2020-08-20T08:07:33Z</time>
      </trkpt>
      <trkpt lat="44.039" lon="5.92171">
        <ele>778</ele>
        <time>2020-08-20T08:07:35Z</time>
      </trkpt>
      <trkpt lat="44.03899" lon="5.92184">
        <ele>778</ele>
        <time>2020-08-20T08:07:37Z</time>
      </trkpt>
      <trkpt lat="44.03905" lon="5.92192">
        <ele>777</ele>
        <time>2020-08-20T08:07:41Z</time>
      </trkpt>
      <trkpt lat="44.0391" lon="5.92207">
        <ele>777</ele>
        <time>2020-08-20T08:07:44Z</time>
      </trkpt>
      <trkpt lat="44.03916" lon="5.92217">
        <ele>777</ele>
        <time>2020-08-20T08:07:46Z</time>
      </trkpt>
      <trkpt lat="44.03917" lon="5.92228">
        <ele>777</ele>
        <time>2020-08-20T08:07:48Z</time>
      </trkpt>
      <trkpt lat="44.03918" lon="5.92285">
        <ele>774</ele>
        <time>2020-08-20T08:07:55Z</time>
      </trkpt>
      <trkpt lat="44.03921" lon="5.92295">
        <ele>773</ele>
        <time>2020-08-20T08:07:57Z</time>
      </trkpt>
      <trkpt lat="44.03927" lon="5.92331">
        <ele>771</ele>
        <time>2020-08-20T08:08:01Z</time>
      </trkpt>
      <trkpt lat="44.03928" lon="5.92341">
        <ele>770</ele>
        <time>2020-08-20T08:08:02Z</time>
      </trkpt>
      <trkpt lat="44.0394" lon="5.92406">
        <ele>761</ele>
        <time>2020-08-20T08:08:09Z</time>
      </trkpt>
      <trkpt lat="44.03932" lon="5.92413">
        <ele>758</ele>
        <time>2020-08-20T08:08:13Z</time>
      </trkpt>
      <trkpt lat="44.03923" lon="5.92409">
        <ele>756</ele>
        <time>2020-08-20T08:08:15Z</time>
      </trkpt>
      <trkpt lat="44.0391" lon="5.92406">
        <ele>755</ele>
        <time>2020-08-20T08:08:17Z</time>
      </trkpt>
      <trkpt lat="44.03897" lon="5.92408">
        <ele>753</ele>
        <time>2020-08-20T08:08:19Z</time>
      </trkpt>
      <trkpt lat="44.03889" lon="5.92404">
        <ele>752</ele>
        <time>2020-08-20T08:08:21Z</time>
      </trkpt>
      <trkpt lat="44.03878" lon="5.92407">
        <ele>748</ele>
        <time>2020-08-20T08:08:23Z</time>
      </trkpt>
      <trkpt lat="44.0387" lon="5.92408">
        <ele>746</ele>
        <time>2020-08-20T08:08:25Z</time>
      </trkpt>
      <trkpt lat="44.03862" lon="5.92411">
        <ele>743</ele>
        <time>2020-08-20T08:08:27Z</time>
      </trkpt>
      <trkpt lat="44.03854" lon="5.92401">
        <ele>740</ele>
        <time>2020-08-20T08:08:30Z</time>
      </trkpt>
      <trkpt lat="44.03849" lon="5.92394">
        <ele>739</ele>
        <time>2020-08-20T08:08:32Z</time>
      </trkpt>
      <trkpt lat="44.03841" lon="5.92387">
        <ele>740</ele>
        <time>2020-08-20T08:08:35Z</time>
      </trkpt>
      <trkpt lat="44.03804" lon="5.92358">
        <ele>739</ele>
        <time>2020-08-20T08:08:45Z</time>
      </trkpt>
      <trkpt lat="44.03789" lon="5.92352">
        <ele>737</ele>
        <time>2020-08-20T08:08:49Z</time>
      </trkpt>
      <trkpt lat="44.0378" lon="5.9235">
        <ele>737</ele>
        <time>2020-08-20T08:08:51Z</time>
      </trkpt>
      <trkpt lat="44.03771" lon="5.92346">
        <ele>737</ele>
        <time>2020-08-20T08:08:53Z</time>
      </trkpt>
      <trkpt lat="44.03747" lon="5.92337">
        <ele>736</ele>
        <time>2020-08-20T08:09:00Z</time>
      </trkpt>
      <trkpt lat="44.03739" lon="5.92336">
        <ele>736</ele>
        <time>2020-08-20T08:09:02Z</time>
      </trkpt>
      <trkpt lat="44.03728" lon="5.92333">
        <ele>735</ele>
        <time>2020-08-20T08:09:04Z</time>
      </trkpt>
      <trkpt lat="44.03715" lon="5.92325">
        <ele>735</ele>
        <time>2020-08-20T08:09:06Z</time>
      </trkpt>
      <trkpt lat="44.03697" lon="5.92307">
        <ele>734</ele>
        <time>2020-08-20T08:09:09Z</time>
      </trkpt>
      <trkpt lat="44.03686" lon="5.92297">
        <ele>733</ele>
        <time>2020-08-20T08:09:11Z</time>
      </trkpt>
      <trkpt lat="44.03675" lon="5.92299">
        <ele>732</ele>
        <time>2020-08-20T08:09:13Z</time>
      </trkpt>
      <trkpt lat="44.03668" lon="5.92307">
        <ele>730</ele>
        <time>2020-08-20T08:09:15Z</time>
      </trkpt>
      <trkpt lat="44.03659" lon="5.92332">
        <ele>726</ele>
        <time>2020-08-20T08:09:19Z</time>
      </trkpt>
      <trkpt lat="44.03658" lon="5.92342">
        <ele>725</ele>
        <time>2020-08-20T08:09:21Z</time>
      </trkpt>
      <trkpt lat="44.03669" lon="5.92362">
        <ele>722</ele>
        <time>2020-08-20T08:09:25Z</time>
      </trkpt>
      <trkpt lat="44.03675" lon="5.92379">
        <ele>721</ele>
        <time>2020-08-20T08:09:27Z</time>
      </trkpt>
      <trkpt lat="44.03659" lon="5.92389">
        <ele>718</ele>
        <time>2020-08-20T08:09:31Z</time>
      </trkpt>
      <trkpt lat="44.03633" lon="5.92387">
        <ele>716</ele>
        <time>2020-08-20T08:09:35Z</time>
      </trkpt>
      <trkpt lat="44.03614" lon="5.92388">
        <ele>715</ele>
        <time>2020-08-20T08:09:38Z</time>
      </trkpt>
      <trkpt lat="44.03607" lon="5.92389">
        <ele>714</ele>
        <time>2020-08-20T08:09:41Z</time>
      </trkpt>
      <trkpt lat="44.03608" lon="5.92403">
        <ele>714</ele>
        <time>2020-08-20T08:09:43Z</time>
      </trkpt>
      <trkpt lat="44.03601" lon="5.92419">
        <ele>713</ele>
        <time>2020-08-20T08:09:45Z</time>
      </trkpt>
      <trkpt lat="44.03589" lon="5.92427">
        <ele>712</ele>
        <time>2020-08-20T08:09:47Z</time>
      </trkpt>
      <trkpt lat="44.03578" lon="5.92436">
        <ele>711</ele>
        <time>2020-08-20T08:09:49Z</time>
      </trkpt>
      <trkpt lat="44.03566" lon="5.9244">
        <ele>710</ele>
        <time>2020-08-20T08:09:51Z</time>
      </trkpt>
      <trkpt lat="44.03567" lon="5.92451">
        <ele>707</ele>
        <time>2020-08-20T08:09:55Z</time>
      </trkpt>
      <trkpt lat="44.03587" lon="5.92466">
        <ele>703</ele>
        <time>2020-08-20T08:09:59Z</time>
      </trkpt>
      <trkpt lat="44.03595" lon="5.92472">
        <ele>701</ele>
        <time>2020-08-20T08:10:01Z</time>
      </trkpt>
      <trkpt lat="44.03585" lon="5.92486">
        <ele>697</ele>
        <time>2020-08-20T08:10:06Z</time>
      </trkpt>
      <trkpt lat="44.03577" lon="5.92492">
        <ele>696</ele>
        <time>2020-08-20T08:10:08Z</time>
      </trkpt>
      <trkpt lat="44.03576" lon="5.92505">
        <ele>694</ele>
        <time>2020-08-20T08:10:11Z</time>
      </trkpt>
      <trkpt lat="44.03565" lon="5.92523">
        <ele>690</ele>
        <time>2020-08-20T08:10:15Z</time>
      </trkpt>
      <trkpt lat="44.0354" lon="5.92531">
        <ele>687</ele>
        <time>2020-08-20T08:10:19Z</time>
      </trkpt>
      <trkpt lat="44.03529" lon="5.92536">
        <ele>686</ele>
        <time>2020-08-20T08:10:21Z</time>
      </trkpt>
      <trkpt lat="44.0352" lon="5.92545">
        <ele>683</ele>
        <time>2020-08-20T08:10:23Z</time>
      </trkpt>
      <trkpt lat="44.03511" lon="5.92547">
        <ele>682</ele>
        <time>2020-08-20T08:10:25Z</time>
      </trkpt>
      <trkpt lat="44.03498" lon="5.92554">
        <ele>680</ele>
        <time>2020-08-20T08:10:27Z</time>
      </trkpt>
      <trkpt lat="44.03487" lon="5.92557">
        <ele>679</ele>
        <time>2020-08-20T08:10:29Z</time>
      </trkpt>
      <trkpt lat="44.0347" lon="5.92559">
        <ele>676</ele>
        <time>2020-08-20T08:10:33Z</time>
      </trkpt>
      <trkpt lat="44.03449" lon="5.92557">
        <ele>674</ele>
        <time>2020-08-20T08:10:36Z</time>
      </trkpt>
      <trkpt lat="44.03432" lon="5.92546">
        <ele>672</ele>
        <time>2020-08-20T08:10:40Z</time>
      </trkpt>
      <trkpt lat="44.03418" lon="5.92532">
        <ele>672</ele>
        <time>2020-08-20T08:10:45Z</time>
      </trkpt>
      <trkpt lat="44.03414" lon="5.9252">
        <ele>671</ele>
        <time>2020-08-20T08:10:49Z</time>
      </trkpt>
      <trkpt lat="44.03412" lon="5.92511">
        <ele>672</ele>
        <time>2020-08-20T08:10:52Z</time>
      </trkpt>
      <trkpt lat="44.03412" lon="5.9252">
        <ele>673</ele>
        <time>2020-08-20T08:11:16Z</time>
      </trkpt>
      <trkpt lat="44.03398" lon="5.92529">
        <ele>672</ele>
        <time>2020-08-20T08:11:22Z</time>
      </trkpt>
      <trkpt lat="44.0339" lon="5.92537">
        <ele>672</ele>
        <time>2020-08-20T08:11:25Z</time>
      </trkpt>
      <trkpt lat="44.03381" lon="5.92544">
        <ele>672</ele>
        <time>2020-08-20T08:11:28Z</time>
      </trkpt>
      <trkpt lat="44.03363" lon="5.92555">
        <ele>670</ele>
        <time>2020-08-20T08:11:32Z</time>
      </trkpt>
      <trkpt lat="44.03354" lon="5.92562">
        <ele>670</ele>
        <time>2020-08-20T08:11:34Z</time>
      </trkpt>
      <trkpt lat="44.03349" lon="5.9257">
        <ele>670</ele>
        <time>2020-08-20T08:11:36Z</time>
      </trkpt>
      <trkpt lat="44.03362" lon="5.9257">
        <ele>666</ele>
        <time>2020-08-20T08:11:41Z</time>
      </trkpt>
      <trkpt lat="44.03389" lon="5.92576">
        <ele>664</ele>
        <time>2020-08-20T08:11:47Z</time>
      </trkpt>
      <trkpt lat="44.03395" lon="5.92594">
        <ele>661</ele>
        <time>2020-08-20T08:11:52Z</time>
      </trkpt>
      <trkpt lat="44.03391" lon="5.92606">
        <ele>660</ele>
        <time>2020-08-20T08:11:54Z</time>
      </trkpt>
      <trkpt lat="44.03339" lon="5.92656">
        <ele>656</ele>
        <time>2020-08-20T08:12:03Z</time>
      </trkpt>
      <trkpt lat="44.03328" lon="5.92665">
        <ele>652</ele>
        <time>2020-08-20T08:12:09Z</time>
      </trkpt>
      <trkpt lat="44.03371" lon="5.9266">
        <ele>649</ele>
        <time>2020-08-20T08:12:18Z</time>
      </trkpt>
      <trkpt lat="44.03383" lon="5.92659">
        <ele>649</ele>
        <time>2020-08-20T08:12:20Z</time>
      </trkpt>
      <trkpt lat="44.0339" lon="5.92667">
        <ele>647</ele>
        <time>2020-08-20T08:12:22Z</time>
      </trkpt>
      <trkpt lat="44.03388" lon="5.92688">
        <ele>646</ele>
        <time>2020-08-20T08:12:25Z</time>
      </trkpt>
      <trkpt lat="44.0338" lon="5.92703">
        <ele>644</ele>
        <time>2020-08-20T08:12:27Z</time>
      </trkpt>
      <trkpt lat="44.03356" lon="5.92721">
        <ele>642</ele>
        <time>2020-08-20T08:12:31Z</time>
      </trkpt>
      <trkpt lat="44.0334" lon="5.92729">
        <ele>641</ele>
        <time>2020-08-20T08:12:34Z</time>
      </trkpt>
      <trkpt lat="44.03325" lon="5.92731">
        <ele>640</ele>
        <time>2020-08-20T08:12:36Z</time>
      </trkpt>
      <trkpt lat="44.03313" lon="5.92729">
        <ele>639</ele>
        <time>2020-08-20T08:12:38Z</time>
      </trkpt>
      <trkpt lat="44.03297" lon="5.92739">
        <ele>638</ele>
        <time>2020-08-20T08:12:41Z</time>
      </trkpt>
      <trkpt lat="44.03239" lon="5.92753">
        <ele>633</ele>
        <time>2020-08-20T08:12:50Z</time>
      </trkpt>
      <trkpt lat="44.03221" lon="5.92753">
        <ele>632</ele>
        <time>2020-08-20T08:12:52Z</time>
      </trkpt>
      <trkpt lat="44.03201" lon="5.92748">
        <ele>630</ele>
        <time>2020-08-20T08:12:56Z</time>
      </trkpt>
      <trkpt lat="44.03193" lon="5.92764">
        <ele>626</ele>
        <time>2020-08-20T08:13:03Z</time>
      </trkpt>
      <trkpt lat="44.03192" lon="5.92778">
        <ele>626</ele>
        <time>2020-08-20T08:13:05Z</time>
      </trkpt>
      <trkpt lat="44.03188" lon="5.92792">
        <ele>625</ele>
        <time>2020-08-20T08:13:07Z</time>
      </trkpt>
      <trkpt lat="44.03175" lon="5.928">
        <ele>624</ele>
        <time>2020-08-20T08:13:10Z</time>
      </trkpt>
      <trkpt lat="44.03164" lon="5.92805">
        <ele>621</ele>
        <time>2020-08-20T08:13:13Z</time>
      </trkpt>
      <trkpt lat="44.03162" lon="5.92815">
        <ele>620</ele>
        <time>2020-08-20T08:13:15Z</time>
      </trkpt>
      <trkpt lat="44.03153" lon="5.92825">
        <ele>618</ele>
        <time>2020-08-20T08:13:17Z</time>
      </trkpt>
      <trkpt lat="44.03142" lon="5.92827">
        <ele>617</ele>
        <time>2020-08-20T08:13:19Z</time>
      </trkpt>
      <trkpt lat="44.03129" lon="5.92842">
        <ele>615</ele>
        <time>2020-08-20T08:13:22Z</time>
      </trkpt>
      <trkpt lat="44.03117" lon="5.92853">
        <ele>613</ele>
        <time>2020-08-20T08:13:24Z</time>
      </trkpt>
      <trkpt lat="44.0308" lon="5.92877">
        <ele>607</ele>
        <time>2020-08-20T08:13:30Z</time>
      </trkpt>
      <trkpt lat="44.0307" lon="5.92886">
        <ele>603</ele>
        <time>2020-08-20T08:13:34Z</time>
      </trkpt>
      <trkpt lat="44.03052" lon="5.92896">
        <ele>600</ele>
        <time>2020-08-20T08:13:39Z</time>
      </trkpt>
      <trkpt lat="44.03046" lon="5.92902">
        <ele>596</ele>
        <time>2020-08-20T08:13:43Z</time>
      </trkpt>
      <trkpt lat="44.03051" lon="5.92912">
        <ele>594</ele>
        <time>2020-08-20T08:13:47Z</time>
      </trkpt>
      <trkpt lat="44.03059" lon="5.92918">
        <ele>593</ele>
        <time>2020-08-20T08:13:49Z</time>
      </trkpt>
      <trkpt lat="44.03052" lon="5.92931">
        <ele>590</ele>
        <time>2020-08-20T08:13:54Z</time>
      </trkpt>
      <trkpt lat="44.03039" lon="5.92933">
        <ele>588</ele>
        <time>2020-08-20T08:13:56Z</time>
      </trkpt>
      <trkpt lat="44.03026" lon="5.92942">
        <ele>587</ele>
        <time>2020-08-20T08:13:58Z</time>
      </trkpt>
      <trkpt lat="44.03013" lon="5.92955">
        <ele>579</ele>
        <time>2020-08-20T08:14:03Z</time>
      </trkpt>
      <trkpt lat="44.03011" lon="5.92968">
        <ele>576</ele>
        <time>2020-08-20T08:14:07Z</time>
      </trkpt>
      <trkpt lat="44.02997" lon="5.92975">
        <ele>574</ele>
        <time>2020-08-20T08:14:10Z</time>
      </trkpt>
      <trkpt lat="44.02987" lon="5.9298">
        <ele>573</ele>
        <time>2020-08-20T08:14:12Z</time>
      </trkpt>
      <trkpt lat="44.02972" lon="5.9301">
        <ele>568</ele>
        <time>2020-08-20T08:14:16Z</time>
      </trkpt>
      <trkpt lat="44.02932" lon="5.93015">
        <ele>562</ele>
        <time>2020-08-20T08:14:23Z</time>
      </trkpt>
      <trkpt lat="44.02919" lon="5.93014">
        <ele>560</ele>
        <time>2020-08-20T08:14:25Z</time>
      </trkpt>
      <trkpt lat="44.02905" lon="5.93005">
        <ele>558</ele>
        <time>2020-08-20T08:14:28Z</time>
      </trkpt>
      <trkpt lat="44.02905" lon="5.93023">
        <ele>554</ele>
        <time>2020-08-20T08:14:34Z</time>
      </trkpt>
      <trkpt lat="44.0294" lon="5.93078">
        <ele>549</ele>
        <time>2020-08-20T08:14:41Z</time>
      </trkpt>
      <trkpt lat="44.02965" lon="5.93094">
        <ele>547</ele>
        <time>2020-08-20T08:14:44Z</time>
      </trkpt>
      <trkpt lat="44.03012" lon="5.93107">
        <ele>543</ele>
        <time>2020-08-20T08:14:49Z</time>
      </trkpt>
      <trkpt lat="44.0302" lon="5.93113">
        <ele>542</ele>
        <time>2020-08-20T08:14:50Z</time>
      </trkpt>
      <trkpt lat="44.03038" lon="5.93139">
        <ele>538</ele>
        <time>2020-08-20T08:14:53Z</time>
      </trkpt>
      <trkpt lat="44.03045" lon="5.93149">
        <ele>537</ele>
        <time>2020-08-20T08:14:54Z</time>
      </trkpt>
      <trkpt lat="44.03053" lon="5.93161">
        <ele>536</ele>
        <time>2020-08-20T08:14:55Z</time>
      </trkpt>
      <trkpt lat="44.03058" lon="5.93174">
        <ele>534</ele>
        <time>2020-08-20T08:14:56Z</time>
      </trkpt>
      <trkpt lat="44.03058" lon="5.93187">
        <ele>533</ele>
        <time>2020-08-20T08:14:57Z</time>
      </trkpt>
      <trkpt lat="44.03075" lon="5.93225">
        <ele>529</ele>
        <time>2020-08-20T08:15:01Z</time>
      </trkpt>
      <trkpt lat="44.03086" lon="5.9324">
        <ele>527</ele>
        <time>2020-08-20T08:15:03Z</time>
      </trkpt>
      <trkpt lat="44.03113" lon="5.93253">
        <ele>524</ele>
        <time>2020-08-20T08:15:07Z</time>
      </trkpt>
      <trkpt lat="44.03194" lon="5.93262">
        <ele>522</ele>
        <time>2020-08-20T08:15:26Z</time>
      </trkpt>
      <trkpt lat="44.03203" lon="5.93258">
        <ele>522</ele>
        <time>2020-08-20T08:15:29Z</time>
      </trkpt>
      <trkpt lat="44.03221" lon="5.93259">
        <ele>522</ele>
        <time>2020-08-20T08:15:35Z</time>
      </trkpt>
      <trkpt lat="44.03228" lon="5.93264">
        <ele>522</ele>
        <time>2020-08-20T08:15:38Z</time>
      </trkpt>
      <trkpt lat="44.03235" lon="5.93269">
        <ele>522</ele>
        <time>2020-08-20T08:15:42Z</time>
      </trkpt>
      <trkpt lat="44.03249" lon="5.93268">
        <ele>523</ele>
        <time>2020-08-20T08:15:51Z</time>
      </trkpt>
      <trkpt lat="44.03258" lon="5.93268">
        <ele>523</ele>
        <time>2020-08-20T08:15:55Z</time>
      </trkpt>
      <trkpt lat="44.03265" lon="5.93279">
        <ele>523</ele>
        <time>2020-08-20T08:15:58Z</time>
      </trkpt>
      <trkpt lat="44.03262" lon="5.93291">
        <ele>522</ele>
        <time>2020-08-20T08:16:01Z</time>
      </trkpt>
      <trkpt lat="44.03252" lon="5.93297">
        <ele>521</ele>
        <time>2020-08-20T08:16:04Z</time>
      </trkpt>
      <trkpt lat="44.03232" lon="5.93309">
        <ele>519</ele>
        <time>2020-08-20T08:16:08Z</time>
      </trkpt>
      <trkpt lat="44.03221" lon="5.93314">
        <ele>517</ele>
        <time>2020-08-20T08:16:10Z</time>
      </trkpt>
      <trkpt lat="44.03176" lon="5.93416">
        <ele>503</ele>
        <time>2020-08-20T08:16:22Z</time>
      </trkpt>
      <trkpt lat="44.031" lon="5.93559">
        <ele>489</ele>
        <time>2020-08-20T08:16:40Z</time>
      </trkpt>
      <trkpt lat="44.03063" lon="5.93698">
        <ele>477</ele>
        <time>2020-08-20T08:16:51Z</time>
      </trkpt>
      <trkpt lat="44.03053" lon="5.93717">
        <ele>476</ele>
        <time>2020-08-20T08:16:53Z</time>
      </trkpt>
      <trkpt lat="44.03046" lon="5.93727">
        <ele>476</ele>
        <time>2020-08-20T08:16:54Z</time>
      </trkpt>
      <trkpt lat="44.02891" lon="5.93821">
        <ele>462</ele>
        <time>2020-08-20T08:17:25Z</time>
      </trkpt>
      <trkpt lat="44.0288" lon="5.93829">
        <ele>455</ele>
        <time>2020-08-20T08:17:35Z</time>
      </trkpt>
      <trkpt lat="44.02875" lon="5.93826">
        <ele>455</ele>
        <time>2020-08-20T08:17:50Z</time>
      </trkpt>
      <trkpt lat="44.02871" lon="5.93834">
        <ele>454</ele>
        <time>2020-08-20T08:17:55Z</time>
      </trkpt>
      <trkpt lat="44.02873" lon="5.93843">
        <ele>453</ele>
        <time>2020-08-20T08:17:58Z</time>
      </trkpt>
      <trkpt lat="44.02876" lon="5.9385">
        <ele>453</ele>
        <time>2020-08-20T08:18:00Z</time>
      </trkpt>
      <trkpt lat="44.02879" lon="5.93857">
        <ele>454</ele>
        <time>2020-08-20T08:18:02Z</time>
      </trkpt>
      <trkpt lat="44.02883" lon="5.9386">
        <ele>455</ele>
        <time>2020-08-20T08:18:04Z</time>
      </trkpt>
      <trkpt lat="44.02889" lon="5.93854">
        <ele>456</ele>
        <time>2020-08-20T08:23:44Z</time>
      </trkpt>
      <trkpt lat="44.02895" lon="5.9385">
        <ele>456</ele>
        <time>2020-08-20T08:23:47Z</time>
      </trkpt>
      <trkpt lat="44.02916" lon="5.93843">
        <ele>456</ele>
        <time>2020-08-20T08:23:56Z</time>
      </trkpt>
      <trkpt lat="44.02929" lon="5.93852">
        <ele>455</ele>
        <time>2020-08-20T08:24:00Z</time>
      </trkpt>
      <trkpt lat="44.02951" lon="5.93856">
        <ele>455</ele>
        <time>2020-08-20T08:24:06Z</time>
      </trkpt>
      <trkpt lat="44.02972" lon="5.9386">
        <ele>456</ele>
        <time>2020-08-20T08:24:11Z</time>
      </trkpt>
      <trkpt lat="44.02979" lon="5.93862">
        <ele>455</ele>
        <time>2020-08-20T08:24:13Z</time>
      </trkpt>
      <trkpt lat="44.02985" lon="5.93863">
        <ele>455</ele>
        <time>2020-08-20T08:24:15Z</time>
      </trkpt>
      <trkpt lat="44.03001" lon="5.93864">
        <ele>456</ele>
        <time>2020-08-20T08:24:20Z</time>
      </trkpt>
      <trkpt lat="44.03019" lon="5.93866">
        <ele>457</ele>
        <time>2020-08-20T08:24:26Z</time>
      </trkpt>
      <trkpt lat="44.03057" lon="5.93881">
        <ele>457</ele>
        <time>2020-08-20T08:24:38Z</time>
      </trkpt>
      <trkpt lat="44.03064" lon="5.93881">
        <ele>457</ele>
        <time>2020-08-20T08:24:41Z</time>
      </trkpt>
      <trkpt lat="44.0307" lon="5.9388">
        <ele>457</ele>
        <time>2020-08-20T08:24:43Z</time>
      </trkpt>
      <trkpt lat="44.03076" lon="5.93877">
        <ele>457</ele>
        <time>2020-08-20T08:24:45Z</time>
      </trkpt>
      <trkpt lat="44.03101" lon="5.93825">
        <ele>458</ele>
        <time>2020-08-20T08:25:02Z</time>
      </trkpt>
      <trkpt lat="44.03105" lon="5.93819">
        <ele>458</ele>
        <time>2020-08-20T08:25:04Z</time>
      </trkpt>
      <trkpt lat="44.03109" lon="5.93813">
        <ele>459</ele>
        <time>2020-08-20T08:25:06Z</time>
      </trkpt>
      <trkpt lat="44.03115" lon="5.93811">
        <ele>458</ele>
        <time>2020-08-20T08:25:08Z</time>
      </trkpt>
      <trkpt lat="44.03121" lon="5.93812">
        <ele>457</ele>
        <time>2020-08-20T08:25:10Z</time>
      </trkpt>
      <trkpt lat="44.03127" lon="5.93812">
        <ele>457</ele>
        <time>2020-08-20T08:25:12Z</time>
      </trkpt>
      <trkpt lat="44.03133" lon="5.93813">
        <ele>458</ele>
        <time>2020-08-20T08:25:14Z</time>
      </trkpt>
      <trkpt lat="44.03162" lon="5.93836">
        <ele>456</ele>
        <time>2020-08-20T08:25:24Z</time>
      </trkpt>
      <trkpt lat="44.03167" lon="5.9384">
        <ele>456</ele>
        <time>2020-08-20T08:25:26Z</time>
      </trkpt>
      <trkpt lat="44.03174" lon="5.93843">
        <ele>456</ele>
        <time>2020-08-20T08:25:28Z</time>
      </trkpt>
      <trkpt lat="44.03228" lon="5.93851">
        <ele>461</ele>
        <time>2020-08-20T08:25:49Z</time>
      </trkpt>
      <trkpt lat="44.03235" lon="5.9385">
        <ele>462</ele>
        <time>2020-08-20T08:25:51Z</time>
      </trkpt>
      <trkpt lat="44.03241" lon="5.9385">
        <ele>462</ele>
        <time>2020-08-20T08:25:53Z</time>
      </trkpt>
      <trkpt lat="44.03251" lon="5.93845">
        <ele>463</ele>
        <time>2020-08-20T08:25:57Z</time>
      </trkpt>
      <trkpt lat="44.03254" lon="5.93842">
        <ele>463</ele>
        <time>2020-08-20T08:25:59Z</time>
      </trkpt>
      <trkpt lat="44.03257" lon="5.93832">
        <ele>464</ele>
        <time>2020-08-20T08:26:05Z</time>
      </trkpt>
      <trkpt lat="44.03273" lon="5.93747">
        <ele>469</ele>
        <time>2020-08-20T08:26:36Z</time>
      </trkpt>
      <trkpt lat="44.03275" lon="5.93735">
        <ele>470</ele>
        <time>2020-08-20T08:26:40Z</time>
      </trkpt>
      <trkpt lat="44.03277" lon="5.93728">
        <ele>470</ele>
        <time>2020-08-20T08:26:42Z</time>
      </trkpt>
      <trkpt lat="44.03281" lon="5.93702">
        <ele>471</ele>
        <time>2020-08-20T08:26:50Z</time>
      </trkpt>
      <trkpt lat="44.03283" lon="5.93696">
        <ele>471</ele>
        <time>2020-08-20T08:26:52Z</time>
      </trkpt>
      <trkpt lat="44.03284" lon="5.9369">
        <ele>471</ele>
        <time>2020-08-20T08:26:54Z</time>
      </trkpt>
      <trkpt lat="44.03285" lon="5.93677">
        <ele>470</ele>
        <time>2020-08-20T08:26:58Z</time>
      </trkpt>
      <trkpt lat="44.03293" lon="5.93647">
        <ele>471</ele>
        <time>2020-08-20T08:27:08Z</time>
      </trkpt>
      <trkpt lat="44.03296" lon="5.93643">
        <ele>472</ele>
        <time>2020-08-20T08:27:10Z</time>
      </trkpt>
      <trkpt lat="44.03299" lon="5.93638">
        <ele>472</ele>
        <time>2020-08-20T08:27:12Z</time>
      </trkpt>
      <trkpt lat="44.03307" lon="5.93633">
        <ele>473</ele>
        <time>2020-08-20T08:27:16Z</time>
      </trkpt>
      <trkpt lat="44.03316" lon="5.93629">
        <ele>474</ele>
        <time>2020-08-20T08:27:21Z</time>
      </trkpt>
      <trkpt lat="44.03331" lon="5.93623">
        <ele>476</ele>
        <time>2020-08-20T08:27:28Z</time>
      </trkpt>
      <trkpt lat="44.03336" lon="5.9362">
        <ele>476</ele>
        <time>2020-08-20T08:27:30Z</time>
      </trkpt>
      <trkpt lat="44.03344" lon="5.93615">
        <ele>478</ele>
        <time>2020-08-20T08:27:34Z</time>
      </trkpt>
      <trkpt lat="44.03352" lon="5.93606">
        <ele>478</ele>
        <time>2020-08-20T08:27:39Z</time>
      </trkpt>
      <trkpt lat="44.03358" lon="5.93594">
        <ele>480</ele>
        <time>2020-08-20T08:27:45Z</time>
      </trkpt>
      <trkpt lat="44.03361" lon="5.93589">
        <ele>480</ele>
        <time>2020-08-20T08:27:47Z</time>
      </trkpt>
      <trkpt lat="44.03379" lon="5.93537">
        <ele>484</ele>
        <time>2020-08-20T08:28:07Z</time>
      </trkpt>
      <trkpt lat="44.03382" lon="5.93533">
        <ele>484</ele>
        <time>2020-08-20T08:28:09Z</time>
      </trkpt>
      <trkpt lat="44.03384" lon="5.93528">
        <ele>485</ele>
        <time>2020-08-20T08:28:11Z</time>
      </trkpt>
      <trkpt lat="44.03387" lon="5.93524">
        <ele>485</ele>
        <time>2020-08-20T08:28:13Z</time>
      </trkpt>
      <trkpt lat="44.03392" lon="5.93522">
        <ele>486</ele>
        <time>2020-08-20T08:28:16Z</time>
      </trkpt>
      <trkpt lat="44.03399" lon="5.93523">
        <ele>486</ele>
        <time>2020-08-20T08:28:20Z</time>
      </trkpt>
      <trkpt lat="44.03412" lon="5.9353">
        <ele>486</ele>
        <time>2020-08-20T08:28:26Z</time>
      </trkpt>
      <trkpt lat="44.03418" lon="5.93532">
        <ele>486</ele>
        <time>2020-08-20T08:28:29Z</time>
      </trkpt>
      <trkpt lat="44.0343" lon="5.93531">
        <ele>488</ele>
        <time>2020-08-20T08:28:36Z</time>
      </trkpt>
      <trkpt lat="44.03469" lon="5.93551">
        <ele>487</ele>
        <time>2020-08-20T08:28:48Z</time>
      </trkpt>
      <trkpt lat="44.03473" lon="5.93554">
        <ele>487</ele>
        <time>2020-08-20T08:28:49Z</time>
      </trkpt>
      <trkpt lat="44.03479" lon="5.93558">
        <ele>487</ele>
        <time>2020-08-20T08:28:51Z</time>
      </trkpt>
      <trkpt lat="44.03501" lon="5.9357">
        <ele>489</ele>
        <time>2020-08-20T08:28:59Z</time>
      </trkpt>
      <trkpt lat="44.03507" lon="5.9357">
        <ele>489</ele>
        <time>2020-08-20T08:29:01Z</time>
      </trkpt>
      <trkpt lat="44.03522" lon="5.93573">
        <ele>490</ele>
        <time>2020-08-20T08:29:07Z</time>
      </trkpt>
      <trkpt lat="44.03553" lon="5.93575">
        <ele>492</ele>
        <time>2020-08-20T08:29:21Z</time>
      </trkpt>
      <trkpt lat="44.03567" lon="5.93571">
        <ele>493</ele>
        <time>2020-08-20T08:29:27Z</time>
      </trkpt>
      <trkpt lat="44.0358" lon="5.93568">
        <ele>493</ele>
        <time>2020-08-20T08:29:32Z</time>
      </trkpt>
      <trkpt lat="44.0359" lon="5.93564">
        <ele>493</ele>
        <time>2020-08-20T08:29:37Z</time>
      </trkpt>
      <trkpt lat="44.03595" lon="5.93559">
        <ele>493</ele>
        <time>2020-08-20T08:29:41Z</time>
      </trkpt>
      <trkpt lat="44.03601" lon="5.93556">
        <ele>494</ele>
        <time>2020-08-20T08:29:45Z</time>
      </trkpt>
      <trkpt lat="44.03605" lon="5.9355">
        <ele>495</ele>
        <time>2020-08-20T08:29:48Z</time>
      </trkpt>
      <trkpt lat="44.0361" lon="5.93544">
        <ele>496</ele>
        <time>2020-08-20T08:29:52Z</time>
      </trkpt>
      <trkpt lat="44.03616" lon="5.9354">
        <ele>497</ele>
        <time>2020-08-20T08:29:57Z</time>
      </trkpt>
      <trkpt lat="44.03626" lon="5.93529">
        <ele>498</ele>
        <time>2020-08-20T08:30:04Z</time>
      </trkpt>
      <trkpt lat="44.03636" lon="5.93521">
        <ele>498</ele>
        <time>2020-08-20T08:30:10Z</time>
      </trkpt>
      <trkpt lat="44.03645" lon="5.93518">
        <ele>498</ele>
        <time>2020-08-20T08:30:12Z</time>
      </trkpt>
      <trkpt lat="44.0365" lon="5.93519">
        <ele>499</ele>
        <time>2020-08-20T08:30:14Z</time>
      </trkpt>
      <trkpt lat="44.03655" lon="5.93524">
        <ele>499</ele>
        <time>2020-08-20T08:30:18Z</time>
      </trkpt>
      <trkpt lat="44.03659" lon="5.93533">
        <ele>500</ele>
        <time>2020-08-20T08:30:22Z</time>
      </trkpt>
      <trkpt lat="44.03672" lon="5.93559">
        <ele>502</ele>
        <time>2020-08-20T08:30:32Z</time>
      </trkpt>
      <trkpt lat="44.03671" lon="5.93567">
        <ele>503</ele>
        <time>2020-08-20T08:30:36Z</time>
      </trkpt>
      <trkpt lat="44.03673" lon="5.93574">
        <ele>504</ele>
        <time>2020-08-20T08:30:39Z</time>
      </trkpt>
      <trkpt lat="44.03674" lon="5.93582">
        <ele>505</ele>
        <time>2020-08-20T08:30:44Z</time>
      </trkpt>
      <trkpt lat="44.03678" lon="5.93588">
        <ele>506</ele>
        <time>2020-08-20T08:30:48Z</time>
      </trkpt>
      <trkpt lat="44.03683" lon="5.93594">
        <ele>507</ele>
        <time>2020-08-20T08:30:55Z</time>
      </trkpt>
      <trkpt lat="44.03686" lon="5.93602">
        <ele>508</ele>
        <time>2020-08-20T08:30:59Z</time>
      </trkpt>
      <trkpt lat="44.03697" lon="5.93623">
        <ele>510</ele>
        <time>2020-08-20T08:31:10Z</time>
      </trkpt>
      <trkpt lat="44.03702" lon="5.93626">
        <ele>511</ele>
        <time>2020-08-20T08:31:14Z</time>
      </trkpt>
      <trkpt lat="44.03752" lon="5.93671">
        <ele>514</ele>
        <time>2020-08-20T08:31:43Z</time>
      </trkpt>
      <trkpt lat="44.03764" lon="5.93678">
        <ele>515</ele>
        <time>2020-08-20T08:31:48Z</time>
      </trkpt>
      <trkpt lat="44.03772" lon="5.93682">
        <ele>515</ele>
        <time>2020-08-20T08:31:51Z</time>
      </trkpt>
      <trkpt lat="44.03781" lon="5.93688">
        <ele>514</ele>
        <time>2020-08-20T08:31:55Z</time>
      </trkpt>
      <trkpt lat="44.03805" lon="5.93705">
        <ele>515</ele>
        <time>2020-08-20T08:32:03Z</time>
      </trkpt>
      <trkpt lat="44.03817" lon="5.93714">
        <ele>515</ele>
        <time>2020-08-20T08:32:07Z</time>
      </trkpt>
      <trkpt lat="44.03834" lon="5.93728">
        <ele>516</ele>
        <time>2020-08-20T08:32:11Z</time>
      </trkpt>
      <trkpt lat="44.03871" lon="5.9375">
        <ele>517</ele>
        <time>2020-08-20T08:32:21Z</time>
      </trkpt>
      <trkpt lat="44.03904" lon="5.93772">
        <ele>516</ele>
        <time>2020-08-20T08:32:29Z</time>
      </trkpt>
      <trkpt lat="44.03924" lon="5.93787">
        <ele>517</ele>
        <time>2020-08-20T08:32:33Z</time>
      </trkpt>
      <trkpt lat="44.03983" lon="5.93833">
        <ele>517</ele>
        <time>2020-08-20T08:32:49Z</time>
      </trkpt>
      <trkpt lat="44.04004" lon="5.93851">
        <ele>516</ele>
        <time>2020-08-20T08:32:55Z</time>
      </trkpt>
      <trkpt lat="44.04012" lon="5.93856">
        <ele>515</ele>
        <time>2020-08-20T08:32:57Z</time>
      </trkpt>
      <trkpt lat="44.04068" lon="5.93896">
        <ele>514</ele>
        <time>2020-08-20T08:33:08Z</time>
      </trkpt>
      <trkpt lat="44.04086" lon="5.93911">
        <ele>514</ele>
        <time>2020-08-20T08:33:13Z</time>
      </trkpt>
      <trkpt lat="44.04111" lon="5.93938">
        <ele>514</ele>
        <time>2020-08-20T08:33:19Z</time>
      </trkpt>
      <trkpt lat="44.04119" lon="5.93949">
        <ele>515</ele>
        <time>2020-08-20T08:33:21Z</time>
      </trkpt>
      <trkpt lat="44.04153" lon="5.9398">
        <ele>516</ele>
        <time>2020-08-20T08:33:30Z</time>
      </trkpt>
      <trkpt lat="44.04163" lon="5.93991">
        <ele>516</ele>
        <time>2020-08-20T08:33:33Z</time>
      </trkpt>
      <trkpt lat="44.04192" lon="5.94016">
        <ele>517</ele>
        <time>2020-08-20T08:33:42Z</time>
      </trkpt>
      <trkpt lat="44.04257" lon="5.94096">
        <ele>518</ele>
        <time>2020-08-20T08:34:06Z</time>
      </trkpt>
      <trkpt lat="44.04303" lon="5.94204">
        <ele>513</ele>
        <time>2020-08-20T08:34:16Z</time>
      </trkpt>
      <trkpt lat="44.04314" lon="5.94227">
        <ele>509</ele>
        <time>2020-08-20T08:34:18Z</time>
      </trkpt>
      <trkpt lat="44.04339" lon="5.94267">
        <ele>497</ele>
        <time>2020-08-20T08:34:27Z</time>
      </trkpt>
      <trkpt lat="44.04347" lon="5.94271">
        <ele>497</ele>
        <time>2020-08-20T08:34:29Z</time>
      </trkpt>
      <trkpt lat="44.04371" lon="5.9428">
        <ele>497</ele>
        <time>2020-08-20T08:34:35Z</time>
      </trkpt>
      <trkpt lat="44.04383" lon="5.94282">
        <ele>496</ele>
        <time>2020-08-20T08:34:39Z</time>
      </trkpt>
      <trkpt lat="44.04405" lon="5.94279">
        <ele>496</ele>
        <time>2020-08-20T08:34:44Z</time>
      </trkpt>
      <trkpt lat="44.04419" lon="5.94268">
        <ele>496</ele>
        <time>2020-08-20T08:34:48Z</time>
      </trkpt>
      <trkpt lat="44.04437" lon="5.94246">
        <ele>495</ele>
        <time>2020-08-20T08:34:55Z</time>
      </trkpt>
      <trkpt lat="44.04443" lon="5.9424">
        <ele>495</ele>
        <time>2020-08-20T08:34:57Z</time>
      </trkpt>
      <trkpt lat="44.04462" lon="5.9422">
        <ele>495</ele>
        <time>2020-08-20T08:35:05Z</time>
      </trkpt>
      <trkpt lat="44.04498" lon="5.94187">
        <ele>497</ele>
        <time>2020-08-20T08:35:19Z</time>
      </trkpt>
      <trkpt lat="44.04507" lon="5.94189">
        <ele>497</ele>
        <time>2020-08-20T08:35:22Z</time>
      </trkpt>
      <trkpt lat="44.04512" lon="5.94206">
        <ele>498</ele>
        <time>2020-08-20T08:35:27Z</time>
      </trkpt>
      <trkpt lat="44.04506" lon="5.94234">
        <ele>497</ele>
        <time>2020-08-20T08:35:31Z</time>
      </trkpt>
      <trkpt lat="44.04497" lon="5.94267">
        <ele>495</ele>
        <time>2020-08-20T08:35:35Z</time>
      </trkpt>
      <trkpt lat="44.04449" lon="5.94339">
        <ele>491</ele>
        <time>2020-08-20T08:35:45Z</time>
      </trkpt>
      <trkpt lat="44.04403" lon="5.94386">
        <ele>489</ele>
        <time>2020-08-20T08:35:53Z</time>
      </trkpt>
      <trkpt lat="44.04396" lon="5.94393">
        <ele>488</ele>
        <time>2020-08-20T08:35:55Z</time>
      </trkpt>
      <trkpt lat="44.04391" lon="5.94425">
        <ele>490</ele>
        <time>2020-08-20T08:36:06Z</time>
      </trkpt>
      <trkpt lat="44.04389" lon="5.94434">
        <ele>490</ele>
        <time>2020-08-20T08:36:08Z</time>
      </trkpt>
      <trkpt lat="44.04394" lon="5.94444">
        <ele>491</ele>
        <time>2020-08-20T08:36:15Z</time>
      </trkpt>
      <trkpt lat="44.04395" lon="5.94453">
        <ele>492</ele>
        <time>2020-08-20T08:36:19Z</time>
      </trkpt>
      <trkpt lat="44.044" lon="5.94459">
        <ele>492</ele>
        <time>2020-08-20T08:36:23Z</time>
      </trkpt>
      <trkpt lat="44.04407" lon="5.94466">
        <ele>493</ele>
        <time>2020-08-20T08:36:26Z</time>
      </trkpt>
      <trkpt lat="44.04411" lon="5.94473">
        <ele>493</ele>
        <time>2020-08-20T08:36:29Z</time>
      </trkpt>
      <trkpt lat="44.04423" lon="5.94485">
        <ele>493</ele>
        <time>2020-08-20T08:36:36Z</time>
      </trkpt>
      <trkpt lat="44.04427" lon="5.94491">
        <ele>494</ele>
        <time>2020-08-20T08:36:39Z</time>
      </trkpt>
      <trkpt lat="44.04432" lon="5.94495">
        <ele>494</ele>
        <time>2020-08-20T08:36:43Z</time>
      </trkpt>
      <trkpt lat="44.04439" lon="5.94495">
        <ele>495</ele>
        <time>2020-08-20T08:36:48Z</time>
      </trkpt>
      <trkpt lat="44.04447" lon="5.94504">
        <ele>495</ele>
        <time>2020-08-20T08:36:54Z</time>
      </trkpt>
      <trkpt lat="44.04453" lon="5.94516">
        <ele>494</ele>
        <time>2020-08-20T08:36:57Z</time>
      </trkpt>
      <trkpt lat="44.04459" lon="5.94524">
        <ele>494</ele>
        <time>2020-08-20T08:36:59Z</time>
      </trkpt>
      <trkpt lat="44.04461" lon="5.94542">
        <ele>493</ele>
        <time>2020-08-20T08:37:03Z</time>
      </trkpt>
      <trkpt lat="44.045" lon="5.94605">
        <ele>494</ele>
        <time>2020-08-20T08:37:23Z</time>
      </trkpt>
      <trkpt lat="44.04509" lon="5.94617">
        <ele>495</ele>
        <time>2020-08-20T08:37:27Z</time>
      </trkpt>
      <trkpt lat="44.04513" lon="5.94625">
        <ele>495</ele>
        <time>2020-08-20T08:37:29Z</time>
      </trkpt>
      <trkpt lat="44.04533" lon="5.94661">
        <ele>494</ele>
        <time>2020-08-20T08:37:40Z</time>
      </trkpt>
      <trkpt lat="44.04543" lon="5.94674">
        <ele>495</ele>
        <time>2020-08-20T08:37:46Z</time>
      </trkpt>
      <trkpt lat="44.04549" lon="5.94684">
        <ele>495</ele>
        <time>2020-08-20T08:37:50Z</time>
      </trkpt>
      <trkpt lat="44.04559" lon="5.94702">
        <ele>496</ele>
        <time>2020-08-20T08:37:56Z</time>
      </trkpt>
      <trkpt lat="44.04565" lon="5.94716">
        <ele>496</ele>
        <time>2020-08-20T08:38:01Z</time>
      </trkpt>
      <trkpt lat="44.0457" lon="5.94729">
        <ele>494</ele>
        <time>2020-08-20T08:38:06Z</time>
      </trkpt>
      <trkpt lat="44.04579" lon="5.94744">
        <ele>494</ele>
        <time>2020-08-20T08:38:10Z</time>
      </trkpt>
      <trkpt lat="44.04585" lon="5.94747">
        <ele>495</ele>
        <time>2020-08-20T08:38:13Z</time>
      </trkpt>
      <trkpt lat="44.04595" lon="5.94748">
        <ele>496</ele>
        <time>2020-08-20T08:38:16Z</time>
      </trkpt>
      <trkpt lat="44.04624" lon="5.94772">
        <ele>498</ele>
        <time>2020-08-20T08:38:29Z</time>
      </trkpt>
      <trkpt lat="44.04633" lon="5.94773">
        <ele>499</ele>
        <time>2020-08-20T08:38:34Z</time>
      </trkpt>
      <trkpt lat="44.0465" lon="5.9477">
        <ele>501</ele>
        <time>2020-08-20T08:38:43Z</time>
      </trkpt>
      <trkpt lat="44.04657" lon="5.94775">
        <ele>501</ele>
        <time>2020-08-20T08:38:47Z</time>
      </trkpt>
      <trkpt lat="44.04663" lon="5.94774">
        <ele>502</ele>
        <time>2020-08-20T08:38:50Z</time>
      </trkpt>
      <trkpt lat="44.04674" lon="5.94782">
        <ele>504</ele>
        <time>2020-08-20T08:38:58Z</time>
      </trkpt>
      <trkpt lat="44.0468" lon="5.94782">
        <ele>505</ele>
        <time>2020-08-20T08:39:02Z</time>
      </trkpt>
      <trkpt lat="44.04686" lon="5.94787">
        <ele>506</ele>
        <time>2020-08-20T08:39:06Z</time>
      </trkpt>
      <trkpt lat="44.04693" lon="5.94787">
        <ele>506</ele>
        <time>2020-08-20T08:39:09Z</time>
      </trkpt>
      <trkpt lat="44.04698" lon="5.94791">
        <ele>507</ele>
        <time>2020-08-20T08:39:13Z</time>
      </trkpt>
      <trkpt lat="44.04706" lon="5.94805">
        <ele>509</ele>
        <time>2020-08-20T08:39:21Z</time>
      </trkpt>
      <trkpt lat="44.04711" lon="5.9481">
        <ele>509</ele>
        <time>2020-08-20T08:39:24Z</time>
      </trkpt>
      <trkpt lat="44.04722" lon="5.94821">
        <ele>508</ele>
        <time>2020-08-20T08:39:30Z</time>
      </trkpt>
      <trkpt lat="44.04726" lon="5.94828">
        <ele>508</ele>
        <time>2020-08-20T08:39:33Z</time>
      </trkpt>
      <trkpt lat="44.04739" lon="5.94847">
        <ele>509</ele>
        <time>2020-08-20T08:39:43Z</time>
      </trkpt>
      <trkpt lat="44.04758" lon="5.94854">
        <ele>511</ele>
        <time>2020-08-20T08:39:52Z</time>
      </trkpt>
      <trkpt lat="44.04762" lon="5.94859">
        <ele>511</ele>
        <time>2020-08-20T08:39:54Z</time>
      </trkpt>
      <trkpt lat="44.04769" lon="5.94881">
        <ele>510</ele>
        <time>2020-08-20T08:39:58Z</time>
      </trkpt>
      <trkpt lat="44.04773" lon="5.9489">
        <ele>510</ele>
        <time>2020-08-20T08:40:00Z</time>
      </trkpt>
      <trkpt lat="44.04783" lon="5.94913">
        <ele>509</ele>
        <time>2020-08-20T08:40:03Z</time>
      </trkpt>
      <trkpt lat="44.04786" lon="5.94923">
        <ele>509</ele>
        <time>2020-08-20T08:40:04Z</time>
      </trkpt>
      <trkpt lat="44.04788" lon="5.94933">
        <ele>508</ele>
        <time>2020-08-20T08:40:05Z</time>
      </trkpt>
      <trkpt lat="44.04792" lon="5.94947">
        <ele>507</ele>
        <time>2020-08-20T08:40:07Z</time>
      </trkpt>
      <trkpt lat="44.04795" lon="5.94953">
        <ele>507</ele>
        <time>2020-08-20T08:40:08Z</time>
      </trkpt>
      <trkpt lat="44.04807" lon="5.94981">
        <ele>505</ele>
        <time>2020-08-20T08:40:11Z</time>
      </trkpt>
      <trkpt lat="44.04813" lon="5.94987">
        <ele>503</ele>
        <time>2020-08-20T08:40:13Z</time>
      </trkpt>
      <trkpt lat="44.0482" lon="5.94981">
        <ele>500</ele>
        <time>2020-08-20T08:40:18Z</time>
      </trkpt>
      <trkpt lat="44.04824" lon="5.94973">
        <ele>498</ele>
        <time>2020-08-20T08:40:20Z</time>
      </trkpt>
      <trkpt lat="44.04832" lon="5.94974">
        <ele>497</ele>
        <time>2020-08-20T08:40:22Z</time>
      </trkpt>
      <trkpt lat="44.04843" lon="5.94979">
        <ele>495</ele>
        <time>2020-08-20T08:40:24Z</time>
      </trkpt>
      <trkpt lat="44.04851" lon="5.9499">
        <ele>494</ele>
        <time>2020-08-20T08:40:26Z</time>
      </trkpt>
      <trkpt lat="44.04856" lon="5.94995">
        <ele>493</ele>
        <time>2020-08-20T08:40:27Z</time>
      </trkpt>
      <trkpt lat="44.04869" lon="5.95011">
        <ele>489</ele>
        <time>2020-08-20T08:40:31Z</time>
      </trkpt>
      <trkpt lat="44.04876" lon="5.9502">
        <ele>487</ele>
        <time>2020-08-20T08:40:33Z</time>
      </trkpt>
      <trkpt lat="44.0488" lon="5.95011">
        <ele>484</ele>
        <time>2020-08-20T08:40:37Z</time>
      </trkpt>
      <trkpt lat="44.04885" lon="5.94992">
        <ele>482</ele>
        <time>2020-08-20T08:40:40Z</time>
      </trkpt>
      <trkpt lat="44.04879" lon="5.94963">
        <ele>480</ele>
        <time>2020-08-20T08:40:44Z</time>
      </trkpt>
      <trkpt lat="44.04884" lon="5.94946">
        <ele>478</ele>
        <time>2020-08-20T08:40:47Z</time>
      </trkpt>
      <trkpt lat="44.04886" lon="5.94938">
        <ele>476</ele>
        <time>2020-08-20T08:40:49Z</time>
      </trkpt>
      <trkpt lat="44.04888" lon="5.94928">
        <ele>475</ele>
        <time>2020-08-20T08:40:51Z</time>
      </trkpt>
      <trkpt lat="44.04891" lon="5.94913">
        <ele>475</ele>
        <time>2020-08-20T08:40:53Z</time>
      </trkpt>
      <trkpt lat="44.04894" lon="5.94907">
        <ele>475</ele>
        <time>2020-08-20T08:40:54Z</time>
      </trkpt>
      <trkpt lat="44.04899" lon="5.94902">
        <ele>474</ele>
        <time>2020-08-20T08:40:56Z</time>
      </trkpt>
      <trkpt lat="44.04906" lon="5.949">
        <ele>473</ele>
        <time>2020-08-20T08:40:59Z</time>
      </trkpt>
      <trkpt lat="44.04918" lon="5.94901">
        <ele>473</ele>
        <time>2020-08-20T08:41:02Z</time>
      </trkpt>
      <trkpt lat="44.04926" lon="5.94913">
        <ele>471</ele>
        <time>2020-08-20T08:41:04Z</time>
      </trkpt>
      <trkpt lat="44.0494" lon="5.94914">
        <ele>468</ele>
        <time>2020-08-20T08:41:07Z</time>
      </trkpt>
      <trkpt lat="44.04949" lon="5.94919">
        <ele>466</ele>
        <time>2020-08-20T08:41:09Z</time>
      </trkpt>
      <trkpt lat="44.04953" lon="5.94932">
        <ele>464</ele>
        <time>2020-08-20T08:41:11Z</time>
      </trkpt>
      <trkpt lat="44.04961" lon="5.94938">
        <ele>462</ele>
        <time>2020-08-20T08:41:13Z</time>
      </trkpt>
      <trkpt lat="44.04969" lon="5.94939">
        <ele>459</ele>
        <time>2020-08-20T08:41:15Z</time>
      </trkpt>
      <trkpt lat="44.04975" lon="5.94947">
        <ele>457</ele>
        <time>2020-08-20T08:41:17Z</time>
      </trkpt>
      <trkpt lat="44.04981" lon="5.94976">
        <ele>453</ele>
        <time>2020-08-20T08:41:21Z</time>
      </trkpt>
      <trkpt lat="44.04982" lon="5.94984">
        <ele>453</ele>
        <time>2020-08-20T08:41:22Z</time>
      </trkpt>
      <trkpt lat="44.04983" lon="5.94997">
        <ele>451</ele>
        <time>2020-08-20T08:41:24Z</time>
      </trkpt>
      <trkpt lat="44.04992" lon="5.94992">
        <ele>447</ele>
        <time>2020-08-20T08:41:28Z</time>
      </trkpt>
      <trkpt lat="44.05" lon="5.94982">
        <ele>446</ele>
        <time>2020-08-20T08:41:30Z</time>
      </trkpt>
      <trkpt lat="44.05013" lon="5.94974">
        <ele>441</ele>
        <time>2020-08-20T08:41:36Z</time>
      </trkpt>
      <trkpt lat="44.05019" lon="5.9497">
        <ele>441</ele>
        <time>2020-08-20T08:41:38Z</time>
      </trkpt>
      <trkpt lat="44.05025" lon="5.94972">
        <ele>441</ele>
        <time>2020-08-20T08:41:41Z</time>
      </trkpt>
      <trkpt lat="44.05037" lon="5.94974">
        <ele>440</ele>
        <time>2020-08-20T08:41:47Z</time>
      </trkpt>
      <trkpt lat="44.0504" lon="5.94983">
        <ele>440</ele>
        <time>2020-08-20T08:41:49Z</time>
      </trkpt>
      <trkpt lat="44.05054" lon="5.95043">
        <ele>439</ele>
        <time>2020-08-20T08:41:59Z</time>
      </trkpt>
      <trkpt lat="44.05053" lon="5.95057">
        <ele>437</ele>
        <time>2020-08-20T08:42:05Z</time>
      </trkpt>
      <trkpt lat="44.05054" lon="5.95066">
        <ele>436</ele>
        <time>2020-08-20T08:42:07Z</time>
      </trkpt>
      <trkpt lat="44.0506" lon="5.95084">
        <ele>433</ele>
        <time>2020-08-20T08:42:12Z</time>
      </trkpt>
      <trkpt lat="44.05066" lon="5.95091">
        <ele>432</ele>
        <time>2020-08-20T08:42:15Z</time>
      </trkpt>
      <trkpt lat="44.05071" lon="5.95095">
        <ele>432</ele>
        <time>2020-08-20T08:42:18Z</time>
      </trkpt>
      <trkpt lat="44.05077" lon="5.95103">
        <ele>432</ele>
        <time>2020-08-20T08:42:21Z</time>
      </trkpt>
      <trkpt lat="44.05078" lon="5.95111">
        <ele>432</ele>
        <time>2020-08-20T08:42:23Z</time>
      </trkpt>
      <trkpt lat="44.05077" lon="5.95118">
        <ele>432</ele>
        <time>2020-08-20T08:42:26Z</time>
      </trkpt>
      <trkpt lat="44.05072" lon="5.95135">
        <ele>431</ele>
        <time>2020-08-20T08:42:34Z</time>
      </trkpt>
      <trkpt lat="44.05069" lon="5.95144">
        <ele>430</ele>
        <time>2020-08-20T08:42:37Z</time>
      </trkpt>
      <trkpt lat="44.05065" lon="5.95151">
        <ele>430</ele>
        <time>2020-08-20T08:42:41Z</time>
      </trkpt>
      <trkpt lat="44.05056" lon="5.95156">
        <ele>427</ele>
        <time>2020-08-20T08:42:54Z</time>
      </trkpt>
      <trkpt lat="44.05061" lon="5.95163">
        <ele>425</ele>
        <time>2020-08-20T08:43:41Z</time>
      </trkpt>
      <trkpt lat="44.05064" lon="5.95169">
        <ele>429</ele>
        <time>2020-08-20T08:43:47Z</time>
      </trkpt>
      <trkpt lat="44.0507" lon="5.95172">
        <ele>429</ele>
        <time>2020-08-20T08:43:51Z</time>
      </trkpt>
      <trkpt lat="44.0508" lon="5.95192">
        <ele>431</ele>
        <time>2020-08-20T08:44:00Z</time>
      </trkpt>
      <trkpt lat="44.05107" lon="5.95249">
        <ele>433</ele>
        <time>2020-08-20T08:44:21Z</time>
      </trkpt>
      <trkpt lat="44.05112" lon="5.95255">
        <ele>434</ele>
        <time>2020-08-20T08:44:25Z</time>
      </trkpt>
      <trkpt lat="44.0512" lon="5.95268">
        <ele>434</ele>
        <time>2020-08-20T08:44:31Z</time>
      </trkpt>
      <trkpt lat="44.05124" lon="5.95284">
        <ele>435</ele>
        <time>2020-08-20T08:44:39Z</time>
      </trkpt>
      <trkpt lat="44.05132" lon="5.95309">
        <ele>437</ele>
        <time>2020-08-20T08:44:53Z</time>
      </trkpt>
      <trkpt lat="44.05136" lon="5.95319">
        <ele>437</ele>
        <time>2020-08-20T08:45:00Z</time>
      </trkpt>
      <trkpt lat="44.0514" lon="5.95336">
        <ele>439</ele>
        <time>2020-08-20T08:45:10Z</time>
      </trkpt>
      <trkpt lat="44.05146" lon="5.95341">
        <ele>441</ele>
        <time>2020-08-20T08:45:19Z</time>
      </trkpt>
      <trkpt lat="44.05153" lon="5.9534">
        <ele>443</ele>
        <time>2020-08-20T08:45:26Z</time>
      </trkpt>
      <trkpt lat="44.05158" lon="5.95337">
        <ele>444</ele>
        <time>2020-08-20T08:45:32Z</time>
      </trkpt>
      <trkpt lat="44.05164" lon="5.95338">
        <ele>445</ele>
        <time>2020-08-20T08:45:36Z</time>
      </trkpt>
      <trkpt lat="44.05175" lon="5.95344">
        <ele>446</ele>
        <time>2020-08-20T08:45:43Z</time>
      </trkpt>
      <trkpt lat="44.05183" lon="5.95346">
        <ele>448</ele>
        <time>2020-08-20T08:45:50Z</time>
      </trkpt>
      <trkpt lat="44.05187" lon="5.95352">
        <ele>449</ele>
        <time>2020-08-20T08:45:56Z</time>
      </trkpt>
      <trkpt lat="44.05196" lon="5.95351">
        <ele>449</ele>
        <time>2020-08-20T08:46:00Z</time>
      </trkpt>
      <trkpt lat="44.05202" lon="5.95352">
        <ele>450</ele>
        <time>2020-08-20T08:46:05Z</time>
      </trkpt>
      <trkpt lat="44.05207" lon="5.95356">
        <ele>449</ele>
        <time>2020-08-20T08:46:09Z</time>
      </trkpt>
      <trkpt lat="44.05213" lon="5.95358">
        <ele>449</ele>
        <time>2020-08-20T08:46:12Z</time>
      </trkpt>
      <trkpt lat="44.05217" lon="5.95365">
        <ele>450</ele>
        <time>2020-08-20T08:46:16Z</time>
      </trkpt>
      <trkpt lat="44.05233" lon="5.95377">
        <ele>452</ele>
        <time>2020-08-20T08:46:30Z</time>
      </trkpt>
      <trkpt lat="44.05239" lon="5.95374">
        <ele>452</ele>
        <time>2020-08-20T08:46:33Z</time>
      </trkpt>
      <trkpt lat="44.05253" lon="5.95376">
        <ele>453</ele>
        <time>2020-08-20T08:46:41Z</time>
      </trkpt>
      <trkpt lat="44.05265" lon="5.9538">
        <ele>451</ele>
        <time>2020-08-20T08:46:47Z</time>
      </trkpt>
      <trkpt lat="44.05271" lon="5.95381">
        <ele>451</ele>
        <time>2020-08-20T08:46:50Z</time>
      </trkpt>
      <trkpt lat="44.05278" lon="5.95383">
        <ele>453</ele>
        <time>2020-08-20T08:46:53Z</time>
      </trkpt>
      <trkpt lat="44.05285" lon="5.95387">
        <ele>454</ele>
        <time>2020-08-20T08:46:57Z</time>
      </trkpt>
      <trkpt lat="44.05304" lon="5.95385">
        <ele>454</ele>
        <time>2020-08-20T08:47:03Z</time>
      </trkpt>
      <trkpt lat="44.05312" lon="5.95383">
        <ele>454</ele>
        <time>2020-08-20T08:47:05Z</time>
      </trkpt>
      <trkpt lat="44.0532" lon="5.95384">
        <ele>454</ele>
        <time>2020-08-20T08:47:07Z</time>
      </trkpt>
      <trkpt lat="44.05325" lon="5.95379">
        <ele>454</ele>
        <time>2020-08-20T08:47:09Z</time>
      </trkpt>
      <trkpt lat="44.05334" lon="5.95374">
        <ele>453</ele>
        <time>2020-08-20T08:47:11Z</time>
      </trkpt>
      <trkpt lat="44.0534" lon="5.95378">
        <ele>453</ele>
        <time>2020-08-20T08:47:13Z</time>
      </trkpt>
      <trkpt lat="44.05362" lon="5.9537">
        <ele>452</ele>
        <time>2020-08-20T08:47:18Z</time>
      </trkpt>
      <trkpt lat="44.05371" lon="5.95368">
        <ele>451</ele>
        <time>2020-08-20T08:47:20Z</time>
      </trkpt>
      <trkpt lat="44.0538" lon="5.95366">
        <ele>451</ele>
        <time>2020-08-20T08:47:22Z</time>
      </trkpt>
      <trkpt lat="44.05407" lon="5.95384">
        <ele>453</ele>
        <time>2020-08-20T08:47:36Z</time>
      </trkpt>
      <trkpt lat="44.05412" lon="5.95386">
        <ele>454</ele>
        <time>2020-08-20T08:47:39Z</time>
      </trkpt>
      <trkpt lat="44.05417" lon="5.95392">
        <ele>454</ele>
        <time>2020-08-20T08:47:42Z</time>
      </trkpt>
      <trkpt lat="44.05425" lon="5.95406">
        <ele>455</ele>
        <time>2020-08-20T08:47:47Z</time>
      </trkpt>
      <trkpt lat="44.05428" lon="5.95414">
        <ele>456</ele>
        <time>2020-08-20T08:47:52Z</time>
      </trkpt>
      <trkpt lat="44.05433" lon="5.95423">
        <ele>456</ele>
        <time>2020-08-20T08:47:57Z</time>
      </trkpt>
      <trkpt lat="44.05436" lon="5.95429">
        <ele>458</ele>
        <time>2020-08-20T08:48:06Z</time>
      </trkpt>
      <trkpt lat="44.05444" lon="5.95428">
        <ele>458</ele>
        <time>2020-08-20T08:48:16Z</time>
      </trkpt>
      <trkpt lat="44.05452" lon="5.95435">
        <ele>459</ele>
        <time>2020-08-20T08:48:21Z</time>
      </trkpt>
      <trkpt lat="44.05474" lon="5.95445">
        <ele>459</ele>
        <time>2020-08-20T08:48:31Z</time>
      </trkpt>
      <trkpt lat="44.05486" lon="5.95464">
        <ele>460</ele>
        <time>2020-08-20T08:48:38Z</time>
      </trkpt>
      <trkpt lat="44.05491" lon="5.95474">
        <ele>460</ele>
        <time>2020-08-20T08:48:43Z</time>
      </trkpt>
      <trkpt lat="44.0552" lon="5.95505">
        <ele>463</ele>
        <time>2020-08-20T08:49:01Z</time>
      </trkpt>
      <trkpt lat="44.05524" lon="5.95515">
        <ele>463</ele>
        <time>2020-08-20T08:49:05Z</time>
      </trkpt>
      <trkpt lat="44.05525" lon="5.95522">
        <ele>463</ele>
        <time>2020-08-20T08:49:07Z</time>
      </trkpt>
      <trkpt lat="44.05529" lon="5.95532">
        <ele>464</ele>
        <time>2020-08-20T08:49:15Z</time>
      </trkpt>
      <trkpt lat="44.05534" lon="5.95542">
        <ele>465</ele>
        <time>2020-08-20T08:49:19Z</time>
      </trkpt>
      <trkpt lat="44.05543" lon="5.95538">
        <ele>465</ele>
        <time>2020-08-20T08:49:24Z</time>
      </trkpt>
      <trkpt lat="44.05549" lon="5.95538">
        <ele>465</ele>
        <time>2020-08-20T08:49:27Z</time>
      </trkpt>
      <trkpt lat="44.05558" lon="5.95549">
        <ele>467</ele>
        <time>2020-08-20T08:49:37Z</time>
      </trkpt>
      <trkpt lat="44.05562" lon="5.95559">
        <ele>467</ele>
        <time>2020-08-20T08:49:42Z</time>
      </trkpt>
      <trkpt lat="44.05582" lon="5.95579">
        <ele>468</ele>
        <time>2020-08-20T08:49:56Z</time>
      </trkpt>
      <trkpt lat="44.0559" lon="5.95582">
        <ele>469</ele>
        <time>2020-08-20T08:50:00Z</time>
      </trkpt>
      <trkpt lat="44.05594" lon="5.95589">
        <ele>470</ele>
        <time>2020-08-20T08:50:03Z</time>
      </trkpt>
      <trkpt lat="44.05595" lon="5.95598">
        <ele>471</ele>
        <time>2020-08-20T08:50:06Z</time>
      </trkpt>
      <trkpt lat="44.05599" lon="5.95608">
        <ele>472</ele>
        <time>2020-08-20T08:50:11Z</time>
      </trkpt>
      <trkpt lat="44.0561" lon="5.95613">
        <ele>473</ele>
        <time>2020-08-20T08:50:20Z</time>
      </trkpt>
      <trkpt lat="44.05616" lon="5.95619">
        <ele>474</ele>
        <time>2020-08-20T08:50:25Z</time>
      </trkpt>
      <trkpt lat="44.05625" lon="5.95625">
        <ele>474</ele>
        <time>2020-08-20T08:50:30Z</time>
      </trkpt>
      <trkpt lat="44.0563" lon="5.95634">
        <ele>474</ele>
        <time>2020-08-20T08:50:34Z</time>
      </trkpt>
      <trkpt lat="44.05643" lon="5.95663">
        <ele>477</ele>
        <time>2020-08-20T08:50:46Z</time>
      </trkpt>
      <trkpt lat="44.05657" lon="5.95674">
        <ele>477</ele>
        <time>2020-08-20T08:50:55Z</time>
      </trkpt>
      <trkpt lat="44.05665" lon="5.95689">
        <ele>478</ele>
        <time>2020-08-20T08:51:03Z</time>
      </trkpt>
      <trkpt lat="44.0567" lon="5.95696">
        <ele>478</ele>
        <time>2020-08-20T08:51:07Z</time>
      </trkpt>
      <trkpt lat="44.05676" lon="5.95718">
        <ele>481</ele>
        <time>2020-08-20T08:51:19Z</time>
      </trkpt>
      <trkpt lat="44.05682" lon="5.95726">
        <ele>482</ele>
        <time>2020-08-20T08:51:23Z</time>
      </trkpt>
      <trkpt lat="44.05689" lon="5.95729">
        <ele>483</ele>
        <time>2020-08-20T08:51:27Z</time>
      </trkpt>
      <trkpt lat="44.05697" lon="5.95733">
        <ele>484</ele>
        <time>2020-08-20T08:51:35Z</time>
      </trkpt>
      <trkpt lat="44.05704" lon="5.95739">
        <ele>485</ele>
        <time>2020-08-20T08:51:41Z</time>
      </trkpt>
      <trkpt lat="44.05716" lon="5.95747">
        <ele>485</ele>
        <time>2020-08-20T08:51:48Z</time>
      </trkpt>
      <trkpt lat="44.05724" lon="5.95754">
        <ele>486</ele>
        <time>2020-08-20T08:51:52Z</time>
      </trkpt>
      <trkpt lat="44.05731" lon="5.95759">
        <ele>486</ele>
        <time>2020-08-20T08:51:55Z</time>
      </trkpt>
      <trkpt lat="44.05738" lon="5.95769">
        <ele>487</ele>
        <time>2020-08-20T08:51:59Z</time>
      </trkpt>
      <trkpt lat="44.05746" lon="5.95774">
        <ele>486</ele>
        <time>2020-08-20T08:52:02Z</time>
      </trkpt>
      <trkpt lat="44.05753" lon="5.95781">
        <ele>488</ele>
        <time>2020-08-20T08:52:07Z</time>
      </trkpt>
      <trkpt lat="44.05783" lon="5.95817">
        <ele>491</ele>
        <time>2020-08-20T08:52:31Z</time>
      </trkpt>
      <trkpt lat="44.05791" lon="5.95836">
        <ele>492</ele>
        <time>2020-08-20T08:52:37Z</time>
      </trkpt>
      <trkpt lat="44.05796" lon="5.9584">
        <ele>492</ele>
        <time>2020-08-20T08:52:41Z</time>
      </trkpt>
      <trkpt lat="44.05803" lon="5.95845">
        <ele>493</ele>
        <time>2020-08-20T08:52:44Z</time>
      </trkpt>
      <trkpt lat="44.05809" lon="5.95854">
        <ele>493</ele>
        <time>2020-08-20T08:52:48Z</time>
      </trkpt>
      <trkpt lat="44.05813" lon="5.95863">
        <ele>493</ele>
        <time>2020-08-20T08:52:52Z</time>
      </trkpt>
      <trkpt lat="44.05823" lon="5.95861">
        <ele>493</ele>
        <time>2020-08-20T08:53:00Z</time>
      </trkpt>
      <trkpt lat="44.05832" lon="5.95866">
        <ele>493</ele>
        <time>2020-08-20T08:53:04Z</time>
      </trkpt>
      <trkpt lat="44.05836" lon="5.95875">
        <ele>494</ele>
        <time>2020-08-20T08:53:07Z</time>
      </trkpt>
      <trkpt lat="44.05843" lon="5.95894">
        <ele>495</ele>
        <time>2020-08-20T08:53:13Z</time>
      </trkpt>
      <trkpt lat="44.05852" lon="5.95914">
        <ele>496</ele>
        <time>2020-08-20T08:53:20Z</time>
      </trkpt>
      <trkpt lat="44.05856" lon="5.95926">
        <ele>497</ele>
        <time>2020-08-20T08:53:23Z</time>
      </trkpt>
      <trkpt lat="44.05869" lon="5.95931">
        <ele>498</ele>
        <time>2020-08-20T08:53:36Z</time>
      </trkpt>
      <trkpt lat="44.05877" lon="5.95935">
        <ele>499</ele>
        <time>2020-08-20T08:53:41Z</time>
      </trkpt>
      <trkpt lat="44.05883" lon="5.95943">
        <ele>499</ele>
        <time>2020-08-20T08:53:44Z</time>
      </trkpt>
      <trkpt lat="44.05886" lon="5.95949">
        <ele>499</ele>
        <time>2020-08-20T08:53:47Z</time>
      </trkpt>
      <trkpt lat="44.05891" lon="5.95957">
        <ele>500</ele>
        <time>2020-08-20T08:53:53Z</time>
      </trkpt>
      <trkpt lat="44.059" lon="5.95985">
        <ele>502</ele>
        <time>2020-08-20T08:54:03Z</time>
      </trkpt>
      <trkpt lat="44.05901" lon="5.95996">
        <ele>502</ele>
        <time>2020-08-20T08:54:09Z</time>
      </trkpt>
      <trkpt lat="44.05904" lon="5.96006">
        <ele>503</ele>
        <time>2020-08-20T08:54:14Z</time>
      </trkpt>
      <trkpt lat="44.05908" lon="5.96014">
        <ele>503</ele>
        <time>2020-08-20T08:54:18Z</time>
      </trkpt>
      <trkpt lat="44.05916" lon="5.96017">
        <ele>503</ele>
        <time>2020-08-20T08:54:24Z</time>
      </trkpt>
      <trkpt lat="44.05933" lon="5.96026">
        <ele>506</ele>
        <time>2020-08-20T08:54:38Z</time>
      </trkpt>
      <trkpt lat="44.05938" lon="5.96037">
        <ele>506</ele>
        <time>2020-08-20T08:54:41Z</time>
      </trkpt>
      <trkpt lat="44.05942" lon="5.96061">
        <ele>508</ele>
        <time>2020-08-20T08:54:48Z</time>
      </trkpt>
      <trkpt lat="44.05938" lon="5.96068">
        <ele>509</ele>
        <time>2020-08-20T08:54:52Z</time>
      </trkpt>
      <trkpt lat="44.05937" lon="5.9608">
        <ele>512</ele>
        <time>2020-08-20T08:55:02Z</time>
      </trkpt>
      <trkpt lat="44.05939" lon="5.96094">
        <ele>515</ele>
        <time>2020-08-20T08:55:15Z</time>
      </trkpt>
      <trkpt lat="44.05936" lon="5.96105">
        <ele>515</ele>
        <time>2020-08-20T08:55:18Z</time>
      </trkpt>
      <trkpt lat="44.05926" lon="5.96123">
        <ele>515</ele>
        <time>2020-08-20T08:55:21Z</time>
      </trkpt>
      <trkpt lat="44.05921" lon="5.96138">
        <ele>514</ele>
        <time>2020-08-20T08:55:23Z</time>
      </trkpt>
      <trkpt lat="44.05908" lon="5.9621">
        <ele>507</ele>
        <time>2020-08-20T08:55:32Z</time>
      </trkpt>
      <trkpt lat="44.05904" lon="5.9622">
        <ele>507</ele>
        <time>2020-08-20T08:55:33Z</time>
      </trkpt>
      <trkpt lat="44.05899" lon="5.96232">
        <ele>506</ele>
        <time>2020-08-20T08:55:34Z</time>
      </trkpt>
      <trkpt lat="44.05876" lon="5.96275">
        <ele>504</ele>
        <time>2020-08-20T08:55:38Z</time>
      </trkpt>
      <trkpt lat="44.05868" lon="5.96283">
        <ele>503</ele>
        <time>2020-08-20T08:55:39Z</time>
      </trkpt>
      <trkpt lat="44.05797" lon="5.96302">
        <ele>499</ele>
        <time>2020-08-20T08:55:46Z</time>
      </trkpt>
      <trkpt lat="44.05762" lon="5.96325">
        <ele>497</ele>
        <time>2020-08-20T08:55:50Z</time>
      </trkpt>
      <trkpt lat="44.05756" lon="5.96335">
        <ele>495</ele>
        <time>2020-08-20T08:55:52Z</time>
      </trkpt>
      <trkpt lat="44.05749" lon="5.96361">
        <ele>493</ele>
        <time>2020-08-20T08:55:55Z</time>
      </trkpt>
      <trkpt lat="44.05745" lon="5.96394">
        <ele>492</ele>
        <time>2020-08-20T08:55:59Z</time>
      </trkpt>
      <trkpt lat="44.05744" lon="5.96402">
        <ele>489</ele>
        <time>2020-08-20T08:56:04Z</time>
      </trkpt>
      <trkpt lat="44.05751" lon="5.96407">
        <ele>488</ele>
        <time>2020-08-20T08:56:08Z</time>
      </trkpt>
      <trkpt lat="44.05755" lon="5.96413">
        <ele>487</ele>
        <time>2020-08-20T08:56:10Z</time>
      </trkpt>
      <trkpt lat="44.05759" lon="5.96428">
        <ele>487</ele>
        <time>2020-08-20T08:56:12Z</time>
      </trkpt>
      <trkpt lat="44.05762" lon="5.96442">
        <ele>486</ele>
        <time>2020-08-20T08:56:14Z</time>
      </trkpt>
      <trkpt lat="44.0576" lon="5.96449">
        <ele>484</ele>
        <time>2020-08-20T08:56:16Z</time>
      </trkpt>
      <trkpt lat="44.05754" lon="5.96455">
        <ele>482</ele>
        <time>2020-08-20T08:56:18Z</time>
      </trkpt>
      <trkpt lat="44.05752" lon="5.96467">
        <ele>480</ele>
        <time>2020-08-20T08:56:22Z</time>
      </trkpt>
      <trkpt lat="44.05752" lon="5.96481">
        <ele>479</ele>
        <time>2020-08-20T08:56:26Z</time>
      </trkpt>
      <trkpt lat="44.05739" lon="5.96503">
        <ele>478</ele>
        <time>2020-08-20T08:56:30Z</time>
      </trkpt>
      <trkpt lat="44.05703" lon="5.96532">
        <ele>475</ele>
        <time>2020-08-20T08:56:38Z</time>
      </trkpt>
      <trkpt lat="44.05693" lon="5.96536">
        <ele>475</ele>
        <time>2020-08-20T08:56:41Z</time>
      </trkpt>
      <trkpt lat="44.05686" lon="5.96533">
        <ele>474</ele>
        <time>2020-08-20T08:56:43Z</time>
      </trkpt>
      <trkpt lat="44.05669" lon="5.96549">
        <ele>473</ele>
        <time>2020-08-20T08:56:47Z</time>
      </trkpt>
      <trkpt lat="44.05657" lon="5.96559">
        <ele>472</ele>
        <time>2020-08-20T08:56:49Z</time>
      </trkpt>
      <trkpt lat="44.05629" lon="5.96564">
        <ele>469</ele>
        <time>2020-08-20T08:56:53Z</time>
      </trkpt>
      <trkpt lat="44.056" lon="5.96593">
        <ele>466</ele>
        <time>2020-08-20T08:56:59Z</time>
      </trkpt>
      <trkpt lat="44.05593" lon="5.96602">
        <ele>465</ele>
        <time>2020-08-20T08:57:01Z</time>
      </trkpt>
      <trkpt lat="44.05582" lon="5.96625">
        <ele>464</ele>
        <time>2020-08-20T08:57:05Z</time>
      </trkpt>
      <trkpt lat="44.05574" lon="5.96632">
        <ele>463</ele>
        <time>2020-08-20T08:57:07Z</time>
      </trkpt>
      <trkpt lat="44.05567" lon="5.96641">
        <ele>462</ele>
        <time>2020-08-20T08:57:09Z</time>
      </trkpt>
      <trkpt lat="44.05552" lon="5.96653">
        <ele>461</ele>
        <time>2020-08-20T08:57:12Z</time>
      </trkpt>
      <trkpt lat="44.05541" lon="5.96652">
        <ele>460</ele>
        <time>2020-08-20T08:57:14Z</time>
      </trkpt>
      <trkpt lat="44.05526" lon="5.9667">
        <ele>457</ele>
        <time>2020-08-20T08:57:19Z</time>
      </trkpt>
      <trkpt lat="44.05517" lon="5.96691">
        <ele>457</ele>
        <time>2020-08-20T08:57:24Z</time>
      </trkpt>
      <trkpt lat="44.0551" lon="5.967">
        <ele>457</ele>
        <time>2020-08-20T08:57:27Z</time>
      </trkpt>
      <trkpt lat="44.05489" lon="5.96718">
        <ele>456</ele>
        <time>2020-08-20T08:57:34Z</time>
      </trkpt>
      <trkpt lat="44.05481" lon="5.9672">
        <ele>456</ele>
        <time>2020-08-20T08:57:36Z</time>
      </trkpt>
      <trkpt lat="44.05472" lon="5.96723">
        <ele>456</ele>
        <time>2020-08-20T08:57:38Z</time>
      </trkpt>
      <trkpt lat="44.05457" lon="5.9677">
        <ele>454</ele>
        <time>2020-08-20T08:57:47Z</time>
      </trkpt>
      <trkpt lat="44.05445" lon="5.9679">
        <ele>454</ele>
        <time>2020-08-20T08:57:52Z</time>
      </trkpt>
      <trkpt lat="44.0544" lon="5.96799">
        <ele>453</ele>
        <time>2020-08-20T08:57:54Z</time>
      </trkpt>
      <trkpt lat="44.05427" lon="5.96806">
        <ele>454</ele>
        <time>2020-08-20T08:57:59Z</time>
      </trkpt>
      <trkpt lat="44.0542" lon="5.96814">
        <ele>454</ele>
        <time>2020-08-20T08:58:01Z</time>
      </trkpt>
      <trkpt lat="44.05415" lon="5.96824">
        <ele>453</ele>
        <time>2020-08-20T08:58:03Z</time>
      </trkpt>
      <trkpt lat="44.05407" lon="5.96832">
        <ele>453</ele>
        <time>2020-08-20T08:58:05Z</time>
      </trkpt>
      <trkpt lat="44.05399" lon="5.96836">
        <ele>452</ele>
        <time>2020-08-20T08:58:07Z</time>
      </trkpt>
      <trkpt lat="44.05391" lon="5.96846">
        <ele>452</ele>
        <time>2020-08-20T08:58:09Z</time>
      </trkpt>
      <trkpt lat="44.05365" lon="5.96849">
        <ele>451</ele>
        <time>2020-08-20T08:58:13Z</time>
      </trkpt>
      <trkpt lat="44.05358" lon="5.96846">
        <ele>452</ele>
        <time>2020-08-20T08:58:16Z</time>
      </trkpt>
      <trkpt lat="44.05348" lon="5.9683">
        <ele>453</ele>
        <time>2020-08-20T08:58:24Z</time>
      </trkpt>
      <trkpt lat="44.05343" lon="5.96821">
        <ele>453</ele>
        <time>2020-08-20T08:58:27Z</time>
      </trkpt>
      <trkpt lat="44.05339" lon="5.96815">
        <ele>453</ele>
        <time>2020-08-20T08:58:29Z</time>
      </trkpt>
      <trkpt lat="44.05332" lon="5.96814">
        <ele>452</ele>
        <time>2020-08-20T08:58:32Z</time>
      </trkpt>
      <trkpt lat="44.05314" lon="5.96831">
        <ele>452</ele>
        <time>2020-08-20T08:58:38Z</time>
      </trkpt>
      <trkpt lat="44.05275" lon="5.96869">
        <ele>449</ele>
        <time>2020-08-20T08:58:48Z</time>
      </trkpt>
      <trkpt lat="44.05275" lon="5.96892">
        <ele>449</ele>
        <time>2020-08-20T08:58:50Z</time>
      </trkpt>
      <trkpt lat="44.05263" lon="5.96905">
        <ele>449</ele>
        <time>2020-08-20T08:58:53Z</time>
      </trkpt>
      <trkpt lat="44.0524" lon="5.96936">
        <ele>448</ele>
        <time>2020-08-20T08:58:59Z</time>
      </trkpt>
      <trkpt lat="44.05235" lon="5.96947">
        <ele>447</ele>
        <time>2020-08-20T08:59:01Z</time>
      </trkpt>
      <trkpt lat="44.05228" lon="5.97006">
        <ele>446</ele>
        <time>2020-08-20T08:59:08Z</time>
      </trkpt>
      <trkpt lat="44.05236" lon="5.97073">
        <ele>447</ele>
        <time>2020-08-20T08:59:18Z</time>
      </trkpt>
      <trkpt lat="44.05239" lon="5.9708">
        <ele>447</ele>
        <time>2020-08-20T08:59:20Z</time>
      </trkpt>
      <trkpt lat="44.05243" lon="5.97086">
        <ele>448</ele>
        <time>2020-08-20T08:59:22Z</time>
      </trkpt>
      <trkpt lat="44.05247" lon="5.97092">
        <ele>448</ele>
        <time>2020-08-20T08:59:24Z</time>
      </trkpt>
      <trkpt lat="44.05249" lon="5.97102">
        <ele>448</ele>
        <time>2020-08-20T08:59:26Z</time>
      </trkpt>
      <trkpt lat="44.05247" lon="5.9711">
        <ele>448</ele>
        <time>2020-08-20T08:59:28Z</time>
      </trkpt>
      <trkpt lat="44.05252" lon="5.97143">
        <ele>447</ele>
        <time>2020-08-20T08:59:39Z</time>
      </trkpt>
      <trkpt lat="44.05253" lon="5.97158">
        <ele>447</ele>
        <time>2020-08-20T08:59:43Z</time>
      </trkpt>
      <trkpt lat="44.05256" lon="5.97166">
        <ele>447</ele>
        <time>2020-08-20T08:59:45Z</time>
      </trkpt>
      <trkpt lat="44.05264" lon="5.97171">
        <ele>447</ele>
        <time>2020-08-20T08:59:48Z</time>
      </trkpt>
      <trkpt lat="44.05272" lon="5.97177">
        <ele>445</ele>
        <time>2020-08-20T08:59:53Z</time>
      </trkpt>
      <trkpt lat="44.05278" lon="5.97173">
        <ele>445</ele>
        <time>2020-08-20T08:59:55Z</time>
      </trkpt>
      <trkpt lat="44.05283" lon="5.97172">
        <ele>445</ele>
        <time>2020-08-20T08:59:57Z</time>
      </trkpt>
      <trkpt lat="44.05299" lon="5.9719">
        <ele>446</ele>
        <time>2020-08-20T09:00:04Z</time>
      </trkpt>
      <trkpt lat="44.05309" lon="5.972">
        <ele>446</ele>
        <time>2020-08-20T09:00:08Z</time>
      </trkpt>
      <trkpt lat="44.05313" lon="5.9721">
        <ele>446</ele>
        <time>2020-08-20T09:00:10Z</time>
      </trkpt>
      <trkpt lat="44.05315" lon="5.97222">
        <ele>447</ele>
        <time>2020-08-20T09:00:14Z</time>
      </trkpt>
      <trkpt lat="44.0532" lon="5.97226">
        <ele>447</ele>
        <time>2020-08-20T09:00:20Z</time>
      </trkpt>
      <trkpt lat="44.05323" lon="5.97233">
        <ele>449</ele>
        <time>2020-08-20T09:00:40Z</time>
      </trkpt>
      <trkpt lat="44.05331" lon="5.97236">
        <ele>450</ele>
        <time>2020-08-20T09:00:44Z</time>
      </trkpt>
      <trkpt lat="44.05333" lon="5.97245">
        <ele>450</ele>
        <time>2020-08-20T09:00:46Z</time>
      </trkpt>
      <trkpt lat="44.05333" lon="5.97255">
        <ele>450</ele>
        <time>2020-08-20T09:00:48Z</time>
      </trkpt>
      <trkpt lat="44.05334" lon="5.97264">
        <ele>449</ele>
        <time>2020-08-20T09:00:51Z</time>
      </trkpt>
      <trkpt lat="44.05336" lon="5.97274">
        <ele>449</ele>
        <time>2020-08-20T09:00:54Z</time>
      </trkpt>
      <trkpt lat="44.0537" lon="5.97372">
        <ele>449</ele>
        <time>2020-08-20T09:01:20Z</time>
      </trkpt>
      <trkpt lat="44.05373" lon="5.97378">
        <ele>449</ele>
        <time>2020-08-20T09:01:22Z</time>
      </trkpt>
      <trkpt lat="44.05379" lon="5.97384">
        <ele>449</ele>
        <time>2020-08-20T09:01:25Z</time>
      </trkpt>
      <trkpt lat="44.05381" lon="5.97392">
        <ele>449</ele>
        <time>2020-08-20T09:01:27Z</time>
      </trkpt>
      <trkpt lat="44.05383" lon="5.97399">
        <ele>449</ele>
        <time>2020-08-20T09:01:29Z</time>
      </trkpt>
      <trkpt lat="44.05385" lon="5.9741">
        <ele>449</ele>
        <time>2020-08-20T09:01:32Z</time>
      </trkpt>
      <trkpt lat="44.05379" lon="5.97426">
        <ele>449</ele>
        <time>2020-08-20T09:01:37Z</time>
      </trkpt>
      <trkpt lat="44.05373" lon="5.97435">
        <ele>449</ele>
        <time>2020-08-20T09:01:40Z</time>
      </trkpt>
      <trkpt lat="44.05374" lon="5.97446">
        <ele>449</ele>
        <time>2020-08-20T09:01:43Z</time>
      </trkpt>
      <trkpt lat="44.05369" lon="5.97455">
        <ele>449</ele>
        <time>2020-08-20T09:01:46Z</time>
      </trkpt>
      <trkpt lat="44.05359" lon="5.97461">
        <ele>449</ele>
        <time>2020-08-20T09:01:48Z</time>
      </trkpt>
      <trkpt lat="44.05352" lon="5.97459">
        <ele>449</ele>
        <time>2020-08-20T09:01:50Z</time>
      </trkpt>
      <trkpt lat="44.05347" lon="5.97455">
        <ele>449</ele>
        <time>2020-08-20T09:01:52Z</time>
      </trkpt>
      <trkpt lat="44.0534" lon="5.97461">
        <ele>449</ele>
        <time>2020-08-20T09:01:55Z</time>
      </trkpt>
      <trkpt lat="44.05336" lon="5.97466">
        <ele>449</ele>
        <time>2020-08-20T09:01:57Z</time>
      </trkpt>
      <trkpt lat="44.05329" lon="5.97476">
        <ele>448</ele>
        <time>2020-08-20T09:02:00Z</time>
      </trkpt>
      <trkpt lat="44.05302" lon="5.97488">
        <ele>447</ele>
        <time>2020-08-20T09:02:08Z</time>
      </trkpt>
      <trkpt lat="44.05295" lon="5.9749">
        <ele>447</ele>
        <time>2020-08-20T09:02:10Z</time>
      </trkpt>
      <trkpt lat="44.05287" lon="5.97495">
        <ele>447</ele>
        <time>2020-08-20T09:02:13Z</time>
      </trkpt>
      <trkpt lat="44.05281" lon="5.975">
        <ele>447</ele>
        <time>2020-08-20T09:02:17Z</time>
      </trkpt>
      <trkpt lat="44.05275" lon="5.97511">
        <ele>446</ele>
        <time>2020-08-20T09:02:20Z</time>
      </trkpt>
      <trkpt lat="44.05257" lon="5.97525">
        <ele>447</ele>
        <time>2020-08-20T09:02:27Z</time>
      </trkpt>
      <trkpt lat="44.0525" lon="5.97536">
        <ele>447</ele>
        <time>2020-08-20T09:02:29Z</time>
      </trkpt>
      <trkpt lat="44.05243" lon="5.97544">
        <ele>447</ele>
        <time>2020-08-20T09:02:31Z</time>
      </trkpt>
      <trkpt lat="44.05233" lon="5.97551">
        <ele>446</ele>
        <time>2020-08-20T09:02:34Z</time>
      </trkpt>
      <trkpt lat="44.05224" lon="5.97554">
        <ele>446</ele>
        <time>2020-08-20T09:02:36Z</time>
      </trkpt>
      <trkpt lat="44.05215" lon="5.97553">
        <ele>446</ele>
        <time>2020-08-20T09:02:38Z</time>
      </trkpt>
      <trkpt lat="44.05199" lon="5.97572">
        <ele>446</ele>
        <time>2020-08-20T09:02:44Z</time>
      </trkpt>
      <trkpt lat="44.05194" lon="5.97579">
        <ele>447</ele>
        <time>2020-08-20T09:02:46Z</time>
      </trkpt>
      <trkpt lat="44.05193" lon="5.97587">
        <ele>447</ele>
        <time>2020-08-20T09:02:48Z</time>
      </trkpt>
      <trkpt lat="44.05193" lon="5.97595">
        <ele>447</ele>
        <time>2020-08-20T09:02:50Z</time>
      </trkpt>
      <trkpt lat="44.05201" lon="5.97615">
        <ele>447</ele>
        <time>2020-08-20T09:02:55Z</time>
      </trkpt>
      <trkpt lat="44.05204" lon="5.97625">
        <ele>447</ele>
        <time>2020-08-20T09:02:58Z</time>
      </trkpt>
      <trkpt lat="44.05198" lon="5.97655">
        <ele>447</ele>
        <time>2020-08-20T09:03:09Z</time>
      </trkpt>
      <trkpt lat="44.05192" lon="5.97686">
        <ele>448</ele>
        <time>2020-08-20T09:03:17Z</time>
      </trkpt>
      <trkpt lat="44.05183" lon="5.97697">
        <ele>447</ele>
        <time>2020-08-20T09:03:22Z</time>
      </trkpt>
      <trkpt lat="44.05176" lon="5.97701">
        <ele>447</ele>
        <time>2020-08-20T09:03:25Z</time>
      </trkpt>
      <trkpt lat="44.05168" lon="5.97704">
        <ele>447</ele>
        <time>2020-08-20T09:03:27Z</time>
      </trkpt>
      <trkpt lat="44.05162" lon="5.97709">
        <ele>447</ele>
        <time>2020-08-20T09:03:29Z</time>
      </trkpt>
      <trkpt lat="44.05158" lon="5.9772">
        <ele>448</ele>
        <time>2020-08-20T09:03:33Z</time>
      </trkpt>
      <trkpt lat="44.05165" lon="5.97726">
        <ele>448</ele>
        <time>2020-08-20T09:03:36Z</time>
      </trkpt>
      <trkpt lat="44.0517" lon="5.9773">
        <ele>447</ele>
        <time>2020-08-20T09:03:38Z</time>
      </trkpt>
      <trkpt lat="44.05176" lon="5.97736">
        <ele>447</ele>
        <time>2020-08-20T09:03:41Z</time>
      </trkpt>
      <trkpt lat="44.05178" lon="5.97744">
        <ele>447</ele>
        <time>2020-08-20T09:03:43Z</time>
      </trkpt>
      <trkpt lat="44.05153" lon="5.97774">
        <ele>448</ele>
        <time>2020-08-20T09:03:53Z</time>
      </trkpt>
      <trkpt lat="44.05145" lon="5.97781">
        <ele>447</ele>
        <time>2020-08-20T09:03:55Z</time>
      </trkpt>
      <trkpt lat="44.05137" lon="5.97786">
        <ele>447</ele>
        <time>2020-08-20T09:03:57Z</time>
      </trkpt>
      <trkpt lat="44.05129" lon="5.97787">
        <ele>446</ele>
        <time>2020-08-20T09:03:59Z</time>
      </trkpt>
      <trkpt lat="44.05123" lon="5.97793">
        <ele>446</ele>
        <time>2020-08-20T09:04:01Z</time>
      </trkpt>
      <trkpt lat="44.05107" lon="5.978">
        <ele>446</ele>
        <time>2020-08-20T09:04:05Z</time>
      </trkpt>
      <trkpt lat="44.05095" lon="5.97808">
        <ele>446</ele>
        <time>2020-08-20T09:04:09Z</time>
      </trkpt>
      <trkpt lat="44.05076" lon="5.9782">
        <ele>447</ele>
        <time>2020-08-20T09:04:14Z</time>
      </trkpt>
      <trkpt lat="44.05067" lon="5.97826">
        <ele>447</ele>
        <time>2020-08-20T09:04:16Z</time>
      </trkpt>
      <trkpt lat="44.05044" lon="5.97839">
        <ele>446</ele>
        <time>2020-08-20T09:04:21Z</time>
      </trkpt>
      <trkpt lat="44.05036" lon="5.97843">
        <ele>447</ele>
        <time>2020-08-20T09:04:23Z</time>
      </trkpt>
      <trkpt lat="44.0503" lon="5.97849">
        <ele>447</ele>
        <time>2020-08-20T09:04:25Z</time>
      </trkpt>
      <trkpt lat="44.05011" lon="5.97857">
        <ele>445</ele>
        <time>2020-08-20T09:04:29Z</time>
      </trkpt>
      <trkpt lat="44.05005" lon="5.97863">
        <ele>444</ele>
        <time>2020-08-20T09:04:31Z</time>
      </trkpt>
      <trkpt lat="44.0499" lon="5.97869">
        <ele>445</ele>
        <time>2020-08-20T09:04:35Z</time>
      </trkpt>
      <trkpt lat="44.04983" lon="5.97872">
        <ele>445</ele>
        <time>2020-08-20T09:04:37Z</time>
      </trkpt>
      <trkpt lat="44.04975" lon="5.97877">
        <ele>445</ele>
        <time>2020-08-20T09:04:39Z</time>
      </trkpt>
      <trkpt lat="44.04968" lon="5.97885">
        <ele>445</ele>
        <time>2020-08-20T09:04:41Z</time>
      </trkpt>
      <trkpt lat="44.04964" lon="5.97894">
        <ele>445</ele>
        <time>2020-08-20T09:04:43Z</time>
      </trkpt>
      <trkpt lat="44.04963" lon="5.97903">
        <ele>445</ele>
        <time>2020-08-20T09:04:45Z</time>
      </trkpt>
      <trkpt lat="44.04962" lon="5.97912">
        <ele>445</ele>
        <time>2020-08-20T09:04:47Z</time>
      </trkpt>
      <trkpt lat="44.04959" lon="5.97934">
        <ele>444</ele>
        <time>2020-08-20T09:04:51Z</time>
      </trkpt>
      <trkpt lat="44.0496" lon="5.97946">
        <ele>444</ele>
        <time>2020-08-20T09:04:53Z</time>
      </trkpt>
      <trkpt lat="44.04963" lon="5.97955">
        <ele>443</ele>
        <time>2020-08-20T09:04:55Z</time>
      </trkpt>
      <trkpt lat="44.04965" lon="5.97962">
        <ele>443</ele>
        <time>2020-08-20T09:04:57Z</time>
      </trkpt>
      <trkpt lat="44.04968" lon="5.97973">
        <ele>443</ele>
        <time>2020-08-20T09:04:59Z</time>
      </trkpt>
      <trkpt lat="44.04979" lon="5.9799">
        <ele>443</ele>
        <time>2020-08-20T09:05:03Z</time>
      </trkpt>
      <trkpt lat="44.04982" lon="5.97997">
        <ele>443</ele>
        <time>2020-08-20T09:05:05Z</time>
      </trkpt>
      <trkpt lat="44.04988" lon="5.98036">
        <ele>443</ele>
        <time>2020-08-20T09:05:12Z</time>
      </trkpt>
      <trkpt lat="44.04989" lon="5.98045">
        <ele>443</ele>
        <time>2020-08-20T09:05:14Z</time>
      </trkpt>
      <trkpt lat="44.0499" lon="5.98058">
        <ele>442</ele>
        <time>2020-08-20T09:05:18Z</time>
      </trkpt>
      <trkpt lat="44.05001" lon="5.98069">
        <ele>442</ele>
        <time>2020-08-20T09:05:25Z</time>
      </trkpt>
      <trkpt lat="44.05005" lon="5.9808">
        <ele>442</ele>
        <time>2020-08-20T09:05:28Z</time>
      </trkpt>
      <trkpt lat="44.05009" lon="5.98086">
        <ele>442</ele>
        <time>2020-08-20T09:05:31Z</time>
      </trkpt>
      <trkpt lat="44.05014" lon="5.98094">
        <ele>442</ele>
        <time>2020-08-20T09:05:35Z</time>
      </trkpt>
      <trkpt lat="44.05034" lon="5.98085">
        <ele>443</ele>
        <time>2020-08-20T09:05:46Z</time>
      </trkpt>
      <trkpt lat="44.05039" lon="5.98081">
        <ele>443</ele>
        <time>2020-08-20T09:05:48Z</time>
      </trkpt>
      <trkpt lat="44.05055" lon="5.98071">
        <ele>444</ele>
        <time>2020-08-20T09:05:55Z</time>
      </trkpt>
      <trkpt lat="44.0506" lon="5.98061">
        <ele>444</ele>
        <time>2020-08-20T09:05:58Z</time>
      </trkpt>
      <trkpt lat="44.05071" lon="5.98047">
        <ele>445</ele>
        <time>2020-08-20T09:06:04Z</time>
      </trkpt>
      <trkpt lat="44.05076" lon="5.98045">
        <ele>445</ele>
        <time>2020-08-20T09:06:06Z</time>
      </trkpt>
      <trkpt lat="44.05104" lon="5.98049">
        <ele>445</ele>
        <time>2020-08-20T09:06:15Z</time>
      </trkpt>
      <trkpt lat="44.05113" lon="5.98055">
        <ele>445</ele>
        <time>2020-08-20T09:06:18Z</time>
      </trkpt>
      <trkpt lat="44.05145" lon="5.98089">
        <ele>446</ele>
        <time>2020-08-20T09:06:28Z</time>
      </trkpt>
      <trkpt lat="44.05156" lon="5.98098">
        <ele>445</ele>
        <time>2020-08-20T09:06:32Z</time>
      </trkpt>
      <trkpt lat="44.05175" lon="5.98103">
        <ele>444</ele>
        <time>2020-08-20T09:06:38Z</time>
      </trkpt>
      <trkpt lat="44.05183" lon="5.98106">
        <ele>444</ele>
        <time>2020-08-20T09:06:40Z</time>
      </trkpt>
      <trkpt lat="44.05207" lon="5.98112">
        <ele>447</ele>
        <time>2020-08-20T09:06:46Z</time>
      </trkpt>
      <trkpt lat="44.05242" lon="5.98125">
        <ele>448</ele>
        <time>2020-08-20T09:06:57Z</time>
      </trkpt>
      <trkpt lat="44.05272" lon="5.98145">
        <ele>448</ele>
        <time>2020-08-20T09:07:06Z</time>
      </trkpt>
      <trkpt lat="44.053" lon="5.98157">
        <ele>448</ele>
        <time>2020-08-20T09:07:14Z</time>
      </trkpt>
      <trkpt lat="44.05316" lon="5.98179">
        <ele>448</ele>
        <time>2020-08-20T09:07:20Z</time>
      </trkpt>
      <trkpt lat="44.05374" lon="5.982">
        <ele>449</ele>
        <time>2020-08-20T09:07:36Z</time>
      </trkpt>
      <trkpt lat="44.05396" lon="5.98204">
        <ele>449</ele>
        <time>2020-08-20T09:07:44Z</time>
      </trkpt>
      <trkpt lat="44.05416" lon="5.982">
        <ele>450</ele>
        <time>2020-08-20T09:07:50Z</time>
      </trkpt>
      <trkpt lat="44.05423" lon="5.98199">
        <ele>450</ele>
        <time>2020-08-20T09:07:52Z</time>
      </trkpt>
      <trkpt lat="44.05439" lon="5.98212">
        <ele>450</ele>
        <time>2020-08-20T09:07:59Z</time>
      </trkpt>
      <trkpt lat="44.05445" lon="5.9822">
        <ele>450</ele>
        <time>2020-08-20T09:08:01Z</time>
      </trkpt>
      <trkpt lat="44.05456" lon="5.98251">
        <ele>449</ele>
        <time>2020-08-20T09:08:05Z</time>
      </trkpt>
      <trkpt lat="44.05463" lon="5.98267">
        <ele>448</ele>
        <time>2020-08-20T09:08:07Z</time>
      </trkpt>
      <trkpt lat="44.05479" lon="5.98274">
        <ele>447</ele>
        <time>2020-08-20T09:08:11Z</time>
      </trkpt>
      <trkpt lat="44.05487" lon="5.98273">
        <ele>445</ele>
        <time>2020-08-20T09:08:15Z</time>
      </trkpt>
      <trkpt lat="44.05487" lon="5.98265">
        <ele>430</ele>
        <time>2020-08-20T09:09:30Z</time>
      </trkpt>
      <trkpt lat="44.05486" lon="5.98265">
        <ele>448</ele>
        <time>2020-08-20T09:10:30Z</time>
      </trkpt>
      <trkpt lat="44.05492" lon="5.98273">
        <ele>447</ele>
        <time>2020-08-20T09:10:44Z</time>
      </trkpt>
      <trkpt lat="44.05493" lon="5.98276">
        <ele>449</ele>
        <time>2020-08-20T09:14:22Z</time>
      </trkpt>
      <trkpt lat="44.05498" lon="5.98277">
        <ele>454</ele>
        <time>2020-08-20T09:15:04Z</time>
      </trkpt>
      <trkpt lat="44.05503" lon="5.98278">
        <ele>453</ele>
        <time>2020-08-20T09:15:07Z</time>
      </trkpt>
      <trkpt lat="44.05509" lon="5.98278">
        <ele>453</ele>
        <time>2020-08-20T09:15:10Z</time>
      </trkpt>
      <trkpt lat="44.05513" lon="5.98279">
        <ele>453</ele>
        <time>2020-08-20T09:15:12Z</time>
      </trkpt>
      <trkpt lat="44.05524" lon="5.98283">
        <ele>453</ele>
        <time>2020-08-20T09:15:16Z</time>
      </trkpt>
      <trkpt lat="44.05529" lon="5.98284">
        <ele>453</ele>
        <time>2020-08-20T09:15:18Z</time>
      </trkpt>
      <trkpt lat="44.05538" lon="5.98296">
        <ele>453</ele>
        <time>2020-08-20T09:15:24Z</time>
      </trkpt>
      <trkpt lat="44.0555" lon="5.98305">
        <ele>453</ele>
        <time>2020-08-20T09:15:29Z</time>
      </trkpt>
      <trkpt lat="44.05576" lon="5.98332">
        <ele>452</ele>
        <time>2020-08-20T09:15:39Z</time>
      </trkpt>
      <trkpt lat="44.05582" lon="5.9834">
        <ele>452</ele>
        <time>2020-08-20T09:15:41Z</time>
      </trkpt>
      <trkpt lat="44.05585" lon="5.98347">
        <ele>450</ele>
        <time>2020-08-20T09:15:44Z</time>
      </trkpt>
      <trkpt lat="44.05593" lon="5.98358">
        <ele>449</ele>
        <time>2020-08-20T09:15:47Z</time>
      </trkpt>
      <trkpt lat="44.05615" lon="5.98406">
        <ele>447</ele>
        <time>2020-08-20T09:15:53Z</time>
      </trkpt>
      <trkpt lat="44.0563" lon="5.98439">
        <ele>442</ele>
        <time>2020-08-20T09:15:59Z</time>
      </trkpt>
      <trkpt lat="44.05623" lon="5.98449">
        <ele>438</ele>
        <time>2020-08-20T09:16:05Z</time>
      </trkpt>
      <trkpt lat="44.05599" lon="5.98447">
        <ele>438</ele>
        <time>2020-08-20T09:16:12Z</time>
      </trkpt>
      <trkpt lat="44.05589" lon="5.98443">
        <ele>437</ele>
        <time>2020-08-20T09:16:15Z</time>
      </trkpt>
      <trkpt lat="44.05557" lon="5.98437">
        <ele>435</ele>
        <time>2020-08-20T09:16:22Z</time>
      </trkpt>
      <trkpt lat="44.05549" lon="5.98428">
        <ele>435</ele>
        <time>2020-08-20T09:16:26Z</time>
      </trkpt>
      <trkpt lat="44.05543" lon="5.98415">
        <ele>436</ele>
        <time>2020-08-20T09:16:30Z</time>
      </trkpt>
      <trkpt lat="44.05538" lon="5.9841">
        <ele>437</ele>
        <time>2020-08-20T09:16:33Z</time>
      </trkpt>
      <trkpt lat="44.05527" lon="5.98403">
        <ele>438</ele>
        <time>2020-08-20T09:16:39Z</time>
      </trkpt>
      <trkpt lat="44.0552" lon="5.984">
        <ele>438</ele>
        <time>2020-08-20T09:16:43Z</time>
      </trkpt>
      <trkpt lat="44.05514" lon="5.98399">
        <ele>438</ele>
        <time>2020-08-20T09:16:45Z</time>
      </trkpt>
      <trkpt lat="44.05485" lon="5.98406">
        <ele>437</ele>
        <time>2020-08-20T09:16:52Z</time>
      </trkpt>
      <trkpt lat="44.05465" lon="5.98411">
        <ele>437</ele>
        <time>2020-08-20T09:16:55Z</time>
      </trkpt>
      <trkpt lat="44.05446" lon="5.98421">
        <ele>435</ele>
        <time>2020-08-20T09:16:58Z</time>
      </trkpt>
      <trkpt lat="44.0544" lon="5.98428">
        <ele>434</ele>
        <time>2020-08-20T09:17:00Z</time>
      </trkpt>
      <trkpt lat="44.05398" lon="5.98452">
        <ele>429</ele>
        <time>2020-08-20T09:17:07Z</time>
      </trkpt>
      <trkpt lat="44.0538" lon="5.98449">
        <ele>427</ele>
        <time>2020-08-20T09:17:10Z</time>
      </trkpt>
      <trkpt lat="44.05369" lon="5.98446">
        <ele>425</ele>
        <time>2020-08-20T09:17:12Z</time>
      </trkpt>
      <trkpt lat="44.05348" lon="5.98438">
        <ele>425</ele>
        <time>2020-08-20T09:17:16Z</time>
      </trkpt>
      <trkpt lat="44.05325" lon="5.98425">
        <ele>424</ele>
        <time>2020-08-20T09:17:21Z</time>
      </trkpt>
      <trkpt lat="44.05318" lon="5.98418">
        <ele>424</ele>
        <time>2020-08-20T09:17:23Z</time>
      </trkpt>
      <trkpt lat="44.05312" lon="5.98415">
        <ele>423</ele>
        <time>2020-08-20T09:17:26Z</time>
      </trkpt>
      <trkpt lat="44.05309" lon="5.98425">
        <ele>422</ele>
        <time>2020-08-20T09:17:29Z</time>
      </trkpt>
      <trkpt lat="44.05306" lon="5.98431">
        <ele>422</ele>
        <time>2020-08-20T09:17:30Z</time>
      </trkpt>
      <trkpt lat="44.05296" lon="5.98436">
        <ele>421</ele>
        <time>2020-08-20T09:17:32Z</time>
      </trkpt>
      <trkpt lat="44.05287" lon="5.98429">
        <ele>420</ele>
        <time>2020-08-20T09:17:34Z</time>
      </trkpt>
      <trkpt lat="44.05278" lon="5.98423">
        <ele>419</ele>
        <time>2020-08-20T09:17:37Z</time>
      </trkpt>
      <trkpt lat="44.05271" lon="5.98417">
        <ele>418</ele>
        <time>2020-08-20T09:17:39Z</time>
      </trkpt>
      <trkpt lat="44.05244" lon="5.98396">
        <ele>417</ele>
        <time>2020-08-20T09:17:49Z</time>
      </trkpt>
      <trkpt lat="44.05182" lon="5.98376">
        <ele>415</ele>
        <time>2020-08-20T09:18:03Z</time>
      </trkpt>
      <trkpt lat="44.05175" lon="5.98371">
        <ele>415</ele>
        <time>2020-08-20T09:18:05Z</time>
      </trkpt>
      <trkpt lat="44.05175" lon="5.98357">
        <ele>415</ele>
        <time>2020-08-20T09:18:10Z</time>
      </trkpt>
      <trkpt lat="44.0518" lon="5.98352">
        <ele>414</ele>
        <time>2020-08-20T09:18:15Z</time>
      </trkpt>
      <trkpt lat="44.05182" lon="5.98362">
        <ele>415</ele>
        <time>2020-08-20T09:18:19Z</time>
      </trkpt>
      <trkpt lat="44.05182" lon="5.9837">
        <ele>414</ele>
        <time>2020-08-20T09:18:22Z</time>
      </trkpt>
      <trkpt lat="44.05167" lon="5.98374">
        <ele>415</ele>
        <time>2020-08-20T09:18:33Z</time>
      </trkpt>
      <trkpt lat="44.05159" lon="5.98375">
        <ele>415</ele>
        <time>2020-08-20T09:18:36Z</time>
      </trkpt>
      <trkpt lat="44.05132" lon="5.98367">
        <ele>414</ele>
        <time>2020-08-20T09:18:46Z</time>
      </trkpt>
      <trkpt lat="44.05124" lon="5.9837">
        <ele>414</ele>
        <time>2020-08-20T09:18:49Z</time>
      </trkpt>
      <trkpt lat="44.05106" lon="5.9838">
        <ele>416</ele>
        <time>2020-08-20T09:18:57Z</time>
      </trkpt>
      <trkpt lat="44.05099" lon="5.98388">
        <ele>416</ele>
        <time>2020-08-20T09:19:01Z</time>
      </trkpt>
      <trkpt lat="44.05095" lon="5.98394">
        <ele>415</ele>
        <time>2020-08-20T09:19:04Z</time>
      </trkpt>
      <trkpt lat="44.05091" lon="5.98399">
        <ele>415</ele>
        <time>2020-08-20T09:19:08Z</time>
      </trkpt>
      <trkpt lat="44.05089" lon="5.98424">
        <ele>418</ele>
        <time>2020-08-20T09:19:21Z</time>
      </trkpt>
      <trkpt lat="44.0509" lon="5.9844">
        <ele>419</ele>
        <time>2020-08-20T09:19:27Z</time>
      </trkpt>
      <trkpt lat="44.05092" lon="5.98448">
        <ele>420</ele>
        <time>2020-08-20T09:19:31Z</time>
      </trkpt>
      <trkpt lat="44.05097" lon="5.98459">
        <ele>422</ele>
        <time>2020-08-20T09:19:39Z</time>
      </trkpt>
      <trkpt lat="44.05102" lon="5.98465">
        <ele>422</ele>
        <time>2020-08-20T09:19:44Z</time>
      </trkpt>
      <trkpt lat="44.05105" lon="5.98472">
        <ele>423</ele>
        <time>2020-08-20T09:19:48Z</time>
      </trkpt>
      <trkpt lat="44.05114" lon="5.98492">
        <ele>423</ele>
        <time>2020-08-20T09:19:55Z</time>
      </trkpt>
      <trkpt lat="44.05117" lon="5.98503">
        <ele>424</ele>
        <time>2020-08-20T09:19:59Z</time>
      </trkpt>
      <trkpt lat="44.05126" lon="5.98523">
        <ele>424</ele>
        <time>2020-08-20T09:20:05Z</time>
      </trkpt>
      <trkpt lat="44.05129" lon="5.98534">
        <ele>425</ele>
        <time>2020-08-20T09:20:08Z</time>
      </trkpt>
      <trkpt lat="44.05135" lon="5.98545">
        <ele>424</ele>
        <time>2020-08-20T09:20:11Z</time>
      </trkpt>
      <trkpt lat="44.05144" lon="5.98572">
        <ele>426</ele>
        <time>2020-08-20T09:20:20Z</time>
      </trkpt>
      <trkpt lat="44.05147" lon="5.98583">
        <ele>425</ele>
        <time>2020-08-20T09:20:23Z</time>
      </trkpt>
      <trkpt lat="44.05154" lon="5.986">
        <ele>425</ele>
        <time>2020-08-20T09:20:27Z</time>
      </trkpt>
      <trkpt lat="44.05159" lon="5.98615">
        <ele>424</ele>
        <time>2020-08-20T09:20:30Z</time>
      </trkpt>
      <trkpt lat="44.05208" lon="5.98726">
        <ele>425</ele>
        <time>2020-08-20T09:20:51Z</time>
      </trkpt>
      <trkpt lat="44.05268" lon="5.98834">
        <ele>426</ele>
        <time>2020-08-20T09:21:18Z</time>
      </trkpt>
      <trkpt lat="44.05293" lon="5.98888">
        <ele>426</ele>
        <time>2020-08-20T09:21:31Z</time>
      </trkpt>
      <trkpt lat="44.053" lon="5.98919">
        <ele>425</ele>
        <time>2020-08-20T09:21:40Z</time>
      </trkpt>
      <trkpt lat="44.05302" lon="5.98933">
        <ele>427</ele>
        <time>2020-08-20T09:21:43Z</time>
      </trkpt>
      <trkpt lat="44.05304" lon="5.98946">
        <ele>427</ele>
        <time>2020-08-20T09:21:46Z</time>
      </trkpt>
      <trkpt lat="44.05325" lon="5.98992">
        <ele>428</ele>
        <time>2020-08-20T09:21:59Z</time>
      </trkpt>
      <trkpt lat="44.05337" lon="5.99004">
        <ele>429</ele>
        <time>2020-08-20T09:22:07Z</time>
      </trkpt>
      <trkpt lat="44.05345" lon="5.99022">
        <ele>428</ele>
        <time>2020-08-20T09:22:14Z</time>
      </trkpt>
      <trkpt lat="44.05349" lon="5.9903">
        <ele>428</ele>
        <time>2020-08-20T09:22:21Z</time>
      </trkpt>
      <trkpt lat="44.05354" lon="5.99034">
        <ele>431</ele>
        <time>2020-08-20T09:22:40Z</time>
      </trkpt>
      <trkpt lat="44.05356" lon="5.99042">
        <ele>431</ele>
        <time>2020-08-20T09:22:43Z</time>
      </trkpt>
      <trkpt lat="44.0536" lon="5.99048">
        <ele>431</ele>
        <time>2020-08-20T09:22:46Z</time>
      </trkpt>
      <trkpt lat="44.05396" lon="5.99079">
        <ele>436</ele>
        <time>2020-08-20T09:23:09Z</time>
      </trkpt>
      <trkpt lat="44.05398" lon="5.99086">
        <ele>437</ele>
        <time>2020-08-20T09:23:13Z</time>
      </trkpt>
      <trkpt lat="44.05402" lon="5.99091">
        <ele>437</ele>
        <time>2020-08-20T09:23:16Z</time>
      </trkpt>
      <trkpt lat="44.05408" lon="5.99094">
        <ele>439</ele>
        <time>2020-08-20T09:23:22Z</time>
      </trkpt>
      <trkpt lat="44.05413" lon="5.991">
        <ele>439</ele>
        <time>2020-08-20T09:23:26Z</time>
      </trkpt>
      <trkpt lat="44.05417" lon="5.99106">
        <ele>440</ele>
        <time>2020-08-20T09:23:29Z</time>
      </trkpt>
      <trkpt lat="44.05438" lon="5.99126">
        <ele>443</ele>
        <time>2020-08-20T09:23:46Z</time>
      </trkpt>
      <trkpt lat="44.05444" lon="5.99142">
        <ele>443</ele>
        <time>2020-08-20T09:23:52Z</time>
      </trkpt>
      <trkpt lat="44.05448" lon="5.99154">
        <ele>443</ele>
        <time>2020-08-20T09:23:56Z</time>
      </trkpt>
      <trkpt lat="44.05447" lon="5.99164">
        <ele>444</ele>
        <time>2020-08-20T09:24:01Z</time>
      </trkpt>
      <trkpt lat="44.05448" lon="5.99173">
        <ele>444</ele>
        <time>2020-08-20T09:24:04Z</time>
      </trkpt>
      <trkpt lat="44.05445" lon="5.99182">
        <ele>444</ele>
        <time>2020-08-20T09:24:07Z</time>
      </trkpt>
      <trkpt lat="44.05449" lon="5.99208">
        <ele>446</ele>
        <time>2020-08-20T09:24:17Z</time>
      </trkpt>
      <trkpt lat="44.0545" lon="5.99216">
        <ele>446</ele>
        <time>2020-08-20T09:24:20Z</time>
      </trkpt>
      <trkpt lat="44.05452" lon="5.99234">
        <ele>448</ele>
        <time>2020-08-20T09:24:26Z</time>
      </trkpt>
      <trkpt lat="44.05461" lon="5.99276">
        <ele>449</ele>
        <time>2020-08-20T09:24:38Z</time>
      </trkpt>
      <trkpt lat="44.05465" lon="5.9929">
        <ele>449</ele>
        <time>2020-08-20T09:24:42Z</time>
      </trkpt>
      <trkpt lat="44.0547" lon="5.99319">
        <ele>450</ele>
        <time>2020-08-20T09:24:51Z</time>
      </trkpt>
      <trkpt lat="44.05471" lon="5.99328">
        <ele>450</ele>
        <time>2020-08-20T09:24:55Z</time>
      </trkpt>
      <trkpt lat="44.05473" lon="5.99339">
        <ele>450</ele>
        <time>2020-08-20T09:24:59Z</time>
      </trkpt>
      <trkpt lat="44.05474" lon="5.99347">
        <ele>450</ele>
        <time>2020-08-20T09:25:02Z</time>
      </trkpt>
      <trkpt lat="44.05475" lon="5.99354">
        <ele>451</ele>
        <time>2020-08-20T09:25:04Z</time>
      </trkpt>
      <trkpt lat="44.05479" lon="5.99363">
        <ele>452</ele>
        <time>2020-08-20T09:25:07Z</time>
      </trkpt>
      <trkpt lat="44.05486" lon="5.9938">
        <ele>452</ele>
        <time>2020-08-20T09:25:12Z</time>
      </trkpt>
      <trkpt lat="44.0549" lon="5.99389">
        <ele>452</ele>
        <time>2020-08-20T09:25:15Z</time>
      </trkpt>
      <trkpt lat="44.05496" lon="5.99392">
        <ele>453</ele>
        <time>2020-08-20T09:25:18Z</time>
      </trkpt>
      <trkpt lat="44.05503" lon="5.99391">
        <ele>453</ele>
        <time>2020-08-20T09:25:21Z</time>
      </trkpt>
      <trkpt lat="44.0551" lon="5.99395">
        <ele>453</ele>
        <time>2020-08-20T09:25:24Z</time>
      </trkpt>
      <trkpt lat="44.05521" lon="5.99409">
        <ele>454</ele>
        <time>2020-08-20T09:25:28Z</time>
      </trkpt>
      <trkpt lat="44.05528" lon="5.99414">
        <ele>454</ele>
        <time>2020-08-20T09:25:30Z</time>
      </trkpt>
      <trkpt lat="44.05546" lon="5.99427">
        <ele>452</ele>
        <time>2020-08-20T09:25:36Z</time>
      </trkpt>
      <trkpt lat="44.05564" lon="5.99442">
        <ele>454</ele>
        <time>2020-08-20T09:25:42Z</time>
      </trkpt>
      <trkpt lat="44.05574" lon="5.99455">
        <ele>453</ele>
        <time>2020-08-20T09:25:46Z</time>
      </trkpt>
      <trkpt lat="44.05579" lon="5.99461">
        <ele>453</ele>
        <time>2020-08-20T09:25:48Z</time>
      </trkpt>
      <trkpt lat="44.05584" lon="5.99468">
        <ele>454</ele>
        <time>2020-08-20T09:25:50Z</time>
      </trkpt>
      <trkpt lat="44.05596" lon="5.99476">
        <ele>454</ele>
        <time>2020-08-20T09:25:54Z</time>
      </trkpt>
      <trkpt lat="44.05603" lon="5.9948">
        <ele>454</ele>
        <time>2020-08-20T09:25:56Z</time>
      </trkpt>
      <trkpt lat="44.05609" lon="5.99482">
        <ele>454</ele>
        <time>2020-08-20T09:25:58Z</time>
      </trkpt>
      <trkpt lat="44.05615" lon="5.99483">
        <ele>453</ele>
        <time>2020-08-20T09:26:00Z</time>
      </trkpt>
      <trkpt lat="44.05627" lon="5.99487">
        <ele>453</ele>
        <time>2020-08-20T09:26:04Z</time>
      </trkpt>
      <trkpt lat="44.05642" lon="5.99492">
        <ele>453</ele>
        <time>2020-08-20T09:26:08Z</time>
      </trkpt>
      <trkpt lat="44.0565" lon="5.99493">
        <ele>453</ele>
        <time>2020-08-20T09:26:10Z</time>
      </trkpt>
      <trkpt lat="44.05657" lon="5.99493">
        <ele>453</ele>
        <time>2020-08-20T09:26:12Z</time>
      </trkpt>
      <trkpt lat="44.05662" lon="5.99492">
        <ele>453</ele>
        <time>2020-08-20T09:26:14Z</time>
      </trkpt>
      <trkpt lat="44.05669" lon="5.99491">
        <ele>453</ele>
        <time>2020-08-20T09:26:16Z</time>
      </trkpt>
      <trkpt lat="44.05696" lon="5.99498">
        <ele>455</ele>
        <time>2020-08-20T09:26:22Z</time>
      </trkpt>
      <trkpt lat="44.05732" lon="5.99501">
        <ele>454</ele>
        <time>2020-08-20T09:26:30Z</time>
      </trkpt>
      <trkpt lat="44.05738" lon="5.99504">
        <ele>453</ele>
        <time>2020-08-20T09:26:31Z</time>
      </trkpt>
      <trkpt lat="44.05775" lon="5.99518">
        <ele>456</ele>
        <time>2020-08-20T09:26:41Z</time>
      </trkpt>
      <trkpt lat="44.05827" lon="5.99525">
        <ele>456</ele>
        <time>2020-08-20T09:26:53Z</time>
      </trkpt>
      <trkpt lat="44.05949" lon="5.99562">
        <ele>457</ele>
        <time>2020-08-20T09:27:25Z</time>
      </trkpt>
      <trkpt lat="44.06004" lon="5.99582">
        <ele>457</ele>
        <time>2020-08-20T09:27:39Z</time>
      </trkpt>
      <trkpt lat="44.06011" lon="5.99582">
        <ele>457</ele>
        <time>2020-08-20T09:27:41Z</time>
      </trkpt>
      <trkpt lat="44.06017" lon="5.99578">
        <ele>457</ele>
        <time>2020-08-20T09:27:42Z</time>
      </trkpt>
      <trkpt lat="44.06032" lon="5.99577">
        <ele>457</ele>
        <time>2020-08-20T09:27:45Z</time>
      </trkpt>
      <trkpt lat="44.06081" lon="5.99582">
        <ele>457</ele>
        <time>2020-08-20T09:27:56Z</time>
      </trkpt>
      <trkpt lat="44.06088" lon="5.99584">
        <ele>457</ele>
        <time>2020-08-20T09:27:58Z</time>
      </trkpt>
      <trkpt lat="44.06095" lon="5.99583">
        <ele>457</ele>
        <time>2020-08-20T09:28:02Z</time>
      </trkpt>
      <trkpt lat="44.06165" lon="5.99583">
        <ele>457</ele>
        <time>2020-08-20T09:28:21Z</time>
      </trkpt>
      <trkpt lat="44.0617" lon="5.99582">
        <ele>457</ele>
        <time>2020-08-20T09:28:22Z</time>
      </trkpt>
      <trkpt lat="44.06181" lon="5.99557">
        <ele>456</ele>
        <time>2020-08-20T09:28:24Z</time>
      </trkpt>
      <trkpt lat="44.06194" lon="5.99555">
        <ele>455</ele>
        <time>2020-08-20T09:28:27Z</time>
      </trkpt>
      <trkpt lat="44.0623" lon="5.99549">
        <ele>456</ele>
        <time>2020-08-20T09:28:34Z</time>
      </trkpt>
      <trkpt lat="44.06247" lon="5.99545">
        <ele>455</ele>
        <time>2020-08-20T09:28:38Z</time>
      </trkpt>
      <trkpt lat="44.06301" lon="5.99534">
        <ele>456</ele>
        <time>2020-08-20T09:28:49Z</time>
      </trkpt>
      <trkpt lat="44.06322" lon="5.99546">
        <ele>457</ele>
        <time>2020-08-20T09:28:54Z</time>
      </trkpt>
      <trkpt lat="44.06424" lon="5.99542">
        <ele>457</ele>
        <time>2020-08-20T09:29:15Z</time>
      </trkpt>
      <trkpt lat="44.06527" lon="5.99555">
        <ele>458</ele>
        <time>2020-08-20T09:29:41Z</time>
      </trkpt>
      <trkpt lat="44.06537" lon="5.99556">
        <ele>458</ele>
        <time>2020-08-20T09:29:44Z</time>
      </trkpt>
      <trkpt lat="44.06568" lon="5.99548">
        <ele>459</ele>
        <time>2020-08-20T09:29:52Z</time>
      </trkpt>
      <trkpt lat="44.06581" lon="5.9955">
        <ele>458</ele>
        <time>2020-08-20T09:29:56Z</time>
      </trkpt>
      <trkpt lat="44.06586" lon="5.99549">
        <ele>459</ele>
        <time>2020-08-20T09:29:59Z</time>
      </trkpt>
      <trkpt lat="44.0658" lon="5.99542">
        <ele>459</ele>
        <time>2020-08-20T09:30:06Z</time>
      </trkpt>
      <trkpt lat="44.06576" lon="5.99537">
        <ele>460</ele>
        <time>2020-08-20T09:30:09Z</time>
      </trkpt>
      <trkpt lat="44.06572" lon="5.99527">
        <ele>460</ele>
        <time>2020-08-20T09:30:12Z</time>
      </trkpt>
      <trkpt lat="44.06569" lon="5.99515">
        <ele>460</ele>
        <time>2020-08-20T09:30:15Z</time>
      </trkpt>
      <trkpt lat="44.06565" lon="5.99509">
        <ele>460</ele>
        <time>2020-08-20T09:30:17Z</time>
      </trkpt>
      <trkpt lat="44.06558" lon="5.99493">
        <ele>460</ele>
        <time>2020-08-20T09:30:22Z</time>
      </trkpt>
      <trkpt lat="44.06555" lon="5.99482">
        <ele>461</ele>
        <time>2020-08-20T09:30:24Z</time>
      </trkpt>
      <trkpt lat="44.06556" lon="5.99469">
        <ele>461</ele>
        <time>2020-08-20T09:30:26Z</time>
      </trkpt>
      <trkpt lat="44.06561" lon="5.99458">
        <ele>460</ele>
        <time>2020-08-20T09:30:28Z</time>
      </trkpt>
      <trkpt lat="44.06567" lon="5.99451">
        <ele>460</ele>
        <time>2020-08-20T09:30:30Z</time>
      </trkpt>
      <trkpt lat="44.06573" lon="5.99444">
        <ele>461</ele>
        <time>2020-08-20T09:30:32Z</time>
      </trkpt>
      <trkpt lat="44.06579" lon="5.99425">
        <ele>461</ele>
        <time>2020-08-20T09:30:36Z</time>
      </trkpt>
      <trkpt lat="44.06579" lon="5.99413">
        <ele>461</ele>
        <time>2020-08-20T09:30:38Z</time>
      </trkpt>
      <trkpt lat="44.06581" lon="5.99402">
        <ele>460</ele>
        <time>2020-08-20T09:30:40Z</time>
      </trkpt>
      <trkpt lat="44.06584" lon="5.99391">
        <ele>458</ele>
        <time>2020-08-20T09:30:42Z</time>
      </trkpt>
      <trkpt lat="44.06588" lon="5.99383">
        <ele>458</ele>
        <time>2020-08-20T09:30:44Z</time>
      </trkpt>
      <trkpt lat="44.06591" lon="5.99375">
        <ele>459</ele>
        <time>2020-08-20T09:30:46Z</time>
      </trkpt>
      <trkpt lat="44.06602" lon="5.99343">
        <ele>460</ele>
        <time>2020-08-20T09:30:52Z</time>
      </trkpt>
      <trkpt lat="44.06629" lon="5.99247">
        <ele>460</ele>
        <time>2020-08-20T09:31:10Z</time>
      </trkpt>
      <trkpt lat="44.0663" lon="5.99238">
        <ele>461</ele>
        <time>2020-08-20T09:31:12Z</time>
      </trkpt>
      <trkpt lat="44.0663" lon="5.9923">
        <ele>461</ele>
        <time>2020-08-20T09:31:15Z</time>
      </trkpt>
      <trkpt lat="44.06627" lon="5.99223">
        <ele>461</ele>
        <time>2020-08-20T09:31:17Z</time>
      </trkpt>
      <trkpt lat="44.0662" lon="5.99213">
        <ele>461</ele>
        <time>2020-08-20T09:31:20Z</time>
      </trkpt>
      <trkpt lat="44.06613" lon="5.99209">
        <ele>461</ele>
        <time>2020-08-20T09:31:22Z</time>
      </trkpt>
      <trkpt lat="44.06605" lon="5.99207">
        <ele>461</ele>
        <time>2020-08-20T09:31:24Z</time>
      </trkpt>
      <trkpt lat="44.06593" lon="5.99198">
        <ele>460</ele>
        <time>2020-08-20T09:31:28Z</time>
      </trkpt>
      <trkpt lat="44.06579" lon="5.99187">
        <ele>461</ele>
        <time>2020-08-20T09:31:33Z</time>
      </trkpt>
      <trkpt lat="44.06563" lon="5.99181">
        <ele>461</ele>
        <time>2020-08-20T09:31:38Z</time>
      </trkpt>
      <trkpt lat="44.06553" lon="5.99178">
        <ele>461</ele>
        <time>2020-08-20T09:31:40Z</time>
      </trkpt>
      <trkpt lat="44.06546" lon="5.9917">
        <ele>461</ele>
        <time>2020-08-20T09:31:42Z</time>
      </trkpt>
      <trkpt lat="44.06544" lon="5.99162">
        <ele>461</ele>
        <time>2020-08-20T09:31:44Z</time>
      </trkpt>
      <trkpt lat="44.06542" lon="5.99154">
        <ele>461</ele>
        <time>2020-08-20T09:31:46Z</time>
      </trkpt>
      <trkpt lat="44.06542" lon="5.99144">
        <ele>462</ele>
        <time>2020-08-20T09:31:48Z</time>
      </trkpt>
      <trkpt lat="44.06543" lon="5.99133">
        <ele>462</ele>
        <time>2020-08-20T09:31:50Z</time>
      </trkpt>
      <trkpt lat="44.06542" lon="5.99015">
        <ele>461</ele>
        <time>2020-08-20T09:32:12Z</time>
      </trkpt>
      <trkpt lat="44.06544" lon="5.99002">
        <ele>461</ele>
        <time>2020-08-20T09:32:14Z</time>
      </trkpt>
      <trkpt lat="44.0655" lon="5.98991">
        <ele>461</ele>
        <time>2020-08-20T09:32:16Z</time>
      </trkpt>
      <trkpt lat="44.0657" lon="5.98953">
        <ele>460</ele>
        <time>2020-08-20T09:32:24Z</time>
      </trkpt>
      <trkpt lat="44.06588" lon="5.98925">
        <ele>460</ele>
        <time>2020-08-20T09:32:30Z</time>
      </trkpt>
      <trkpt lat="44.06606" lon="5.98894">
        <ele>459</ele>
        <time>2020-08-20T09:32:36Z</time>
      </trkpt>
      <trkpt lat="44.06662" lon="5.98821">
        <ele>460</ele>
        <time>2020-08-20T09:32:54Z</time>
      </trkpt>
      <trkpt lat="44.06669" lon="5.98812">
        <ele>461</ele>
        <time>2020-08-20T09:32:56Z</time>
      </trkpt>
      <trkpt lat="44.06674" lon="5.98804">
        <ele>461</ele>
        <time>2020-08-20T09:32:58Z</time>
      </trkpt>
      <trkpt lat="44.06769" lon="5.98663">
        <ele>459</ele>
        <time>2020-08-20T09:33:29Z</time>
      </trkpt>
      <trkpt lat="44.06778" lon="5.98649">
        <ele>459</ele>
        <time>2020-08-20T09:33:33Z</time>
      </trkpt>
      <trkpt lat="44.06841" lon="5.98558">
        <ele>464</ele>
        <time>2020-08-20T09:34:03Z</time>
      </trkpt>
      <trkpt lat="44.06878" lon="5.98509">
        <ele>467</ele>
        <time>2020-08-20T09:34:21Z</time>
      </trkpt>
      <trkpt lat="44.06882" lon="5.98504">
        <ele>467</ele>
        <time>2020-08-20T09:34:23Z</time>
      </trkpt>
      <trkpt lat="44.06888" lon="5.98502">
        <ele>467</ele>
        <time>2020-08-20T09:34:26Z</time>
      </trkpt>
      <trkpt lat="44.06894" lon="5.98502">
        <ele>467</ele>
        <time>2020-08-20T09:34:29Z</time>
      </trkpt>
      <trkpt lat="44.06902" lon="5.98503">
        <ele>467</ele>
        <time>2020-08-20T09:34:32Z</time>
      </trkpt>
      <trkpt lat="44.0691" lon="5.98498">
        <ele>468</ele>
        <time>2020-08-20T09:34:34Z</time>
      </trkpt>
      <trkpt lat="44.06917" lon="5.98495">
        <ele>469</ele>
        <time>2020-08-20T09:34:36Z</time>
      </trkpt>
      <trkpt lat="44.06938" lon="5.98504">
        <ele>470</ele>
        <time>2020-08-20T09:34:45Z</time>
      </trkpt>
      <trkpt lat="44.06943" lon="5.98507">
        <ele>471</ele>
        <time>2020-08-20T09:34:48Z</time>
      </trkpt>
      <trkpt lat="44.06949" lon="5.9851">
        <ele>471</ele>
        <time>2020-08-20T09:34:54Z</time>
      </trkpt>
      <trkpt lat="44.06956" lon="5.98509">
        <ele>471</ele>
        <time>2020-08-20T09:34:59Z</time>
      </trkpt>
      <trkpt lat="44.07003" lon="5.98453">
        <ele>475</ele>
        <time>2020-08-20T09:35:30Z</time>
      </trkpt>
      <trkpt lat="44.07017" lon="5.98417">
        <ele>477</ele>
        <time>2020-08-20T09:35:45Z</time>
      </trkpt>
      <trkpt lat="44.07025" lon="5.98404">
        <ele>479</ele>
        <time>2020-08-20T09:35:52Z</time>
      </trkpt>
      <trkpt lat="44.07028" lon="5.98401">
        <ele>479</ele>
        <time>2020-08-20T09:35:54Z</time>
      </trkpt>
      <trkpt lat="44.07057" lon="5.98403">
        <ele>482</ele>
        <time>2020-08-20T09:36:10Z</time>
      </trkpt>
      <trkpt lat="44.07089" lon="5.98412">
        <ele>486</ele>
        <time>2020-08-20T09:36:29Z</time>
      </trkpt>
      <trkpt lat="44.07095" lon="5.98413">
        <ele>486</ele>
        <time>2020-08-20T09:36:34Z</time>
      </trkpt>
      <trkpt lat="44.07097" lon="5.98416">
        <ele>490</ele>
        <time>2020-08-20T09:37:29Z</time>
      </trkpt>
      <trkpt lat="44.07094" lon="5.98421">
        <ele>490</ele>
        <time>2020-08-20T09:38:40Z</time>
      </trkpt>
      <trkpt lat="44.07105" lon="5.98422">
        <ele>490</ele>
        <time>2020-08-20T09:40:32Z</time>
      </trkpt>
      <trkpt lat="44.0711" lon="5.98427">
        <ele>489</ele>
        <time>2020-08-20T09:40:37Z</time>
      </trkpt>
      <trkpt lat="44.07117" lon="5.98423">
        <ele>491</ele>
        <time>2020-08-20T09:40:45Z</time>
      </trkpt>
      <trkpt lat="44.07121" lon="5.98415">
        <ele>490</ele>
        <time>2020-08-20T09:40:51Z</time>
      </trkpt>
      <trkpt lat="44.07126" lon="5.9841">
        <ele>491</ele>
        <time>2020-08-20T09:40:54Z</time>
      </trkpt>
      <trkpt lat="44.07137" lon="5.98407">
        <ele>493</ele>
        <time>2020-08-20T09:41:04Z</time>
      </trkpt>
      <trkpt lat="44.07146" lon="5.98412">
        <ele>495</ele>
        <time>2020-08-20T09:41:15Z</time>
      </trkpt>
      <trkpt lat="44.07151" lon="5.98418">
        <ele>496</ele>
        <time>2020-08-20T09:41:20Z</time>
      </trkpt>
      <trkpt lat="44.07157" lon="5.98421">
        <ele>496</ele>
        <time>2020-08-20T09:41:25Z</time>
      </trkpt>
      <trkpt lat="44.07163" lon="5.98424">
        <ele>497</ele>
        <time>2020-08-20T09:41:29Z</time>
      </trkpt>
      <trkpt lat="44.07167" lon="5.9843">
        <ele>497</ele>
        <time>2020-08-20T09:41:32Z</time>
      </trkpt>
      <trkpt lat="44.07182" lon="5.98446">
        <ele>500</ele>
        <time>2020-08-20T09:41:45Z</time>
      </trkpt>
      <trkpt lat="44.07187" lon="5.9845">
        <ele>500</ele>
        <time>2020-08-20T09:41:48Z</time>
      </trkpt>
      <trkpt lat="44.07192" lon="5.98458">
        <ele>498</ele>
        <time>2020-08-20T09:41:52Z</time>
      </trkpt>
      <trkpt lat="44.07202" lon="5.98471">
        <ele>500</ele>
        <time>2020-08-20T09:41:57Z</time>
      </trkpt>
      <trkpt lat="44.07211" lon="5.98484">
        <ele>500</ele>
        <time>2020-08-20T09:42:02Z</time>
      </trkpt>
      <trkpt lat="44.07215" lon="5.9849">
        <ele>501</ele>
        <time>2020-08-20T09:42:04Z</time>
      </trkpt>
      <trkpt lat="44.07233" lon="5.98519">
        <ele>500</ele>
        <time>2020-08-20T09:42:13Z</time>
      </trkpt>
      <trkpt lat="44.07244" lon="5.98536">
        <ele>501</ele>
        <time>2020-08-20T09:42:16Z</time>
      </trkpt>
      <trkpt lat="44.0725" lon="5.98545">
        <ele>501</ele>
        <time>2020-08-20T09:42:18Z</time>
      </trkpt>
      <trkpt lat="44.07268" lon="5.98548">
        <ele>505</ele>
        <time>2020-08-20T09:42:34Z</time>
      </trkpt>
      <trkpt lat="44.07274" lon="5.98548">
        <ele>504</ele>
        <time>2020-08-20T09:42:39Z</time>
      </trkpt>
      <trkpt lat="44.07281" lon="5.98552">
        <ele>504</ele>
        <time>2020-08-20T09:42:42Z</time>
      </trkpt>
      <trkpt lat="44.07287" lon="5.98555">
        <ele>504</ele>
        <time>2020-08-20T09:42:44Z</time>
      </trkpt>
      <trkpt lat="44.07298" lon="5.98568">
        <ele>502</ele>
        <time>2020-08-20T09:42:48Z</time>
      </trkpt>
      <trkpt lat="44.07303" lon="5.98573">
        <ele>503</ele>
        <time>2020-08-20T09:42:50Z</time>
      </trkpt>
      <trkpt lat="44.07316" lon="5.98583">
        <ele>504</ele>
        <time>2020-08-20T09:42:54Z</time>
      </trkpt>
      <trkpt lat="44.07325" lon="5.98588">
        <ele>504</ele>
        <time>2020-08-20T09:42:58Z</time>
      </trkpt>
      <trkpt lat="44.07331" lon="5.98592">
        <ele>505</ele>
        <time>2020-08-20T09:43:00Z</time>
      </trkpt>
      <trkpt lat="44.07336" lon="5.98596">
        <ele>504</ele>
        <time>2020-08-20T09:43:02Z</time>
      </trkpt>
      <trkpt lat="44.07343" lon="5.98603">
        <ele>504</ele>
        <time>2020-08-20T09:43:05Z</time>
      </trkpt>
      <trkpt lat="44.07352" lon="5.98612">
        <ele>504</ele>
        <time>2020-08-20T09:43:07Z</time>
      </trkpt>
      <trkpt lat="44.07358" lon="5.98617">
        <ele>503</ele>
        <time>2020-08-20T09:43:08Z</time>
      </trkpt>
      <trkpt lat="44.07367" lon="5.9862">
        <ele>502</ele>
        <time>2020-08-20T09:43:10Z</time>
      </trkpt>
      <trkpt lat="44.07371" lon="5.98627">
        <ele>502</ele>
        <time>2020-08-20T09:43:13Z</time>
      </trkpt>
      <trkpt lat="44.0738" lon="5.98644">
        <ele>503</ele>
        <time>2020-08-20T09:43:18Z</time>
      </trkpt>
      <trkpt lat="44.07383" lon="5.98657">
        <ele>504</ele>
        <time>2020-08-20T09:43:24Z</time>
      </trkpt>
      <trkpt lat="44.07398" lon="5.98683">
        <ele>499</ele>
        <time>2020-08-20T09:43:35Z</time>
      </trkpt>
      <trkpt lat="44.0741" lon="5.98715">
        <ele>500</ele>
        <time>2020-08-20T09:43:42Z</time>
      </trkpt>
      <trkpt lat="44.07417" lon="5.98736">
        <ele>503</ele>
        <time>2020-08-20T09:43:47Z</time>
      </trkpt>
      <trkpt lat="44.07437" lon="5.98768">
        <ele>501</ele>
        <time>2020-08-20T09:43:55Z</time>
      </trkpt>
      <trkpt lat="44.07444" lon="5.9878">
        <ele>502</ele>
        <time>2020-08-20T09:43:57Z</time>
      </trkpt>
      <trkpt lat="44.07457" lon="5.98794">
        <ele>505</ele>
        <time>2020-08-20T09:44:04Z</time>
      </trkpt>
      <trkpt lat="44.07465" lon="5.98799">
        <ele>505</ele>
        <time>2020-08-20T09:44:08Z</time>
      </trkpt>
      <trkpt lat="44.07475" lon="5.98813">
        <ele>502</ele>
        <time>2020-08-20T09:44:13Z</time>
      </trkpt>
      <trkpt lat="44.07484" lon="5.98823">
        <ele>502</ele>
        <time>2020-08-20T09:44:17Z</time>
      </trkpt>
      <trkpt lat="44.07492" lon="5.98833">
        <ele>505</ele>
        <time>2020-08-20T09:44:22Z</time>
      </trkpt>
      <trkpt lat="44.07499" lon="5.98837">
        <ele>505</ele>
        <time>2020-08-20T09:44:25Z</time>
      </trkpt>
      <trkpt lat="44.07507" lon="5.98842">
        <ele>506</ele>
        <time>2020-08-20T09:44:32Z</time>
      </trkpt>
      <trkpt lat="44.07514" lon="5.98847">
        <ele>506</ele>
        <time>2020-08-20T09:44:37Z</time>
      </trkpt>
      <trkpt lat="44.07527" lon="5.98856">
        <ele>509</ele>
        <time>2020-08-20T09:44:46Z</time>
      </trkpt>
      <trkpt lat="44.07533" lon="5.98854">
        <ele>510</ele>
        <time>2020-08-20T09:44:49Z</time>
      </trkpt>
      <trkpt lat="44.0754" lon="5.98858">
        <ele>511</ele>
        <time>2020-08-20T09:44:53Z</time>
      </trkpt>
      <trkpt lat="44.07546" lon="5.98867">
        <ele>509</ele>
        <time>2020-08-20T09:44:55Z</time>
      </trkpt>
      <trkpt lat="44.07552" lon="5.9888">
        <ele>509</ele>
        <time>2020-08-20T09:44:57Z</time>
      </trkpt>
      <trkpt lat="44.07556" lon="5.98887">
        <ele>509</ele>
        <time>2020-08-20T09:44:58Z</time>
      </trkpt>
      <trkpt lat="44.07562" lon="5.98898">
        <ele>510</ele>
        <time>2020-08-20T09:45:00Z</time>
      </trkpt>
      <trkpt lat="44.07566" lon="5.98904">
        <ele>510</ele>
        <time>2020-08-20T09:45:01Z</time>
      </trkpt>
      <trkpt lat="44.07585" lon="5.98923">
        <ele>508</ele>
        <time>2020-08-20T09:45:07Z</time>
      </trkpt>
      <trkpt lat="44.07592" lon="5.9893">
        <ele>508</ele>
        <time>2020-08-20T09:45:09Z</time>
      </trkpt>
      <trkpt lat="44.07615" lon="5.98941">
        <ele>511</ele>
        <time>2020-08-20T09:45:23Z</time>
      </trkpt>
      <trkpt lat="44.07626" lon="5.98965">
        <ele>511</ele>
        <time>2020-08-20T09:45:31Z</time>
      </trkpt>
      <trkpt lat="44.07633" lon="5.98978">
        <ele>512</ele>
        <time>2020-08-20T09:45:35Z</time>
      </trkpt>
      <trkpt lat="44.07647" lon="5.98979">
        <ele>511</ele>
        <time>2020-08-20T09:45:40Z</time>
      </trkpt>
      <trkpt lat="44.07679" lon="5.98982">
        <ele>510</ele>
        <time>2020-08-20T09:45:46Z</time>
      </trkpt>
      <trkpt lat="44.07687" lon="5.98985">
        <ele>511</ele>
        <time>2020-08-20T09:45:49Z</time>
      </trkpt>
      <trkpt lat="44.07694" lon="5.98995">
        <ele>512</ele>
        <time>2020-08-20T09:45:52Z</time>
      </trkpt>
      <trkpt lat="44.077" lon="5.98999">
        <ele>512</ele>
        <time>2020-08-20T09:45:55Z</time>
      </trkpt>
      <trkpt lat="44.07706" lon="5.99006">
        <ele>513</ele>
        <time>2020-08-20T09:45:58Z</time>
      </trkpt>
      <trkpt lat="44.07733" lon="5.99036">
        <ele>514</ele>
        <time>2020-08-20T09:46:10Z</time>
      </trkpt>
      <trkpt lat="44.07739" lon="5.99042">
        <ele>514</ele>
        <time>2020-08-20T09:46:14Z</time>
      </trkpt>
      <trkpt lat="44.07749" lon="5.9905">
        <ele>514</ele>
        <time>2020-08-20T09:46:18Z</time>
      </trkpt>
      <trkpt lat="44.07758" lon="5.99061">
        <ele>513</ele>
        <time>2020-08-20T09:46:20Z</time>
      </trkpt>
      <trkpt lat="44.07771" lon="5.99084">
        <ele>511</ele>
        <time>2020-08-20T09:46:23Z</time>
      </trkpt>
      <trkpt lat="44.0785" lon="5.99162">
        <ele>513</ele>
        <time>2020-08-20T09:46:35Z</time>
      </trkpt>
      <trkpt lat="44.07895" lon="5.99207">
        <ele>510</ele>
        <time>2020-08-20T09:46:46Z</time>
      </trkpt>
      <trkpt lat="44.07901" lon="5.99211">
        <ele>510</ele>
        <time>2020-08-20T09:46:49Z</time>
      </trkpt>
      <trkpt lat="44.07907" lon="5.99204">
        <ele>510</ele>
        <time>2020-08-20T09:46:50Z</time>
      </trkpt>
      <trkpt lat="44.07914" lon="5.99201">
        <ele>511</ele>
        <time>2020-08-20T09:46:52Z</time>
      </trkpt>
      <trkpt lat="44.07923" lon="5.99186">
        <ele>510</ele>
        <time>2020-08-20T09:46:56Z</time>
      </trkpt>
      <trkpt lat="44.07928" lon="5.99177">
        <ele>510</ele>
        <time>2020-08-20T09:46:58Z</time>
      </trkpt>
      <trkpt lat="44.07938" lon="5.99176">
        <ele>510</ele>
        <time>2020-08-20T09:47:00Z</time>
      </trkpt>
      <trkpt lat="44.07954" lon="5.99179">
        <ele>509</ele>
        <time>2020-08-20T09:47:03Z</time>
      </trkpt>
      <trkpt lat="44.07963" lon="5.99166">
        <ele>507</ele>
        <time>2020-08-20T09:47:05Z</time>
      </trkpt>
      <trkpt lat="44.0797" lon="5.99159">
        <ele>506</ele>
        <time>2020-08-20T09:47:07Z</time>
      </trkpt>
      <trkpt lat="44.0798" lon="5.99162">
        <ele>499</ele>
        <time>2020-08-20T09:47:12Z</time>
      </trkpt>
      <trkpt lat="44.07989" lon="5.99157">
        <ele>499</ele>
        <time>2020-08-20T09:47:14Z</time>
      </trkpt>
      <trkpt lat="44.07996" lon="5.99166">
        <ele>499</ele>
        <time>2020-08-20T09:47:16Z</time>
      </trkpt>
      <trkpt lat="44.08001" lon="5.99177">
        <ele>496</ele>
        <time>2020-08-20T09:47:19Z</time>
      </trkpt>
      <trkpt lat="44.08023" lon="5.99182">
        <ele>494</ele>
        <time>2020-08-20T09:47:23Z</time>
      </trkpt>
      <trkpt lat="44.0803" lon="5.99184">
        <ele>493</ele>
        <time>2020-08-20T09:47:24Z</time>
      </trkpt>
      <trkpt lat="44.08038" lon="5.9919">
        <ele>493</ele>
        <time>2020-08-20T09:47:25Z</time>
      </trkpt>
      <trkpt lat="44.08053" lon="5.99208">
        <ele>488</ele>
        <time>2020-08-20T09:47:30Z</time>
      </trkpt>
      <trkpt lat="44.08062" lon="5.99218">
        <ele>487</ele>
        <time>2020-08-20T09:47:32Z</time>
      </trkpt>
      <trkpt lat="44.08072" lon="5.99235">
        <ele>486</ele>
        <time>2020-08-20T09:47:34Z</time>
      </trkpt>
      <trkpt lat="44.08071" lon="5.99255">
        <ele>485</ele>
        <time>2020-08-20T09:47:38Z</time>
      </trkpt>
      <trkpt lat="44.08073" lon="5.99235">
        <ele>482</ele>
      </trkpt>
      <trkpt lat="44.08073" lon="5.99235">
        <ele>482</ele>
      </trkpt>
      <trkpt lat="44.08059" lon="5.99252">
        <ele>482</ele>
      </trkpt>
      <trkpt lat="44.08064" lon="5.99262">
        <ele>483</ele>
      </trkpt>
      <trkpt lat="44.08076" lon="5.99264">
        <ele>477</ele>
      </trkpt>
      <trkpt lat="44.08194" lon="5.99245">
        <ele>480</ele>
      </trkpt>
      <trkpt lat="44.08203" lon="5.99248">
        <ele>481</ele>
      </trkpt>
      <trkpt lat="44.08212" lon="5.99248">
        <ele>483</ele>
      </trkpt>
      <trkpt lat="44.08234" lon="5.99238">
        <ele>488</ele>
      </trkpt>
      <trkpt lat="44.08263" lon="5.99236">
        <ele>488</ele>
      </trkpt>
      <trkpt lat="44.08272" lon="5.99238">
        <ele>490</ele>
      </trkpt>
      <trkpt lat="44.08296" lon="5.99233">
        <ele>491</ele>
      </trkpt>
      <trkpt lat="44.08359" lon="5.99258">
        <ele>496</ele>
      </trkpt>
      <trkpt lat="44.08389" lon="5.99282">
        <ele>501</ele>
      </trkpt>
      <trkpt lat="44.08478" lon="5.99314">
        <ele>515</ele>
      </trkpt>
      <trkpt lat="44.08531" lon="5.99335">
        <ele>519</ele>
      </trkpt>
      <trkpt lat="44.0858" lon="5.99342">
        <ele>526</ele>
      </trkpt>
      <trkpt lat="44.08583" lon="5.99352">
        <ele>525</ele>
      </trkpt>
      <trkpt lat="44.08529" lon="5.99377">
        <ele>531</ele>
      </trkpt>
      <trkpt lat="44.08497" lon="5.994">
        <ele>525</ele>
      </trkpt>
      <trkpt lat="44.0849" lon="5.99408">
        <ele>526</ele>
      </trkpt>
      <trkpt lat="44.08484" lon="5.99421">
        <ele>528</ele>
      </trkpt>
      <trkpt lat="44.08479" lon="5.99429">
        <ele>528</ele>
      </trkpt>
      <trkpt lat="44.08488" lon="5.99438">
        <ele>533</ele>
      </trkpt>
      <trkpt lat="44.08495" lon="5.99437">
        <ele>536</ele>
      </trkpt>
      <trkpt lat="44.08564" lon="5.99408">
        <ele>541</ele>
      </trkpt>
      <trkpt lat="44.08601" lon="5.99415">
        <ele>548</ele>
      </trkpt>
      <trkpt lat="44.0861" lon="5.99414">
        <ele>549</ele>
      </trkpt>
      <trkpt lat="44.08622" lon="5.99413">
        <ele>549</ele>
      </trkpt>
      <trkpt lat="44.08632" lon="5.99418">
        <ele>548</ele>
      </trkpt>
      <trkpt lat="44.08642" lon="5.99424">
        <ele>549</ele>
      </trkpt>
      <trkpt lat="44.08656" lon="5.99424">
        <ele>548</ele>
      </trkpt>
      <trkpt lat="44.08668" lon="5.9942">
        <ele>547</ele>
      </trkpt>
      <trkpt lat="44.08679" lon="5.99421">
        <ele>546</ele>
      </trkpt>
      <trkpt lat="44.087" lon="5.99424">
        <ele>549</ele>
      </trkpt>
      <trkpt lat="44.08712" lon="5.9942">
        <ele>550</ele>
      </trkpt>
      <trkpt lat="44.08723" lon="5.99422">
        <ele>550</ele>
      </trkpt>
      <trkpt lat="44.08741" lon="5.99429">
        <ele>549</ele>
      </trkpt>
      <trkpt lat="44.08768" lon="5.99423">
        <ele>549</ele>
      </trkpt>
      <trkpt lat="44.08788" lon="5.9941">
        <ele>549</ele>
      </trkpt>
      <trkpt lat="44.08837" lon="5.99404">
        <ele>551</ele>
      </trkpt>
      <trkpt lat="44.08838" lon="5.9939">
        <ele>554</ele>
      </trkpt>
      <trkpt lat="44.08831" lon="5.99372">
        <ele>553</ele>
      </trkpt>
      <trkpt lat="44.08865" lon="5.99351">
        <ele>551</ele>
      </trkpt>
      <trkpt lat="44.08874" lon="5.99351">
        <ele>552</ele>
      </trkpt>
      <trkpt lat="44.08881" lon="5.99352">
        <ele>552</ele>
      </trkpt>
      <trkpt lat="44.08889" lon="5.99353">
        <ele>551</ele>
      </trkpt>
      <trkpt lat="44.08916" lon="5.99359">
        <ele>556</ele>
      </trkpt>
      <trkpt lat="44.08937" lon="5.99364">
        <ele>543</ele>
      </trkpt>
      <trkpt lat="44.08958" lon="5.99369">
        <ele>549</ele>
      </trkpt>
      <trkpt lat="44.08973" lon="5.99366">
        <ele>550</ele>
      </trkpt>
      <trkpt lat="44.08999" lon="5.99373">
        <ele>549</ele>
      </trkpt>
      <trkpt lat="44.09007" lon="5.99363">
        <ele>550</ele>
      </trkpt>
      <trkpt lat="44.09025" lon="5.99361">
        <ele>551</ele>
      </trkpt>
      <trkpt lat="44.09034" lon="5.99372">
        <ele>552</ele>
      </trkpt>
      <trkpt lat="44.09039" lon="5.99385">
        <ele>551</ele>
      </trkpt>
      <trkpt lat="44.09034" lon="5.99396">
        <ele>554</ele>
      </trkpt>
      <trkpt lat="44.08927" lon="5.99405">
        <ele>561</ele>
      </trkpt>
      <trkpt lat="44.08907" lon="5.99405">
        <ele>557</ele>
      </trkpt>
      <trkpt lat="44.08903" lon="5.99416">
        <ele>556</ele>
      </trkpt>
      <trkpt lat="44.08909" lon="5.99422">
        <ele>558</ele>
      </trkpt>
      <trkpt lat="44.08944" lon="5.99426">
        <ele>562</ele>
      </trkpt>
      <trkpt lat="44.08983" lon="5.99441">
        <ele>568</ele>
      </trkpt>
      <trkpt lat="44.09003" lon="5.99456">
        <ele>571</ele>
      </trkpt>
      <trkpt lat="44.09025" lon="5.99458">
        <ele>573</ele>
      </trkpt>
      <trkpt lat="44.09033" lon="5.99455">
        <ele>574</ele>
      </trkpt>
      <trkpt lat="44.09046" lon="5.99457">
        <ele>574</ele>
      </trkpt>
      <trkpt lat="44.09079" lon="5.99477">
        <ele>577</ele>
      </trkpt>
      <trkpt lat="44.09086" lon="5.99512">
        <ele>580</ele>
      </trkpt>
      <trkpt lat="44.09099" lon="5.99544">
        <ele>580</ele>
      </trkpt>
      <trkpt lat="44.09107" lon="5.99556">
        <ele>584</ele>
      </trkpt>
      <trkpt lat="44.09143" lon="5.99587">
        <ele>581</ele>
      </trkpt>
      <trkpt lat="44.09154" lon="5.99587">
        <ele>580</ele>
      </trkpt>
      <trkpt lat="44.09174" lon="5.99582">
        <ele>573</ele>
      </trkpt>
      <trkpt lat="44.0919" lon="5.99588">
        <ele>571</ele>
      </trkpt>
      <trkpt lat="44.09203" lon="5.99587">
        <ele>567</ele>
      </trkpt>
      <trkpt lat="44.09216" lon="5.99627">
        <ele>567</ele>
      </trkpt>
      <trkpt lat="44.09226" lon="5.99631">
        <ele>566</ele>
      </trkpt>
      <trkpt lat="44.09247" lon="5.99652">
        <ele>562</ele>
      </trkpt>
      <trkpt lat="44.09259" lon="5.99657">
        <ele>561</ele>
      </trkpt>
      <trkpt lat="44.09268" lon="5.99664">
        <ele>559</ele>
      </trkpt>
      <trkpt lat="44.09269" lon="5.99679">
        <ele>558</ele>
      </trkpt>
      <trkpt lat="44.09278" lon="5.99691">
        <ele>558</ele>
      </trkpt>
      <trkpt lat="44.09302" lon="5.99705">
        <ele>558</ele>
      </trkpt>
      <trkpt lat="44.09307" lon="5.99714">
        <ele>556</ele>
      </trkpt>
      <trkpt lat="44.09305" lon="5.99726">
        <ele>555</ele>
      </trkpt>
      <trkpt lat="44.09313" lon="5.99733">
        <ele>557</ele>
      </trkpt>
      <trkpt lat="44.09323" lon="5.99728">
        <ele>556</ele>
      </trkpt>
      <trkpt lat="44.0933" lon="5.99729">
        <ele>552</ele>
      </trkpt>
      <trkpt lat="44.09329" lon="5.9974">
        <ele>553</ele>
      </trkpt>
      <trkpt lat="44.09342" lon="5.99743">
        <ele>551</ele>
      </trkpt>
      <trkpt lat="44.09351" lon="5.99755">
        <ele>550</ele>
      </trkpt>
      <trkpt lat="44.09369" lon="5.99787">
        <ele>542</ele>
      </trkpt>
      <trkpt lat="44.09377" lon="5.99815">
        <ele>533</ele>
      </trkpt>
      <trkpt lat="44.09397" lon="5.99836">
        <ele>533</ele>
      </trkpt>
      <trkpt lat="44.09406" lon="5.99853">
        <ele>532</ele>
      </trkpt>
      <trkpt lat="44.0941" lon="5.999">
        <ele>529</ele>
      </trkpt>
      <trkpt lat="44.09417" lon="5.99916">
        <ele>528</ele>
      </trkpt>
      <trkpt lat="44.09477" lon="5.99942">
        <ele>523</ele>
      </trkpt>
      <trkpt lat="44.09508" lon="5.99965">
        <ele>520</ele>
      </trkpt>
      <trkpt lat="44.09515" lon="5.99962">
        <ele>520</ele>
      </trkpt>
      <trkpt lat="44.09515" lon="6.00162">
        <ele>502</ele>
      </trkpt>
      <trkpt lat="44.09525" lon="6.00239">
        <ele>499</ele>
      </trkpt>
      <trkpt lat="44.09531" lon="6.00256">
        <ele>498</ele>
      </trkpt>
      <trkpt lat="44.09618" lon="6.00363">
        <ele>492</ele>
      </trkpt>
      <trkpt lat="44.09654" lon="6.00476">
        <ele>488</ele>
      </trkpt>
      <trkpt lat="44.09668" lon="6.00483">
        <ele>488</ele>
      </trkpt>
      <trkpt lat="44.09719" lon="6.00446">
        <ele>489</ele>
      </trkpt>
      <trkpt lat="44.09743" lon="6.00418">
        <ele>487</ele>
      </trkpt>
      <trkpt lat="44.09751" lon="6.00415">
        <ele>488</ele>
      </trkpt>
      <trkpt lat="44.09806" lon="6.00571">
        <ele>490</ele>
      </trkpt>
      <trkpt lat="44.0987" lon="6.00688">
        <ele>485</ele>
      </trkpt>
      <trkpt lat="44.0987" lon="6.007">
        <ele>485</ele>
      </trkpt>
      <trkpt lat="44.0981" lon="6.00755">
        <ele>485</ele>
      </trkpt>
      <trkpt lat="44.09696" lon="6.00809">
        <ele>486</ele>
      </trkpt>
      <trkpt lat="44.09667" lon="6.00804">
        <ele>484</ele>
      </trkpt>
      <trkpt lat="44.09617" lon="6.00825">
        <ele>485</ele>
      </trkpt>
      <trkpt lat="44.09677" lon="6.0083">
        <ele>476</ele>
      </trkpt>
      <trkpt lat="44.09683" lon="6.00838">
        <ele>478</ele>
      </trkpt>
      <trkpt lat="44.09699" lon="6.00845">
        <ele>481</ele>
      </trkpt>
      <trkpt lat="44.0975" lon="6.00841">
        <ele>479</ele>
      </trkpt>
      <trkpt lat="44.09771" lon="6.00829">
        <ele>477</ele>
      </trkpt>
      <trkpt lat="44.09799" lon="6.00839">
        <ele>477</ele>
      </trkpt>
      <trkpt lat="44.09823" lon="6.00833">
        <ele>460</ele>
      </trkpt>
      <trkpt lat="44.09844" lon="6.00844">
        <ele>456</ele>
      </trkpt>
      <trkpt lat="44.09861" lon="6.00857">
        <ele>455</ele>
      </trkpt>
      <trkpt lat="44.09872" lon="6.00875">
        <ele>453</ele>
      </trkpt>
      <trkpt lat="44.09875" lon="6.00889">
        <ele>451</ele>
      </trkpt>
      <trkpt lat="44.09877" lon="6.00931">
        <ele>450</ele>
      </trkpt>
      <trkpt lat="44.09874" lon="6.00951">
        <ele>447</ele>
      </trkpt>
      <trkpt lat="44.09858" lon="6.00989">
        <ele>446</ele>
      </trkpt>
      <trkpt lat="44.09858" lon="6.01004">
        <ele>446</ele>
      </trkpt>
      <trkpt lat="44.09861" lon="6.01018">
        <ele>444</ele>
      </trkpt>
      <trkpt lat="44.09868" lon="6.01023">
        <ele>446</ele>
      </trkpt>
      <trkpt lat="44.09916" lon="6.01012">
        <ele>446</ele>
      </trkpt>
      <trkpt lat="44.09931" lon="6.01018">
        <ele>445</ele>
      </trkpt>
      <trkpt lat="44.09935" lon="6.01007">
        <ele>446</ele>
      </trkpt>
      <trkpt lat="44.09944" lon="6.01">
        <ele>447</ele>
      </trkpt>
      <trkpt lat="44.10081" lon="6.00919">
        <ele>448</ele>
      </trkpt>
      <trkpt lat="44.10146" lon="6.00873">
        <ele>446</ele>
      </trkpt>
      <trkpt lat="44.10154" lon="6.00875">
        <ele>446</ele>
      </trkpt>
      <trkpt lat="44.10159" lon="6.00886">
        <ele>446</ele>
      </trkpt>
      <trkpt lat="44.10158" lon="6.00904">
        <ele>449</ele>
      </trkpt>
      <trkpt lat="44.10168" lon="6.00934">
        <ele>449</ele>
      </trkpt>
      <trkpt lat="44.1017" lon="6.00948">
        <ele>449</ele>
      </trkpt>
      <trkpt lat="44.10167" lon="6.00961">
        <ele>449</ele>
      </trkpt>
      <trkpt lat="44.10155" lon="6.00974">
        <ele>449</ele>
      </trkpt>
      <trkpt lat="44.10057" lon="6.01064">
        <ele>442</ele>
      </trkpt>
      <trkpt lat="44.10052" lon="6.01071">
        <ele>441</ele>
      </trkpt>
      <trkpt lat="44.1005" lon="6.01082">
        <ele>442</ele>
      </trkpt>
      <trkpt lat="44.10068" lon="6.01121">
        <ele>447</ele>
      </trkpt>
      <trkpt lat="44.10076" lon="6.0113">
        <ele>448</ele>
      </trkpt>
      <trkpt lat="44.10089" lon="6.01135">
        <ele>449</ele>
      </trkpt>
      <trkpt lat="44.10104" lon="6.01133">
        <ele>450</ele>
      </trkpt>
      <trkpt lat="44.10136" lon="6.01108">
        <ele>451</ele>
      </trkpt>
      <trkpt lat="44.10209" lon="6.01036">
        <ele>450</ele>
      </trkpt>
      <trkpt lat="44.10287" lon="6.00993">
        <ele>450</ele>
      </trkpt>
      <trkpt lat="44.10294" lon="6.00989">
        <ele>447</ele>
      </trkpt>
      <trkpt lat="44.10334" lon="6.00903">
        <ele>441</ele>
      </trkpt>
      <trkpt lat="44.10341" lon="6.00892">
        <ele>440</ele>
      </trkpt>
      <trkpt lat="44.10434" lon="6.008">
        <ele>441</ele>
      </trkpt>
      <trkpt lat="44.10512" lon="6.00761">
        <ele>444</ele>
      </trkpt>
      <trkpt lat="44.10731" lon="6.00655">
        <ele>440</ele>
      </trkpt>
      <trkpt lat="44.10749" lon="6.00646">
        <ele>443</ele>
      </trkpt>
      <trkpt lat="44.10769" lon="6.00633">
        <ele>443</ele>
      </trkpt>
      <trkpt lat="44.10855" lon="6.00782">
        <ele>444</ele>
      </trkpt>
      <trkpt lat="44.10962" lon="6.00971">
        <ele>441</ele>
      </trkpt>
      <trkpt lat="44.10967" lon="6.00981">
        <ele>442</ele>
      </trkpt>
      <trkpt lat="44.10965" lon="6.00993">
        <ele>442</ele>
      </trkpt>
      <trkpt lat="44.10954" lon="6.0101">
        <ele>441</ele>
      </trkpt>
      <trkpt lat="44.1092" lon="6.01033">
        <ele>439</ele>
      </trkpt>
      <trkpt lat="44.10904" lon="6.01038">
        <ele>438</ele>
      </trkpt>
      <trkpt lat="44.10894" lon="6.01037">
        <ele>438</ele>
      </trkpt>
      <trkpt lat="44.10885" lon="6.01029">
        <ele>438</ele>
      </trkpt>
      <trkpt lat="44.10866" lon="6.00996">
        <ele>438</ele>
      </trkpt>
      <trkpt lat="44.10851" lon="6.0099">
        <ele>438</ele>
      </trkpt>
      <trkpt lat="44.10838" lon="6.00991">
        <ele>437</ele>
      </trkpt>
      <trkpt lat="44.10828" lon="6.00996">
        <ele>437</ele>
      </trkpt>
      <trkpt lat="44.10814" lon="6.01014">
        <ele>439</ele>
      </trkpt>
      <trkpt lat="44.1079" lon="6.01062">
        <ele>438</ele>
      </trkpt>
      <trkpt lat="44.10777" lon="6.01079">
        <ele>437</ele>
      </trkpt>
      <trkpt lat="44.10767" lon="6.01112">
        <ele>438</ele>
      </trkpt>
      <trkpt lat="44.10769" lon="6.01125">
        <ele>438</ele>
      </trkpt>
      <trkpt lat="44.10758" lon="6.01134">
        <ele>440</ele>
      </trkpt>
      <trkpt lat="44.10745" lon="6.01144">
        <ele>441</ele>
      </trkpt>
      <trkpt lat="44.10618" lon="6.01222">
        <ele>438</ele>
      </trkpt>
      <trkpt lat="44.10611" lon="6.0123">
        <ele>438</ele>
      </trkpt>
      <trkpt lat="44.10612" lon="6.01264">
        <ele>436</ele>
      </trkpt>
      <trkpt lat="44.1061" lon="6.01274">
        <ele>436</ele>
      </trkpt>
      <trkpt lat="44.10582" lon="6.01279">
        <ele>432</ele>
      </trkpt>
      <trkpt lat="44.10546" lon="6.01297">
        <ele>431</ele>
      </trkpt>
    </trkseg>
  </trk>
</gpx>